<?xml version="1.0" encoding="UTF-8" standalone="no" ?>
<gpx xmlns="http://www.topografix.com/GPX/1/1" xmlns:xsi="http://www.w3.org/2001/XMLSchema-instance" xsi:schemaLocation="http://www.topografix.com/GPX/1/1 http://www.topografix.com/GPX/1/1/gpx.xsd" version="1.1" creator="VisuGPX - https://www.visugpx.com">
  <metadata>
    <name>A/R Charbonnière</name>
  </metadata>
  <trk>
    <name><![CDATA[2023 07 26 A/R Charbonnière]]></name>
    <trkseg>
      <trkpt lat="45.83336" lon="4.7088">
        <ele>356.61633</ele>
        <time>2023-07-26T13:23:17.000Z</time>
      </trkpt>
      <trkpt lat="45.83335" lon="4.70876">
        <ele>356.23413</ele>
        <time>2023-07-26T13:23:32.000Z</time>
      </trkpt>
      <trkpt lat="45.83334" lon="4.70873">
        <ele>356.1351</ele>
        <time>2023-07-26T13:23:33.000Z</time>
      </trkpt>
      <trkpt lat="45.83334" lon="4.7087">
        <ele>356.12842</ele>
        <time>2023-07-26T13:23:34.000Z</time>
      </trkpt>
      <trkpt lat="45.83334" lon="4.70866">
        <ele>356.05298</ele>
        <time>2023-07-26T13:23:35.000Z</time>
      </trkpt>
      <trkpt lat="45.83334" lon="4.70861">
        <ele>356.01221</ele>
        <time>2023-07-26T13:23:36.000Z</time>
      </trkpt>
      <trkpt lat="45.83335" lon="4.70857">
        <ele>355.98196</ele>
        <time>2023-07-26T13:23:37.000Z</time>
      </trkpt>
      <trkpt lat="45.83336" lon="4.70852">
        <ele>355.93655</ele>
        <time>2023-07-26T13:23:38.000Z</time>
      </trkpt>
      <trkpt lat="45.83336" lon="4.70847">
        <ele>355.90393</ele>
        <time>2023-07-26T13:23:39.000Z</time>
      </trkpt>
      <trkpt lat="45.83337" lon="4.70841">
        <ele>355.87347</ele>
        <time>2023-07-26T13:23:40.000Z</time>
      </trkpt>
      <trkpt lat="45.83337" lon="4.70836">
        <ele>355.89236</ele>
        <time>2023-07-26T13:23:41.000Z</time>
      </trkpt>
      <trkpt lat="45.83337" lon="4.70831">
        <ele>355.94388</ele>
        <time>2023-07-26T13:23:42.000Z</time>
      </trkpt>
      <trkpt lat="45.83338" lon="4.70826">
        <ele>356.01028</ele>
        <time>2023-07-26T13:23:43.000Z</time>
      </trkpt>
      <trkpt lat="45.83339" lon="4.7082">
        <ele>356.05954</ele>
        <time>2023-07-26T13:23:44.000Z</time>
      </trkpt>
      <trkpt lat="45.83339" lon="4.70815">
        <ele>356.12799</ele>
        <time>2023-07-26T13:23:45.000Z</time>
      </trkpt>
      <trkpt lat="45.8334" lon="4.70809">
        <ele>356.17358</ele>
        <time>2023-07-26T13:23:46.000Z</time>
      </trkpt>
      <trkpt lat="45.83341" lon="4.70803">
        <ele>356.1864</ele>
        <time>2023-07-26T13:23:47.000Z</time>
      </trkpt>
      <trkpt lat="45.83342" lon="4.70796">
        <ele>356.18304</ele>
        <time>2023-07-26T13:23:48.000Z</time>
      </trkpt>
      <trkpt lat="45.83342" lon="4.7079">
        <ele>356.21103</ele>
        <time>2023-07-26T13:23:49.000Z</time>
      </trkpt>
      <trkpt lat="45.83342" lon="4.70785">
        <ele>356.25415</ele>
        <time>2023-07-26T13:23:50.000Z</time>
      </trkpt>
      <trkpt lat="45.83342" lon="4.70778">
        <ele>356.27802</ele>
        <time>2023-07-26T13:23:51.000Z</time>
      </trkpt>
      <trkpt lat="45.83342" lon="4.70771">
        <ele>356.33661</ele>
        <time>2023-07-26T13:23:52.000Z</time>
      </trkpt>
      <trkpt lat="45.83343" lon="4.70765">
        <ele>356.39764</ele>
        <time>2023-07-26T13:23:53.000Z</time>
      </trkpt>
      <trkpt lat="45.83343" lon="4.70758">
        <ele>356.46658</ele>
        <time>2023-07-26T13:23:54.000Z</time>
      </trkpt>
      <trkpt lat="45.83343" lon="4.70752">
        <ele>356.56345</ele>
        <time>2023-07-26T13:23:55.000Z</time>
      </trkpt>
      <trkpt lat="45.83344" lon="4.70745">
        <ele>356.65942</ele>
        <time>2023-07-26T13:23:56.000Z</time>
      </trkpt>
      <trkpt lat="45.83344" lon="4.70738">
        <ele>356.73285</ele>
        <time>2023-07-26T13:23:57.000Z</time>
      </trkpt>
      <trkpt lat="45.83344" lon="4.70731">
        <ele>356.81744</ele>
        <time>2023-07-26T13:23:58.000Z</time>
      </trkpt>
      <trkpt lat="45.83345" lon="4.70725">
        <ele>356.89542</ele>
        <time>2023-07-26T13:23:59.000Z</time>
      </trkpt>
      <trkpt lat="45.83346" lon="4.70718">
        <ele>356.96579</ele>
        <time>2023-07-26T13:24:00.000Z</time>
      </trkpt>
      <trkpt lat="45.83347" lon="4.70713">
        <ele>357.01334</ele>
        <time>2023-07-26T13:24:01.000Z</time>
      </trkpt>
      <trkpt lat="45.83348" lon="4.70706">
        <ele>357.0209</ele>
        <time>2023-07-26T13:24:02.000Z</time>
      </trkpt>
      <trkpt lat="45.83349" lon="4.707">
        <ele>357.00015</ele>
        <time>2023-07-26T13:24:03.000Z</time>
      </trkpt>
      <trkpt lat="45.83349" lon="4.70693">
        <ele>357.00519</ele>
        <time>2023-07-26T13:24:04.000Z</time>
      </trkpt>
      <trkpt lat="45.8335" lon="4.70686">
        <ele>357.00369</ele>
        <time>2023-07-26T13:24:05.000Z</time>
      </trkpt>
      <trkpt lat="45.8335" lon="4.70677">
        <ele>357.00946</ele>
        <time>2023-07-26T13:24:06.000Z</time>
      </trkpt>
      <trkpt lat="45.8335" lon="4.70669">
        <ele>357.04034</ele>
        <time>2023-07-26T13:24:07.000Z</time>
      </trkpt>
      <trkpt lat="45.83351" lon="4.70661">
        <ele>357.08609</ele>
        <time>2023-07-26T13:24:08.000Z</time>
      </trkpt>
      <trkpt lat="45.83352" lon="4.70652">
        <ele>357.10468</ele>
        <time>2023-07-26T13:24:09.000Z</time>
      </trkpt>
      <trkpt lat="45.83352" lon="4.70643">
        <ele>358.0213</ele>
        <time>2023-07-26T13:24:10.000Z</time>
      </trkpt>
      <trkpt lat="45.83352" lon="4.70634">
        <ele>357.93475</ele>
        <time>2023-07-26T13:24:11.000Z</time>
      </trkpt>
      <trkpt lat="45.83352" lon="4.70626">
        <ele>357.85638</ele>
        <time>2023-07-26T13:24:12.000Z</time>
      </trkpt>
      <trkpt lat="45.83351" lon="4.70619">
        <ele>357.74655</ele>
        <time>2023-07-26T13:24:13.000Z</time>
      </trkpt>
      <trkpt lat="45.83352" lon="4.70613">
        <ele>357.62833</ele>
        <time>2023-07-26T13:24:14.000Z</time>
      </trkpt>
      <trkpt lat="45.83354" lon="4.7061">
        <ele>357.46826</ele>
        <time>2023-07-26T13:24:15.000Z</time>
      </trkpt>
      <trkpt lat="45.83356" lon="4.70609">
        <ele>357.35809</ele>
        <time>2023-07-26T13:24:18.000Z</time>
      </trkpt>
      <trkpt lat="45.83357" lon="4.70607">
        <ele>357.26984</ele>
        <time>2023-07-26T13:25:38.000Z</time>
      </trkpt>
      <trkpt lat="45.8336" lon="4.70605">
        <ele>358.26318</ele>
        <time>2023-07-26T13:25:40.000Z</time>
      </trkpt>
      <trkpt lat="45.83363" lon="4.70604">
        <ele>359.28656</ele>
        <time>2023-07-26T13:25:41.000Z</time>
      </trkpt>
      <trkpt lat="45.83365" lon="4.70603">
        <ele>360.32465</ele>
        <time>2023-07-26T13:25:42.000Z</time>
      </trkpt>
      <trkpt lat="45.83368" lon="4.70603">
        <ele>361.35358</ele>
        <time>2023-07-26T13:25:43.000Z</time>
      </trkpt>
      <trkpt lat="45.83372" lon="4.70603">
        <ele>362.39658</ele>
        <time>2023-07-26T13:25:44.000Z</time>
      </trkpt>
      <trkpt lat="45.83375" lon="4.70604">
        <ele>363.46234</ele>
        <time>2023-07-26T13:25:45.000Z</time>
      </trkpt>
      <trkpt lat="45.83379" lon="4.70604">
        <ele>364.46338</ele>
        <time>2023-07-26T13:25:46.000Z</time>
      </trkpt>
      <trkpt lat="45.83383" lon="4.70605">
        <ele>365.45444</ele>
        <time>2023-07-26T13:25:47.000Z</time>
      </trkpt>
      <trkpt lat="45.83387" lon="4.70605">
        <ele>366.46393</ele>
        <time>2023-07-26T13:25:48.000Z</time>
      </trkpt>
      <trkpt lat="45.8339" lon="4.70606">
        <ele>367.4567</ele>
        <time>2023-07-26T13:25:49.000Z</time>
      </trkpt>
      <trkpt lat="45.83394" lon="4.70607">
        <ele>368.46207</ele>
        <time>2023-07-26T13:25:50.000Z</time>
      </trkpt>
      <trkpt lat="45.83398" lon="4.70607">
        <ele>369.43774</ele>
        <time>2023-07-26T13:25:51.000Z</time>
      </trkpt>
      <trkpt lat="45.83402" lon="4.70607">
        <ele>369.48187</ele>
        <time>2023-07-26T13:25:52.000Z</time>
      </trkpt>
      <trkpt lat="45.83407" lon="4.7061">
        <ele>370.53326</ele>
        <time>2023-07-26T13:25:53.000Z</time>
      </trkpt>
      <trkpt lat="45.83412" lon="4.70611">
        <ele>371.58505</ele>
        <time>2023-07-26T13:25:54.000Z</time>
      </trkpt>
      <trkpt lat="45.83417" lon="4.70612">
        <ele>372.65851</ele>
        <time>2023-07-26T13:25:55.000Z</time>
      </trkpt>
      <trkpt lat="45.83421" lon="4.70613">
        <ele>373.74246</ele>
        <time>2023-07-26T13:25:56.000Z</time>
      </trkpt>
      <trkpt lat="45.83426" lon="4.70614">
        <ele>374.83838</ele>
        <time>2023-07-26T13:25:57.000Z</time>
      </trkpt>
      <trkpt lat="45.83431" lon="4.70615">
        <ele>375.87384</ele>
        <time>2023-07-26T13:25:58.000Z</time>
      </trkpt>
      <trkpt lat="45.83437" lon="4.70615">
        <ele>377.27029</ele>
        <time>2023-07-26T13:25:59.000Z</time>
      </trkpt>
      <trkpt lat="45.83443" lon="4.70617">
        <ele>377.85913</ele>
        <time>2023-07-26T13:26:00.000Z</time>
      </trkpt>
      <trkpt lat="45.83447" lon="4.70614">
        <ele>377.67142</ele>
        <time>2023-07-26T13:26:01.000Z</time>
      </trkpt>
      <trkpt lat="45.83452" lon="4.70615">
        <ele>377.5549</ele>
        <time>2023-07-26T13:26:02.000Z</time>
      </trkpt>
      <trkpt lat="45.83457" lon="4.70615">
        <ele>377.4306</ele>
        <time>2023-07-26T13:26:03.000Z</time>
      </trkpt>
      <trkpt lat="45.83463" lon="4.70616">
        <ele>377.31003</ele>
        <time>2023-07-26T13:26:04.000Z</time>
      </trkpt>
      <trkpt lat="45.83468" lon="4.70617">
        <ele>377.13654</ele>
        <time>2023-07-26T13:26:05.000Z</time>
      </trkpt>
      <trkpt lat="45.83474" lon="4.70617">
        <ele>376.98795</ele>
        <time>2023-07-26T13:26:06.000Z</time>
      </trkpt>
      <trkpt lat="45.8348" lon="4.70617">
        <ele>376.83008</ele>
        <time>2023-07-26T13:26:07.000Z</time>
      </trkpt>
      <trkpt lat="45.83487" lon="4.70617">
        <ele>376.63922</ele>
        <time>2023-07-26T13:26:08.000Z</time>
      </trkpt>
      <trkpt lat="45.83493" lon="4.70616">
        <ele>376.4523</ele>
        <time>2023-07-26T13:26:09.000Z</time>
      </trkpt>
      <trkpt lat="45.835" lon="4.70616">
        <ele>376.24637</ele>
        <time>2023-07-26T13:26:10.000Z</time>
      </trkpt>
      <trkpt lat="45.83506" lon="4.70615">
        <ele>376.05695</ele>
        <time>2023-07-26T13:26:11.000Z</time>
      </trkpt>
      <trkpt lat="45.83513" lon="4.70614">
        <ele>375.85699</ele>
        <time>2023-07-26T13:26:12.000Z</time>
      </trkpt>
      <trkpt lat="45.83519" lon="4.70612">
        <ele>375.64758</ele>
        <time>2023-07-26T13:26:13.000Z</time>
      </trkpt>
      <trkpt lat="45.83526" lon="4.70612">
        <ele>375.42654</ele>
        <time>2023-07-26T13:26:14.000Z</time>
      </trkpt>
      <trkpt lat="45.83532" lon="4.70612">
        <ele>375.20844</ele>
        <time>2023-07-26T13:26:15.000Z</time>
      </trkpt>
      <trkpt lat="45.83539" lon="4.70612">
        <ele>374.99786</ele>
        <time>2023-07-26T13:26:16.000Z</time>
      </trkpt>
      <trkpt lat="45.83546" lon="4.70612">
        <ele>374.78378</ele>
        <time>2023-07-26T13:26:17.000Z</time>
      </trkpt>
      <trkpt lat="45.83552" lon="4.70611">
        <ele>374.56952</ele>
        <time>2023-07-26T13:26:18.000Z</time>
      </trkpt>
      <trkpt lat="45.83558" lon="4.70611">
        <ele>374.3815</ele>
        <time>2023-07-26T13:26:19.000Z</time>
      </trkpt>
      <trkpt lat="45.83564" lon="4.70611">
        <ele>374.18518</ele>
        <time>2023-07-26T13:26:20.000Z</time>
      </trkpt>
      <trkpt lat="45.8357" lon="4.70612">
        <ele>374.74026</ele>
        <time>2023-07-26T13:26:21.000Z</time>
      </trkpt>
      <trkpt lat="45.83576" lon="4.70614">
        <ele>375.20938</ele>
        <time>2023-07-26T13:26:22.000Z</time>
      </trkpt>
      <trkpt lat="45.83582" lon="4.70616">
        <ele>374.85168</ele>
        <time>2023-07-26T13:26:23.000Z</time>
      </trkpt>
      <trkpt lat="45.83586" lon="4.70616">
        <ele>374.61407</ele>
        <time>2023-07-26T13:26:24.000Z</time>
      </trkpt>
      <trkpt lat="45.83592" lon="4.70617">
        <ele>374.40881</ele>
        <time>2023-07-26T13:26:25.000Z</time>
      </trkpt>
      <trkpt lat="45.83597" lon="4.70619">
        <ele>374.23053</ele>
        <time>2023-07-26T13:26:26.000Z</time>
      </trkpt>
      <trkpt lat="45.83602" lon="4.70622">
        <ele>374.05551</ele>
        <time>2023-07-26T13:26:27.000Z</time>
      </trkpt>
      <trkpt lat="45.83607" lon="4.70624">
        <ele>373.88522</ele>
        <time>2023-07-26T13:26:28.000Z</time>
      </trkpt>
      <trkpt lat="45.83611" lon="4.70627">
        <ele>373.73395</ele>
        <time>2023-07-26T13:26:29.000Z</time>
      </trkpt>
      <trkpt lat="45.83615" lon="4.7063">
        <ele>373.59317</ele>
        <time>2023-07-26T13:26:30.000Z</time>
      </trkpt>
      <trkpt lat="45.83619" lon="4.70635">
        <ele>373.47769</ele>
        <time>2023-07-26T13:26:31.000Z</time>
      </trkpt>
      <trkpt lat="45.83623" lon="4.7064">
        <ele>373.40244</ele>
        <time>2023-07-26T13:26:32.000Z</time>
      </trkpt>
      <trkpt lat="45.83627" lon="4.70645">
        <ele>373.71902</ele>
        <time>2023-07-26T13:26:33.000Z</time>
      </trkpt>
      <trkpt lat="45.8363" lon="4.70651">
        <ele>374.26871</ele>
        <time>2023-07-26T13:26:34.000Z</time>
      </trkpt>
      <trkpt lat="45.83632" lon="4.70658">
        <ele>374.37872</ele>
        <time>2023-07-26T13:26:35.000Z</time>
      </trkpt>
      <trkpt lat="45.83635" lon="4.70664">
        <ele>374.46817</ele>
        <time>2023-07-26T13:26:36.000Z</time>
      </trkpt>
      <trkpt lat="45.83637" lon="4.7067">
        <ele>374.58536</ele>
        <time>2023-07-26T13:26:37.000Z</time>
      </trkpt>
      <trkpt lat="45.83639" lon="4.70675">
        <ele>374.71722</ele>
        <time>2023-07-26T13:26:38.000Z</time>
      </trkpt>
      <trkpt lat="45.83642" lon="4.70681">
        <ele>374.46951</ele>
        <time>2023-07-26T13:26:39.000Z</time>
      </trkpt>
      <trkpt lat="45.83645" lon="4.70687">
        <ele>372.31427</ele>
        <time>2023-07-26T13:26:40.000Z</time>
      </trkpt>
      <trkpt lat="45.83647" lon="4.70691">
        <ele>371.67917</ele>
        <time>2023-07-26T13:26:41.000Z</time>
      </trkpt>
      <trkpt lat="45.8365" lon="4.70697">
        <ele>369.53989</ele>
        <time>2023-07-26T13:26:42.000Z</time>
      </trkpt>
      <trkpt lat="45.83652" lon="4.70703">
        <ele>368.25595</ele>
        <time>2023-07-26T13:26:43.000Z</time>
      </trkpt>
      <trkpt lat="45.83655" lon="4.70708">
        <ele>366.82123</ele>
        <time>2023-07-26T13:26:44.000Z</time>
      </trkpt>
      <trkpt lat="45.83658" lon="4.70714">
        <ele>365.40057</ele>
        <time>2023-07-26T13:26:45.000Z</time>
      </trkpt>
      <trkpt lat="45.83661" lon="4.7072">
        <ele>363.98404</ele>
        <time>2023-07-26T13:26:46.000Z</time>
      </trkpt>
      <trkpt lat="45.83664" lon="4.70726">
        <ele>362.57755</ele>
        <time>2023-07-26T13:26:47.000Z</time>
      </trkpt>
      <trkpt lat="45.83666" lon="4.70731">
        <ele>361.10324</ele>
        <time>2023-07-26T13:26:48.000Z</time>
      </trkpt>
      <trkpt lat="45.83669" lon="4.70738">
        <ele>359.62466</ele>
        <time>2023-07-26T13:26:49.000Z</time>
      </trkpt>
      <trkpt lat="45.83672" lon="4.70744">
        <ele>358.16116</ele>
        <time>2023-07-26T13:26:50.000Z</time>
      </trkpt>
      <trkpt lat="45.83675" lon="4.70749">
        <ele>356.64911</ele>
        <time>2023-07-26T13:26:51.000Z</time>
      </trkpt>
      <trkpt lat="45.83678" lon="4.70756">
        <ele>355.08218</ele>
        <time>2023-07-26T13:26:52.000Z</time>
      </trkpt>
      <trkpt lat="45.8368" lon="4.70762">
        <ele>353.27484</ele>
        <time>2023-07-26T13:26:53.000Z</time>
      </trkpt>
      <trkpt lat="45.83684" lon="4.70768">
        <ele>351.21347</ele>
        <time>2023-07-26T13:26:54.000Z</time>
      </trkpt>
      <trkpt lat="45.83687" lon="4.70774">
        <ele>349.57614</ele>
        <time>2023-07-26T13:26:55.000Z</time>
      </trkpt>
      <trkpt lat="45.8369" lon="4.7078">
        <ele>347.94589</ele>
        <time>2023-07-26T13:26:56.000Z</time>
      </trkpt>
      <trkpt lat="45.83692" lon="4.70787">
        <ele>346.30313</ele>
        <time>2023-07-26T13:26:57.000Z</time>
      </trkpt>
      <trkpt lat="45.83695" lon="4.70793">
        <ele>344.64813</ele>
        <time>2023-07-26T13:26:58.000Z</time>
      </trkpt>
      <trkpt lat="45.83697" lon="4.708">
        <ele>342.99478</ele>
        <time>2023-07-26T13:26:59.000Z</time>
      </trkpt>
      <trkpt lat="45.837" lon="4.70806">
        <ele>342.97159</ele>
        <time>2023-07-26T13:27:00.000Z</time>
      </trkpt>
      <trkpt lat="45.83703" lon="4.70813">
        <ele>341.41779</ele>
        <time>2023-07-26T13:27:01.000Z</time>
      </trkpt>
      <trkpt lat="45.83705" lon="4.70818">
        <ele>341.3804</ele>
        <time>2023-07-26T13:27:02.000Z</time>
      </trkpt>
      <trkpt lat="45.83708" lon="4.70825">
        <ele>341.67474</ele>
        <time>2023-07-26T13:27:03.000Z</time>
      </trkpt>
      <trkpt lat="45.83711" lon="4.70831">
        <ele>342.05331</ele>
        <time>2023-07-26T13:27:04.000Z</time>
      </trkpt>
      <trkpt lat="45.83713" lon="4.70836">
        <ele>342.01724</ele>
        <time>2023-07-26T13:27:05.000Z</time>
      </trkpt>
      <trkpt lat="45.83717" lon="4.70841">
        <ele>341.96445</ele>
        <time>2023-07-26T13:27:06.000Z</time>
      </trkpt>
      <trkpt lat="45.83719" lon="4.70846">
        <ele>341.90216</ele>
        <time>2023-07-26T13:27:07.000Z</time>
      </trkpt>
      <trkpt lat="45.83721" lon="4.70852">
        <ele>341.93497</ele>
        <time>2023-07-26T13:27:08.000Z</time>
      </trkpt>
      <trkpt lat="45.83724" lon="4.70856">
        <ele>341.96368</ele>
        <time>2023-07-26T13:27:09.000Z</time>
      </trkpt>
      <trkpt lat="45.83726" lon="4.70862">
        <ele>341.99243</ele>
        <time>2023-07-26T13:27:10.000Z</time>
      </trkpt>
      <trkpt lat="45.83729" lon="4.70867">
        <ele>342.04919</ele>
        <time>2023-07-26T13:27:11.000Z</time>
      </trkpt>
      <trkpt lat="45.83731" lon="4.70872">
        <ele>342.15964</ele>
        <time>2023-07-26T13:27:12.000Z</time>
      </trkpt>
      <trkpt lat="45.83734" lon="4.70878">
        <ele>342.17059</ele>
        <time>2023-07-26T13:27:13.000Z</time>
      </trkpt>
      <trkpt lat="45.83736" lon="4.70884">
        <ele>342.18686</ele>
        <time>2023-07-26T13:27:14.000Z</time>
      </trkpt>
      <trkpt lat="45.83739" lon="4.70889">
        <ele>342.24313</ele>
        <time>2023-07-26T13:27:15.000Z</time>
      </trkpt>
      <trkpt lat="45.83742" lon="4.70894">
        <ele>342.29044</ele>
        <time>2023-07-26T13:27:16.000Z</time>
      </trkpt>
      <trkpt lat="45.83745" lon="4.709">
        <ele>342.32999</ele>
        <time>2023-07-26T13:27:17.000Z</time>
      </trkpt>
      <trkpt lat="45.83748" lon="4.70907">
        <ele>342.38541</ele>
        <time>2023-07-26T13:27:18.000Z</time>
      </trkpt>
      <trkpt lat="45.83751" lon="4.70913">
        <ele>342.33047</ele>
        <time>2023-07-26T13:27:19.000Z</time>
      </trkpt>
      <trkpt lat="45.83754" lon="4.7092">
        <ele>342.27411</ele>
        <time>2023-07-26T13:27:20.000Z</time>
      </trkpt>
      <trkpt lat="45.83757" lon="4.70926">
        <ele>342.2262</ele>
        <time>2023-07-26T13:27:21.000Z</time>
      </trkpt>
      <trkpt lat="45.8376" lon="4.70932">
        <ele>342.16205</ele>
        <time>2023-07-26T13:27:22.000Z</time>
      </trkpt>
      <trkpt lat="45.83763" lon="4.70938">
        <ele>341.72949</ele>
        <time>2023-07-26T13:27:23.000Z</time>
      </trkpt>
      <trkpt lat="45.83766" lon="4.70944">
        <ele>341.23846</ele>
        <time>2023-07-26T13:27:24.000Z</time>
      </trkpt>
      <trkpt lat="45.83769" lon="4.70951">
        <ele>341.14221</ele>
        <time>2023-07-26T13:27:25.000Z</time>
      </trkpt>
      <trkpt lat="45.83772" lon="4.70958">
        <ele>341.18353</ele>
        <time>2023-07-26T13:27:26.000Z</time>
      </trkpt>
      <trkpt lat="45.83775" lon="4.70965">
        <ele>341.19061</ele>
        <time>2023-07-26T13:27:27.000Z</time>
      </trkpt>
      <trkpt lat="45.83776" lon="4.70971">
        <ele>341.14188</ele>
        <time>2023-07-26T13:27:28.000Z</time>
      </trkpt>
      <trkpt lat="45.8378" lon="4.70977">
        <ele>341.08044</ele>
        <time>2023-07-26T13:27:29.000Z</time>
      </trkpt>
      <trkpt lat="45.83783" lon="4.70984">
        <ele>340.97662</ele>
        <time>2023-07-26T13:27:30.000Z</time>
      </trkpt>
      <trkpt lat="45.83786" lon="4.7099">
        <ele>340.86572</ele>
        <time>2023-07-26T13:27:31.000Z</time>
      </trkpt>
      <trkpt lat="45.83787" lon="4.70997">
        <ele>340.69913</ele>
        <time>2023-07-26T13:27:32.000Z</time>
      </trkpt>
      <trkpt lat="45.83786" lon="4.71004">
        <ele>340.47272</ele>
        <time>2023-07-26T13:27:33.000Z</time>
      </trkpt>
      <trkpt lat="45.83784" lon="4.7101">
        <ele>340.24799</ele>
        <time>2023-07-26T13:27:34.000Z</time>
      </trkpt>
      <trkpt lat="45.8378" lon="4.71015">
        <ele>339.98486</ele>
        <time>2023-07-26T13:27:35.000Z</time>
      </trkpt>
      <trkpt lat="45.83777" lon="4.71021">
        <ele>339.7132</ele>
        <time>2023-07-26T13:27:36.000Z</time>
      </trkpt>
      <trkpt lat="45.83773" lon="4.71027">
        <ele>339.46329</ele>
        <time>2023-07-26T13:27:37.000Z</time>
      </trkpt>
      <trkpt lat="45.8377" lon="4.71033">
        <ele>339.16986</ele>
        <time>2023-07-26T13:27:38.000Z</time>
      </trkpt>
      <trkpt lat="45.83767" lon="4.71039">
        <ele>338.9617</ele>
        <time>2023-07-26T13:27:39.000Z</time>
      </trkpt>
      <trkpt lat="45.83763" lon="4.71045">
        <ele>338.73911</ele>
        <time>2023-07-26T13:27:40.000Z</time>
      </trkpt>
      <trkpt lat="45.83761" lon="4.7105">
        <ele>338.59381</ele>
        <time>2023-07-26T13:27:41.000Z</time>
      </trkpt>
      <trkpt lat="45.83758" lon="4.71056">
        <ele>338.44083</ele>
        <time>2023-07-26T13:27:42.000Z</time>
      </trkpt>
      <trkpt lat="45.83754" lon="4.71061">
        <ele>338.30762</ele>
        <time>2023-07-26T13:27:43.000Z</time>
      </trkpt>
      <trkpt lat="45.83751" lon="4.71066">
        <ele>338.1745</ele>
        <time>2023-07-26T13:27:44.000Z</time>
      </trkpt>
      <trkpt lat="45.83747" lon="4.71071">
        <ele>338.06076</ele>
        <time>2023-07-26T13:27:45.000Z</time>
      </trkpt>
      <trkpt lat="45.83744" lon="4.71076">
        <ele>337.83578</ele>
        <time>2023-07-26T13:27:46.000Z</time>
      </trkpt>
      <trkpt lat="45.83742" lon="4.7108">
        <ele>337.64752</ele>
        <time>2023-07-26T13:27:47.000Z</time>
      </trkpt>
      <trkpt lat="45.83741" lon="4.71083">
        <ele>337.47012</ele>
        <time>2023-07-26T13:27:48.000Z</time>
      </trkpt>
      <trkpt lat="45.83738" lon="4.71086">
        <ele>337.27933</ele>
        <time>2023-07-26T13:27:49.000Z</time>
      </trkpt>
      <trkpt lat="45.83736" lon="4.7109">
        <ele>337.112</ele>
        <time>2023-07-26T13:27:50.000Z</time>
      </trkpt>
      <trkpt lat="45.83735" lon="4.71093">
        <ele>336.96445</ele>
        <time>2023-07-26T13:27:51.000Z</time>
      </trkpt>
      <trkpt lat="45.83733" lon="4.71097">
        <ele>336.84698</ele>
        <time>2023-07-26T13:27:52.000Z</time>
      </trkpt>
      <trkpt lat="45.83731" lon="4.711">
        <ele>336.70023</ele>
        <time>2023-07-26T13:27:53.000Z</time>
      </trkpt>
      <trkpt lat="45.83728" lon="4.71103">
        <ele>337.01086</ele>
        <time>2023-07-26T13:27:54.000Z</time>
      </trkpt>
      <trkpt lat="45.83726" lon="4.71107">
        <ele>337.34225</ele>
        <time>2023-07-26T13:27:55.000Z</time>
      </trkpt>
      <trkpt lat="45.83724" lon="4.71112">
        <ele>337.52951</ele>
        <time>2023-07-26T13:27:56.000Z</time>
      </trkpt>
      <trkpt lat="45.83722" lon="4.71116">
        <ele>337.71909</ele>
        <time>2023-07-26T13:27:57.000Z</time>
      </trkpt>
      <trkpt lat="45.8372" lon="4.7112">
        <ele>337.95947</ele>
        <time>2023-07-26T13:27:58.000Z</time>
      </trkpt>
      <trkpt lat="45.83718" lon="4.71124">
        <ele>338.2619</ele>
        <time>2023-07-26T13:27:59.000Z</time>
      </trkpt>
      <trkpt lat="45.83715" lon="4.71128">
        <ele>338.64682</ele>
        <time>2023-07-26T13:28:00.000Z</time>
      </trkpt>
      <trkpt lat="45.83713" lon="4.71132">
        <ele>338.84668</ele>
        <time>2023-07-26T13:28:01.000Z</time>
      </trkpt>
      <trkpt lat="45.83711" lon="4.71136">
        <ele>339.05472</ele>
        <time>2023-07-26T13:28:02.000Z</time>
      </trkpt>
      <trkpt lat="45.83708" lon="4.7114">
        <ele>339.28711</ele>
        <time>2023-07-26T13:28:03.000Z</time>
      </trkpt>
      <trkpt lat="45.83706" lon="4.71145">
        <ele>339.51212</ele>
        <time>2023-07-26T13:28:04.000Z</time>
      </trkpt>
      <trkpt lat="45.83704" lon="4.71149">
        <ele>339.73074</ele>
        <time>2023-07-26T13:28:05.000Z</time>
      </trkpt>
      <trkpt lat="45.83702" lon="4.71153">
        <ele>340.02496</ele>
        <time>2023-07-26T13:28:06.000Z</time>
      </trkpt>
      <trkpt lat="45.83699" lon="4.71157">
        <ele>339.86237</ele>
        <time>2023-07-26T13:28:07.000Z</time>
      </trkpt>
      <trkpt lat="45.83697" lon="4.71162">
        <ele>339.74057</ele>
        <time>2023-07-26T13:28:08.000Z</time>
      </trkpt>
      <trkpt lat="45.83695" lon="4.71167">
        <ele>339.62851</ele>
        <time>2023-07-26T13:28:09.000Z</time>
      </trkpt>
      <trkpt lat="45.83693" lon="4.71173">
        <ele>339.53192</ele>
        <time>2023-07-26T13:28:10.000Z</time>
      </trkpt>
      <trkpt lat="45.83691" lon="4.71178">
        <ele>339.44131</ele>
        <time>2023-07-26T13:28:11.000Z</time>
      </trkpt>
      <trkpt lat="45.83689" lon="4.71184">
        <ele>339.38129</ele>
        <time>2023-07-26T13:28:12.000Z</time>
      </trkpt>
      <trkpt lat="45.83688" lon="4.7119">
        <ele>339.35101</ele>
        <time>2023-07-26T13:28:13.000Z</time>
      </trkpt>
      <trkpt lat="45.83686" lon="4.71196">
        <ele>338.8855</ele>
        <time>2023-07-26T13:28:14.000Z</time>
      </trkpt>
      <trkpt lat="45.83684" lon="4.71202">
        <ele>338.41681</ele>
        <time>2023-07-26T13:28:15.000Z</time>
      </trkpt>
      <trkpt lat="45.83683" lon="4.71207">
        <ele>338.07855</ele>
        <time>2023-07-26T13:28:16.000Z</time>
      </trkpt>
      <trkpt lat="45.83682" lon="4.71214">
        <ele>337.7225</ele>
        <time>2023-07-26T13:28:17.000Z</time>
      </trkpt>
      <trkpt lat="45.83681" lon="4.7122">
        <ele>337.33685</ele>
        <time>2023-07-26T13:28:18.000Z</time>
      </trkpt>
      <trkpt lat="45.83679" lon="4.71226">
        <ele>336.90283</ele>
        <time>2023-07-26T13:28:19.000Z</time>
      </trkpt>
      <trkpt lat="45.83678" lon="4.71232">
        <ele>336.39703</ele>
        <time>2023-07-26T13:28:20.000Z</time>
      </trkpt>
      <trkpt lat="45.83676" lon="4.71238">
        <ele>336.04596</ele>
        <time>2023-07-26T13:28:21.000Z</time>
      </trkpt>
      <trkpt lat="45.83675" lon="4.71244">
        <ele>335.68625</ele>
        <time>2023-07-26T13:28:22.000Z</time>
      </trkpt>
      <trkpt lat="45.83675" lon="4.7125">
        <ele>335.31305</ele>
        <time>2023-07-26T13:28:23.000Z</time>
      </trkpt>
      <trkpt lat="45.83674" lon="4.71255">
        <ele>334.96768</ele>
        <time>2023-07-26T13:28:24.000Z</time>
      </trkpt>
      <trkpt lat="45.83674" lon="4.71261">
        <ele>334.63824</ele>
        <time>2023-07-26T13:28:25.000Z</time>
      </trkpt>
      <trkpt lat="45.83674" lon="4.71266">
        <ele>334.22498</ele>
        <time>2023-07-26T13:28:26.000Z</time>
      </trkpt>
      <trkpt lat="45.83672" lon="4.7127">
        <ele>334.24237</ele>
        <time>2023-07-26T13:28:27.000Z</time>
      </trkpt>
      <trkpt lat="45.83671" lon="4.71276">
        <ele>334.24933</ele>
        <time>2023-07-26T13:28:28.000Z</time>
      </trkpt>
      <trkpt lat="45.8367" lon="4.7128">
        <ele>334.29071</ele>
        <time>2023-07-26T13:28:29.000Z</time>
      </trkpt>
      <trkpt lat="45.83668" lon="4.71285">
        <ele>334.3266</ele>
        <time>2023-07-26T13:28:30.000Z</time>
      </trkpt>
      <trkpt lat="45.83667" lon="4.71289">
        <ele>334.31949</ele>
        <time>2023-07-26T13:28:31.000Z</time>
      </trkpt>
      <trkpt lat="45.83666" lon="4.71292">
        <ele>334.26773</ele>
        <time>2023-07-26T13:28:32.000Z</time>
      </trkpt>
      <trkpt lat="45.83665" lon="4.71295">
        <ele>334.25937</ele>
        <time>2023-07-26T13:28:38.000Z</time>
      </trkpt>
      <trkpt lat="45.83666" lon="4.71298">
        <ele>334.2605</ele>
        <time>2023-07-26T13:28:49.000Z</time>
      </trkpt>
      <trkpt lat="45.83665" lon="4.71301">
        <ele>334.26678</ele>
        <time>2023-07-26T13:28:50.000Z</time>
      </trkpt>
      <trkpt lat="45.83665" lon="4.71304">
        <ele>334.29144</ele>
        <time>2023-07-26T13:28:51.000Z</time>
      </trkpt>
      <trkpt lat="45.83664" lon="4.71307">
        <ele>334.33185</ele>
        <time>2023-07-26T13:28:52.000Z</time>
      </trkpt>
      <trkpt lat="45.83663" lon="4.71311">
        <ele>334.37933</ele>
        <time>2023-07-26T13:28:53.000Z</time>
      </trkpt>
      <trkpt lat="45.83662" lon="4.71316">
        <ele>334.43753</ele>
        <time>2023-07-26T13:28:54.000Z</time>
      </trkpt>
      <trkpt lat="45.83661" lon="4.7132">
        <ele>334.48615</ele>
        <time>2023-07-26T13:28:55.000Z</time>
      </trkpt>
      <trkpt lat="45.83659" lon="4.71325">
        <ele>334.50568</ele>
        <time>2023-07-26T13:28:56.000Z</time>
      </trkpt>
      <trkpt lat="45.83658" lon="4.7133">
        <ele>334.5462</ele>
        <time>2023-07-26T13:28:57.000Z</time>
      </trkpt>
      <trkpt lat="45.83657" lon="4.71335">
        <ele>334.58859</ele>
        <time>2023-07-26T13:28:58.000Z</time>
      </trkpt>
      <trkpt lat="45.83655" lon="4.7134">
        <ele>334.60538</ele>
        <time>2023-07-26T13:28:59.000Z</time>
      </trkpt>
      <trkpt lat="45.83654" lon="4.71345">
        <ele>334.62604</ele>
        <time>2023-07-26T13:29:00.000Z</time>
      </trkpt>
      <trkpt lat="45.83653" lon="4.7135">
        <ele>334.62006</ele>
        <time>2023-07-26T13:29:01.000Z</time>
      </trkpt>
      <trkpt lat="45.83652" lon="4.71355">
        <ele>334.62592</ele>
        <time>2023-07-26T13:29:02.000Z</time>
      </trkpt>
      <trkpt lat="45.8365" lon="4.7136">
        <ele>334.64093</ele>
        <time>2023-07-26T13:29:03.000Z</time>
      </trkpt>
      <trkpt lat="45.83649" lon="4.71365">
        <ele>334.65826</ele>
        <time>2023-07-26T13:29:04.000Z</time>
      </trkpt>
      <trkpt lat="45.83648" lon="4.7137">
        <ele>334.67398</ele>
        <time>2023-07-26T13:29:05.000Z</time>
      </trkpt>
      <trkpt lat="45.83646" lon="4.71376">
        <ele>334.68033</ele>
        <time>2023-07-26T13:29:06.000Z</time>
      </trkpt>
      <trkpt lat="45.83645" lon="4.71381">
        <ele>334.68854</ele>
        <time>2023-07-26T13:29:07.000Z</time>
      </trkpt>
      <trkpt lat="45.83643" lon="4.71387">
        <ele>334.73181</ele>
        <time>2023-07-26T13:29:08.000Z</time>
      </trkpt>
      <trkpt lat="45.83641" lon="4.71393">
        <ele>334.75262</ele>
        <time>2023-07-26T13:29:09.000Z</time>
      </trkpt>
      <trkpt lat="45.8364" lon="4.71399">
        <ele>334.77075</ele>
        <time>2023-07-26T13:29:10.000Z</time>
      </trkpt>
      <trkpt lat="45.83638" lon="4.71405">
        <ele>334.78964</ele>
        <time>2023-07-26T13:29:11.000Z</time>
      </trkpt>
      <trkpt lat="45.83637" lon="4.71411">
        <ele>334.7829</ele>
        <time>2023-07-26T13:29:12.000Z</time>
      </trkpt>
      <trkpt lat="45.83635" lon="4.71417">
        <ele>334.78455</ele>
        <time>2023-07-26T13:29:13.000Z</time>
      </trkpt>
      <trkpt lat="45.83634" lon="4.71423">
        <ele>334.7645</ele>
        <time>2023-07-26T13:29:14.000Z</time>
      </trkpt>
      <trkpt lat="45.83632" lon="4.71428">
        <ele>334.77664</ele>
        <time>2023-07-26T13:29:15.000Z</time>
      </trkpt>
      <trkpt lat="45.83631" lon="4.71434">
        <ele>334.74545</ele>
        <time>2023-07-26T13:29:16.000Z</time>
      </trkpt>
      <trkpt lat="45.83631" lon="4.71441">
        <ele>334.72925</ele>
        <time>2023-07-26T13:29:17.000Z</time>
      </trkpt>
      <trkpt lat="45.83629" lon="4.71447">
        <ele>334.70404</ele>
        <time>2023-07-26T13:29:18.000Z</time>
      </trkpt>
      <trkpt lat="45.83627" lon="4.71454">
        <ele>334.67606</ele>
        <time>2023-07-26T13:29:19.000Z</time>
      </trkpt>
      <trkpt lat="45.83624" lon="4.7146">
        <ele>334.62906</ele>
        <time>2023-07-26T13:29:20.000Z</time>
      </trkpt>
      <trkpt lat="45.83622" lon="4.71465">
        <ele>334.59058</ele>
        <time>2023-07-26T13:29:21.000Z</time>
      </trkpt>
      <trkpt lat="45.8362" lon="4.7147">
        <ele>334.56296</ele>
        <time>2023-07-26T13:29:22.000Z</time>
      </trkpt>
      <trkpt lat="45.83617" lon="4.71475">
        <ele>334.51288</ele>
        <time>2023-07-26T13:29:23.000Z</time>
      </trkpt>
      <trkpt lat="45.83612" lon="4.71479">
        <ele>334.4317</ele>
        <time>2023-07-26T13:29:24.000Z</time>
      </trkpt>
      <trkpt lat="45.8361" lon="4.71484">
        <ele>334.33258</ele>
        <time>2023-07-26T13:29:25.000Z</time>
      </trkpt>
      <trkpt lat="45.83608" lon="4.71486">
        <ele>334.25665</ele>
        <time>2023-07-26T13:29:26.000Z</time>
      </trkpt>
      <trkpt lat="45.83606" lon="4.71489">
        <ele>334.17923</ele>
        <time>2023-07-26T13:29:27.000Z</time>
      </trkpt>
      <trkpt lat="45.83606" lon="4.71492">
        <ele>334.09473</ele>
        <time>2023-07-26T13:29:28.000Z</time>
      </trkpt>
      <trkpt lat="45.83607" lon="4.71494">
        <ele>334.04919</ele>
        <time>2023-07-26T13:29:29.000Z</time>
      </trkpt>
      <trkpt lat="45.83609" lon="4.71497">
        <ele>334.08255</ele>
        <time>2023-07-26T13:29:31.000Z</time>
      </trkpt>
      <trkpt lat="45.8361" lon="4.715">
        <ele>334.07129</ele>
        <time>2023-07-26T13:29:32.000Z</time>
      </trkpt>
      <trkpt lat="45.83611" lon="4.71504">
        <ele>334.10529</ele>
        <time>2023-07-26T13:29:33.000Z</time>
      </trkpt>
      <trkpt lat="45.83612" lon="4.71507">
        <ele>334.14478</ele>
        <time>2023-07-26T13:29:34.000Z</time>
      </trkpt>
      <trkpt lat="45.83612" lon="4.7151">
        <ele>334.19791</ele>
        <time>2023-07-26T13:29:35.000Z</time>
      </trkpt>
      <trkpt lat="45.83613" lon="4.71513">
        <ele>334.26208</ele>
        <time>2023-07-26T13:29:36.000Z</time>
      </trkpt>
      <trkpt lat="45.83615" lon="4.71516">
        <ele>334.36679</ele>
        <time>2023-07-26T13:29:37.000Z</time>
      </trkpt>
      <trkpt lat="45.83616" lon="4.7152">
        <ele>334.43457</ele>
        <time>2023-07-26T13:29:38.000Z</time>
      </trkpt>
      <trkpt lat="45.83618" lon="4.71523">
        <ele>334.4505</ele>
        <time>2023-07-26T13:29:39.000Z</time>
      </trkpt>
      <trkpt lat="45.83618" lon="4.71526">
        <ele>334.47833</ele>
        <time>2023-07-26T13:29:40.000Z</time>
      </trkpt>
      <trkpt lat="45.83619" lon="4.71528">
        <ele>334.49081</ele>
        <time>2023-07-26T13:29:41.000Z</time>
      </trkpt>
      <trkpt lat="45.8362" lon="4.71531">
        <ele>334.52145</ele>
        <time>2023-07-26T13:29:42.000Z</time>
      </trkpt>
      <trkpt lat="45.83621" lon="4.71535">
        <ele>334.54181</ele>
        <time>2023-07-26T13:29:44.000Z</time>
      </trkpt>
      <trkpt lat="45.83623" lon="4.71538">
        <ele>334.57721</ele>
        <time>2023-07-26T13:29:46.000Z</time>
      </trkpt>
      <trkpt lat="45.83621" lon="4.71542">
        <ele>334.62961</ele>
        <time>2023-07-26T13:29:48.000Z</time>
      </trkpt>
      <trkpt lat="45.83619" lon="4.71541">
        <ele>334.6593</ele>
        <time>2023-07-26T13:29:49.000Z</time>
      </trkpt>
      <trkpt lat="45.83618" lon="4.71538">
        <ele>334.72806</ele>
        <time>2023-07-26T13:29:50.000Z</time>
      </trkpt>
      <trkpt lat="45.83618" lon="4.71534">
        <ele>334.79474</ele>
        <time>2023-07-26T13:29:51.000Z</time>
      </trkpt>
      <trkpt lat="45.83618" lon="4.7153">
        <ele>334.79895</ele>
        <time>2023-07-26T13:29:52.000Z</time>
      </trkpt>
      <trkpt lat="45.83618" lon="4.71526">
        <ele>334.76926</ele>
        <time>2023-07-26T13:29:53.000Z</time>
      </trkpt>
      <trkpt lat="45.83617" lon="4.71523">
        <ele>334.62482</ele>
        <time>2023-07-26T13:29:54.000Z</time>
      </trkpt>
      <trkpt lat="45.83616" lon="4.71519">
        <ele>334.51273</ele>
        <time>2023-07-26T13:29:56.000Z</time>
      </trkpt>
      <trkpt lat="45.83615" lon="4.71522">
        <ele>334.38971</ele>
        <time>2023-07-26T13:30:04.000Z</time>
      </trkpt>
      <trkpt lat="45.83616" lon="4.71525">
        <ele>334.15625</ele>
        <time>2023-07-26T13:30:11.000Z</time>
      </trkpt>
      <trkpt lat="45.83617" lon="4.71526">
        <ele>334.28119</ele>
        <time>2023-07-26T13:30:23.000Z</time>
      </trkpt>
      <trkpt lat="45.83621" lon="4.71528">
        <ele>334.43756</ele>
        <time>2023-07-26T13:30:25.000Z</time>
      </trkpt>
      <trkpt lat="45.83622" lon="4.7153">
        <ele>334.57452</ele>
        <time>2023-07-26T13:30:26.000Z</time>
      </trkpt>
      <trkpt lat="45.83623" lon="4.71532">
        <ele>334.73917</ele>
        <time>2023-07-26T13:30:27.000Z</time>
      </trkpt>
      <trkpt lat="45.83625" lon="4.71536">
        <ele>335.02744</ele>
        <time>2023-07-26T13:30:29.000Z</time>
      </trkpt>
      <trkpt lat="45.83625" lon="4.71539">
        <ele>335.45105</ele>
        <time>2023-07-26T13:30:30.000Z</time>
      </trkpt>
      <trkpt lat="45.83623" lon="4.71541">
        <ele>335.92624</ele>
        <time>2023-07-26T13:30:31.000Z</time>
      </trkpt>
      <trkpt lat="45.83622" lon="4.71541">
        <ele>336.42072</ele>
        <time>2023-07-26T13:30:32.000Z</time>
      </trkpt>
      <trkpt lat="45.83621" lon="4.71538">
        <ele>336.97583</ele>
        <time>2023-07-26T13:30:33.000Z</time>
      </trkpt>
      <trkpt lat="45.8362" lon="4.71533">
        <ele>337.29681</ele>
        <time>2023-07-26T13:30:34.000Z</time>
      </trkpt>
      <trkpt lat="45.8362" lon="4.71529">
        <ele>337.6601</ele>
        <time>2023-07-26T13:30:35.000Z</time>
      </trkpt>
      <trkpt lat="45.83619" lon="4.71525">
        <ele>338.09045</ele>
        <time>2023-07-26T13:30:36.000Z</time>
      </trkpt>
      <trkpt lat="45.83618" lon="4.71521">
        <ele>338.49384</ele>
        <time>2023-07-26T13:30:37.000Z</time>
      </trkpt>
      <trkpt lat="45.83616" lon="4.71518">
        <ele>339.29291</ele>
        <time>2023-07-26T13:30:38.000Z</time>
      </trkpt>
      <trkpt lat="45.83615" lon="4.71514">
        <ele>339.87735</ele>
        <time>2023-07-26T13:30:39.000Z</time>
      </trkpt>
      <trkpt lat="45.83613" lon="4.71511">
        <ele>340.47827</ele>
        <time>2023-07-26T13:30:40.000Z</time>
      </trkpt>
      <trkpt lat="45.83612" lon="4.71508">
        <ele>341.10095</ele>
        <time>2023-07-26T13:30:41.000Z</time>
      </trkpt>
      <trkpt lat="45.83611" lon="4.71505">
        <ele>341.73309</ele>
        <time>2023-07-26T13:30:42.000Z</time>
      </trkpt>
      <trkpt lat="45.8361" lon="4.71501">
        <ele>342.30084</ele>
        <time>2023-07-26T13:30:43.000Z</time>
      </trkpt>
      <trkpt lat="45.83609" lon="4.71498">
        <ele>342.91928</ele>
        <time>2023-07-26T13:30:45.000Z</time>
      </trkpt>
      <trkpt lat="45.83607" lon="4.71497">
        <ele>343.14502</ele>
        <time>2023-07-26T13:30:47.000Z</time>
      </trkpt>
      <trkpt lat="45.83603" lon="4.71497">
        <ele>343.3121</ele>
        <time>2023-07-26T13:30:49.000Z</time>
      </trkpt>
      <trkpt lat="45.83601" lon="4.71497">
        <ele>343.50079</ele>
        <time>2023-07-26T13:30:50.000Z</time>
      </trkpt>
      <trkpt lat="45.83598" lon="4.71497">
        <ele>343.67993</ele>
        <time>2023-07-26T13:30:51.000Z</time>
      </trkpt>
      <trkpt lat="45.83595" lon="4.71497">
        <ele>343.76096</ele>
        <time>2023-07-26T13:30:52.000Z</time>
      </trkpt>
      <trkpt lat="45.83592" lon="4.71497">
        <ele>343.69498</ele>
        <time>2023-07-26T13:30:53.000Z</time>
      </trkpt>
      <trkpt lat="45.83589" lon="4.71498">
        <ele>343.61578</ele>
        <time>2023-07-26T13:30:54.000Z</time>
      </trkpt>
      <trkpt lat="45.83585" lon="4.715">
        <ele>343.54608</ele>
        <time>2023-07-26T13:30:55.000Z</time>
      </trkpt>
      <trkpt lat="45.83582" lon="4.71502">
        <ele>343.39203</ele>
        <time>2023-07-26T13:30:56.000Z</time>
      </trkpt>
      <trkpt lat="45.83579" lon="4.71505">
        <ele>343.50867</ele>
        <time>2023-07-26T13:30:57.000Z</time>
      </trkpt>
      <trkpt lat="45.83576" lon="4.71509">
        <ele>343.54135</ele>
        <time>2023-07-26T13:30:58.000Z</time>
      </trkpt>
      <trkpt lat="45.83573" lon="4.71513">
        <ele>343.62714</ele>
        <time>2023-07-26T13:30:59.000Z</time>
      </trkpt>
      <trkpt lat="45.8357" lon="4.71518">
        <ele>343.69965</ele>
        <time>2023-07-26T13:31:00.000Z</time>
      </trkpt>
      <trkpt lat="45.83567" lon="4.71522">
        <ele>343.45435</ele>
        <time>2023-07-26T13:31:01.000Z</time>
      </trkpt>
      <trkpt lat="45.83562" lon="4.71525">
        <ele>343.43173</ele>
        <time>2023-07-26T13:31:02.000Z</time>
      </trkpt>
      <trkpt lat="45.83558" lon="4.71528">
        <ele>343.18161</ele>
        <time>2023-07-26T13:31:03.000Z</time>
      </trkpt>
      <trkpt lat="45.83554" lon="4.71532">
        <ele>342.99442</ele>
        <time>2023-07-26T13:31:04.000Z</time>
      </trkpt>
      <trkpt lat="45.8355" lon="4.71536">
        <ele>342.82309</ele>
        <time>2023-07-26T13:31:05.000Z</time>
      </trkpt>
      <trkpt lat="45.83547" lon="4.71538">
        <ele>342.69623</ele>
        <time>2023-07-26T13:31:06.000Z</time>
      </trkpt>
      <trkpt lat="45.83543" lon="4.71541">
        <ele>342.76874</ele>
        <time>2023-07-26T13:31:07.000Z</time>
      </trkpt>
      <trkpt lat="45.83538" lon="4.71545">
        <ele>343.06857</ele>
        <time>2023-07-26T13:31:08.000Z</time>
      </trkpt>
      <trkpt lat="45.83534" lon="4.71548">
        <ele>343.34436</ele>
        <time>2023-07-26T13:31:09.000Z</time>
      </trkpt>
      <trkpt lat="45.8353" lon="4.71552">
        <ele>343.69928</ele>
        <time>2023-07-26T13:31:10.000Z</time>
      </trkpt>
      <trkpt lat="45.83526" lon="4.71554">
        <ele>343.69653</ele>
        <time>2023-07-26T13:31:11.000Z</time>
      </trkpt>
      <trkpt lat="45.83521" lon="4.71558">
        <ele>343.80386</ele>
        <time>2023-07-26T13:31:12.000Z</time>
      </trkpt>
      <trkpt lat="45.83517" lon="4.71561">
        <ele>343.91364</ele>
        <time>2023-07-26T13:31:13.000Z</time>
      </trkpt>
      <trkpt lat="45.83512" lon="4.71564">
        <ele>343.9866</ele>
        <time>2023-07-26T13:31:14.000Z</time>
      </trkpt>
      <trkpt lat="45.83507" lon="4.71569">
        <ele>344.30267</ele>
        <time>2023-07-26T13:31:15.000Z</time>
      </trkpt>
      <trkpt lat="45.83502" lon="4.71572">
        <ele>344.18018</ele>
        <time>2023-07-26T13:31:16.000Z</time>
      </trkpt>
      <trkpt lat="45.83498" lon="4.71575">
        <ele>343.99686</ele>
        <time>2023-07-26T13:31:17.000Z</time>
      </trkpt>
      <trkpt lat="45.83493" lon="4.71579">
        <ele>343.84531</ele>
        <time>2023-07-26T13:31:18.000Z</time>
      </trkpt>
      <trkpt lat="45.83488" lon="4.71582">
        <ele>343.58978</ele>
        <time>2023-07-26T13:31:19.000Z</time>
      </trkpt>
      <trkpt lat="45.83483" lon="4.71585">
        <ele>343.3562</ele>
        <time>2023-07-26T13:31:20.000Z</time>
      </trkpt>
      <trkpt lat="45.83478" lon="4.71587">
        <ele>343.086</ele>
        <time>2023-07-26T13:31:21.000Z</time>
      </trkpt>
      <trkpt lat="45.83473" lon="4.71588">
        <ele>342.81003</ele>
        <time>2023-07-26T13:31:22.000Z</time>
      </trkpt>
      <trkpt lat="45.83468" lon="4.71589">
        <ele>342.95044</ele>
        <time>2023-07-26T13:31:23.000Z</time>
      </trkpt>
      <trkpt lat="45.83463" lon="4.71591">
        <ele>343.00775</ele>
        <time>2023-07-26T13:31:24.000Z</time>
      </trkpt>
      <trkpt lat="45.83458" lon="4.71591">
        <ele>343.00711</ele>
        <time>2023-07-26T13:31:25.000Z</time>
      </trkpt>
      <trkpt lat="45.83454" lon="4.71591">
        <ele>343.04889</ele>
        <time>2023-07-26T13:31:26.000Z</time>
      </trkpt>
      <trkpt lat="45.8345" lon="4.71588">
        <ele>342.9295</ele>
        <time>2023-07-26T13:31:27.000Z</time>
      </trkpt>
      <trkpt lat="45.83445" lon="4.71584">
        <ele>342.42447</ele>
        <time>2023-07-26T13:31:28.000Z</time>
      </trkpt>
      <trkpt lat="45.8344" lon="4.71581">
        <ele>341.94839</ele>
        <time>2023-07-26T13:31:29.000Z</time>
      </trkpt>
      <trkpt lat="45.83435" lon="4.71578">
        <ele>341.36572</ele>
        <time>2023-07-26T13:31:30.000Z</time>
      </trkpt>
      <trkpt lat="45.8343" lon="4.71574">
        <ele>341.15329</ele>
        <time>2023-07-26T13:31:31.000Z</time>
      </trkpt>
      <trkpt lat="45.83425" lon="4.71569">
        <ele>340.83676</ele>
        <time>2023-07-26T13:31:32.000Z</time>
      </trkpt>
      <trkpt lat="45.8342" lon="4.71562">
        <ele>340.51147</ele>
        <time>2023-07-26T13:31:33.000Z</time>
      </trkpt>
      <trkpt lat="45.83416" lon="4.71557">
        <ele>340.23154</ele>
        <time>2023-07-26T13:31:34.000Z</time>
      </trkpt>
      <trkpt lat="45.83411" lon="4.71553">
        <ele>339.6738</ele>
        <time>2023-07-26T13:31:35.000Z</time>
      </trkpt>
      <trkpt lat="45.83406" lon="4.7155">
        <ele>339.59604</ele>
        <time>2023-07-26T13:31:36.000Z</time>
      </trkpt>
      <trkpt lat="45.834" lon="4.71548">
        <ele>339.66412</ele>
        <time>2023-07-26T13:31:37.000Z</time>
      </trkpt>
      <trkpt lat="45.83393" lon="4.71547">
        <ele>340.19574</ele>
        <time>2023-07-26T13:31:38.000Z</time>
      </trkpt>
      <trkpt lat="45.83388" lon="4.71549">
        <ele>340.61649</ele>
        <time>2023-07-26T13:31:39.000Z</time>
      </trkpt>
      <trkpt lat="45.83382" lon="4.71553">
        <ele>340.70493</ele>
        <time>2023-07-26T13:31:40.000Z</time>
      </trkpt>
      <trkpt lat="45.83377" lon="4.71559">
        <ele>340.83868</ele>
        <time>2023-07-26T13:31:41.000Z</time>
      </trkpt>
      <trkpt lat="45.83373" lon="4.71566">
        <ele>340.95953</ele>
        <time>2023-07-26T13:31:42.000Z</time>
      </trkpt>
      <trkpt lat="45.83369" lon="4.71574">
        <ele>340.8765</ele>
        <time>2023-07-26T13:31:43.000Z</time>
      </trkpt>
      <trkpt lat="45.83366" lon="4.71581">
        <ele>340.82202</ele>
        <time>2023-07-26T13:31:44.000Z</time>
      </trkpt>
      <trkpt lat="45.83362" lon="4.71587">
        <ele>340.79822</ele>
        <time>2023-07-26T13:31:45.000Z</time>
      </trkpt>
      <trkpt lat="45.8336" lon="4.71595">
        <ele>340.73615</ele>
        <time>2023-07-26T13:31:46.000Z</time>
      </trkpt>
      <trkpt lat="45.83357" lon="4.71602">
        <ele>340.659</ele>
        <time>2023-07-26T13:31:47.000Z</time>
      </trkpt>
      <trkpt lat="45.83354" lon="4.7161">
        <ele>340.76205</ele>
        <time>2023-07-26T13:31:48.000Z</time>
      </trkpt>
      <trkpt lat="45.83353" lon="4.71618">
        <ele>340.86075</ele>
        <time>2023-07-26T13:31:49.000Z</time>
      </trkpt>
      <trkpt lat="45.83355" lon="4.71625">
        <ele>340.9798</ele>
        <time>2023-07-26T13:31:50.000Z</time>
      </trkpt>
      <trkpt lat="45.83358" lon="4.71628">
        <ele>341.1004</ele>
        <time>2023-07-26T13:31:51.000Z</time>
      </trkpt>
      <trkpt lat="45.83363" lon="4.71629">
        <ele>341.23749</ele>
        <time>2023-07-26T13:31:52.000Z</time>
      </trkpt>
      <trkpt lat="45.83367" lon="4.71626">
        <ele>341.4007</ele>
        <time>2023-07-26T13:31:53.000Z</time>
      </trkpt>
      <trkpt lat="45.83371" lon="4.71622">
        <ele>341.33441</ele>
        <time>2023-07-26T13:31:54.000Z</time>
      </trkpt>
      <trkpt lat="45.83374" lon="4.71614">
        <ele>341.26822</ele>
        <time>2023-07-26T13:31:55.000Z</time>
      </trkpt>
      <trkpt lat="45.83376" lon="4.71606">
        <ele>341.18069</ele>
        <time>2023-07-26T13:31:56.000Z</time>
      </trkpt>
      <trkpt lat="45.83379" lon="4.71599">
        <ele>340.93719</ele>
        <time>2023-07-26T13:31:57.000Z</time>
      </trkpt>
      <trkpt lat="45.83383" lon="4.71592">
        <ele>340.30887</ele>
        <time>2023-07-26T13:31:58.000Z</time>
      </trkpt>
      <trkpt lat="45.8339" lon="4.71589">
        <ele>339.77573</ele>
        <time>2023-07-26T13:31:59.000Z</time>
      </trkpt>
      <trkpt lat="45.83396" lon="4.71592">
        <ele>339.6011</ele>
        <time>2023-07-26T13:32:00.000Z</time>
      </trkpt>
      <trkpt lat="45.834" lon="4.71599">
        <ele>339.66559</ele>
        <time>2023-07-26T13:32:01.000Z</time>
      </trkpt>
      <trkpt lat="45.83403" lon="4.71611">
        <ele>339.74127</ele>
        <time>2023-07-26T13:32:02.000Z</time>
      </trkpt>
      <trkpt lat="45.83406" lon="4.71623">
        <ele>339.32074</ele>
        <time>2023-07-26T13:32:03.000Z</time>
      </trkpt>
      <trkpt lat="45.83409" lon="4.71635">
        <ele>338.9371</ele>
        <time>2023-07-26T13:32:04.000Z</time>
      </trkpt>
      <trkpt lat="45.83411" lon="4.71649">
        <ele>338.56586</ele>
        <time>2023-07-26T13:32:05.000Z</time>
      </trkpt>
      <trkpt lat="45.83414" lon="4.71663">
        <ele>338.1311</ele>
        <time>2023-07-26T13:32:06.000Z</time>
      </trkpt>
      <trkpt lat="45.83418" lon="4.71678">
        <ele>337.67661</ele>
        <time>2023-07-26T13:32:07.000Z</time>
      </trkpt>
      <trkpt lat="45.8342" lon="4.71694">
        <ele>337.22089</ele>
        <time>2023-07-26T13:32:08.000Z</time>
      </trkpt>
      <trkpt lat="45.83423" lon="4.71709">
        <ele>336.74899</ele>
        <time>2023-07-26T13:32:09.000Z</time>
      </trkpt>
      <trkpt lat="45.83426" lon="4.71724">
        <ele>336.26251</ele>
        <time>2023-07-26T13:32:10.000Z</time>
      </trkpt>
      <trkpt lat="45.83429" lon="4.71738">
        <ele>335.76389</ele>
        <time>2023-07-26T13:32:11.000Z</time>
      </trkpt>
      <trkpt lat="45.83431" lon="4.71752">
        <ele>335.28534</ele>
        <time>2023-07-26T13:32:12.000Z</time>
      </trkpt>
      <trkpt lat="45.83434" lon="4.71765">
        <ele>334.80502</ele>
        <time>2023-07-26T13:32:13.000Z</time>
      </trkpt>
      <trkpt lat="45.83438" lon="4.71775">
        <ele>334.51923</ele>
        <time>2023-07-26T13:32:14.000Z</time>
      </trkpt>
      <trkpt lat="45.83441" lon="4.71786">
        <ele>334.00873</ele>
        <time>2023-07-26T13:32:15.000Z</time>
      </trkpt>
      <trkpt lat="45.83445" lon="4.71796">
        <ele>333.5455</ele>
        <time>2023-07-26T13:32:16.000Z</time>
      </trkpt>
      <trkpt lat="45.83449" lon="4.71806">
        <ele>333.16293</ele>
        <time>2023-07-26T13:32:17.000Z</time>
      </trkpt>
      <trkpt lat="45.83452" lon="4.71812">
        <ele>332.70715</ele>
        <time>2023-07-26T13:32:18.000Z</time>
      </trkpt>
      <trkpt lat="45.83454" lon="4.71819">
        <ele>332.47128</ele>
        <time>2023-07-26T13:32:19.000Z</time>
      </trkpt>
      <trkpt lat="45.83457" lon="4.71826">
        <ele>332.3461</ele>
        <time>2023-07-26T13:32:20.000Z</time>
      </trkpt>
      <trkpt lat="45.8346" lon="4.71831">
        <ele>331.54987</ele>
        <time>2023-07-26T13:32:21.000Z</time>
      </trkpt>
      <trkpt lat="45.83462" lon="4.71837">
        <ele>330.82831</ele>
        <time>2023-07-26T13:32:22.000Z</time>
      </trkpt>
      <trkpt lat="45.83464" lon="4.71843">
        <ele>330.61728</ele>
        <time>2023-07-26T13:32:23.000Z</time>
      </trkpt>
      <trkpt lat="45.83466" lon="4.71848">
        <ele>330.37131</ele>
        <time>2023-07-26T13:32:24.000Z</time>
      </trkpt>
      <trkpt lat="45.83469" lon="4.71853">
        <ele>330.12701</ele>
        <time>2023-07-26T13:32:25.000Z</time>
      </trkpt>
      <trkpt lat="45.83472" lon="4.71859">
        <ele>329.97623</ele>
        <time>2023-07-26T13:32:26.000Z</time>
      </trkpt>
      <trkpt lat="45.83473" lon="4.71865">
        <ele>329.88104</ele>
        <time>2023-07-26T13:32:27.000Z</time>
      </trkpt>
      <trkpt lat="45.83475" lon="4.71871">
        <ele>329.81094</ele>
        <time>2023-07-26T13:32:28.000Z</time>
      </trkpt>
      <trkpt lat="45.83476" lon="4.71877">
        <ele>329.77454</ele>
        <time>2023-07-26T13:32:29.000Z</time>
      </trkpt>
      <trkpt lat="45.83476" lon="4.71883">
        <ele>329.73398</ele>
        <time>2023-07-26T13:32:30.000Z</time>
      </trkpt>
      <trkpt lat="45.83476" lon="4.71889">
        <ele>329.70441</ele>
        <time>2023-07-26T13:32:31.000Z</time>
      </trkpt>
      <trkpt lat="45.83475" lon="4.71895">
        <ele>329.63358</ele>
        <time>2023-07-26T13:32:32.000Z</time>
      </trkpt>
      <trkpt lat="45.83474" lon="4.719">
        <ele>329.7305</ele>
        <time>2023-07-26T13:32:33.000Z</time>
      </trkpt>
      <trkpt lat="45.83472" lon="4.71906">
        <ele>329.94626</ele>
        <time>2023-07-26T13:32:34.000Z</time>
      </trkpt>
      <trkpt lat="45.83471" lon="4.71912">
        <ele>330.0293</ele>
        <time>2023-07-26T13:32:35.000Z</time>
      </trkpt>
      <trkpt lat="45.8347" lon="4.71917">
        <ele>330.13019</ele>
        <time>2023-07-26T13:32:36.000Z</time>
      </trkpt>
      <trkpt lat="45.83468" lon="4.71923">
        <ele>330.22549</ele>
        <time>2023-07-26T13:32:37.000Z</time>
      </trkpt>
      <trkpt lat="45.83467" lon="4.71929">
        <ele>330.32047</ele>
        <time>2023-07-26T13:32:38.000Z</time>
      </trkpt>
      <trkpt lat="45.83466" lon="4.71935">
        <ele>330.25046</ele>
        <time>2023-07-26T13:32:39.000Z</time>
      </trkpt>
      <trkpt lat="45.83465" lon="4.7194">
        <ele>330.0498</ele>
        <time>2023-07-26T13:32:40.000Z</time>
      </trkpt>
      <trkpt lat="45.83463" lon="4.71945">
        <ele>330.24359</ele>
        <time>2023-07-26T13:32:41.000Z</time>
      </trkpt>
      <trkpt lat="45.83461" lon="4.71951">
        <ele>330.371</ele>
        <time>2023-07-26T13:32:42.000Z</time>
      </trkpt>
      <trkpt lat="45.8346" lon="4.71956">
        <ele>330.50558</ele>
        <time>2023-07-26T13:32:43.000Z</time>
      </trkpt>
      <trkpt lat="45.83458" lon="4.71961">
        <ele>330.65558</ele>
        <time>2023-07-26T13:32:44.000Z</time>
      </trkpt>
      <trkpt lat="45.83457" lon="4.71967">
        <ele>330.79779</ele>
        <time>2023-07-26T13:32:45.000Z</time>
      </trkpt>
      <trkpt lat="45.83456" lon="4.71972">
        <ele>330.9231</ele>
        <time>2023-07-26T13:32:46.000Z</time>
      </trkpt>
      <trkpt lat="45.83455" lon="4.71978">
        <ele>331.20621</ele>
        <time>2023-07-26T13:32:47.000Z</time>
      </trkpt>
      <trkpt lat="45.83453" lon="4.71984">
        <ele>331.57538</ele>
        <time>2023-07-26T13:32:48.000Z</time>
      </trkpt>
      <trkpt lat="45.83451" lon="4.71989">
        <ele>331.93161</ele>
        <time>2023-07-26T13:32:49.000Z</time>
      </trkpt>
      <trkpt lat="45.8345" lon="4.71994">
        <ele>331.99051</ele>
        <time>2023-07-26T13:32:50.000Z</time>
      </trkpt>
      <trkpt lat="45.83447" lon="4.71999">
        <ele>332.1228</ele>
        <time>2023-07-26T13:32:51.000Z</time>
      </trkpt>
      <trkpt lat="45.83446" lon="4.72004">
        <ele>332.29102</ele>
        <time>2023-07-26T13:32:52.000Z</time>
      </trkpt>
      <trkpt lat="45.83444" lon="4.72009">
        <ele>332.28705</ele>
        <time>2023-07-26T13:32:53.000Z</time>
      </trkpt>
      <trkpt lat="45.83443" lon="4.72014">
        <ele>332.17142</ele>
        <time>2023-07-26T13:32:54.000Z</time>
      </trkpt>
      <trkpt lat="45.83441" lon="4.72019">
        <ele>332.39215</ele>
        <time>2023-07-26T13:32:55.000Z</time>
      </trkpt>
      <trkpt lat="45.8344" lon="4.72025">
        <ele>332.5712</ele>
        <time>2023-07-26T13:32:56.000Z</time>
      </trkpt>
      <trkpt lat="45.83439" lon="4.7203">
        <ele>332.7283</ele>
        <time>2023-07-26T13:32:57.000Z</time>
      </trkpt>
      <trkpt lat="45.83438" lon="4.72035">
        <ele>332.89954</ele>
        <time>2023-07-26T13:32:58.000Z</time>
      </trkpt>
      <trkpt lat="45.83435" lon="4.72038">
        <ele>333.04114</ele>
        <time>2023-07-26T13:32:59.000Z</time>
      </trkpt>
      <trkpt lat="45.83431" lon="4.72038">
        <ele>333.16782</ele>
        <time>2023-07-26T13:33:00.000Z</time>
      </trkpt>
      <trkpt lat="45.83428" lon="4.72036">
        <ele>333.26761</ele>
        <time>2023-07-26T13:33:01.000Z</time>
      </trkpt>
      <trkpt lat="45.83424" lon="4.72033">
        <ele>333.34644</ele>
        <time>2023-07-26T13:33:02.000Z</time>
      </trkpt>
      <trkpt lat="45.8342" lon="4.7203">
        <ele>333.41287</ele>
        <time>2023-07-26T13:33:03.000Z</time>
      </trkpt>
      <trkpt lat="45.83416" lon="4.72028">
        <ele>333.48248</ele>
        <time>2023-07-26T13:33:04.000Z</time>
      </trkpt>
      <trkpt lat="45.83412" lon="4.72026">
        <ele>333.54865</ele>
        <time>2023-07-26T13:33:05.000Z</time>
      </trkpt>
      <trkpt lat="45.83408" lon="4.72025">
        <ele>333.61786</ele>
        <time>2023-07-26T13:33:06.000Z</time>
      </trkpt>
      <trkpt lat="45.83404" lon="4.72023">
        <ele>333.52289</ele>
        <time>2023-07-26T13:33:07.000Z</time>
      </trkpt>
      <trkpt lat="45.834" lon="4.72021">
        <ele>333.35526</ele>
        <time>2023-07-26T13:33:08.000Z</time>
      </trkpt>
      <trkpt lat="45.83396" lon="4.72019">
        <ele>333.31427</ele>
        <time>2023-07-26T13:33:09.000Z</time>
      </trkpt>
      <trkpt lat="45.83392" lon="4.72017">
        <ele>333.67572</ele>
        <time>2023-07-26T13:33:10.000Z</time>
      </trkpt>
      <trkpt lat="45.83389" lon="4.72015">
        <ele>333.646</ele>
        <time>2023-07-26T13:33:11.000Z</time>
      </trkpt>
      <trkpt lat="45.83386" lon="4.72012">
        <ele>333.64886</ele>
        <time>2023-07-26T13:33:12.000Z</time>
      </trkpt>
      <trkpt lat="45.83381" lon="4.72008">
        <ele>333.65714</ele>
        <time>2023-07-26T13:33:13.000Z</time>
      </trkpt>
      <trkpt lat="45.83377" lon="4.72004">
        <ele>333.67987</ele>
        <time>2023-07-26T13:33:14.000Z</time>
      </trkpt>
      <trkpt lat="45.83372" lon="4.72">
        <ele>333.71521</ele>
        <time>2023-07-26T13:33:15.000Z</time>
      </trkpt>
      <trkpt lat="45.83368" lon="4.71996">
        <ele>333.72745</ele>
        <time>2023-07-26T13:33:16.000Z</time>
      </trkpt>
      <trkpt lat="45.83363" lon="4.71992">
        <ele>333.84952</ele>
        <time>2023-07-26T13:33:17.000Z</time>
      </trkpt>
      <trkpt lat="45.83359" lon="4.71988">
        <ele>334.05872</ele>
        <time>2023-07-26T13:33:18.000Z</time>
      </trkpt>
      <trkpt lat="45.83354" lon="4.71983">
        <ele>334.2746</ele>
        <time>2023-07-26T13:33:19.000Z</time>
      </trkpt>
      <trkpt lat="45.83349" lon="4.7198">
        <ele>334.15042</ele>
        <time>2023-07-26T13:33:20.000Z</time>
      </trkpt>
      <trkpt lat="45.83344" lon="4.71976">
        <ele>334.04944</ele>
        <time>2023-07-26T13:33:21.000Z</time>
      </trkpt>
      <trkpt lat="45.83338" lon="4.71971">
        <ele>333.96875</ele>
        <time>2023-07-26T13:33:22.000Z</time>
      </trkpt>
      <trkpt lat="45.83333" lon="4.71967">
        <ele>333.87585</ele>
        <time>2023-07-26T13:33:23.000Z</time>
      </trkpt>
      <trkpt lat="45.83328" lon="4.71962">
        <ele>333.76645</ele>
        <time>2023-07-26T13:33:24.000Z</time>
      </trkpt>
      <trkpt lat="45.83323" lon="4.71955">
        <ele>333.17667</ele>
        <time>2023-07-26T13:33:25.000Z</time>
      </trkpt>
      <trkpt lat="45.8332" lon="4.71949">
        <ele>332.48605</ele>
        <time>2023-07-26T13:33:26.000Z</time>
      </trkpt>
      <trkpt lat="45.8332" lon="4.71942">
        <ele>332.5354</ele>
        <time>2023-07-26T13:33:27.000Z</time>
      </trkpt>
      <trkpt lat="45.83317" lon="4.71938">
        <ele>332.74567</ele>
        <time>2023-07-26T13:33:28.000Z</time>
      </trkpt>
      <trkpt lat="45.83313" lon="4.71931">
        <ele>332.45905</ele>
        <time>2023-07-26T13:33:29.000Z</time>
      </trkpt>
      <trkpt lat="45.8331" lon="4.71927">
        <ele>332.11703</ele>
        <time>2023-07-26T13:33:30.000Z</time>
      </trkpt>
      <trkpt lat="45.83306" lon="4.71921">
        <ele>331.94305</ele>
        <time>2023-07-26T13:33:31.000Z</time>
      </trkpt>
      <trkpt lat="45.83302" lon="4.71917">
        <ele>331.72223</ele>
        <time>2023-07-26T13:33:32.000Z</time>
      </trkpt>
      <trkpt lat="45.83296" lon="4.71914">
        <ele>331.49997</ele>
        <time>2023-07-26T13:33:33.000Z</time>
      </trkpt>
      <trkpt lat="45.83291" lon="4.71911">
        <ele>331.27875</ele>
        <time>2023-07-26T13:33:34.000Z</time>
      </trkpt>
      <trkpt lat="45.83286" lon="4.71906">
        <ele>331.03961</ele>
        <time>2023-07-26T13:33:35.000Z</time>
      </trkpt>
      <trkpt lat="45.83282" lon="4.71903">
        <ele>330.82309</ele>
        <time>2023-07-26T13:33:36.000Z</time>
      </trkpt>
      <trkpt lat="45.83278" lon="4.719">
        <ele>330.4642</ele>
        <time>2023-07-26T13:33:37.000Z</time>
      </trkpt>
      <trkpt lat="45.83273" lon="4.71897">
        <ele>330.00256</ele>
        <time>2023-07-26T13:33:38.000Z</time>
      </trkpt>
      <trkpt lat="45.83269" lon="4.71894">
        <ele>329.52771</ele>
        <time>2023-07-26T13:33:39.000Z</time>
      </trkpt>
      <trkpt lat="45.83265" lon="4.71891">
        <ele>329.40738</ele>
        <time>2023-07-26T13:33:40.000Z</time>
      </trkpt>
      <trkpt lat="45.83261" lon="4.71888">
        <ele>329.27081</ele>
        <time>2023-07-26T13:33:41.000Z</time>
      </trkpt>
      <trkpt lat="45.83257" lon="4.71886">
        <ele>329.13809</ele>
        <time>2023-07-26T13:33:42.000Z</time>
      </trkpt>
      <trkpt lat="45.83253" lon="4.71883">
        <ele>329.00632</ele>
        <time>2023-07-26T13:33:43.000Z</time>
      </trkpt>
      <trkpt lat="45.83249" lon="4.7188">
        <ele>328.88947</ele>
        <time>2023-07-26T13:33:44.000Z</time>
      </trkpt>
      <trkpt lat="45.83246" lon="4.71877">
        <ele>329.26434</ele>
        <time>2023-07-26T13:33:45.000Z</time>
      </trkpt>
      <trkpt lat="45.83242" lon="4.71875">
        <ele>329.73215</ele>
        <time>2023-07-26T13:33:46.000Z</time>
      </trkpt>
      <trkpt lat="45.83238" lon="4.71872">
        <ele>329.47208</ele>
        <time>2023-07-26T13:33:47.000Z</time>
      </trkpt>
      <trkpt lat="45.83234" lon="4.7187">
        <ele>329.05573</ele>
        <time>2023-07-26T13:33:48.000Z</time>
      </trkpt>
      <trkpt lat="45.8323" lon="4.71868">
        <ele>329.01678</ele>
        <time>2023-07-26T13:33:49.000Z</time>
      </trkpt>
      <trkpt lat="45.83229" lon="4.71865">
        <ele>328.89328</ele>
        <time>2023-07-26T13:33:50.000Z</time>
      </trkpt>
      <trkpt lat="45.83225" lon="4.71863">
        <ele>329.03729</ele>
        <time>2023-07-26T13:33:51.000Z</time>
      </trkpt>
      <trkpt lat="45.83222" lon="4.71861">
        <ele>329.22162</ele>
        <time>2023-07-26T13:33:52.000Z</time>
      </trkpt>
      <trkpt lat="45.83217" lon="4.71858">
        <ele>329.39365</ele>
        <time>2023-07-26T13:33:53.000Z</time>
      </trkpt>
      <trkpt lat="45.83213" lon="4.71857">
        <ele>329.55759</ele>
        <time>2023-07-26T13:33:54.000Z</time>
      </trkpt>
      <trkpt lat="45.8321" lon="4.71855">
        <ele>329.74579</ele>
        <time>2023-07-26T13:33:55.000Z</time>
      </trkpt>
      <trkpt lat="45.83206" lon="4.71855">
        <ele>329.9519</ele>
        <time>2023-07-26T13:33:56.000Z</time>
      </trkpt>
      <trkpt lat="45.83203" lon="4.71853">
        <ele>330.15506</ele>
        <time>2023-07-26T13:33:57.000Z</time>
      </trkpt>
      <trkpt lat="45.832" lon="4.71853">
        <ele>330.38666</ele>
        <time>2023-07-26T13:33:58.000Z</time>
      </trkpt>
      <trkpt lat="45.83197" lon="4.71852">
        <ele>330.80072</ele>
        <time>2023-07-26T13:33:59.000Z</time>
      </trkpt>
      <trkpt lat="45.83193" lon="4.71851">
        <ele>331.24237</ele>
        <time>2023-07-26T13:34:00.000Z</time>
      </trkpt>
      <trkpt lat="45.8319" lon="4.71849">
        <ele>331.69305</ele>
        <time>2023-07-26T13:34:01.000Z</time>
      </trkpt>
      <trkpt lat="45.83186" lon="4.71848">
        <ele>332.22211</ele>
        <time>2023-07-26T13:34:02.000Z</time>
      </trkpt>
      <trkpt lat="45.83183" lon="4.71847">
        <ele>332.82739</ele>
        <time>2023-07-26T13:34:03.000Z</time>
      </trkpt>
      <trkpt lat="45.83179" lon="4.71847">
        <ele>333.24573</ele>
        <time>2023-07-26T13:34:04.000Z</time>
      </trkpt>
      <trkpt lat="45.83175" lon="4.71848">
        <ele>333.70435</ele>
        <time>2023-07-26T13:34:05.000Z</time>
      </trkpt>
      <trkpt lat="45.83171" lon="4.71849">
        <ele>334.30289</ele>
        <time>2023-07-26T13:34:06.000Z</time>
      </trkpt>
      <trkpt lat="45.83167" lon="4.7185">
        <ele>334.91397</ele>
        <time>2023-07-26T13:34:07.000Z</time>
      </trkpt>
      <trkpt lat="45.83163" lon="4.7185">
        <ele>335.48602</ele>
        <time>2023-07-26T13:34:08.000Z</time>
      </trkpt>
      <trkpt lat="45.83158" lon="4.7185">
        <ele>336.00391</ele>
        <time>2023-07-26T13:34:09.000Z</time>
      </trkpt>
      <trkpt lat="45.83154" lon="4.71851">
        <ele>336.68646</ele>
        <time>2023-07-26T13:34:10.000Z</time>
      </trkpt>
      <trkpt lat="45.8315" lon="4.71852">
        <ele>337.17548</ele>
        <time>2023-07-26T13:34:11.000Z</time>
      </trkpt>
      <trkpt lat="45.83146" lon="4.71852">
        <ele>337.76801</ele>
        <time>2023-07-26T13:34:12.000Z</time>
      </trkpt>
      <trkpt lat="45.83142" lon="4.71852">
        <ele>338.3378</ele>
        <time>2023-07-26T13:34:13.000Z</time>
      </trkpt>
      <trkpt lat="45.83137" lon="4.71852">
        <ele>338.67828</ele>
        <time>2023-07-26T13:34:14.000Z</time>
      </trkpt>
      <trkpt lat="45.83133" lon="4.71851">
        <ele>339.01422</ele>
        <time>2023-07-26T13:34:15.000Z</time>
      </trkpt>
      <trkpt lat="45.83128" lon="4.7185">
        <ele>339.34048</ele>
        <time>2023-07-26T13:34:16.000Z</time>
      </trkpt>
      <trkpt lat="45.83124" lon="4.71849">
        <ele>339.64951</ele>
        <time>2023-07-26T13:34:17.000Z</time>
      </trkpt>
      <trkpt lat="45.83119" lon="4.71847">
        <ele>339.85495</ele>
        <time>2023-07-26T13:34:18.000Z</time>
      </trkpt>
      <trkpt lat="45.83115" lon="4.71846">
        <ele>339.89178</ele>
        <time>2023-07-26T13:34:19.000Z</time>
      </trkpt>
      <trkpt lat="45.83111" lon="4.71844">
        <ele>339.90662</ele>
        <time>2023-07-26T13:34:20.000Z</time>
      </trkpt>
      <trkpt lat="45.83106" lon="4.71841">
        <ele>339.91071</ele>
        <time>2023-07-26T13:34:21.000Z</time>
      </trkpt>
      <trkpt lat="45.83102" lon="4.71838">
        <ele>340.55408</ele>
        <time>2023-07-26T13:34:22.000Z</time>
      </trkpt>
      <trkpt lat="45.83099" lon="4.71836">
        <ele>340.91519</ele>
        <time>2023-07-26T13:34:23.000Z</time>
      </trkpt>
      <trkpt lat="45.83095" lon="4.71833">
        <ele>341.45435</ele>
        <time>2023-07-26T13:34:24.000Z</time>
      </trkpt>
      <trkpt lat="45.83091" lon="4.7183">
        <ele>341.97189</ele>
        <time>2023-07-26T13:34:25.000Z</time>
      </trkpt>
      <trkpt lat="45.83087" lon="4.71826">
        <ele>342.46118</ele>
        <time>2023-07-26T13:34:26.000Z</time>
      </trkpt>
      <trkpt lat="45.83084" lon="4.71823">
        <ele>342.47525</ele>
        <time>2023-07-26T13:34:27.000Z</time>
      </trkpt>
      <trkpt lat="45.8308" lon="4.7182">
        <ele>342.51465</ele>
        <time>2023-07-26T13:34:28.000Z</time>
      </trkpt>
      <trkpt lat="45.83077" lon="4.71817">
        <ele>342.63873</ele>
        <time>2023-07-26T13:34:29.000Z</time>
      </trkpt>
      <trkpt lat="45.83073" lon="4.71813">
        <ele>342.66315</ele>
        <time>2023-07-26T13:34:30.000Z</time>
      </trkpt>
      <trkpt lat="45.83069" lon="4.7181">
        <ele>342.72748</ele>
        <time>2023-07-26T13:34:31.000Z</time>
      </trkpt>
      <trkpt lat="45.83066" lon="4.71808">
        <ele>342.82916</ele>
        <time>2023-07-26T13:34:32.000Z</time>
      </trkpt>
      <trkpt lat="45.83062" lon="4.71805">
        <ele>342.89725</ele>
        <time>2023-07-26T13:34:33.000Z</time>
      </trkpt>
      <trkpt lat="45.83058" lon="4.71802">
        <ele>343.26996</ele>
        <time>2023-07-26T13:34:34.000Z</time>
      </trkpt>
      <trkpt lat="45.83054" lon="4.718">
        <ele>343.54813</ele>
        <time>2023-07-26T13:34:35.000Z</time>
      </trkpt>
      <trkpt lat="45.8305" lon="4.71797">
        <ele>343.88364</ele>
        <time>2023-07-26T13:34:36.000Z</time>
      </trkpt>
      <trkpt lat="45.83047" lon="4.71794">
        <ele>344.19989</ele>
        <time>2023-07-26T13:34:37.000Z</time>
      </trkpt>
      <trkpt lat="45.83043" lon="4.71792">
        <ele>343.6955</ele>
        <time>2023-07-26T13:34:38.000Z</time>
      </trkpt>
      <trkpt lat="45.83038" lon="4.71789">
        <ele>343.26236</ele>
        <time>2023-07-26T13:34:39.000Z</time>
      </trkpt>
      <trkpt lat="45.83034" lon="4.71787">
        <ele>342.86383</ele>
        <time>2023-07-26T13:34:40.000Z</time>
      </trkpt>
      <trkpt lat="45.8303" lon="4.71786">
        <ele>342.47076</ele>
        <time>2023-07-26T13:34:41.000Z</time>
      </trkpt>
      <trkpt lat="45.83027" lon="4.71783">
        <ele>341.38953</ele>
        <time>2023-07-26T13:34:42.000Z</time>
      </trkpt>
      <trkpt lat="45.83025" lon="4.7178">
        <ele>340.50568</ele>
        <time>2023-07-26T13:34:43.000Z</time>
      </trkpt>
      <trkpt lat="45.83022" lon="4.71778">
        <ele>339.65381</ele>
        <time>2023-07-26T13:34:44.000Z</time>
      </trkpt>
      <trkpt lat="45.83021" lon="4.71775">
        <ele>338.73853</ele>
        <time>2023-07-26T13:34:45.000Z</time>
      </trkpt>
      <trkpt lat="45.83015" lon="4.71774">
        <ele>337.71802</ele>
        <time>2023-07-26T13:34:46.000Z</time>
      </trkpt>
      <trkpt lat="45.83011" lon="4.71773">
        <ele>337.22983</ele>
        <time>2023-07-26T13:34:47.000Z</time>
      </trkpt>
      <trkpt lat="45.83007" lon="4.71773">
        <ele>336.75757</ele>
        <time>2023-07-26T13:34:48.000Z</time>
      </trkpt>
      <trkpt lat="45.83003" lon="4.71772">
        <ele>336.26117</ele>
        <time>2023-07-26T13:34:49.000Z</time>
      </trkpt>
      <trkpt lat="45.83" lon="4.7177">
        <ele>335.72787</ele>
        <time>2023-07-26T13:34:50.000Z</time>
      </trkpt>
      <trkpt lat="45.82997" lon="4.7177">
        <ele>335.26413</ele>
        <time>2023-07-26T13:34:51.000Z</time>
      </trkpt>
      <trkpt lat="45.82993" lon="4.7177">
        <ele>334.61426</ele>
        <time>2023-07-26T13:34:52.000Z</time>
      </trkpt>
      <trkpt lat="45.8299" lon="4.71769">
        <ele>334.08224</ele>
        <time>2023-07-26T13:34:53.000Z</time>
      </trkpt>
      <trkpt lat="45.82986" lon="4.71768">
        <ele>333.50546</ele>
        <time>2023-07-26T13:34:54.000Z</time>
      </trkpt>
      <trkpt lat="45.82982" lon="4.71767">
        <ele>333.02325</ele>
        <time>2023-07-26T13:34:55.000Z</time>
      </trkpt>
      <trkpt lat="45.82979" lon="4.71767">
        <ele>332.45605</ele>
        <time>2023-07-26T13:34:56.000Z</time>
      </trkpt>
      <trkpt lat="45.82976" lon="4.71766">
        <ele>331.92056</ele>
        <time>2023-07-26T13:34:57.000Z</time>
      </trkpt>
      <trkpt lat="45.82972" lon="4.71765">
        <ele>332.2814</ele>
        <time>2023-07-26T13:34:58.000Z</time>
      </trkpt>
      <trkpt lat="45.82969" lon="4.71764">
        <ele>332.57202</ele>
        <time>2023-07-26T13:34:59.000Z</time>
      </trkpt>
      <trkpt lat="45.82966" lon="4.71764">
        <ele>332.80771</ele>
        <time>2023-07-26T13:35:00.000Z</time>
      </trkpt>
      <trkpt lat="45.82963" lon="4.71765">
        <ele>333.03827</ele>
        <time>2023-07-26T13:35:01.000Z</time>
      </trkpt>
      <trkpt lat="45.8296" lon="4.71768">
        <ele>333.21594</ele>
        <time>2023-07-26T13:35:02.000Z</time>
      </trkpt>
      <trkpt lat="45.82958" lon="4.71772">
        <ele>333.3963</ele>
        <time>2023-07-26T13:35:03.000Z</time>
      </trkpt>
      <trkpt lat="45.82955" lon="4.71776">
        <ele>333.55267</ele>
        <time>2023-07-26T13:35:04.000Z</time>
      </trkpt>
      <trkpt lat="45.82952" lon="4.71778">
        <ele>333.76273</ele>
        <time>2023-07-26T13:35:05.000Z</time>
      </trkpt>
      <trkpt lat="45.82948" lon="4.7178">
        <ele>333.9473</ele>
        <time>2023-07-26T13:35:06.000Z</time>
      </trkpt>
      <trkpt lat="45.82944" lon="4.7178">
        <ele>334.06787</ele>
        <time>2023-07-26T13:35:07.000Z</time>
      </trkpt>
      <trkpt lat="45.82941" lon="4.7178">
        <ele>334.1965</ele>
        <time>2023-07-26T13:35:08.000Z</time>
      </trkpt>
      <trkpt lat="45.82937" lon="4.7178">
        <ele>334.31683</ele>
        <time>2023-07-26T13:35:09.000Z</time>
      </trkpt>
      <trkpt lat="45.82934" lon="4.71781">
        <ele>334.41388</ele>
        <time>2023-07-26T13:35:10.000Z</time>
      </trkpt>
      <trkpt lat="45.82931" lon="4.71781">
        <ele>334.42413</ele>
        <time>2023-07-26T13:35:11.000Z</time>
      </trkpt>
      <trkpt lat="45.82927" lon="4.71782">
        <ele>334.41177</ele>
        <time>2023-07-26T13:35:12.000Z</time>
      </trkpt>
      <trkpt lat="45.82924" lon="4.71782">
        <ele>334.33279</ele>
        <time>2023-07-26T13:35:13.000Z</time>
      </trkpt>
      <trkpt lat="45.82921" lon="4.71782">
        <ele>334.31699</ele>
        <time>2023-07-26T13:35:14.000Z</time>
      </trkpt>
      <trkpt lat="45.82918" lon="4.71783">
        <ele>334.27954</ele>
        <time>2023-07-26T13:35:15.000Z</time>
      </trkpt>
      <trkpt lat="45.82915" lon="4.71783">
        <ele>334.26151</ele>
        <time>2023-07-26T13:35:16.000Z</time>
      </trkpt>
      <trkpt lat="45.82912" lon="4.71783">
        <ele>334.26569</ele>
        <time>2023-07-26T13:35:17.000Z</time>
      </trkpt>
      <trkpt lat="45.8291" lon="4.71782">
        <ele>334.23523</ele>
        <time>2023-07-26T13:35:18.000Z</time>
      </trkpt>
      <trkpt lat="45.82907" lon="4.71782">
        <ele>334.17447</ele>
        <time>2023-07-26T13:35:19.000Z</time>
      </trkpt>
      <trkpt lat="45.82905" lon="4.71782">
        <ele>334.08783</ele>
        <time>2023-07-26T13:35:20.000Z</time>
      </trkpt>
      <trkpt lat="45.82902" lon="4.71781">
        <ele>333.99933</ele>
        <time>2023-07-26T13:35:21.000Z</time>
      </trkpt>
      <trkpt lat="45.82899" lon="4.71781">
        <ele>334.03165</ele>
        <time>2023-07-26T13:35:22.000Z</time>
      </trkpt>
      <trkpt lat="45.82895" lon="4.71782">
        <ele>334.07745</ele>
        <time>2023-07-26T13:35:23.000Z</time>
      </trkpt>
      <trkpt lat="45.82892" lon="4.71782">
        <ele>334.09552</ele>
        <time>2023-07-26T13:35:24.000Z</time>
      </trkpt>
      <trkpt lat="45.82888" lon="4.71783">
        <ele>334.0224</ele>
        <time>2023-07-26T13:35:25.000Z</time>
      </trkpt>
      <trkpt lat="45.82884" lon="4.71783">
        <ele>335.09964</ele>
        <time>2023-07-26T13:35:26.000Z</time>
      </trkpt>
      <trkpt lat="45.82881" lon="4.71783">
        <ele>336.14655</ele>
        <time>2023-07-26T13:35:27.000Z</time>
      </trkpt>
      <trkpt lat="45.82878" lon="4.71783">
        <ele>337.13803</ele>
        <time>2023-07-26T13:35:28.000Z</time>
      </trkpt>
      <trkpt lat="45.82874" lon="4.71783">
        <ele>338.14832</ele>
        <time>2023-07-26T13:35:29.000Z</time>
      </trkpt>
      <trkpt lat="45.82871" lon="4.71783">
        <ele>339.20239</ele>
        <time>2023-07-26T13:35:30.000Z</time>
      </trkpt>
      <trkpt lat="45.82868" lon="4.71783">
        <ele>340.27463</ele>
        <time>2023-07-26T13:35:31.000Z</time>
      </trkpt>
      <trkpt lat="45.82864" lon="4.71783">
        <ele>341.65704</ele>
        <time>2023-07-26T13:35:32.000Z</time>
      </trkpt>
      <trkpt lat="45.82861" lon="4.71783">
        <ele>343.04486</ele>
        <time>2023-07-26T13:35:33.000Z</time>
      </trkpt>
      <trkpt lat="45.82858" lon="4.71783">
        <ele>344.33209</ele>
        <time>2023-07-26T13:35:34.000Z</time>
      </trkpt>
      <trkpt lat="45.82855" lon="4.71783">
        <ele>345.82346</ele>
        <time>2023-07-26T13:35:35.000Z</time>
      </trkpt>
      <trkpt lat="45.82853" lon="4.71783">
        <ele>347.31866</ele>
        <time>2023-07-26T13:35:36.000Z</time>
      </trkpt>
      <trkpt lat="45.8285" lon="4.71783">
        <ele>348.21945</ele>
        <time>2023-07-26T13:35:37.000Z</time>
      </trkpt>
      <trkpt lat="45.82847" lon="4.71783">
        <ele>349.26849</ele>
        <time>2023-07-26T13:35:38.000Z</time>
      </trkpt>
      <trkpt lat="45.82845" lon="4.71782">
        <ele>350.61923</ele>
        <time>2023-07-26T13:35:39.000Z</time>
      </trkpt>
      <trkpt lat="45.82842" lon="4.71782">
        <ele>352.00073</ele>
        <time>2023-07-26T13:35:40.000Z</time>
      </trkpt>
      <trkpt lat="45.82839" lon="4.71782">
        <ele>353.3829</ele>
        <time>2023-07-26T13:35:41.000Z</time>
      </trkpt>
      <trkpt lat="45.82837" lon="4.71782">
        <ele>354.66138</ele>
        <time>2023-07-26T13:35:42.000Z</time>
      </trkpt>
      <trkpt lat="45.82834" lon="4.71783">
        <ele>356.15173</ele>
        <time>2023-07-26T13:35:43.000Z</time>
      </trkpt>
      <trkpt lat="45.82831" lon="4.71783">
        <ele>357.05942</ele>
        <time>2023-07-26T13:35:44.000Z</time>
      </trkpt>
      <trkpt lat="45.82828" lon="4.71783">
        <ele>358.13861</ele>
        <time>2023-07-26T13:35:45.000Z</time>
      </trkpt>
      <trkpt lat="45.82826" lon="4.71784">
        <ele>358.08905</ele>
        <time>2023-07-26T13:35:46.000Z</time>
      </trkpt>
      <trkpt lat="45.82824" lon="4.71785">
        <ele>358.04453</ele>
        <time>2023-07-26T13:35:47.000Z</time>
      </trkpt>
      <trkpt lat="45.82822" lon="4.71787">
        <ele>358.02509</ele>
        <time>2023-07-26T13:35:48.000Z</time>
      </trkpt>
      <trkpt lat="45.8282" lon="4.71791">
        <ele>357.96695</ele>
        <time>2023-07-26T13:35:49.000Z</time>
      </trkpt>
      <trkpt lat="45.82819" lon="4.71796">
        <ele>357.94501</ele>
        <time>2023-07-26T13:35:50.000Z</time>
      </trkpt>
      <trkpt lat="45.82818" lon="4.71802">
        <ele>357.9642</ele>
        <time>2023-07-26T13:35:51.000Z</time>
      </trkpt>
      <trkpt lat="45.82818" lon="4.71808">
        <ele>357.72357</ele>
        <time>2023-07-26T13:35:52.000Z</time>
      </trkpt>
      <trkpt lat="45.82818" lon="4.71813">
        <ele>357.48602</ele>
        <time>2023-07-26T13:35:53.000Z</time>
      </trkpt>
      <trkpt lat="45.82818" lon="4.71819">
        <ele>357.56473</ele>
        <time>2023-07-26T13:35:54.000Z</time>
      </trkpt>
      <trkpt lat="45.82817" lon="4.71825">
        <ele>357.6207</ele>
        <time>2023-07-26T13:35:55.000Z</time>
      </trkpt>
      <trkpt lat="45.82817" lon="4.71831">
        <ele>357.67368</ele>
        <time>2023-07-26T13:35:56.000Z</time>
      </trkpt>
      <trkpt lat="45.82816" lon="4.71837">
        <ele>357.71405</ele>
        <time>2023-07-26T13:35:57.000Z</time>
      </trkpt>
      <trkpt lat="45.82815" lon="4.71843">
        <ele>357.7215</ele>
        <time>2023-07-26T13:35:58.000Z</time>
      </trkpt>
      <trkpt lat="45.82814" lon="4.71849">
        <ele>357.5</ele>
        <time>2023-07-26T13:35:59.000Z</time>
      </trkpt>
      <trkpt lat="45.82814" lon="4.71856">
        <ele>357.26245</ele>
        <time>2023-07-26T13:36:00.000Z</time>
      </trkpt>
      <trkpt lat="45.82812" lon="4.71863">
        <ele>356.99719</ele>
        <time>2023-07-26T13:36:01.000Z</time>
      </trkpt>
      <trkpt lat="45.82812" lon="4.71869">
        <ele>356.73352</ele>
        <time>2023-07-26T13:36:02.000Z</time>
      </trkpt>
      <trkpt lat="45.82812" lon="4.71876">
        <ele>356.27521</ele>
        <time>2023-07-26T13:36:03.000Z</time>
      </trkpt>
      <trkpt lat="45.8281" lon="4.71883">
        <ele>356.41608</ele>
        <time>2023-07-26T13:36:04.000Z</time>
      </trkpt>
      <trkpt lat="45.8281" lon="4.7189">
        <ele>356.48419</ele>
        <time>2023-07-26T13:36:05.000Z</time>
      </trkpt>
      <trkpt lat="45.82808" lon="4.71896">
        <ele>356.56061</ele>
        <time>2023-07-26T13:36:06.000Z</time>
      </trkpt>
      <trkpt lat="45.82808" lon="4.71902">
        <ele>356.64322</ele>
        <time>2023-07-26T13:36:07.000Z</time>
      </trkpt>
      <trkpt lat="45.82808" lon="4.7191">
        <ele>356.98926</ele>
        <time>2023-07-26T13:36:08.000Z</time>
      </trkpt>
      <trkpt lat="45.82807" lon="4.71917">
        <ele>357.54645</ele>
        <time>2023-07-26T13:36:09.000Z</time>
      </trkpt>
      <trkpt lat="45.82805" lon="4.71925">
        <ele>357.49243</ele>
        <time>2023-07-26T13:36:10.000Z</time>
      </trkpt>
      <trkpt lat="45.82804" lon="4.71931">
        <ele>357.54388</ele>
        <time>2023-07-26T13:36:11.000Z</time>
      </trkpt>
      <trkpt lat="45.82802" lon="4.71938">
        <ele>357.59177</ele>
        <time>2023-07-26T13:36:12.000Z</time>
      </trkpt>
      <trkpt lat="45.82801" lon="4.71945">
        <ele>357.90561</ele>
        <time>2023-07-26T13:36:13.000Z</time>
      </trkpt>
      <trkpt lat="45.82801" lon="4.71952">
        <ele>357.90521</ele>
        <time>2023-07-26T13:36:14.000Z</time>
      </trkpt>
      <trkpt lat="45.828" lon="4.71958">
        <ele>357.77264</ele>
        <time>2023-07-26T13:36:15.000Z</time>
      </trkpt>
      <trkpt lat="45.82799" lon="4.71965">
        <ele>357.76089</ele>
        <time>2023-07-26T13:36:16.000Z</time>
      </trkpt>
      <trkpt lat="45.82799" lon="4.7197">
        <ele>358.40903</ele>
        <time>2023-07-26T13:36:17.000Z</time>
      </trkpt>
      <trkpt lat="45.82798" lon="4.71976">
        <ele>358.98129</ele>
        <time>2023-07-26T13:36:18.000Z</time>
      </trkpt>
      <trkpt lat="45.82798" lon="4.71982">
        <ele>358.92966</ele>
        <time>2023-07-26T13:36:19.000Z</time>
      </trkpt>
      <trkpt lat="45.82798" lon="4.71988">
        <ele>358.99799</ele>
        <time>2023-07-26T13:36:20.000Z</time>
      </trkpt>
      <trkpt lat="45.82797" lon="4.71994">
        <ele>359.11972</ele>
        <time>2023-07-26T13:36:21.000Z</time>
      </trkpt>
      <trkpt lat="45.82798" lon="4.71999">
        <ele>359.24078</ele>
        <time>2023-07-26T13:36:22.000Z</time>
      </trkpt>
      <trkpt lat="45.82797" lon="4.72004">
        <ele>359.35919</ele>
        <time>2023-07-26T13:36:23.000Z</time>
      </trkpt>
      <trkpt lat="45.82797" lon="4.72009">
        <ele>359.48557</ele>
        <time>2023-07-26T13:36:24.000Z</time>
      </trkpt>
      <trkpt lat="45.82796" lon="4.72014">
        <ele>359.58249</ele>
        <time>2023-07-26T13:36:25.000Z</time>
      </trkpt>
      <trkpt lat="45.82795" lon="4.72019">
        <ele>359.6713</ele>
        <time>2023-07-26T13:36:26.000Z</time>
      </trkpt>
      <trkpt lat="45.82794" lon="4.72024">
        <ele>359.78467</ele>
        <time>2023-07-26T13:36:27.000Z</time>
      </trkpt>
      <trkpt lat="45.82793" lon="4.72029">
        <ele>359.6474</ele>
        <time>2023-07-26T13:36:28.000Z</time>
      </trkpt>
      <trkpt lat="45.82791" lon="4.72034">
        <ele>359.31876</ele>
        <time>2023-07-26T13:36:29.000Z</time>
      </trkpt>
      <trkpt lat="45.8279" lon="4.72039">
        <ele>359.56403</ele>
        <time>2023-07-26T13:36:30.000Z</time>
      </trkpt>
      <trkpt lat="45.82788" lon="4.72043">
        <ele>359.70743</ele>
        <time>2023-07-26T13:36:31.000Z</time>
      </trkpt>
      <trkpt lat="45.82787" lon="4.72048">
        <ele>359.84311</ele>
        <time>2023-07-26T13:36:32.000Z</time>
      </trkpt>
      <trkpt lat="45.82786" lon="4.72053">
        <ele>359.74283</ele>
        <time>2023-07-26T13:36:33.000Z</time>
      </trkpt>
      <trkpt lat="45.82785" lon="4.72058">
        <ele>359.63873</ele>
        <time>2023-07-26T13:36:34.000Z</time>
      </trkpt>
      <trkpt lat="45.82784" lon="4.72062">
        <ele>359.52771</ele>
        <time>2023-07-26T13:36:35.000Z</time>
      </trkpt>
      <trkpt lat="45.82783" lon="4.72067">
        <ele>359.55984</ele>
        <time>2023-07-26T13:36:36.000Z</time>
      </trkpt>
      <trkpt lat="45.82782" lon="4.7207">
        <ele>359.73102</ele>
        <time>2023-07-26T13:36:37.000Z</time>
      </trkpt>
      <trkpt lat="45.8278" lon="4.72074">
        <ele>359.9278</ele>
        <time>2023-07-26T13:36:38.000Z</time>
      </trkpt>
      <trkpt lat="45.82779" lon="4.72079">
        <ele>360.19427</ele>
        <time>2023-07-26T13:36:39.000Z</time>
      </trkpt>
      <trkpt lat="45.82777" lon="4.72083">
        <ele>360.44904</ele>
        <time>2023-07-26T13:36:40.000Z</time>
      </trkpt>
      <trkpt lat="45.82776" lon="4.72087">
        <ele>360.68256</ele>
        <time>2023-07-26T13:36:41.000Z</time>
      </trkpt>
      <trkpt lat="45.82775" lon="4.72091">
        <ele>360.95505</ele>
        <time>2023-07-26T13:36:42.000Z</time>
      </trkpt>
      <trkpt lat="45.82774" lon="4.72096">
        <ele>361.21567</ele>
        <time>2023-07-26T13:36:43.000Z</time>
      </trkpt>
      <trkpt lat="45.82772" lon="4.721">
        <ele>361.47418</ele>
        <time>2023-07-26T13:36:44.000Z</time>
      </trkpt>
      <trkpt lat="45.82771" lon="4.72105">
        <ele>361.74548</ele>
        <time>2023-07-26T13:36:45.000Z</time>
      </trkpt>
      <trkpt lat="45.8277" lon="4.72109">
        <ele>362.25772</ele>
        <time>2023-07-26T13:36:46.000Z</time>
      </trkpt>
      <trkpt lat="45.82769" lon="4.72114">
        <ele>362.90625</ele>
        <time>2023-07-26T13:36:47.000Z</time>
      </trkpt>
      <trkpt lat="45.82768" lon="4.72119">
        <ele>363.55035</ele>
        <time>2023-07-26T13:36:48.000Z</time>
      </trkpt>
      <trkpt lat="45.82767" lon="4.72123">
        <ele>363.71246</ele>
        <time>2023-07-26T13:36:49.000Z</time>
      </trkpt>
      <trkpt lat="45.82766" lon="4.72128">
        <ele>363.97357</ele>
        <time>2023-07-26T13:36:50.000Z</time>
      </trkpt>
      <trkpt lat="45.82765" lon="4.72132">
        <ele>364.23544</ele>
        <time>2023-07-26T13:36:51.000Z</time>
      </trkpt>
      <trkpt lat="45.82764" lon="4.72136">
        <ele>364.49191</ele>
        <time>2023-07-26T13:36:52.000Z</time>
      </trkpt>
      <trkpt lat="45.82762" lon="4.72141">
        <ele>364.72955</ele>
        <time>2023-07-26T13:36:53.000Z</time>
      </trkpt>
      <trkpt lat="45.82761" lon="4.72146">
        <ele>365.16766</ele>
        <time>2023-07-26T13:36:54.000Z</time>
      </trkpt>
      <trkpt lat="45.8276" lon="4.7215">
        <ele>365.73456</ele>
        <time>2023-07-26T13:36:55.000Z</time>
      </trkpt>
      <trkpt lat="45.82759" lon="4.72155">
        <ele>366.07153</ele>
        <time>2023-07-26T13:36:56.000Z</time>
      </trkpt>
      <trkpt lat="45.82758" lon="4.7216">
        <ele>365.78232</ele>
        <time>2023-07-26T13:36:57.000Z</time>
      </trkpt>
      <trkpt lat="45.82757" lon="4.72164">
        <ele>365.57257</ele>
        <time>2023-07-26T13:36:58.000Z</time>
      </trkpt>
      <trkpt lat="45.82756" lon="4.72169">
        <ele>365.87979</ele>
        <time>2023-07-26T13:36:59.000Z</time>
      </trkpt>
      <trkpt lat="45.82754" lon="4.72173">
        <ele>366.10562</ele>
        <time>2023-07-26T13:37:00.000Z</time>
      </trkpt>
      <trkpt lat="45.82753" lon="4.72178">
        <ele>366.34515</ele>
        <time>2023-07-26T13:37:01.000Z</time>
      </trkpt>
      <trkpt lat="45.82752" lon="4.72182">
        <ele>366.52789</ele>
        <time>2023-07-26T13:37:02.000Z</time>
      </trkpt>
      <trkpt lat="45.82751" lon="4.72187">
        <ele>366.71646</ele>
        <time>2023-07-26T13:37:03.000Z</time>
      </trkpt>
      <trkpt lat="45.8275" lon="4.72191">
        <ele>366.92245</ele>
        <time>2023-07-26T13:37:04.000Z</time>
      </trkpt>
      <trkpt lat="45.82748" lon="4.72196">
        <ele>367.12177</ele>
        <time>2023-07-26T13:37:05.000Z</time>
      </trkpt>
      <trkpt lat="45.82747" lon="4.722">
        <ele>367.08389</ele>
        <time>2023-07-26T13:37:06.000Z</time>
      </trkpt>
      <trkpt lat="45.82745" lon="4.72204">
        <ele>366.88919</ele>
        <time>2023-07-26T13:37:07.000Z</time>
      </trkpt>
      <trkpt lat="45.82744" lon="4.72209">
        <ele>366.67123</ele>
        <time>2023-07-26T13:37:08.000Z</time>
      </trkpt>
      <trkpt lat="45.82743" lon="4.72214">
        <ele>366.92944</ele>
        <time>2023-07-26T13:37:09.000Z</time>
      </trkpt>
      <trkpt lat="45.82742" lon="4.72218">
        <ele>367.08533</ele>
        <time>2023-07-26T13:37:10.000Z</time>
      </trkpt>
      <trkpt lat="45.82741" lon="4.72223">
        <ele>367.2243</ele>
        <time>2023-07-26T13:37:11.000Z</time>
      </trkpt>
      <trkpt lat="45.82739" lon="4.72228">
        <ele>367.34244</ele>
        <time>2023-07-26T13:37:12.000Z</time>
      </trkpt>
      <trkpt lat="45.82738" lon="4.72233">
        <ele>367.44647</ele>
        <time>2023-07-26T13:37:13.000Z</time>
      </trkpt>
      <trkpt lat="45.82737" lon="4.72238">
        <ele>367.32938</ele>
        <time>2023-07-26T13:37:14.000Z</time>
      </trkpt>
      <trkpt lat="45.82735" lon="4.72243">
        <ele>367.06992</ele>
        <time>2023-07-26T13:37:15.000Z</time>
      </trkpt>
      <trkpt lat="45.82734" lon="4.72248">
        <ele>367.00775</ele>
        <time>2023-07-26T13:37:16.000Z</time>
      </trkpt>
      <trkpt lat="45.82733" lon="4.72253">
        <ele>367.53168</ele>
        <time>2023-07-26T13:37:17.000Z</time>
      </trkpt>
      <trkpt lat="45.82731" lon="4.72258">
        <ele>367.96844</ele>
        <time>2023-07-26T13:37:18.000Z</time>
      </trkpt>
      <trkpt lat="45.8273" lon="4.72263">
        <ele>367.96622</ele>
        <time>2023-07-26T13:37:19.000Z</time>
      </trkpt>
      <trkpt lat="45.82729" lon="4.72268">
        <ele>366.83264</ele>
        <time>2023-07-26T13:37:20.000Z</time>
      </trkpt>
      <trkpt lat="45.82728" lon="4.72273">
        <ele>365.89258</ele>
        <time>2023-07-26T13:37:21.000Z</time>
      </trkpt>
      <trkpt lat="45.82726" lon="4.72278">
        <ele>364.95639</ele>
        <time>2023-07-26T13:37:22.000Z</time>
      </trkpt>
      <trkpt lat="45.82725" lon="4.72284">
        <ele>364.01404</ele>
        <time>2023-07-26T13:37:23.000Z</time>
      </trkpt>
      <trkpt lat="45.82724" lon="4.72289">
        <ele>363.09039</ele>
        <time>2023-07-26T13:37:24.000Z</time>
      </trkpt>
      <trkpt lat="45.82723" lon="4.72294">
        <ele>362.16028</ele>
        <time>2023-07-26T13:37:25.000Z</time>
      </trkpt>
      <trkpt lat="45.82721" lon="4.72299">
        <ele>361.2244</ele>
        <time>2023-07-26T13:37:26.000Z</time>
      </trkpt>
      <trkpt lat="45.8272" lon="4.72304">
        <ele>360.26508</ele>
        <time>2023-07-26T13:37:27.000Z</time>
      </trkpt>
      <trkpt lat="45.82718" lon="4.72308">
        <ele>359.33197</ele>
        <time>2023-07-26T13:37:28.000Z</time>
      </trkpt>
      <trkpt lat="45.82717" lon="4.72313">
        <ele>358.40204</ele>
        <time>2023-07-26T13:37:29.000Z</time>
      </trkpt>
      <trkpt lat="45.82716" lon="4.72318">
        <ele>357.48291</ele>
        <time>2023-07-26T13:37:30.000Z</time>
      </trkpt>
      <trkpt lat="45.82715" lon="4.72323">
        <ele>356.58496</ele>
        <time>2023-07-26T13:37:31.000Z</time>
      </trkpt>
      <trkpt lat="45.82714" lon="4.72328">
        <ele>355.71948</ele>
        <time>2023-07-26T13:37:32.000Z</time>
      </trkpt>
      <trkpt lat="45.82713" lon="4.72333">
        <ele>354.88477</ele>
        <time>2023-07-26T13:37:33.000Z</time>
      </trkpt>
      <trkpt lat="45.82712" lon="4.72338">
        <ele>354.04813</ele>
        <time>2023-07-26T13:37:34.000Z</time>
      </trkpt>
      <trkpt lat="45.82711" lon="4.72343">
        <ele>353.19302</ele>
        <time>2023-07-26T13:37:35.000Z</time>
      </trkpt>
      <trkpt lat="45.8271" lon="4.72348">
        <ele>352.10141</ele>
        <time>2023-07-26T13:37:36.000Z</time>
      </trkpt>
      <trkpt lat="45.82705" lon="4.72353">
        <ele>350.90051</ele>
        <time>2023-07-26T13:37:37.000Z</time>
      </trkpt>
      <trkpt lat="45.82702" lon="4.72358">
        <ele>349.49789</ele>
        <time>2023-07-26T13:37:38.000Z</time>
      </trkpt>
      <trkpt lat="45.82699" lon="4.72362">
        <ele>348.52618</ele>
        <time>2023-07-26T13:37:39.000Z</time>
      </trkpt>
      <trkpt lat="45.82697" lon="4.72368">
        <ele>348.686</ele>
        <time>2023-07-26T13:37:40.000Z</time>
      </trkpt>
      <trkpt lat="45.82696" lon="4.72374">
        <ele>348.63193</ele>
        <time>2023-07-26T13:37:41.000Z</time>
      </trkpt>
      <trkpt lat="45.82694" lon="4.72379">
        <ele>348.83615</ele>
        <time>2023-07-26T13:37:42.000Z</time>
      </trkpt>
      <trkpt lat="45.82692" lon="4.72384">
        <ele>349.01328</ele>
        <time>2023-07-26T13:37:43.000Z</time>
      </trkpt>
      <trkpt lat="45.8269" lon="4.72389">
        <ele>349.15991</ele>
        <time>2023-07-26T13:37:44.000Z</time>
      </trkpt>
      <trkpt lat="45.82687" lon="4.72394">
        <ele>349.32086</ele>
        <time>2023-07-26T13:37:45.000Z</time>
      </trkpt>
      <trkpt lat="45.82685" lon="4.724">
        <ele>349.48364</ele>
        <time>2023-07-26T13:37:46.000Z</time>
      </trkpt>
      <trkpt lat="45.82682" lon="4.72404">
        <ele>349.68298</ele>
        <time>2023-07-26T13:37:47.000Z</time>
      </trkpt>
      <trkpt lat="45.8268" lon="4.72409">
        <ele>349.87872</ele>
        <time>2023-07-26T13:37:48.000Z</time>
      </trkpt>
      <trkpt lat="45.82678" lon="4.72414">
        <ele>350.0766</ele>
        <time>2023-07-26T13:37:49.000Z</time>
      </trkpt>
      <trkpt lat="45.82675" lon="4.72419">
        <ele>350.28305</ele>
        <time>2023-07-26T13:37:50.000Z</time>
      </trkpt>
      <trkpt lat="45.82672" lon="4.72425">
        <ele>350.3432</ele>
        <time>2023-07-26T13:37:51.000Z</time>
      </trkpt>
      <trkpt lat="45.82669" lon="4.72431">
        <ele>350.4035</ele>
        <time>2023-07-26T13:37:52.000Z</time>
      </trkpt>
      <trkpt lat="45.82667" lon="4.72436">
        <ele>350.44623</ele>
        <time>2023-07-26T13:37:53.000Z</time>
      </trkpt>
      <trkpt lat="45.82664" lon="4.72441">
        <ele>350.50198</ele>
        <time>2023-07-26T13:37:54.000Z</time>
      </trkpt>
      <trkpt lat="45.82661" lon="4.72446">
        <ele>350.45068</ele>
        <time>2023-07-26T13:37:55.000Z</time>
      </trkpt>
      <trkpt lat="45.82659" lon="4.72451">
        <ele>350.42548</ele>
        <time>2023-07-26T13:37:56.000Z</time>
      </trkpt>
      <trkpt lat="45.82656" lon="4.72456">
        <ele>350.64792</ele>
        <time>2023-07-26T13:37:57.000Z</time>
      </trkpt>
      <trkpt lat="45.82653" lon="4.72462">
        <ele>351.02533</ele>
        <time>2023-07-26T13:37:58.000Z</time>
      </trkpt>
      <trkpt lat="45.82651" lon="4.72467">
        <ele>351.4118</ele>
        <time>2023-07-26T13:37:59.000Z</time>
      </trkpt>
      <trkpt lat="45.8265" lon="4.72473">
        <ele>351.77151</ele>
        <time>2023-07-26T13:38:00.000Z</time>
      </trkpt>
      <trkpt lat="45.82648" lon="4.72477">
        <ele>352.1376</ele>
        <time>2023-07-26T13:38:01.000Z</time>
      </trkpt>
      <trkpt lat="45.82646" lon="4.72482">
        <ele>352.28516</ele>
        <time>2023-07-26T13:38:02.000Z</time>
      </trkpt>
      <trkpt lat="45.82645" lon="4.72488">
        <ele>352.49802</ele>
        <time>2023-07-26T13:38:03.000Z</time>
      </trkpt>
      <trkpt lat="45.82645" lon="4.72494">
        <ele>352.68539</ele>
        <time>2023-07-26T13:38:04.000Z</time>
      </trkpt>
      <trkpt lat="45.82644" lon="4.72501">
        <ele>352.90454</ele>
        <time>2023-07-26T13:38:05.000Z</time>
      </trkpt>
      <trkpt lat="45.82641" lon="4.72507">
        <ele>353.12445</ele>
        <time>2023-07-26T13:38:06.000Z</time>
      </trkpt>
      <trkpt lat="45.82639" lon="4.72512">
        <ele>353.35602</ele>
        <time>2023-07-26T13:38:07.000Z</time>
      </trkpt>
      <trkpt lat="45.82636" lon="4.72518">
        <ele>353.58032</ele>
        <time>2023-07-26T13:38:08.000Z</time>
      </trkpt>
      <trkpt lat="45.82634" lon="4.72523">
        <ele>353.82159</ele>
        <time>2023-07-26T13:38:09.000Z</time>
      </trkpt>
      <trkpt lat="45.82632" lon="4.72529">
        <ele>354.01239</ele>
        <time>2023-07-26T13:38:10.000Z</time>
      </trkpt>
      <trkpt lat="45.82629" lon="4.72535">
        <ele>354.33002</ele>
        <time>2023-07-26T13:38:11.000Z</time>
      </trkpt>
      <trkpt lat="45.82627" lon="4.7254">
        <ele>354.62292</ele>
        <time>2023-07-26T13:38:12.000Z</time>
      </trkpt>
      <trkpt lat="45.82625" lon="4.72546">
        <ele>354.90829</ele>
        <time>2023-07-26T13:38:13.000Z</time>
      </trkpt>
      <trkpt lat="45.82621" lon="4.72551">
        <ele>355.22186</ele>
        <time>2023-07-26T13:38:14.000Z</time>
      </trkpt>
      <trkpt lat="45.82619" lon="4.72556">
        <ele>355.66129</ele>
        <time>2023-07-26T13:38:15.000Z</time>
      </trkpt>
      <trkpt lat="45.82617" lon="4.72562">
        <ele>356.07608</ele>
        <time>2023-07-26T13:38:16.000Z</time>
      </trkpt>
      <trkpt lat="45.82615" lon="4.72568">
        <ele>356.21613</ele>
        <time>2023-07-26T13:38:17.000Z</time>
      </trkpt>
      <trkpt lat="45.82612" lon="4.72573">
        <ele>356.39108</ele>
        <time>2023-07-26T13:38:18.000Z</time>
      </trkpt>
      <trkpt lat="45.8261" lon="4.72578">
        <ele>356.56128</ele>
        <time>2023-07-26T13:38:19.000Z</time>
      </trkpt>
      <trkpt lat="45.82608" lon="4.72582">
        <ele>356.77515</ele>
        <time>2023-07-26T13:38:20.000Z</time>
      </trkpt>
      <trkpt lat="45.82606" lon="4.72588">
        <ele>356.96158</ele>
        <time>2023-07-26T13:38:21.000Z</time>
      </trkpt>
      <trkpt lat="45.82604" lon="4.72594">
        <ele>357.13419</ele>
        <time>2023-07-26T13:38:22.000Z</time>
      </trkpt>
      <trkpt lat="45.82602" lon="4.72599">
        <ele>357.28223</ele>
        <time>2023-07-26T13:38:23.000Z</time>
      </trkpt>
      <trkpt lat="45.82599" lon="4.72605">
        <ele>357.4693</ele>
        <time>2023-07-26T13:38:24.000Z</time>
      </trkpt>
      <trkpt lat="45.82597" lon="4.72611">
        <ele>357.64685</ele>
        <time>2023-07-26T13:38:25.000Z</time>
      </trkpt>
      <trkpt lat="45.82596" lon="4.72617">
        <ele>357.82587</ele>
        <time>2023-07-26T13:38:26.000Z</time>
      </trkpt>
      <trkpt lat="45.82594" lon="4.72624">
        <ele>357.98404</ele>
        <time>2023-07-26T13:38:27.000Z</time>
      </trkpt>
      <trkpt lat="45.82591" lon="4.72629">
        <ele>358.14722</ele>
        <time>2023-07-26T13:38:28.000Z</time>
      </trkpt>
      <trkpt lat="45.8259" lon="4.72635">
        <ele>358.28699</ele>
        <time>2023-07-26T13:38:29.000Z</time>
      </trkpt>
      <trkpt lat="45.82588" lon="4.72641">
        <ele>358.46912</ele>
        <time>2023-07-26T13:38:30.000Z</time>
      </trkpt>
      <trkpt lat="45.82586" lon="4.72648">
        <ele>358.68231</ele>
        <time>2023-07-26T13:38:31.000Z</time>
      </trkpt>
      <trkpt lat="45.82583" lon="4.72654">
        <ele>358.93768</ele>
        <time>2023-07-26T13:38:32.000Z</time>
      </trkpt>
      <trkpt lat="45.82581" lon="4.7266">
        <ele>359.20416</ele>
        <time>2023-07-26T13:38:33.000Z</time>
      </trkpt>
      <trkpt lat="45.82578" lon="4.72666">
        <ele>359.29617</ele>
        <time>2023-07-26T13:38:34.000Z</time>
      </trkpt>
      <trkpt lat="45.82576" lon="4.7267">
        <ele>359.38617</ele>
        <time>2023-07-26T13:38:35.000Z</time>
      </trkpt>
      <trkpt lat="45.82574" lon="4.72676">
        <ele>359.48358</ele>
        <time>2023-07-26T13:38:36.000Z</time>
      </trkpt>
      <trkpt lat="45.82571" lon="4.72682">
        <ele>359.45102</ele>
        <time>2023-07-26T13:38:37.000Z</time>
      </trkpt>
      <trkpt lat="45.8257" lon="4.72688">
        <ele>359.41354</ele>
        <time>2023-07-26T13:38:38.000Z</time>
      </trkpt>
      <trkpt lat="45.82568" lon="4.72693">
        <ele>359.80917</ele>
        <time>2023-07-26T13:38:39.000Z</time>
      </trkpt>
      <trkpt lat="45.82567" lon="4.727">
        <ele>360.04739</ele>
        <time>2023-07-26T13:38:40.000Z</time>
      </trkpt>
      <trkpt lat="45.82565" lon="4.72707">
        <ele>360.36111</ele>
        <time>2023-07-26T13:38:41.000Z</time>
      </trkpt>
      <trkpt lat="45.82564" lon="4.72714">
        <ele>360.69199</ele>
        <time>2023-07-26T13:38:42.000Z</time>
      </trkpt>
      <trkpt lat="45.82564" lon="4.72721">
        <ele>361.0303</ele>
        <time>2023-07-26T13:38:43.000Z</time>
      </trkpt>
      <trkpt lat="45.82563" lon="4.72728">
        <ele>361.32584</ele>
        <time>2023-07-26T13:38:44.000Z</time>
      </trkpt>
      <trkpt lat="45.82561" lon="4.72733">
        <ele>361.56915</ele>
        <time>2023-07-26T13:38:45.000Z</time>
      </trkpt>
      <trkpt lat="45.8256" lon="4.72741">
        <ele>361.81076</ele>
        <time>2023-07-26T13:38:46.000Z</time>
      </trkpt>
      <trkpt lat="45.8256" lon="4.72748">
        <ele>362.05222</ele>
        <time>2023-07-26T13:38:47.000Z</time>
      </trkpt>
      <trkpt lat="45.8256" lon="4.72754">
        <ele>362.30902</ele>
        <time>2023-07-26T13:38:48.000Z</time>
      </trkpt>
      <trkpt lat="45.82559" lon="4.72759">
        <ele>362.56793</ele>
        <time>2023-07-26T13:38:49.000Z</time>
      </trkpt>
      <trkpt lat="45.82558" lon="4.72765">
        <ele>362.82581</ele>
        <time>2023-07-26T13:38:50.000Z</time>
      </trkpt>
      <trkpt lat="45.82558" lon="4.72772">
        <ele>363.07565</ele>
        <time>2023-07-26T13:38:51.000Z</time>
      </trkpt>
      <trkpt lat="45.82558" lon="4.72778">
        <ele>363.29639</ele>
        <time>2023-07-26T13:38:52.000Z</time>
      </trkpt>
      <trkpt lat="45.82558" lon="4.72785">
        <ele>363.48395</ele>
        <time>2023-07-26T13:38:53.000Z</time>
      </trkpt>
      <trkpt lat="45.82558" lon="4.72792">
        <ele>363.85699</ele>
        <time>2023-07-26T13:38:54.000Z</time>
      </trkpt>
      <trkpt lat="45.82557" lon="4.72799">
        <ele>364.2569</ele>
        <time>2023-07-26T13:38:55.000Z</time>
      </trkpt>
      <trkpt lat="45.82558" lon="4.72806">
        <ele>364.67148</ele>
        <time>2023-07-26T13:38:56.000Z</time>
      </trkpt>
      <trkpt lat="45.82557" lon="4.72813">
        <ele>365.18713</ele>
        <time>2023-07-26T13:38:57.000Z</time>
      </trkpt>
      <trkpt lat="45.82558" lon="4.7282">
        <ele>365.69556</ele>
        <time>2023-07-26T13:38:58.000Z</time>
      </trkpt>
      <trkpt lat="45.82558" lon="4.72827">
        <ele>365.74823</ele>
        <time>2023-07-26T13:38:59.000Z</time>
      </trkpt>
      <trkpt lat="45.82558" lon="4.72834">
        <ele>365.76395</ele>
        <time>2023-07-26T13:39:00.000Z</time>
      </trkpt>
      <trkpt lat="45.82558" lon="4.72842">
        <ele>365.75198</ele>
        <time>2023-07-26T13:39:01.000Z</time>
      </trkpt>
      <trkpt lat="45.82558" lon="4.72848">
        <ele>365.61835</ele>
        <time>2023-07-26T13:39:02.000Z</time>
      </trkpt>
      <trkpt lat="45.82558" lon="4.72855">
        <ele>365.41095</ele>
        <time>2023-07-26T13:39:03.000Z</time>
      </trkpt>
      <trkpt lat="45.82558" lon="4.72862">
        <ele>365.67276</ele>
        <time>2023-07-26T13:39:04.000Z</time>
      </trkpt>
      <trkpt lat="45.82558" lon="4.72869">
        <ele>365.85651</ele>
        <time>2023-07-26T13:39:05.000Z</time>
      </trkpt>
      <trkpt lat="45.82559" lon="4.72876">
        <ele>366.08386</ele>
        <time>2023-07-26T13:39:06.000Z</time>
      </trkpt>
      <trkpt lat="45.82559" lon="4.72883">
        <ele>366.32248</ele>
        <time>2023-07-26T13:39:07.000Z</time>
      </trkpt>
      <trkpt lat="45.8256" lon="4.72891">
        <ele>366.52032</ele>
        <time>2023-07-26T13:39:08.000Z</time>
      </trkpt>
      <trkpt lat="45.8256" lon="4.72898">
        <ele>366.75571</ele>
        <time>2023-07-26T13:39:09.000Z</time>
      </trkpt>
      <trkpt lat="45.82561" lon="4.72905">
        <ele>366.99469</ele>
        <time>2023-07-26T13:39:10.000Z</time>
      </trkpt>
      <trkpt lat="45.82563" lon="4.72912">
        <ele>367.23773</ele>
        <time>2023-07-26T13:39:11.000Z</time>
      </trkpt>
      <trkpt lat="45.82563" lon="4.7292">
        <ele>367.42871</ele>
        <time>2023-07-26T13:39:12.000Z</time>
      </trkpt>
      <trkpt lat="45.82564" lon="4.72927">
        <ele>367.65942</ele>
        <time>2023-07-26T13:39:13.000Z</time>
      </trkpt>
      <trkpt lat="45.82566" lon="4.72934">
        <ele>367.9007</ele>
        <time>2023-07-26T13:39:14.000Z</time>
      </trkpt>
      <trkpt lat="45.82568" lon="4.72941">
        <ele>368.11575</ele>
        <time>2023-07-26T13:39:15.000Z</time>
      </trkpt>
      <trkpt lat="45.82569" lon="4.72947">
        <ele>368.31268</ele>
        <time>2023-07-26T13:39:16.000Z</time>
      </trkpt>
      <trkpt lat="45.82571" lon="4.72954">
        <ele>368.50598</ele>
        <time>2023-07-26T13:39:17.000Z</time>
      </trkpt>
      <trkpt lat="45.82574" lon="4.72961">
        <ele>368.78094</ele>
        <time>2023-07-26T13:39:18.000Z</time>
      </trkpt>
      <trkpt lat="45.82576" lon="4.72968">
        <ele>369.07831</ele>
        <time>2023-07-26T13:39:19.000Z</time>
      </trkpt>
      <trkpt lat="45.82578" lon="4.72975">
        <ele>369.19736</ele>
        <time>2023-07-26T13:39:20.000Z</time>
      </trkpt>
      <trkpt lat="45.8258" lon="4.72982">
        <ele>369.2283</ele>
        <time>2023-07-26T13:39:21.000Z</time>
      </trkpt>
      <trkpt lat="45.82582" lon="4.72989">
        <ele>369.85327</ele>
        <time>2023-07-26T13:39:22.000Z</time>
      </trkpt>
      <trkpt lat="45.82585" lon="4.72996">
        <ele>370.42249</ele>
        <time>2023-07-26T13:39:23.000Z</time>
      </trkpt>
      <trkpt lat="45.82587" lon="4.73003">
        <ele>370.54053</ele>
        <time>2023-07-26T13:39:24.000Z</time>
      </trkpt>
      <trkpt lat="45.82589" lon="4.7301">
        <ele>370.76422</ele>
        <time>2023-07-26T13:39:25.000Z</time>
      </trkpt>
      <trkpt lat="45.82592" lon="4.73017">
        <ele>370.97321</ele>
        <time>2023-07-26T13:39:26.000Z</time>
      </trkpt>
      <trkpt lat="45.82594" lon="4.73026">
        <ele>371.16306</ele>
        <time>2023-07-26T13:39:27.000Z</time>
      </trkpt>
      <trkpt lat="45.82597" lon="4.73032">
        <ele>371.36505</ele>
        <time>2023-07-26T13:39:28.000Z</time>
      </trkpt>
      <trkpt lat="45.826" lon="4.7304">
        <ele>371.18585</ele>
        <time>2023-07-26T13:39:29.000Z</time>
      </trkpt>
      <trkpt lat="45.82603" lon="4.73047">
        <ele>371.01715</ele>
        <time>2023-07-26T13:39:30.000Z</time>
      </trkpt>
      <trkpt lat="45.82605" lon="4.73055">
        <ele>370.81897</ele>
        <time>2023-07-26T13:39:31.000Z</time>
      </trkpt>
      <trkpt lat="45.82608" lon="4.73063">
        <ele>370.66553</ele>
        <time>2023-07-26T13:39:32.000Z</time>
      </trkpt>
      <trkpt lat="45.82611" lon="4.73071">
        <ele>370.4848</ele>
        <time>2023-07-26T13:39:33.000Z</time>
      </trkpt>
      <trkpt lat="45.82614" lon="4.73078">
        <ele>370.26364</ele>
        <time>2023-07-26T13:39:34.000Z</time>
      </trkpt>
      <trkpt lat="45.82616" lon="4.73084">
        <ele>370.03326</ele>
        <time>2023-07-26T13:39:35.000Z</time>
      </trkpt>
      <trkpt lat="45.82618" lon="4.73091">
        <ele>369.78534</ele>
        <time>2023-07-26T13:39:36.000Z</time>
      </trkpt>
      <trkpt lat="45.82621" lon="4.73099">
        <ele>369.49152</ele>
        <time>2023-07-26T13:39:37.000Z</time>
      </trkpt>
      <trkpt lat="45.82623" lon="4.73106">
        <ele>369.11597</ele>
        <time>2023-07-26T13:39:38.000Z</time>
      </trkpt>
      <trkpt lat="45.82625" lon="4.73113">
        <ele>369.31967</ele>
        <time>2023-07-26T13:39:39.000Z</time>
      </trkpt>
      <trkpt lat="45.82628" lon="4.73121">
        <ele>369.75031</ele>
        <time>2023-07-26T13:39:40.000Z</time>
      </trkpt>
      <trkpt lat="45.82631" lon="4.73129">
        <ele>370.25806</ele>
        <time>2023-07-26T13:39:41.000Z</time>
      </trkpt>
      <trkpt lat="45.82633" lon="4.73136">
        <ele>370.31451</ele>
        <time>2023-07-26T13:39:42.000Z</time>
      </trkpt>
      <trkpt lat="45.82635" lon="4.73144">
        <ele>370.44061</ele>
        <time>2023-07-26T13:39:43.000Z</time>
      </trkpt>
      <trkpt lat="45.82637" lon="4.73152">
        <ele>370.577</ele>
        <time>2023-07-26T13:39:44.000Z</time>
      </trkpt>
      <trkpt lat="45.82639" lon="4.7316">
        <ele>370.69858</ele>
        <time>2023-07-26T13:39:45.000Z</time>
      </trkpt>
      <trkpt lat="45.8264" lon="4.73168">
        <ele>370.77774</ele>
        <time>2023-07-26T13:39:46.000Z</time>
      </trkpt>
      <trkpt lat="45.82642" lon="4.73176">
        <ele>370.84543</ele>
        <time>2023-07-26T13:39:47.000Z</time>
      </trkpt>
      <trkpt lat="45.82643" lon="4.73184">
        <ele>370.94849</ele>
        <time>2023-07-26T13:39:48.000Z</time>
      </trkpt>
      <trkpt lat="45.82644" lon="4.73191">
        <ele>371.43109</ele>
        <time>2023-07-26T13:39:49.000Z</time>
      </trkpt>
      <trkpt lat="45.82645" lon="4.73199">
        <ele>371.909</ele>
        <time>2023-07-26T13:39:50.000Z</time>
      </trkpt>
      <trkpt lat="45.82646" lon="4.73207">
        <ele>372.39175</ele>
        <time>2023-07-26T13:39:51.000Z</time>
      </trkpt>
      <trkpt lat="45.82647" lon="4.73215">
        <ele>372.62943</ele>
        <time>2023-07-26T13:39:52.000Z</time>
      </trkpt>
      <trkpt lat="45.82648" lon="4.73222">
        <ele>372.85873</ele>
        <time>2023-07-26T13:39:53.000Z</time>
      </trkpt>
      <trkpt lat="45.82649" lon="4.73229">
        <ele>373.11319</ele>
        <time>2023-07-26T13:39:54.000Z</time>
      </trkpt>
      <trkpt lat="45.8265" lon="4.73235">
        <ele>373.38727</ele>
        <time>2023-07-26T13:39:55.000Z</time>
      </trkpt>
      <trkpt lat="45.8265" lon="4.73242">
        <ele>373.659</ele>
        <time>2023-07-26T13:39:56.000Z</time>
      </trkpt>
      <trkpt lat="45.82652" lon="4.73248">
        <ele>373.85541</ele>
        <time>2023-07-26T13:39:57.000Z</time>
      </trkpt>
      <trkpt lat="45.82653" lon="4.73254">
        <ele>373.97754</ele>
        <time>2023-07-26T13:39:58.000Z</time>
      </trkpt>
      <trkpt lat="45.82653" lon="4.73261">
        <ele>374.05472</ele>
        <time>2023-07-26T13:39:59.000Z</time>
      </trkpt>
      <trkpt lat="45.82654" lon="4.73268">
        <ele>374.16537</ele>
        <time>2023-07-26T13:40:00.000Z</time>
      </trkpt>
      <trkpt lat="45.82654" lon="4.73273">
        <ele>373.82153</ele>
        <time>2023-07-26T13:40:01.000Z</time>
      </trkpt>
      <trkpt lat="45.82655" lon="4.7328">
        <ele>373.99731</ele>
        <time>2023-07-26T13:40:02.000Z</time>
      </trkpt>
      <trkpt lat="45.82655" lon="4.73287">
        <ele>374.57513</ele>
        <time>2023-07-26T13:40:03.000Z</time>
      </trkpt>
      <trkpt lat="45.82656" lon="4.73292">
        <ele>375.14883</ele>
        <time>2023-07-26T13:40:04.000Z</time>
      </trkpt>
      <trkpt lat="45.82657" lon="4.73298">
        <ele>375.72003</ele>
        <time>2023-07-26T13:40:05.000Z</time>
      </trkpt>
      <trkpt lat="45.82658" lon="4.73305">
        <ele>376.32996</ele>
        <time>2023-07-26T13:40:06.000Z</time>
      </trkpt>
      <trkpt lat="45.8266" lon="4.73311">
        <ele>376.93402</ele>
        <time>2023-07-26T13:40:07.000Z</time>
      </trkpt>
      <trkpt lat="45.8266" lon="4.73317">
        <ele>377.45901</ele>
        <time>2023-07-26T13:40:08.000Z</time>
      </trkpt>
      <trkpt lat="45.82661" lon="4.73324">
        <ele>377.47971</ele>
        <time>2023-07-26T13:40:09.000Z</time>
      </trkpt>
      <trkpt lat="45.82662" lon="4.73331">
        <ele>377.4812</ele>
        <time>2023-07-26T13:40:10.000Z</time>
      </trkpt>
      <trkpt lat="45.82663" lon="4.73337">
        <ele>377.97321</ele>
        <time>2023-07-26T13:40:11.000Z</time>
      </trkpt>
      <trkpt lat="45.82664" lon="4.73344">
        <ele>378.67581</ele>
        <time>2023-07-26T13:40:12.000Z</time>
      </trkpt>
      <trkpt lat="45.82665" lon="4.73351">
        <ele>379.39313</ele>
        <time>2023-07-26T13:40:13.000Z</time>
      </trkpt>
      <trkpt lat="45.82666" lon="4.73359">
        <ele>380.08627</ele>
        <time>2023-07-26T13:40:14.000Z</time>
      </trkpt>
      <trkpt lat="45.82667" lon="4.73366">
        <ele>380.78693</ele>
        <time>2023-07-26T13:40:15.000Z</time>
      </trkpt>
      <trkpt lat="45.82668" lon="4.73374">
        <ele>381.51636</ele>
        <time>2023-07-26T13:40:16.000Z</time>
      </trkpt>
      <trkpt lat="45.82669" lon="4.7338">
        <ele>382.40881</ele>
        <time>2023-07-26T13:40:17.000Z</time>
      </trkpt>
      <trkpt lat="45.8267" lon="4.73387">
        <ele>383.38943</ele>
        <time>2023-07-26T13:40:18.000Z</time>
      </trkpt>
      <trkpt lat="45.82671" lon="4.73394">
        <ele>383.82443</ele>
        <time>2023-07-26T13:40:19.000Z</time>
      </trkpt>
      <trkpt lat="45.82672" lon="4.734">
        <ele>384.33331</ele>
        <time>2023-07-26T13:40:20.000Z</time>
      </trkpt>
      <trkpt lat="45.82673" lon="4.73407">
        <ele>385.2937</ele>
        <time>2023-07-26T13:40:21.000Z</time>
      </trkpt>
      <trkpt lat="45.82674" lon="4.73413">
        <ele>385.66885</ele>
        <time>2023-07-26T13:40:22.000Z</time>
      </trkpt>
      <trkpt lat="45.82674" lon="4.7342">
        <ele>385.68842</ele>
        <time>2023-07-26T13:40:23.000Z</time>
      </trkpt>
      <trkpt lat="45.82675" lon="4.73427">
        <ele>385.71649</ele>
        <time>2023-07-26T13:40:24.000Z</time>
      </trkpt>
      <trkpt lat="45.82675" lon="4.73433">
        <ele>385.74701</ele>
        <time>2023-07-26T13:40:25.000Z</time>
      </trkpt>
      <trkpt lat="45.82675" lon="4.73439">
        <ele>385.73273</ele>
        <time>2023-07-26T13:40:26.000Z</time>
      </trkpt>
      <trkpt lat="45.82675" lon="4.73446">
        <ele>385.74182</ele>
        <time>2023-07-26T13:40:27.000Z</time>
      </trkpt>
      <trkpt lat="45.82675" lon="4.73453">
        <ele>385.82532</ele>
        <time>2023-07-26T13:40:28.000Z</time>
      </trkpt>
      <trkpt lat="45.82676" lon="4.73459">
        <ele>386.36435</ele>
        <time>2023-07-26T13:40:29.000Z</time>
      </trkpt>
      <trkpt lat="45.82675" lon="4.73464">
        <ele>386.95499</ele>
        <time>2023-07-26T13:40:30.000Z</time>
      </trkpt>
      <trkpt lat="45.82674" lon="4.73471">
        <ele>387.05634</ele>
        <time>2023-07-26T13:40:31.000Z</time>
      </trkpt>
      <trkpt lat="45.82673" lon="4.73476">
        <ele>387.19281</ele>
        <time>2023-07-26T13:40:32.000Z</time>
      </trkpt>
      <trkpt lat="45.82673" lon="4.73481">
        <ele>387.35266</ele>
        <time>2023-07-26T13:40:33.000Z</time>
      </trkpt>
      <trkpt lat="45.82672" lon="4.73488">
        <ele>387.36539</ele>
        <time>2023-07-26T13:40:34.000Z</time>
      </trkpt>
      <trkpt lat="45.82672" lon="4.73494">
        <ele>387.32599</ele>
        <time>2023-07-26T13:40:35.000Z</time>
      </trkpt>
      <trkpt lat="45.82671" lon="4.735">
        <ele>387.20746</ele>
        <time>2023-07-26T13:40:36.000Z</time>
      </trkpt>
      <trkpt lat="45.8267" lon="4.73505">
        <ele>387.0563</ele>
        <time>2023-07-26T13:40:37.000Z</time>
      </trkpt>
      <trkpt lat="45.82669" lon="4.73511">
        <ele>386.85522</ele>
        <time>2023-07-26T13:40:38.000Z</time>
      </trkpt>
      <trkpt lat="45.82668" lon="4.73517">
        <ele>386.93375</ele>
        <time>2023-07-26T13:40:39.000Z</time>
      </trkpt>
      <trkpt lat="45.82667" lon="4.73523">
        <ele>386.97623</ele>
        <time>2023-07-26T13:40:40.000Z</time>
      </trkpt>
      <trkpt lat="45.82665" lon="4.7353">
        <ele>386.97394</ele>
        <time>2023-07-26T13:40:41.000Z</time>
      </trkpt>
      <trkpt lat="45.82663" lon="4.73536">
        <ele>386.95905</ele>
        <time>2023-07-26T13:40:42.000Z</time>
      </trkpt>
      <trkpt lat="45.82661" lon="4.73542">
        <ele>386.94135</ele>
        <time>2023-07-26T13:40:43.000Z</time>
      </trkpt>
      <trkpt lat="45.82659" lon="4.73548">
        <ele>386.8912</ele>
        <time>2023-07-26T13:40:44.000Z</time>
      </trkpt>
      <trkpt lat="45.82657" lon="4.73554">
        <ele>386.84058</ele>
        <time>2023-07-26T13:40:45.000Z</time>
      </trkpt>
      <trkpt lat="45.82655" lon="4.73562">
        <ele>386.6738</ele>
        <time>2023-07-26T13:40:46.000Z</time>
      </trkpt>
      <trkpt lat="45.82652" lon="4.73568">
        <ele>386.4267</ele>
        <time>2023-07-26T13:40:47.000Z</time>
      </trkpt>
      <trkpt lat="45.8265" lon="4.73574">
        <ele>386.08725</ele>
        <time>2023-07-26T13:40:48.000Z</time>
      </trkpt>
      <trkpt lat="45.82648" lon="4.73582">
        <ele>385.99567</ele>
        <time>2023-07-26T13:40:49.000Z</time>
      </trkpt>
      <trkpt lat="45.82646" lon="4.7359">
        <ele>385.81757</ele>
        <time>2023-07-26T13:40:50.000Z</time>
      </trkpt>
      <trkpt lat="45.82642" lon="4.73597">
        <ele>385.62701</ele>
        <time>2023-07-26T13:40:51.000Z</time>
      </trkpt>
      <trkpt lat="45.82639" lon="4.73603">
        <ele>385.40363</ele>
        <time>2023-07-26T13:40:52.000Z</time>
      </trkpt>
      <trkpt lat="45.82635" lon="4.73611">
        <ele>385.12006</ele>
        <time>2023-07-26T13:40:53.000Z</time>
      </trkpt>
      <trkpt lat="45.82631" lon="4.73618">
        <ele>384.96899</ele>
        <time>2023-07-26T13:40:54.000Z</time>
      </trkpt>
      <trkpt lat="45.82627" lon="4.73628">
        <ele>384.83572</ele>
        <time>2023-07-26T13:40:55.000Z</time>
      </trkpt>
      <trkpt lat="45.82624" lon="4.73638">
        <ele>384.73129</ele>
        <time>2023-07-26T13:40:56.000Z</time>
      </trkpt>
      <trkpt lat="45.82623" lon="4.73649">
        <ele>384.59918</ele>
        <time>2023-07-26T13:40:57.000Z</time>
      </trkpt>
      <trkpt lat="45.82622" lon="4.73662">
        <ele>384.49063</ele>
        <time>2023-07-26T13:40:58.000Z</time>
      </trkpt>
      <trkpt lat="45.82621" lon="4.73675">
        <ele>384.00348</ele>
        <time>2023-07-26T13:40:59.000Z</time>
      </trkpt>
      <trkpt lat="45.82617" lon="4.73687">
        <ele>383.46872</ele>
        <time>2023-07-26T13:41:00.000Z</time>
      </trkpt>
      <trkpt lat="45.82612" lon="4.73699">
        <ele>382.93808</ele>
        <time>2023-07-26T13:41:01.000Z</time>
      </trkpt>
      <trkpt lat="45.82606" lon="4.73709">
        <ele>382.36182</ele>
        <time>2023-07-26T13:41:02.000Z</time>
      </trkpt>
      <trkpt lat="45.826" lon="4.73716">
        <ele>381.94418</ele>
        <time>2023-07-26T13:41:03.000Z</time>
      </trkpt>
      <trkpt lat="45.82594" lon="4.7372">
        <ele>381.49481</ele>
        <time>2023-07-26T13:41:04.000Z</time>
      </trkpt>
      <trkpt lat="45.82588" lon="4.73724">
        <ele>381.04388</ele>
        <time>2023-07-26T13:41:05.000Z</time>
      </trkpt>
      <trkpt lat="45.82582" lon="4.73729">
        <ele>380.71759</ele>
        <time>2023-07-26T13:41:06.000Z</time>
      </trkpt>
      <trkpt lat="45.82579" lon="4.73738">
        <ele>380.47455</ele>
        <time>2023-07-26T13:41:07.000Z</time>
      </trkpt>
      <trkpt lat="45.82578" lon="4.73746">
        <ele>380.29773</ele>
        <time>2023-07-26T13:41:08.000Z</time>
      </trkpt>
      <trkpt lat="45.82575" lon="4.73755">
        <ele>379.8851</ele>
        <time>2023-07-26T13:41:09.000Z</time>
      </trkpt>
      <trkpt lat="45.82574" lon="4.73763">
        <ele>379.51285</ele>
        <time>2023-07-26T13:41:10.000Z</time>
      </trkpt>
      <trkpt lat="45.82572" lon="4.73769">
        <ele>379.17242</ele>
        <time>2023-07-26T13:41:11.000Z</time>
      </trkpt>
      <trkpt lat="45.82569" lon="4.73776">
        <ele>378.87177</ele>
        <time>2023-07-26T13:41:12.000Z</time>
      </trkpt>
      <trkpt lat="45.82567" lon="4.73786">
        <ele>378.58984</ele>
        <time>2023-07-26T13:41:13.000Z</time>
      </trkpt>
      <trkpt lat="45.82565" lon="4.73795">
        <ele>378.2171</ele>
        <time>2023-07-26T13:41:14.000Z</time>
      </trkpt>
      <trkpt lat="45.82562" lon="4.738">
        <ele>377.86761</ele>
        <time>2023-07-26T13:41:15.000Z</time>
      </trkpt>
      <trkpt lat="45.82559" lon="4.73808">
        <ele>377.7048</ele>
        <time>2023-07-26T13:41:16.000Z</time>
      </trkpt>
      <trkpt lat="45.82554" lon="4.73813">
        <ele>377.57822</ele>
        <time>2023-07-26T13:41:17.000Z</time>
      </trkpt>
      <trkpt lat="45.82551" lon="4.73821">
        <ele>377.422</ele>
        <time>2023-07-26T13:41:18.000Z</time>
      </trkpt>
      <trkpt lat="45.82549" lon="4.73829">
        <ele>377.36395</ele>
        <time>2023-07-26T13:41:19.000Z</time>
      </trkpt>
      <trkpt lat="45.82547" lon="4.73836">
        <ele>377.30817</ele>
        <time>2023-07-26T13:41:20.000Z</time>
      </trkpt>
      <trkpt lat="45.82545" lon="4.73843">
        <ele>377.22452</ele>
        <time>2023-07-26T13:41:21.000Z</time>
      </trkpt>
      <trkpt lat="45.82542" lon="4.7385">
        <ele>377.246</ele>
        <time>2023-07-26T13:41:22.000Z</time>
      </trkpt>
      <trkpt lat="45.8254" lon="4.73857">
        <ele>377.28409</ele>
        <time>2023-07-26T13:41:23.000Z</time>
      </trkpt>
      <trkpt lat="45.82538" lon="4.73865">
        <ele>377.30249</ele>
        <time>2023-07-26T13:41:24.000Z</time>
      </trkpt>
      <trkpt lat="45.82535" lon="4.73871">
        <ele>377.37003</ele>
        <time>2023-07-26T13:41:25.000Z</time>
      </trkpt>
      <trkpt lat="45.82532" lon="4.73877">
        <ele>377.4411</ele>
        <time>2023-07-26T13:41:26.000Z</time>
      </trkpt>
      <trkpt lat="45.8253" lon="4.73883">
        <ele>377.50092</ele>
        <time>2023-07-26T13:41:27.000Z</time>
      </trkpt>
      <trkpt lat="45.82528" lon="4.7389">
        <ele>377.55576</ele>
        <time>2023-07-26T13:41:28.000Z</time>
      </trkpt>
      <trkpt lat="45.82526" lon="4.73895">
        <ele>377.63275</ele>
        <time>2023-07-26T13:41:29.000Z</time>
      </trkpt>
      <trkpt lat="45.82524" lon="4.739">
        <ele>377.71201</ele>
        <time>2023-07-26T13:41:30.000Z</time>
      </trkpt>
      <trkpt lat="45.82522" lon="4.73904">
        <ele>377.7644</ele>
        <time>2023-07-26T13:41:31.000Z</time>
      </trkpt>
      <trkpt lat="45.82521" lon="4.73908">
        <ele>377.79669</ele>
        <time>2023-07-26T13:41:32.000Z</time>
      </trkpt>
      <trkpt lat="45.82519" lon="4.73912">
        <ele>377.84113</ele>
        <time>2023-07-26T13:41:33.000Z</time>
      </trkpt>
      <trkpt lat="45.82517" lon="4.73916">
        <ele>377.97876</ele>
        <time>2023-07-26T13:41:34.000Z</time>
      </trkpt>
      <trkpt lat="45.82515" lon="4.7392">
        <ele>378.13986</ele>
        <time>2023-07-26T13:41:35.000Z</time>
      </trkpt>
      <trkpt lat="45.82512" lon="4.73923">
        <ele>378.15878</ele>
        <time>2023-07-26T13:41:36.000Z</time>
      </trkpt>
      <trkpt lat="45.82508" lon="4.73924">
        <ele>378.17999</ele>
        <time>2023-07-26T13:41:37.000Z</time>
      </trkpt>
      <trkpt lat="45.82505" lon="4.73922">
        <ele>378.20712</ele>
        <time>2023-07-26T13:41:38.000Z</time>
      </trkpt>
      <trkpt lat="45.82502" lon="4.73917">
        <ele>378.23682</ele>
        <time>2023-07-26T13:41:39.000Z</time>
      </trkpt>
      <trkpt lat="45.82501" lon="4.73912">
        <ele>378.26575</ele>
        <time>2023-07-26T13:41:40.000Z</time>
      </trkpt>
      <trkpt lat="45.82502" lon="4.73906">
        <ele>378.31659</ele>
        <time>2023-07-26T13:41:41.000Z</time>
      </trkpt>
      <trkpt lat="45.82505" lon="4.73901">
        <ele>378.30435</ele>
        <time>2023-07-26T13:41:42.000Z</time>
      </trkpt>
      <trkpt lat="45.82508" lon="4.73897">
        <ele>378.10959</ele>
        <time>2023-07-26T13:41:43.000Z</time>
      </trkpt>
      <trkpt lat="45.8251" lon="4.73893">
        <ele>378.15872</ele>
        <time>2023-07-26T13:41:44.000Z</time>
      </trkpt>
      <trkpt lat="45.82513" lon="4.73889">
        <ele>378.13605</ele>
        <time>2023-07-26T13:41:45.000Z</time>
      </trkpt>
      <trkpt lat="45.82516" lon="4.73886">
        <ele>378.11383</ele>
        <time>2023-07-26T13:41:46.000Z</time>
      </trkpt>
      <trkpt lat="45.82519" lon="4.73881">
        <ele>378.08862</ele>
        <time>2023-07-26T13:41:47.000Z</time>
      </trkpt>
      <trkpt lat="45.82521" lon="4.73877">
        <ele>378.06537</ele>
        <time>2023-07-26T13:41:48.000Z</time>
      </trkpt>
      <trkpt lat="45.82524" lon="4.73872">
        <ele>378.03748</ele>
        <time>2023-07-26T13:41:49.000Z</time>
      </trkpt>
      <trkpt lat="45.82526" lon="4.73869">
        <ele>378.0033</ele>
        <time>2023-07-26T13:41:50.000Z</time>
      </trkpt>
      <trkpt lat="45.82528" lon="4.73864">
        <ele>377.97696</ele>
        <time>2023-07-26T13:41:51.000Z</time>
      </trkpt>
      <trkpt lat="45.8253" lon="4.73859">
        <ele>377.95917</ele>
        <time>2023-07-26T13:41:52.000Z</time>
      </trkpt>
      <trkpt lat="45.82531" lon="4.73854">
        <ele>377.94693</ele>
        <time>2023-07-26T13:41:53.000Z</time>
      </trkpt>
      <trkpt lat="45.82533" lon="4.73849">
        <ele>377.8924</ele>
        <time>2023-07-26T13:41:54.000Z</time>
      </trkpt>
      <trkpt lat="45.82534" lon="4.73843">
        <ele>377.8096</ele>
        <time>2023-07-26T13:41:55.000Z</time>
      </trkpt>
      <trkpt lat="45.82535" lon="4.73837">
        <ele>377.72812</ele>
        <time>2023-07-26T13:41:56.000Z</time>
      </trkpt>
      <trkpt lat="45.82536" lon="4.73831">
        <ele>377.59058</ele>
        <time>2023-07-26T13:41:57.000Z</time>
      </trkpt>
      <trkpt lat="45.82536" lon="4.73825">
        <ele>377.4523</ele>
        <time>2023-07-26T13:41:58.000Z</time>
      </trkpt>
      <trkpt lat="45.82535" lon="4.73819">
        <ele>377.52103</ele>
        <time>2023-07-26T13:41:59.000Z</time>
      </trkpt>
      <trkpt lat="45.82534" lon="4.73813">
        <ele>377.62888</ele>
        <time>2023-07-26T13:42:00.000Z</time>
      </trkpt>
      <trkpt lat="45.82533" lon="4.73808">
        <ele>377.7854</ele>
        <time>2023-07-26T13:42:01.000Z</time>
      </trkpt>
      <trkpt lat="45.82532" lon="4.73803">
        <ele>377.97095</ele>
        <time>2023-07-26T13:42:02.000Z</time>
      </trkpt>
      <trkpt lat="45.8253" lon="4.73798">
        <ele>378.16562</ele>
        <time>2023-07-26T13:42:03.000Z</time>
      </trkpt>
      <trkpt lat="45.82528" lon="4.73793">
        <ele>378.19339</ele>
        <time>2023-07-26T13:42:04.000Z</time>
      </trkpt>
      <trkpt lat="45.82525" lon="4.73788">
        <ele>378.28378</ele>
        <time>2023-07-26T13:42:05.000Z</time>
      </trkpt>
      <trkpt lat="45.82523" lon="4.73783">
        <ele>378.38089</ele>
        <time>2023-07-26T13:42:06.000Z</time>
      </trkpt>
      <trkpt lat="45.82521" lon="4.73779">
        <ele>378.50064</ele>
        <time>2023-07-26T13:42:07.000Z</time>
      </trkpt>
      <trkpt lat="45.82519" lon="4.73774">
        <ele>378.62057</ele>
        <time>2023-07-26T13:42:08.000Z</time>
      </trkpt>
      <trkpt lat="45.82517" lon="4.73769">
        <ele>378.72913</ele>
        <time>2023-07-26T13:42:09.000Z</time>
      </trkpt>
      <trkpt lat="45.82514" lon="4.73764">
        <ele>378.86136</ele>
        <time>2023-07-26T13:42:10.000Z</time>
      </trkpt>
      <trkpt lat="45.82512" lon="4.73759">
        <ele>378.97778</ele>
        <time>2023-07-26T13:42:11.000Z</time>
      </trkpt>
      <trkpt lat="45.8251" lon="4.73754">
        <ele>379.10803</ele>
        <time>2023-07-26T13:42:12.000Z</time>
      </trkpt>
      <trkpt lat="45.82507" lon="4.73749">
        <ele>379.23224</ele>
        <time>2023-07-26T13:42:13.000Z</time>
      </trkpt>
      <trkpt lat="45.82505" lon="4.73745">
        <ele>379.40387</ele>
        <time>2023-07-26T13:42:14.000Z</time>
      </trkpt>
      <trkpt lat="45.82502" lon="4.7374">
        <ele>379.56863</ele>
        <time>2023-07-26T13:42:15.000Z</time>
      </trkpt>
      <trkpt lat="45.825" lon="4.73735">
        <ele>379.71158</ele>
        <time>2023-07-26T13:42:16.000Z</time>
      </trkpt>
      <trkpt lat="45.82497" lon="4.7373">
        <ele>379.92612</ele>
        <time>2023-07-26T13:42:17.000Z</time>
      </trkpt>
      <trkpt lat="45.82495" lon="4.73725">
        <ele>380.16565</ele>
        <time>2023-07-26T13:42:18.000Z</time>
      </trkpt>
      <trkpt lat="45.82492" lon="4.73721">
        <ele>380.21155</ele>
        <time>2023-07-26T13:42:19.000Z</time>
      </trkpt>
      <trkpt lat="45.8249" lon="4.73717">
        <ele>380.31924</ele>
        <time>2023-07-26T13:42:20.000Z</time>
      </trkpt>
      <trkpt lat="45.82487" lon="4.73713">
        <ele>380.39981</ele>
        <time>2023-07-26T13:42:21.000Z</time>
      </trkpt>
      <trkpt lat="45.82485" lon="4.73708">
        <ele>380.4881</ele>
        <time>2023-07-26T13:42:22.000Z</time>
      </trkpt>
      <trkpt lat="45.82482" lon="4.73703">
        <ele>380.56439</ele>
        <time>2023-07-26T13:42:23.000Z</time>
      </trkpt>
      <trkpt lat="45.82479" lon="4.73698">
        <ele>380.61636</ele>
        <time>2023-07-26T13:42:24.000Z</time>
      </trkpt>
      <trkpt lat="45.82477" lon="4.73694">
        <ele>380.63126</ele>
        <time>2023-07-26T13:42:25.000Z</time>
      </trkpt>
      <trkpt lat="45.82474" lon="4.73689">
        <ele>380.51309</ele>
        <time>2023-07-26T13:42:26.000Z</time>
      </trkpt>
      <trkpt lat="45.82472" lon="4.73684">
        <ele>380.38513</ele>
        <time>2023-07-26T13:42:27.000Z</time>
      </trkpt>
      <trkpt lat="45.82469" lon="4.73679">
        <ele>380.20209</ele>
        <time>2023-07-26T13:42:28.000Z</time>
      </trkpt>
      <trkpt lat="45.82466" lon="4.73675">
        <ele>380.23349</ele>
        <time>2023-07-26T13:42:29.000Z</time>
      </trkpt>
      <trkpt lat="45.82464" lon="4.7367">
        <ele>380.21915</ele>
        <time>2023-07-26T13:42:30.000Z</time>
      </trkpt>
      <trkpt lat="45.82461" lon="4.73666">
        <ele>380.21362</ele>
        <time>2023-07-26T13:42:31.000Z</time>
      </trkpt>
      <trkpt lat="45.82458" lon="4.73661">
        <ele>380.19962</ele>
        <time>2023-07-26T13:42:32.000Z</time>
      </trkpt>
      <trkpt lat="45.82455" lon="4.73656">
        <ele>380.20142</ele>
        <time>2023-07-26T13:42:33.000Z</time>
      </trkpt>
      <trkpt lat="45.82453" lon="4.7365">
        <ele>380.19061</ele>
        <time>2023-07-26T13:42:34.000Z</time>
      </trkpt>
      <trkpt lat="45.8245" lon="4.73645">
        <ele>380.17987</ele>
        <time>2023-07-26T13:42:35.000Z</time>
      </trkpt>
      <trkpt lat="45.82448" lon="4.73638">
        <ele>380.20654</ele>
        <time>2023-07-26T13:42:36.000Z</time>
      </trkpt>
      <trkpt lat="45.82446" lon="4.73633">
        <ele>380.19708</ele>
        <time>2023-07-26T13:42:37.000Z</time>
      </trkpt>
      <trkpt lat="45.82443" lon="4.73629">
        <ele>380.20734</ele>
        <time>2023-07-26T13:42:38.000Z</time>
      </trkpt>
      <trkpt lat="45.8244" lon="4.73624">
        <ele>380.21387</ele>
        <time>2023-07-26T13:42:39.000Z</time>
      </trkpt>
      <trkpt lat="45.82438" lon="4.73619">
        <ele>380.14059</ele>
        <time>2023-07-26T13:42:40.000Z</time>
      </trkpt>
      <trkpt lat="45.82436" lon="4.73614">
        <ele>380.02985</ele>
        <time>2023-07-26T13:42:41.000Z</time>
      </trkpt>
      <trkpt lat="45.82434" lon="4.7361">
        <ele>379.86441</ele>
        <time>2023-07-26T13:42:42.000Z</time>
      </trkpt>
      <trkpt lat="45.82432" lon="4.73604">
        <ele>379.9202</ele>
        <time>2023-07-26T13:42:43.000Z</time>
      </trkpt>
      <trkpt lat="45.8243" lon="4.73599">
        <ele>379.96179</ele>
        <time>2023-07-26T13:42:44.000Z</time>
      </trkpt>
      <trkpt lat="45.82428" lon="4.73594">
        <ele>380.01498</ele>
        <time>2023-07-26T13:42:45.000Z</time>
      </trkpt>
      <trkpt lat="45.82426" lon="4.73589">
        <ele>380.20197</ele>
        <time>2023-07-26T13:42:46.000Z</time>
      </trkpt>
      <trkpt lat="45.82424" lon="4.73585">
        <ele>380.40533</ele>
        <time>2023-07-26T13:42:47.000Z</time>
      </trkpt>
      <trkpt lat="45.82421" lon="4.73581">
        <ele>380.68039</ele>
        <time>2023-07-26T13:42:48.000Z</time>
      </trkpt>
      <trkpt lat="45.82419" lon="4.73577">
        <ele>380.73914</ele>
        <time>2023-07-26T13:42:49.000Z</time>
      </trkpt>
      <trkpt lat="45.82417" lon="4.73573">
        <ele>380.7326</ele>
        <time>2023-07-26T13:42:50.000Z</time>
      </trkpt>
      <trkpt lat="45.82415" lon="4.73569">
        <ele>380.68097</ele>
        <time>2023-07-26T13:42:51.000Z</time>
      </trkpt>
      <trkpt lat="45.82413" lon="4.73564">
        <ele>380.58716</ele>
        <time>2023-07-26T13:42:52.000Z</time>
      </trkpt>
      <trkpt lat="45.82411" lon="4.7356">
        <ele>380.4986</ele>
        <time>2023-07-26T13:42:53.000Z</time>
      </trkpt>
      <trkpt lat="45.82409" lon="4.73555">
        <ele>380.69635</ele>
        <time>2023-07-26T13:42:54.000Z</time>
      </trkpt>
      <trkpt lat="45.82407" lon="4.73551">
        <ele>380.86179</ele>
        <time>2023-07-26T13:42:55.000Z</time>
      </trkpt>
      <trkpt lat="45.82405" lon="4.73546">
        <ele>380.99225</ele>
        <time>2023-07-26T13:42:56.000Z</time>
      </trkpt>
      <trkpt lat="45.82403" lon="4.73542">
        <ele>381.1629</ele>
        <time>2023-07-26T13:42:57.000Z</time>
      </trkpt>
      <trkpt lat="45.824" lon="4.73537">
        <ele>381.20355</ele>
        <time>2023-07-26T13:42:58.000Z</time>
      </trkpt>
      <trkpt lat="45.82398" lon="4.73533">
        <ele>381.23541</ele>
        <time>2023-07-26T13:42:59.000Z</time>
      </trkpt>
      <trkpt lat="45.82396" lon="4.73528">
        <ele>381.3078</ele>
        <time>2023-07-26T13:43:00.000Z</time>
      </trkpt>
      <trkpt lat="45.82394" lon="4.73523">
        <ele>381.43805</ele>
        <time>2023-07-26T13:43:01.000Z</time>
      </trkpt>
      <trkpt lat="45.82392" lon="4.73519">
        <ele>381.57095</ele>
        <time>2023-07-26T13:43:02.000Z</time>
      </trkpt>
      <trkpt lat="45.8239" lon="4.73514">
        <ele>381.74139</ele>
        <time>2023-07-26T13:43:03.000Z</time>
      </trkpt>
      <trkpt lat="45.82388" lon="4.7351">
        <ele>381.90707</ele>
        <time>2023-07-26T13:43:04.000Z</time>
      </trkpt>
      <trkpt lat="45.82386" lon="4.73504">
        <ele>382.06793</ele>
        <time>2023-07-26T13:43:05.000Z</time>
      </trkpt>
      <trkpt lat="45.82384" lon="4.73499">
        <ele>382.2265</ele>
        <time>2023-07-26T13:43:06.000Z</time>
      </trkpt>
      <trkpt lat="45.82382" lon="4.73495">
        <ele>382.33344</ele>
        <time>2023-07-26T13:43:07.000Z</time>
      </trkpt>
      <trkpt lat="45.8238" lon="4.7349">
        <ele>382.41946</ele>
        <time>2023-07-26T13:43:08.000Z</time>
      </trkpt>
      <trkpt lat="45.82378" lon="4.73485">
        <ele>382.53229</ele>
        <time>2023-07-26T13:43:09.000Z</time>
      </trkpt>
      <trkpt lat="45.82376" lon="4.7348">
        <ele>382.72662</ele>
        <time>2023-07-26T13:43:10.000Z</time>
      </trkpt>
      <trkpt lat="45.82374" lon="4.73475">
        <ele>382.99503</ele>
        <time>2023-07-26T13:43:11.000Z</time>
      </trkpt>
      <trkpt lat="45.82372" lon="4.73471">
        <ele>383.29974</ele>
        <time>2023-07-26T13:43:12.000Z</time>
      </trkpt>
      <trkpt lat="45.8237" lon="4.73466">
        <ele>383.58945</ele>
        <time>2023-07-26T13:43:13.000Z</time>
      </trkpt>
      <trkpt lat="45.82368" lon="4.73462">
        <ele>383.44095</ele>
        <time>2023-07-26T13:43:14.000Z</time>
      </trkpt>
      <trkpt lat="45.82365" lon="4.73457">
        <ele>383.30151</ele>
        <time>2023-07-26T13:43:15.000Z</time>
      </trkpt>
      <trkpt lat="45.82363" lon="4.73453">
        <ele>383.12891</ele>
        <time>2023-07-26T13:43:16.000Z</time>
      </trkpt>
      <trkpt lat="45.8236" lon="4.73449">
        <ele>382.93011</ele>
        <time>2023-07-26T13:43:17.000Z</time>
      </trkpt>
      <trkpt lat="45.82358" lon="4.73444">
        <ele>383.11426</ele>
        <time>2023-07-26T13:43:18.000Z</time>
      </trkpt>
      <trkpt lat="45.82355" lon="4.73439">
        <ele>383.25903</ele>
        <time>2023-07-26T13:43:19.000Z</time>
      </trkpt>
      <trkpt lat="45.82353" lon="4.73434">
        <ele>383.42462</ele>
        <time>2023-07-26T13:43:20.000Z</time>
      </trkpt>
      <trkpt lat="45.8235" lon="4.7343">
        <ele>383.57617</ele>
        <time>2023-07-26T13:43:21.000Z</time>
      </trkpt>
      <trkpt lat="45.82348" lon="4.73425">
        <ele>383.78619</ele>
        <time>2023-07-26T13:43:22.000Z</time>
      </trkpt>
      <trkpt lat="45.82345" lon="4.7342">
        <ele>383.74286</ele>
        <time>2023-07-26T13:43:23.000Z</time>
      </trkpt>
      <trkpt lat="45.82343" lon="4.73416">
        <ele>383.72729</ele>
        <time>2023-07-26T13:43:24.000Z</time>
      </trkpt>
      <trkpt lat="45.82341" lon="4.73411">
        <ele>383.71442</ele>
        <time>2023-07-26T13:43:25.000Z</time>
      </trkpt>
      <trkpt lat="45.82338" lon="4.73407">
        <ele>383.6803</ele>
        <time>2023-07-26T13:43:26.000Z</time>
      </trkpt>
      <trkpt lat="45.82336" lon="4.73403">
        <ele>383.70267</ele>
        <time>2023-07-26T13:43:27.000Z</time>
      </trkpt>
      <trkpt lat="45.82333" lon="4.73399">
        <ele>383.71622</ele>
        <time>2023-07-26T13:43:28.000Z</time>
      </trkpt>
      <trkpt lat="45.82331" lon="4.73396">
        <ele>383.73688</ele>
        <time>2023-07-26T13:43:29.000Z</time>
      </trkpt>
      <trkpt lat="45.82329" lon="4.73392">
        <ele>383.76154</ele>
        <time>2023-07-26T13:43:30.000Z</time>
      </trkpt>
      <trkpt lat="45.82327" lon="4.73388">
        <ele>383.75714</ele>
        <time>2023-07-26T13:43:31.000Z</time>
      </trkpt>
      <trkpt lat="45.82325" lon="4.73383">
        <ele>383.76294</ele>
        <time>2023-07-26T13:43:32.000Z</time>
      </trkpt>
      <trkpt lat="45.82323" lon="4.73379">
        <ele>383.7829</ele>
        <time>2023-07-26T13:43:33.000Z</time>
      </trkpt>
      <trkpt lat="45.8232" lon="4.73374">
        <ele>383.97147</ele>
        <time>2023-07-26T13:43:34.000Z</time>
      </trkpt>
      <trkpt lat="45.82318" lon="4.7337">
        <ele>384.19839</ele>
        <time>2023-07-26T13:43:35.000Z</time>
      </trkpt>
      <trkpt lat="45.82316" lon="4.73366">
        <ele>384.48218</ele>
        <time>2023-07-26T13:43:36.000Z</time>
      </trkpt>
      <trkpt lat="45.82314" lon="4.73361">
        <ele>384.77197</ele>
        <time>2023-07-26T13:43:37.000Z</time>
      </trkpt>
      <trkpt lat="45.82312" lon="4.73357">
        <ele>384.61816</ele>
        <time>2023-07-26T13:43:38.000Z</time>
      </trkpt>
      <trkpt lat="45.82311" lon="4.73352">
        <ele>384.49234</ele>
        <time>2023-07-26T13:43:39.000Z</time>
      </trkpt>
      <trkpt lat="45.8231" lon="4.73347">
        <ele>384.31128</ele>
        <time>2023-07-26T13:43:40.000Z</time>
      </trkpt>
      <trkpt lat="45.82308" lon="4.73341">
        <ele>384.41473</ele>
        <time>2023-07-26T13:43:41.000Z</time>
      </trkpt>
      <trkpt lat="45.82307" lon="4.73336">
        <ele>384.47296</ele>
        <time>2023-07-26T13:43:42.000Z</time>
      </trkpt>
      <trkpt lat="45.82306" lon="4.73331">
        <ele>384.52557</ele>
        <time>2023-07-26T13:43:43.000Z</time>
      </trkpt>
      <trkpt lat="45.82305" lon="4.73326">
        <ele>384.60248</ele>
        <time>2023-07-26T13:43:44.000Z</time>
      </trkpt>
      <trkpt lat="45.82303" lon="4.73321">
        <ele>384.68362</ele>
        <time>2023-07-26T13:43:45.000Z</time>
      </trkpt>
      <trkpt lat="45.82302" lon="4.73316">
        <ele>384.78159</ele>
        <time>2023-07-26T13:43:46.000Z</time>
      </trkpt>
      <trkpt lat="45.82301" lon="4.73311">
        <ele>384.82294</ele>
        <time>2023-07-26T13:43:47.000Z</time>
      </trkpt>
      <trkpt lat="45.823" lon="4.73306">
        <ele>384.87958</ele>
        <time>2023-07-26T13:43:48.000Z</time>
      </trkpt>
      <trkpt lat="45.82298" lon="4.73301">
        <ele>384.89767</ele>
        <time>2023-07-26T13:43:49.000Z</time>
      </trkpt>
      <trkpt lat="45.82297" lon="4.73297">
        <ele>384.76056</ele>
        <time>2023-07-26T13:43:50.000Z</time>
      </trkpt>
      <trkpt lat="45.82296" lon="4.73292">
        <ele>384.61237</ele>
        <time>2023-07-26T13:43:51.000Z</time>
      </trkpt>
      <trkpt lat="45.82294" lon="4.73287">
        <ele>384.46991</ele>
        <time>2023-07-26T13:43:52.000Z</time>
      </trkpt>
      <trkpt lat="45.82293" lon="4.73283">
        <ele>384.30664</ele>
        <time>2023-07-26T13:43:53.000Z</time>
      </trkpt>
      <trkpt lat="45.82292" lon="4.73279">
        <ele>384.11957</ele>
        <time>2023-07-26T13:43:54.000Z</time>
      </trkpt>
      <trkpt lat="45.82291" lon="4.73275">
        <ele>383.89236</ele>
        <time>2023-07-26T13:43:55.000Z</time>
      </trkpt>
      <trkpt lat="45.82289" lon="4.73272">
        <ele>383.92377</ele>
        <time>2023-07-26T13:43:56.000Z</time>
      </trkpt>
      <trkpt lat="45.82287" lon="4.73269">
        <ele>383.91095</ele>
        <time>2023-07-26T13:43:57.000Z</time>
      </trkpt>
      <trkpt lat="45.82283" lon="4.73269">
        <ele>384.04828</ele>
        <time>2023-07-26T13:43:58.000Z</time>
      </trkpt>
      <trkpt lat="45.82279" lon="4.7327">
        <ele>384.47504</ele>
        <time>2023-07-26T13:43:59.000Z</time>
      </trkpt>
      <trkpt lat="45.82276" lon="4.73272">
        <ele>384.93332</ele>
        <time>2023-07-26T13:44:00.000Z</time>
      </trkpt>
      <trkpt lat="45.82273" lon="4.73275">
        <ele>385.11884</ele>
        <time>2023-07-26T13:44:01.000Z</time>
      </trkpt>
      <trkpt lat="45.82269" lon="4.73278">
        <ele>385.31277</ele>
        <time>2023-07-26T13:44:02.000Z</time>
      </trkpt>
      <trkpt lat="45.82264" lon="4.73282">
        <ele>385.50366</ele>
        <time>2023-07-26T13:44:03.000Z</time>
      </trkpt>
      <trkpt lat="45.8226" lon="4.73285">
        <ele>385.67096</ele>
        <time>2023-07-26T13:44:04.000Z</time>
      </trkpt>
      <trkpt lat="45.82255" lon="4.73287">
        <ele>385.82806</ele>
        <time>2023-07-26T13:44:05.000Z</time>
      </trkpt>
      <trkpt lat="45.82251" lon="4.7329">
        <ele>385.96689</ele>
        <time>2023-07-26T13:44:06.000Z</time>
      </trkpt>
      <trkpt lat="45.82246" lon="4.73292">
        <ele>386.14105</ele>
        <time>2023-07-26T13:44:07.000Z</time>
      </trkpt>
      <trkpt lat="45.82241" lon="4.73295">
        <ele>386.35397</ele>
        <time>2023-07-26T13:44:08.000Z</time>
      </trkpt>
      <trkpt lat="45.82236" lon="4.73297">
        <ele>386.55597</ele>
        <time>2023-07-26T13:44:09.000Z</time>
      </trkpt>
      <trkpt lat="45.8223" lon="4.73299">
        <ele>386.91953</ele>
        <time>2023-07-26T13:44:10.000Z</time>
      </trkpt>
      <trkpt lat="45.82225" lon="4.73302">
        <ele>387.28769</ele>
        <time>2023-07-26T13:44:11.000Z</time>
      </trkpt>
      <trkpt lat="45.82219" lon="4.73305">
        <ele>387.62494</ele>
        <time>2023-07-26T13:44:12.000Z</time>
      </trkpt>
      <trkpt lat="45.82214" lon="4.73307">
        <ele>387.96536</ele>
        <time>2023-07-26T13:44:13.000Z</time>
      </trkpt>
      <trkpt lat="45.82208" lon="4.7331">
        <ele>388.28329</ele>
        <time>2023-07-26T13:44:14.000Z</time>
      </trkpt>
      <trkpt lat="45.82203" lon="4.73312">
        <ele>388.33008</ele>
        <time>2023-07-26T13:44:15.000Z</time>
      </trkpt>
      <trkpt lat="45.82197" lon="4.73315">
        <ele>388.09857</ele>
        <time>2023-07-26T13:44:16.000Z</time>
      </trkpt>
      <trkpt lat="45.82191" lon="4.73317">
        <ele>387.89783</ele>
        <time>2023-07-26T13:44:17.000Z</time>
      </trkpt>
      <trkpt lat="45.82185" lon="4.73319">
        <ele>387.98422</ele>
        <time>2023-07-26T13:44:18.000Z</time>
      </trkpt>
      <trkpt lat="45.8218" lon="4.7332">
        <ele>387.82877</ele>
        <time>2023-07-26T13:44:19.000Z</time>
      </trkpt>
      <trkpt lat="45.82176" lon="4.73317">
        <ele>387.39777</ele>
        <time>2023-07-26T13:44:20.000Z</time>
      </trkpt>
      <trkpt lat="45.82173" lon="4.73312">
        <ele>386.81607</ele>
        <time>2023-07-26T13:44:21.000Z</time>
      </trkpt>
      <trkpt lat="45.82171" lon="4.73306">
        <ele>386.57123</ele>
        <time>2023-07-26T13:44:22.000Z</time>
      </trkpt>
      <trkpt lat="45.82168" lon="4.733">
        <ele>386.33322</ele>
        <time>2023-07-26T13:44:23.000Z</time>
      </trkpt>
      <trkpt lat="45.82165" lon="4.73294">
        <ele>386.08258</ele>
        <time>2023-07-26T13:44:24.000Z</time>
      </trkpt>
      <trkpt lat="45.82162" lon="4.7329">
        <ele>385.85907</ele>
        <time>2023-07-26T13:44:25.000Z</time>
      </trkpt>
      <trkpt lat="45.82159" lon="4.73287">
        <ele>385.65997</ele>
        <time>2023-07-26T13:44:26.000Z</time>
      </trkpt>
      <trkpt lat="45.82153" lon="4.73286">
        <ele>385.53952</ele>
        <time>2023-07-26T13:44:27.000Z</time>
      </trkpt>
      <trkpt lat="45.82148" lon="4.73286">
        <ele>385.41058</ele>
        <time>2023-07-26T13:44:28.000Z</time>
      </trkpt>
      <trkpt lat="45.82143" lon="4.73288">
        <ele>385.29758</ele>
        <time>2023-07-26T13:44:29.000Z</time>
      </trkpt>
      <trkpt lat="45.82137" lon="4.7329">
        <ele>385.14899</ele>
        <time>2023-07-26T13:44:30.000Z</time>
      </trkpt>
      <trkpt lat="45.82132" lon="4.73292">
        <ele>385.02631</ele>
        <time>2023-07-26T13:44:31.000Z</time>
      </trkpt>
      <trkpt lat="45.82127" lon="4.73293">
        <ele>384.9024</ele>
        <time>2023-07-26T13:44:32.000Z</time>
      </trkpt>
      <trkpt lat="45.82121" lon="4.73295">
        <ele>384.7684</ele>
        <time>2023-07-26T13:44:33.000Z</time>
      </trkpt>
      <trkpt lat="45.82114" lon="4.73295">
        <ele>384.66519</ele>
        <time>2023-07-26T13:44:34.000Z</time>
      </trkpt>
      <trkpt lat="45.82107" lon="4.73298">
        <ele>384.86844</ele>
        <time>2023-07-26T13:44:35.000Z</time>
      </trkpt>
      <trkpt lat="45.82101" lon="4.73301">
        <ele>385.04883</ele>
        <time>2023-07-26T13:44:36.000Z</time>
      </trkpt>
      <trkpt lat="45.82093" lon="4.73304">
        <ele>385.21527</ele>
        <time>2023-07-26T13:44:37.000Z</time>
      </trkpt>
      <trkpt lat="45.82087" lon="4.73309">
        <ele>385.11557</ele>
        <time>2023-07-26T13:44:38.000Z</time>
      </trkpt>
      <trkpt lat="45.82079" lon="4.73312">
        <ele>384.94708</ele>
        <time>2023-07-26T13:44:39.000Z</time>
      </trkpt>
      <trkpt lat="45.82073" lon="4.73315">
        <ele>385.0849</ele>
        <time>2023-07-26T13:44:40.000Z</time>
      </trkpt>
      <trkpt lat="45.82066" lon="4.7332">
        <ele>385.35254</ele>
        <time>2023-07-26T13:44:41.000Z</time>
      </trkpt>
      <trkpt lat="45.82059" lon="4.73324">
        <ele>385.27887</ele>
        <time>2023-07-26T13:44:42.000Z</time>
      </trkpt>
      <trkpt lat="45.82054" lon="4.73328">
        <ele>385.22528</ele>
        <time>2023-07-26T13:44:43.000Z</time>
      </trkpt>
      <trkpt lat="45.82047" lon="4.73331">
        <ele>385.1687</ele>
        <time>2023-07-26T13:44:44.000Z</time>
      </trkpt>
      <trkpt lat="45.82041" lon="4.73336">
        <ele>385.12097</ele>
        <time>2023-07-26T13:44:45.000Z</time>
      </trkpt>
      <trkpt lat="45.82034" lon="4.7334">
        <ele>385.02081</ele>
        <time>2023-07-26T13:44:46.000Z</time>
      </trkpt>
      <trkpt lat="45.82028" lon="4.73345">
        <ele>384.82233</ele>
        <time>2023-07-26T13:44:47.000Z</time>
      </trkpt>
      <trkpt lat="45.82022" lon="4.73352">
        <ele>384.56268</ele>
        <time>2023-07-26T13:44:48.000Z</time>
      </trkpt>
      <trkpt lat="45.82018" lon="4.73359">
        <ele>384.27451</ele>
        <time>2023-07-26T13:44:49.000Z</time>
      </trkpt>
      <trkpt lat="45.82012" lon="4.73366">
        <ele>383.99127</ele>
        <time>2023-07-26T13:44:50.000Z</time>
      </trkpt>
      <trkpt lat="45.82007" lon="4.73369">
        <ele>383.64532</ele>
        <time>2023-07-26T13:44:51.000Z</time>
      </trkpt>
      <trkpt lat="45.82001" lon="4.73373">
        <ele>383.30536</ele>
        <time>2023-07-26T13:44:52.000Z</time>
      </trkpt>
      <trkpt lat="45.81995" lon="4.73378">
        <ele>382.95654</ele>
        <time>2023-07-26T13:44:53.000Z</time>
      </trkpt>
      <trkpt lat="45.81989" lon="4.73382">
        <ele>382.57321</ele>
        <time>2023-07-26T13:44:54.000Z</time>
      </trkpt>
      <trkpt lat="45.81982" lon="4.73387">
        <ele>382.12427</ele>
        <time>2023-07-26T13:44:55.000Z</time>
      </trkpt>
      <trkpt lat="45.81977" lon="4.7339">
        <ele>381.6911</ele>
        <time>2023-07-26T13:44:56.000Z</time>
      </trkpt>
      <trkpt lat="45.81971" lon="4.73394">
        <ele>381.27264</ele>
        <time>2023-07-26T13:44:57.000Z</time>
      </trkpt>
      <trkpt lat="45.81965" lon="4.73397">
        <ele>380.87686</ele>
        <time>2023-07-26T13:44:58.000Z</time>
      </trkpt>
      <trkpt lat="45.81959" lon="4.73402">
        <ele>380.55582</ele>
        <time>2023-07-26T13:44:59.000Z</time>
      </trkpt>
      <trkpt lat="45.81954" lon="4.73406">
        <ele>380.22403</ele>
        <time>2023-07-26T13:45:00.000Z</time>
      </trkpt>
      <trkpt lat="45.81949" lon="4.73409">
        <ele>379.88556</ele>
        <time>2023-07-26T13:45:01.000Z</time>
      </trkpt>
      <trkpt lat="45.81944" lon="4.73414">
        <ele>379.56525</ele>
        <time>2023-07-26T13:45:02.000Z</time>
      </trkpt>
      <trkpt lat="45.8194" lon="4.73419">
        <ele>379.18491</ele>
        <time>2023-07-26T13:45:03.000Z</time>
      </trkpt>
      <trkpt lat="45.81938" lon="4.73426">
        <ele>378.80084</ele>
        <time>2023-07-26T13:45:04.000Z</time>
      </trkpt>
      <trkpt lat="45.81937" lon="4.73434">
        <ele>378.45221</ele>
        <time>2023-07-26T13:45:05.000Z</time>
      </trkpt>
      <trkpt lat="45.81936" lon="4.73441">
        <ele>378.10623</ele>
        <time>2023-07-26T13:45:06.000Z</time>
      </trkpt>
      <trkpt lat="45.81935" lon="4.73449">
        <ele>377.72836</ele>
        <time>2023-07-26T13:45:07.000Z</time>
      </trkpt>
      <trkpt lat="45.81934" lon="4.73456">
        <ele>377.37091</ele>
        <time>2023-07-26T13:45:08.000Z</time>
      </trkpt>
      <trkpt lat="45.81934" lon="4.73463">
        <ele>377.03043</ele>
        <time>2023-07-26T13:45:09.000Z</time>
      </trkpt>
      <trkpt lat="45.81933" lon="4.73471">
        <ele>376.70767</ele>
        <time>2023-07-26T13:45:10.000Z</time>
      </trkpt>
      <trkpt lat="45.81932" lon="4.73478">
        <ele>376.42169</ele>
        <time>2023-07-26T13:45:11.000Z</time>
      </trkpt>
      <trkpt lat="45.81932" lon="4.73487">
        <ele>376.19327</ele>
        <time>2023-07-26T13:45:12.000Z</time>
      </trkpt>
      <trkpt lat="45.8193" lon="4.73494">
        <ele>375.99069</ele>
        <time>2023-07-26T13:45:13.000Z</time>
      </trkpt>
      <trkpt lat="45.81928" lon="4.73503">
        <ele>375.89459</ele>
        <time>2023-07-26T13:45:14.000Z</time>
      </trkpt>
      <trkpt lat="45.81926" lon="4.73511">
        <ele>375.84595</ele>
        <time>2023-07-26T13:45:15.000Z</time>
      </trkpt>
      <trkpt lat="45.81925" lon="4.73519">
        <ele>375.68311</ele>
        <time>2023-07-26T13:45:16.000Z</time>
      </trkpt>
      <trkpt lat="45.81924" lon="4.73527">
        <ele>375.51526</ele>
        <time>2023-07-26T13:45:17.000Z</time>
      </trkpt>
      <trkpt lat="45.81923" lon="4.73532">
        <ele>375.32837</ele>
        <time>2023-07-26T13:45:18.000Z</time>
      </trkpt>
      <trkpt lat="45.81923" lon="4.73537">
        <ele>375.06146</ele>
        <time>2023-07-26T13:45:19.000Z</time>
      </trkpt>
      <trkpt lat="45.81922" lon="4.7354">
        <ele>374.8074</ele>
        <time>2023-07-26T13:45:30.000Z</time>
      </trkpt>
      <trkpt lat="45.81921" lon="4.73548">
        <ele>374.5647</ele>
        <time>2023-07-26T13:45:32.000Z</time>
      </trkpt>
      <trkpt lat="45.8192" lon="4.73552">
        <ele>374.34818</ele>
        <time>2023-07-26T13:45:33.000Z</time>
      </trkpt>
      <trkpt lat="45.8192" lon="4.73557">
        <ele>374.17828</ele>
        <time>2023-07-26T13:45:34.000Z</time>
      </trkpt>
      <trkpt lat="45.81919" lon="4.73565">
        <ele>374.06146</ele>
        <time>2023-07-26T13:45:35.000Z</time>
      </trkpt>
      <trkpt lat="45.8192" lon="4.73576">
        <ele>373.89252</ele>
        <time>2023-07-26T13:45:36.000Z</time>
      </trkpt>
      <trkpt lat="45.81918" lon="4.73589">
        <ele>373.72968</ele>
        <time>2023-07-26T13:45:37.000Z</time>
      </trkpt>
      <trkpt lat="45.81917" lon="4.736">
        <ele>373.61237</ele>
        <time>2023-07-26T13:45:38.000Z</time>
      </trkpt>
      <trkpt lat="45.81916" lon="4.73612">
        <ele>373.46112</ele>
        <time>2023-07-26T13:45:39.000Z</time>
      </trkpt>
      <trkpt lat="45.81915" lon="4.73624">
        <ele>373.35858</ele>
        <time>2023-07-26T13:45:40.000Z</time>
      </trkpt>
      <trkpt lat="45.81913" lon="4.73637">
        <ele>373.29535</ele>
        <time>2023-07-26T13:45:41.000Z</time>
      </trkpt>
      <trkpt lat="45.8191" lon="4.73645">
        <ele>373.25659</ele>
        <time>2023-07-26T13:45:42.000Z</time>
      </trkpt>
      <trkpt lat="45.81908" lon="4.73652">
        <ele>373.32584</ele>
        <time>2023-07-26T13:45:43.000Z</time>
      </trkpt>
      <trkpt lat="45.81906" lon="4.7366">
        <ele>373.24741</ele>
        <time>2023-07-26T13:45:44.000Z</time>
      </trkpt>
      <trkpt lat="45.81904" lon="4.73665">
        <ele>373.09607</ele>
        <time>2023-07-26T13:45:45.000Z</time>
      </trkpt>
      <trkpt lat="45.81901" lon="4.7367">
        <ele>373.03287</ele>
        <time>2023-07-26T13:45:46.000Z</time>
      </trkpt>
      <trkpt lat="45.81898" lon="4.73676">
        <ele>373.07324</ele>
        <time>2023-07-26T13:45:48.000Z</time>
      </trkpt>
      <trkpt lat="45.81895" lon="4.73676">
        <ele>373.12872</ele>
        <time>2023-07-26T13:45:49.000Z</time>
      </trkpt>
      <trkpt lat="45.81892" lon="4.7368">
        <ele>373.21387</ele>
        <time>2023-07-26T13:45:50.000Z</time>
      </trkpt>
      <trkpt lat="45.81888" lon="4.73682">
        <ele>373.31921</ele>
        <time>2023-07-26T13:45:51.000Z</time>
      </trkpt>
      <trkpt lat="45.81884" lon="4.73685">
        <ele>373.41809</ele>
        <time>2023-07-26T13:45:52.000Z</time>
      </trkpt>
      <trkpt lat="45.81882" lon="4.73687">
        <ele>373.50342</ele>
        <time>2023-07-26T13:45:53.000Z</time>
      </trkpt>
      <trkpt lat="45.8188" lon="4.73689">
        <ele>373.53995</ele>
        <time>2023-07-26T13:45:54.000Z</time>
      </trkpt>
      <trkpt lat="45.81878" lon="4.73691">
        <ele>373.54156</ele>
        <time>2023-07-26T13:45:55.000Z</time>
      </trkpt>
      <trkpt lat="45.81876" lon="4.73692">
        <ele>373.50073</ele>
        <time>2023-07-26T13:45:56.000Z</time>
      </trkpt>
      <trkpt lat="45.81875" lon="4.73694">
        <ele>373.46838</ele>
        <time>2023-07-26T13:45:57.000Z</time>
      </trkpt>
      <trkpt lat="45.81873" lon="4.73698">
        <ele>373.40524</ele>
        <time>2023-07-26T13:45:59.000Z</time>
      </trkpt>
      <trkpt lat="45.81872" lon="4.737">
        <ele>373.36163</ele>
        <time>2023-07-26T13:46:01.000Z</time>
      </trkpt>
      <trkpt lat="45.81871" lon="4.73704">
        <ele>373.33017</ele>
        <time>2023-07-26T13:46:05.000Z</time>
      </trkpt>
      <trkpt lat="45.8187" lon="4.73707">
        <ele>373.26968</ele>
        <time>2023-07-26T13:46:06.000Z</time>
      </trkpt>
      <trkpt lat="45.81869" lon="4.7371">
        <ele>373.19818</ele>
        <time>2023-07-26T13:46:07.000Z</time>
      </trkpt>
      <trkpt lat="45.81869" lon="4.73713">
        <ele>373.13474</ele>
        <time>2023-07-26T13:46:08.000Z</time>
      </trkpt>
      <trkpt lat="45.81869" lon="4.73717">
        <ele>372.9184</ele>
        <time>2023-07-26T13:46:09.000Z</time>
      </trkpt>
      <trkpt lat="45.8187" lon="4.73721">
        <ele>372.82721</ele>
        <time>2023-07-26T13:46:10.000Z</time>
      </trkpt>
      <trkpt lat="45.81871" lon="4.73726">
        <ele>372.77173</ele>
        <time>2023-07-26T13:46:11.000Z</time>
      </trkpt>
      <trkpt lat="45.81872" lon="4.73731">
        <ele>372.61789</ele>
        <time>2023-07-26T13:46:12.000Z</time>
      </trkpt>
      <trkpt lat="45.81873" lon="4.73735">
        <ele>372.47302</ele>
        <time>2023-07-26T13:46:13.000Z</time>
      </trkpt>
      <trkpt lat="45.81874" lon="4.7374">
        <ele>372.37234</ele>
        <time>2023-07-26T13:46:14.000Z</time>
      </trkpt>
      <trkpt lat="45.81876" lon="4.73745">
        <ele>372.2713</ele>
        <time>2023-07-26T13:46:15.000Z</time>
      </trkpt>
      <trkpt lat="45.81878" lon="4.7375">
        <ele>372.18738</ele>
        <time>2023-07-26T13:46:16.000Z</time>
      </trkpt>
      <trkpt lat="45.81879" lon="4.73755">
        <ele>372.15131</ele>
        <time>2023-07-26T13:46:17.000Z</time>
      </trkpt>
      <trkpt lat="45.8188" lon="4.7376">
        <ele>372.15894</ele>
        <time>2023-07-26T13:46:18.000Z</time>
      </trkpt>
      <trkpt lat="45.81882" lon="4.73766">
        <ele>372.20908</ele>
        <time>2023-07-26T13:46:19.000Z</time>
      </trkpt>
      <trkpt lat="45.81883" lon="4.73771">
        <ele>372.28879</ele>
        <time>2023-07-26T13:46:20.000Z</time>
      </trkpt>
      <trkpt lat="45.81885" lon="4.73776">
        <ele>372.23193</ele>
        <time>2023-07-26T13:46:21.000Z</time>
      </trkpt>
      <trkpt lat="45.81887" lon="4.73782">
        <ele>372.16254</ele>
        <time>2023-07-26T13:46:22.000Z</time>
      </trkpt>
      <trkpt lat="45.81888" lon="4.73787">
        <ele>372.19037</ele>
        <time>2023-07-26T13:46:23.000Z</time>
      </trkpt>
      <trkpt lat="45.81889" lon="4.73793">
        <ele>372.21747</ele>
        <time>2023-07-26T13:46:24.000Z</time>
      </trkpt>
      <trkpt lat="45.81889" lon="4.73798">
        <ele>372.24713</ele>
        <time>2023-07-26T13:46:25.000Z</time>
      </trkpt>
      <trkpt lat="45.81888" lon="4.73802">
        <ele>372.23712</ele>
        <time>2023-07-26T13:46:26.000Z</time>
      </trkpt>
      <trkpt lat="45.81886" lon="4.73805">
        <ele>372.15695</ele>
        <time>2023-07-26T13:46:27.000Z</time>
      </trkpt>
      <trkpt lat="45.81882" lon="4.73807">
        <ele>372.06036</ele>
        <time>2023-07-26T13:46:28.000Z</time>
      </trkpt>
      <trkpt lat="45.81878" lon="4.73808">
        <ele>371.98737</ele>
        <time>2023-07-26T13:46:29.000Z</time>
      </trkpt>
      <trkpt lat="45.81874" lon="4.73809">
        <ele>372.05908</ele>
        <time>2023-07-26T13:46:30.000Z</time>
      </trkpt>
      <trkpt lat="45.81869" lon="4.73809">
        <ele>372.17542</ele>
        <time>2023-07-26T13:46:31.000Z</time>
      </trkpt>
      <trkpt lat="45.81864" lon="4.7381">
        <ele>372.3017</ele>
        <time>2023-07-26T13:46:32.000Z</time>
      </trkpt>
      <trkpt lat="45.81859" lon="4.73811">
        <ele>372.26321</ele>
        <time>2023-07-26T13:46:33.000Z</time>
      </trkpt>
      <trkpt lat="45.81855" lon="4.73812">
        <ele>372.20047</ele>
        <time>2023-07-26T13:46:34.000Z</time>
      </trkpt>
      <trkpt lat="45.8185" lon="4.73814">
        <ele>372.15668</ele>
        <time>2023-07-26T13:46:35.000Z</time>
      </trkpt>
      <trkpt lat="45.81846" lon="4.73815">
        <ele>372.13107</ele>
        <time>2023-07-26T13:46:36.000Z</time>
      </trkpt>
      <trkpt lat="45.81842" lon="4.73816">
        <ele>372.08344</ele>
        <time>2023-07-26T13:46:37.000Z</time>
      </trkpt>
      <trkpt lat="45.81837" lon="4.73817">
        <ele>372.01248</ele>
        <time>2023-07-26T13:46:38.000Z</time>
      </trkpt>
      <trkpt lat="45.81834" lon="4.73819">
        <ele>371.93716</ele>
        <time>2023-07-26T13:46:39.000Z</time>
      </trkpt>
      <trkpt lat="45.81831" lon="4.73819">
        <ele>371.85635</ele>
        <time>2023-07-26T13:46:40.000Z</time>
      </trkpt>
      <trkpt lat="45.81827" lon="4.7382">
        <ele>371.88898</ele>
        <time>2023-07-26T13:46:41.000Z</time>
      </trkpt>
      <trkpt lat="45.81824" lon="4.73821">
        <ele>371.91193</ele>
        <time>2023-07-26T13:46:42.000Z</time>
      </trkpt>
      <trkpt lat="45.8182" lon="4.73821">
        <ele>371.90839</ele>
        <time>2023-07-26T13:46:43.000Z</time>
      </trkpt>
      <trkpt lat="45.81816" lon="4.73822">
        <ele>371.88812</ele>
        <time>2023-07-26T13:46:44.000Z</time>
      </trkpt>
      <trkpt lat="45.81812" lon="4.73823">
        <ele>371.86032</ele>
        <time>2023-07-26T13:46:45.000Z</time>
      </trkpt>
      <trkpt lat="45.81806" lon="4.73826">
        <ele>371.80731</ele>
        <time>2023-07-26T13:46:46.000Z</time>
      </trkpt>
      <trkpt lat="45.81802" lon="4.73828">
        <ele>371.79541</ele>
        <time>2023-07-26T13:46:47.000Z</time>
      </trkpt>
      <trkpt lat="45.81798" lon="4.7383">
        <ele>371.78528</ele>
        <time>2023-07-26T13:46:48.000Z</time>
      </trkpt>
      <trkpt lat="45.81793" lon="4.73832">
        <ele>371.72528</ele>
        <time>2023-07-26T13:46:49.000Z</time>
      </trkpt>
      <trkpt lat="45.81789" lon="4.73833">
        <ele>371.52698</ele>
        <time>2023-07-26T13:46:50.000Z</time>
      </trkpt>
      <trkpt lat="45.81786" lon="4.73835">
        <ele>371.25696</ele>
        <time>2023-07-26T13:46:51.000Z</time>
      </trkpt>
      <trkpt lat="45.81782" lon="4.73837">
        <ele>370.94498</ele>
        <time>2023-07-26T13:46:52.000Z</time>
      </trkpt>
      <trkpt lat="45.8178" lon="4.73839">
        <ele>370.77286</ele>
        <time>2023-07-26T13:46:53.000Z</time>
      </trkpt>
      <trkpt lat="45.81777" lon="4.73839">
        <ele>370.57413</ele>
        <time>2023-07-26T13:46:54.000Z</time>
      </trkpt>
      <trkpt lat="45.81774" lon="4.7384">
        <ele>370.34552</ele>
        <time>2023-07-26T13:46:55.000Z</time>
      </trkpt>
      <trkpt lat="45.81772" lon="4.73838">
        <ele>370.08807</ele>
        <time>2023-07-26T13:46:57.000Z</time>
      </trkpt>
      <trkpt lat="45.81768" lon="4.73834">
        <ele>369.94104</ele>
        <time>2023-07-26T13:46:59.000Z</time>
      </trkpt>
      <trkpt lat="45.81767" lon="4.7383">
        <ele>369.8175</ele>
        <time>2023-07-26T13:47:00.000Z</time>
      </trkpt>
      <trkpt lat="45.81764" lon="4.73825">
        <ele>369.79156</ele>
        <time>2023-07-26T13:47:01.000Z</time>
      </trkpt>
      <trkpt lat="45.8176" lon="4.73814">
        <ele>369.7233</ele>
        <time>2023-07-26T13:47:02.000Z</time>
      </trkpt>
      <trkpt lat="45.81756" lon="4.73805">
        <ele>369.39026</ele>
        <time>2023-07-26T13:47:03.000Z</time>
      </trkpt>
      <trkpt lat="45.81751" lon="4.73795">
        <ele>369.10324</ele>
        <time>2023-07-26T13:47:04.000Z</time>
      </trkpt>
      <trkpt lat="45.81747" lon="4.73783">
        <ele>368.81989</ele>
        <time>2023-07-26T13:47:05.000Z</time>
      </trkpt>
      <trkpt lat="45.81744" lon="4.73769">
        <ele>368.56961</ele>
        <time>2023-07-26T13:47:06.000Z</time>
      </trkpt>
      <trkpt lat="45.8174" lon="4.73754">
        <ele>368.43542</ele>
        <time>2023-07-26T13:47:07.000Z</time>
      </trkpt>
      <trkpt lat="45.81738" lon="4.7374">
        <ele>368.38687</ele>
        <time>2023-07-26T13:47:08.000Z</time>
      </trkpt>
      <trkpt lat="45.81734" lon="4.73726">
        <ele>368.28961</ele>
        <time>2023-07-26T13:47:09.000Z</time>
      </trkpt>
      <trkpt lat="45.81732" lon="4.73713">
        <ele>368.18304</ele>
        <time>2023-07-26T13:47:10.000Z</time>
      </trkpt>
      <trkpt lat="45.81728" lon="4.737">
        <ele>368.06622</ele>
        <time>2023-07-26T13:47:11.000Z</time>
      </trkpt>
      <trkpt lat="45.81725" lon="4.73688">
        <ele>367.92877</ele>
        <time>2023-07-26T13:47:12.000Z</time>
      </trkpt>
      <trkpt lat="45.8172" lon="4.73676">
        <ele>367.8136</ele>
        <time>2023-07-26T13:47:13.000Z</time>
      </trkpt>
      <trkpt lat="45.81714" lon="4.73665">
        <ele>367.70917</ele>
        <time>2023-07-26T13:47:14.000Z</time>
      </trkpt>
      <trkpt lat="45.81708" lon="4.73657">
        <ele>367.61661</ele>
        <time>2023-07-26T13:47:15.000Z</time>
      </trkpt>
      <trkpt lat="45.81703" lon="4.73649">
        <ele>367.48306</ele>
        <time>2023-07-26T13:47:16.000Z</time>
      </trkpt>
      <trkpt lat="45.817" lon="4.73643">
        <ele>367.30554</ele>
        <time>2023-07-26T13:47:17.000Z</time>
      </trkpt>
      <trkpt lat="45.81695" lon="4.73636">
        <ele>367.08792</ele>
        <time>2023-07-26T13:47:18.000Z</time>
      </trkpt>
      <trkpt lat="45.8169" lon="4.73631">
        <ele>366.79492</ele>
        <time>2023-07-26T13:47:19.000Z</time>
      </trkpt>
      <trkpt lat="45.81686" lon="4.73626">
        <ele>366.63669</ele>
        <time>2023-07-26T13:47:20.000Z</time>
      </trkpt>
      <trkpt lat="45.81684" lon="4.73622">
        <ele>366.46344</ele>
        <time>2023-07-26T13:47:21.000Z</time>
      </trkpt>
      <trkpt lat="45.8168" lon="4.73617">
        <ele>366.36493</ele>
        <time>2023-07-26T13:47:22.000Z</time>
      </trkpt>
      <trkpt lat="45.81676" lon="4.73612">
        <ele>366.39398</ele>
        <time>2023-07-26T13:47:23.000Z</time>
      </trkpt>
      <trkpt lat="45.81671" lon="4.73605">
        <ele>366.49582</ele>
        <time>2023-07-26T13:47:24.000Z</time>
      </trkpt>
      <trkpt lat="45.81667" lon="4.73602">
        <ele>366.56006</ele>
        <time>2023-07-26T13:47:25.000Z</time>
      </trkpt>
      <trkpt lat="45.81663" lon="4.73599">
        <ele>366.55023</ele>
        <time>2023-07-26T13:47:26.000Z</time>
      </trkpt>
      <trkpt lat="45.81659" lon="4.73595">
        <ele>366.48004</ele>
        <time>2023-07-26T13:47:27.000Z</time>
      </trkpt>
      <trkpt lat="45.81656" lon="4.73592">
        <ele>366.37231</ele>
        <time>2023-07-26T13:47:28.000Z</time>
      </trkpt>
      <trkpt lat="45.81653" lon="4.73588">
        <ele>366.30203</ele>
        <time>2023-07-26T13:47:29.000Z</time>
      </trkpt>
      <trkpt lat="45.8165" lon="4.73585">
        <ele>366.26425</ele>
        <time>2023-07-26T13:47:30.000Z</time>
      </trkpt>
      <trkpt lat="45.81646" lon="4.7358">
        <ele>366.28711</ele>
        <time>2023-07-26T13:47:31.000Z</time>
      </trkpt>
      <trkpt lat="45.81643" lon="4.73578">
        <ele>366.33231</ele>
        <time>2023-07-26T13:47:32.000Z</time>
      </trkpt>
      <trkpt lat="45.8164" lon="4.73573">
        <ele>366.36517</ele>
        <time>2023-07-26T13:47:33.000Z</time>
      </trkpt>
      <trkpt lat="45.81636" lon="4.73569">
        <ele>366.49789</ele>
        <time>2023-07-26T13:47:34.000Z</time>
      </trkpt>
      <trkpt lat="45.81632" lon="4.73565">
        <ele>366.69937</ele>
        <time>2023-07-26T13:47:35.000Z</time>
      </trkpt>
      <trkpt lat="45.81629" lon="4.73561">
        <ele>366.94775</ele>
        <time>2023-07-26T13:47:36.000Z</time>
      </trkpt>
      <trkpt lat="45.81625" lon="4.73556">
        <ele>367.25406</ele>
        <time>2023-07-26T13:47:37.000Z</time>
      </trkpt>
      <trkpt lat="45.81621" lon="4.73551">
        <ele>367.62921</ele>
        <time>2023-07-26T13:47:38.000Z</time>
      </trkpt>
      <trkpt lat="45.81618" lon="4.73547">
        <ele>367.94287</ele>
        <time>2023-07-26T13:47:39.000Z</time>
      </trkpt>
      <trkpt lat="45.81615" lon="4.73543">
        <ele>368.06921</ele>
        <time>2023-07-26T13:47:40.000Z</time>
      </trkpt>
      <trkpt lat="45.81612" lon="4.73539">
        <ele>368.13104</ele>
        <time>2023-07-26T13:47:41.000Z</time>
      </trkpt>
      <trkpt lat="45.81608" lon="4.73535">
        <ele>368.15668</ele>
        <time>2023-07-26T13:47:42.000Z</time>
      </trkpt>
      <trkpt lat="45.81604" lon="4.73532">
        <ele>368.36356</ele>
        <time>2023-07-26T13:47:43.000Z</time>
      </trkpt>
      <trkpt lat="45.81601" lon="4.73529">
        <ele>368.4595</ele>
        <time>2023-07-26T13:47:44.000Z</time>
      </trkpt>
      <trkpt lat="45.81597" lon="4.73526">
        <ele>368.61774</ele>
        <time>2023-07-26T13:47:45.000Z</time>
      </trkpt>
      <trkpt lat="45.81594" lon="4.73522">
        <ele>368.85815</ele>
        <time>2023-07-26T13:47:46.000Z</time>
      </trkpt>
      <trkpt lat="45.8159" lon="4.73519">
        <ele>369.08554</ele>
        <time>2023-07-26T13:47:47.000Z</time>
      </trkpt>
      <trkpt lat="45.81586" lon="4.73513">
        <ele>369.36469</ele>
        <time>2023-07-26T13:47:48.000Z</time>
      </trkpt>
      <trkpt lat="45.81583" lon="4.73511">
        <ele>369.64352</ele>
        <time>2023-07-26T13:47:49.000Z</time>
      </trkpt>
      <trkpt lat="45.81579" lon="4.73507">
        <ele>369.944</ele>
        <time>2023-07-26T13:47:50.000Z</time>
      </trkpt>
      <trkpt lat="45.81577" lon="4.73504">
        <ele>370.23743</ele>
        <time>2023-07-26T13:47:51.000Z</time>
      </trkpt>
      <trkpt lat="45.81574" lon="4.735">
        <ele>370.56268</ele>
        <time>2023-07-26T13:47:52.000Z</time>
      </trkpt>
      <trkpt lat="45.81573" lon="4.735">
        <ele>370.92072</ele>
        <time>2023-07-26T13:47:53.000Z</time>
      </trkpt>
      <trkpt lat="45.8157" lon="4.73499">
        <ele>371.09827</ele>
        <time>2023-07-26T13:47:54.000Z</time>
      </trkpt>
      <trkpt lat="45.81568" lon="4.73499">
        <ele>371.25067</ele>
        <time>2023-07-26T13:47:55.000Z</time>
      </trkpt>
      <trkpt lat="45.81567" lon="4.73501">
        <ele>371.40884</ele>
        <time>2023-07-26T13:47:56.000Z</time>
      </trkpt>
      <trkpt lat="45.81565" lon="4.73504">
        <ele>371.51413</ele>
        <time>2023-07-26T13:47:57.000Z</time>
      </trkpt>
      <trkpt lat="45.81564" lon="4.73508">
        <ele>371.58527</ele>
        <time>2023-07-26T13:47:58.000Z</time>
      </trkpt>
      <trkpt lat="45.81562" lon="4.73512">
        <ele>371.65594</ele>
        <time>2023-07-26T13:47:59.000Z</time>
      </trkpt>
      <trkpt lat="45.81561" lon="4.73515">
        <ele>371.75967</ele>
        <time>2023-07-26T13:48:00.000Z</time>
      </trkpt>
      <trkpt lat="45.8156" lon="4.73519">
        <ele>371.86087</ele>
        <time>2023-07-26T13:48:01.000Z</time>
      </trkpt>
      <trkpt lat="45.81558" lon="4.73524">
        <ele>371.94858</ele>
        <time>2023-07-26T13:48:02.000Z</time>
      </trkpt>
      <trkpt lat="45.81557" lon="4.7353">
        <ele>372.02637</ele>
        <time>2023-07-26T13:48:03.000Z</time>
      </trkpt>
      <trkpt lat="45.81556" lon="4.73535">
        <ele>372.08676</ele>
        <time>2023-07-26T13:48:04.000Z</time>
      </trkpt>
      <trkpt lat="45.81555" lon="4.7354">
        <ele>372.17499</ele>
        <time>2023-07-26T13:48:05.000Z</time>
      </trkpt>
      <trkpt lat="45.81554" lon="4.73544">
        <ele>372.20972</ele>
        <time>2023-07-26T13:48:06.000Z</time>
      </trkpt>
      <trkpt lat="45.81553" lon="4.73549">
        <ele>372.21243</ele>
        <time>2023-07-26T13:48:07.000Z</time>
      </trkpt>
      <trkpt lat="45.81551" lon="4.73555">
        <ele>372.11209</ele>
        <time>2023-07-26T13:48:08.000Z</time>
      </trkpt>
      <trkpt lat="45.8155" lon="4.7356">
        <ele>371.98468</ele>
        <time>2023-07-26T13:48:09.000Z</time>
      </trkpt>
      <trkpt lat="45.81549" lon="4.73566">
        <ele>371.78571</ele>
        <time>2023-07-26T13:48:10.000Z</time>
      </trkpt>
      <trkpt lat="45.81546" lon="4.73574">
        <ele>371.56836</ele>
        <time>2023-07-26T13:48:11.000Z</time>
      </trkpt>
      <trkpt lat="45.81545" lon="4.7358">
        <ele>371.30276</ele>
        <time>2023-07-26T13:48:12.000Z</time>
      </trkpt>
      <trkpt lat="45.81543" lon="4.73587">
        <ele>370.98547</ele>
        <time>2023-07-26T13:48:13.000Z</time>
      </trkpt>
      <trkpt lat="45.8154" lon="4.73592">
        <ele>370.78046</ele>
        <time>2023-07-26T13:48:14.000Z</time>
      </trkpt>
      <trkpt lat="45.81539" lon="4.73599">
        <ele>370.56381</ele>
        <time>2023-07-26T13:48:15.000Z</time>
      </trkpt>
      <trkpt lat="45.81537" lon="4.73606">
        <ele>370.45419</ele>
        <time>2023-07-26T13:48:16.000Z</time>
      </trkpt>
      <trkpt lat="45.81535" lon="4.73615">
        <ele>370.41888</ele>
        <time>2023-07-26T13:48:17.000Z</time>
      </trkpt>
      <trkpt lat="45.81533" lon="4.73622">
        <ele>370.21552</ele>
        <time>2023-07-26T13:48:18.000Z</time>
      </trkpt>
      <trkpt lat="45.81529" lon="4.73631">
        <ele>370.07477</ele>
        <time>2023-07-26T13:48:19.000Z</time>
      </trkpt>
      <trkpt lat="45.81527" lon="4.73638">
        <ele>369.91656</ele>
        <time>2023-07-26T13:48:20.000Z</time>
      </trkpt>
      <trkpt lat="45.81527" lon="4.73646">
        <ele>369.70892</ele>
        <time>2023-07-26T13:48:21.000Z</time>
      </trkpt>
      <trkpt lat="45.81524" lon="4.73652">
        <ele>369.52731</ele>
        <time>2023-07-26T13:48:22.000Z</time>
      </trkpt>
      <trkpt lat="45.81522" lon="4.73662">
        <ele>369.31915</ele>
        <time>2023-07-26T13:48:23.000Z</time>
      </trkpt>
      <trkpt lat="45.8152" lon="4.73668">
        <ele>369.25049</ele>
        <time>2023-07-26T13:48:24.000Z</time>
      </trkpt>
      <trkpt lat="45.81516" lon="4.73677">
        <ele>369.13751</ele>
        <time>2023-07-26T13:48:25.000Z</time>
      </trkpt>
      <trkpt lat="45.81514" lon="4.73687">
        <ele>369.04187</ele>
        <time>2023-07-26T13:48:26.000Z</time>
      </trkpt>
      <trkpt lat="45.81512" lon="4.73696">
        <ele>369.07425</ele>
        <time>2023-07-26T13:48:27.000Z</time>
      </trkpt>
      <trkpt lat="45.81509" lon="4.73705">
        <ele>369.03094</ele>
        <time>2023-07-26T13:48:28.000Z</time>
      </trkpt>
      <trkpt lat="45.81505" lon="4.73716">
        <ele>368.7605</ele>
        <time>2023-07-26T13:48:29.000Z</time>
      </trkpt>
      <trkpt lat="45.815" lon="4.73727">
        <ele>368.5499</ele>
        <time>2023-07-26T13:48:30.000Z</time>
      </trkpt>
      <trkpt lat="45.81496" lon="4.73737">
        <ele>368.36978</ele>
        <time>2023-07-26T13:48:31.000Z</time>
      </trkpt>
      <trkpt lat="45.81491" lon="4.73749">
        <ele>368.27643</ele>
        <time>2023-07-26T13:48:32.000Z</time>
      </trkpt>
      <trkpt lat="45.81487" lon="4.73756">
        <ele>368.14148</ele>
        <time>2023-07-26T13:48:33.000Z</time>
      </trkpt>
      <trkpt lat="45.81482" lon="4.73766">
        <ele>368.01871</ele>
        <time>2023-07-26T13:48:34.000Z</time>
      </trkpt>
      <trkpt lat="45.81482" lon="4.73774">
        <ele>367.94742</ele>
        <time>2023-07-26T13:48:35.000Z</time>
      </trkpt>
      <trkpt lat="45.81481" lon="4.73782">
        <ele>367.78717</ele>
        <time>2023-07-26T13:48:36.000Z</time>
      </trkpt>
      <trkpt lat="45.81483" lon="4.7379">
        <ele>367.591</ele>
        <time>2023-07-26T13:48:37.000Z</time>
      </trkpt>
      <trkpt lat="45.81483" lon="4.73798">
        <ele>367.57779</ele>
        <time>2023-07-26T13:48:38.000Z</time>
      </trkpt>
      <trkpt lat="45.81484" lon="4.73803">
        <ele>367.52017</ele>
        <time>2023-07-26T13:48:39.000Z</time>
      </trkpt>
      <trkpt lat="45.81485" lon="4.73808">
        <ele>367.51358</ele>
        <time>2023-07-26T13:48:40.000Z</time>
      </trkpt>
      <trkpt lat="45.81486" lon="4.73812">
        <ele>367.49844</ele>
        <time>2023-07-26T13:48:41.000Z</time>
      </trkpt>
      <trkpt lat="45.81488" lon="4.73819">
        <ele>367.41946</ele>
        <time>2023-07-26T13:48:42.000Z</time>
      </trkpt>
      <trkpt lat="45.8149" lon="4.73825">
        <ele>367.4046</ele>
        <time>2023-07-26T13:48:43.000Z</time>
      </trkpt>
      <trkpt lat="45.81492" lon="4.73833">
        <ele>367.20941</ele>
        <time>2023-07-26T13:48:44.000Z</time>
      </trkpt>
      <trkpt lat="45.81493" lon="4.73842">
        <ele>367.01697</ele>
        <time>2023-07-26T13:48:45.000Z</time>
      </trkpt>
      <trkpt lat="45.81494" lon="4.73849">
        <ele>366.91867</ele>
        <time>2023-07-26T13:48:46.000Z</time>
      </trkpt>
      <trkpt lat="45.81495" lon="4.73852">
        <ele>366.73099</ele>
        <time>2023-07-26T13:48:47.000Z</time>
      </trkpt>
      <trkpt lat="45.81493" lon="4.73858">
        <ele>366.6745</ele>
        <time>2023-07-26T13:48:48.000Z</time>
      </trkpt>
      <trkpt lat="45.81492" lon="4.73863">
        <ele>366.8898</ele>
        <time>2023-07-26T13:48:49.000Z</time>
      </trkpt>
      <trkpt lat="45.81492" lon="4.73868">
        <ele>367.07257</ele>
        <time>2023-07-26T13:48:50.000Z</time>
      </trkpt>
      <trkpt lat="45.81492" lon="4.73873">
        <ele>367.22986</ele>
        <time>2023-07-26T13:48:51.000Z</time>
      </trkpt>
      <trkpt lat="45.81492" lon="4.73877">
        <ele>367.32913</ele>
        <time>2023-07-26T13:48:52.000Z</time>
      </trkpt>
      <trkpt lat="45.81491" lon="4.73883">
        <ele>367.54428</ele>
        <time>2023-07-26T13:48:53.000Z</time>
      </trkpt>
      <trkpt lat="45.8149" lon="4.73888">
        <ele>367.72266</ele>
        <time>2023-07-26T13:48:54.000Z</time>
      </trkpt>
      <trkpt lat="45.8149" lon="4.73893">
        <ele>367.86395</ele>
        <time>2023-07-26T13:48:55.000Z</time>
      </trkpt>
      <trkpt lat="45.81489" lon="4.73898">
        <ele>367.75226</ele>
        <time>2023-07-26T13:48:56.000Z</time>
      </trkpt>
      <trkpt lat="45.81489" lon="4.73903">
        <ele>367.69577</ele>
        <time>2023-07-26T13:48:57.000Z</time>
      </trkpt>
      <trkpt lat="45.81489" lon="4.73909">
        <ele>367.60147</ele>
        <time>2023-07-26T13:48:58.000Z</time>
      </trkpt>
      <trkpt lat="45.81488" lon="4.73913">
        <ele>367.51953</ele>
        <time>2023-07-26T13:48:59.000Z</time>
      </trkpt>
      <trkpt lat="45.81487" lon="4.73918">
        <ele>367.46857</ele>
        <time>2023-07-26T13:49:00.000Z</time>
      </trkpt>
      <trkpt lat="45.81486" lon="4.73922">
        <ele>367.41071</ele>
        <time>2023-07-26T13:49:01.000Z</time>
      </trkpt>
      <trkpt lat="45.81486" lon="4.73926">
        <ele>367.40836</ele>
        <time>2023-07-26T13:49:02.000Z</time>
      </trkpt>
      <trkpt lat="45.81486" lon="4.73931">
        <ele>367.36591</ele>
        <time>2023-07-26T13:49:03.000Z</time>
      </trkpt>
      <trkpt lat="45.81486" lon="4.73935">
        <ele>367.43646</ele>
        <time>2023-07-26T13:49:04.000Z</time>
      </trkpt>
      <trkpt lat="45.81485" lon="4.73939">
        <ele>367.50766</ele>
        <time>2023-07-26T13:49:05.000Z</time>
      </trkpt>
      <trkpt lat="45.81484" lon="4.73943">
        <ele>367.52628</ele>
        <time>2023-07-26T13:49:06.000Z</time>
      </trkpt>
      <trkpt lat="45.81483" lon="4.73947">
        <ele>367.56689</ele>
        <time>2023-07-26T13:49:07.000Z</time>
      </trkpt>
      <trkpt lat="45.81483" lon="4.73952">
        <ele>367.64795</ele>
        <time>2023-07-26T13:49:08.000Z</time>
      </trkpt>
      <trkpt lat="45.81483" lon="4.73956">
        <ele>367.70963</ele>
        <time>2023-07-26T13:49:09.000Z</time>
      </trkpt>
      <trkpt lat="45.81482" lon="4.7396">
        <ele>367.67755</ele>
        <time>2023-07-26T13:49:10.000Z</time>
      </trkpt>
      <trkpt lat="45.81482" lon="4.73964">
        <ele>367.58624</ele>
        <time>2023-07-26T13:49:11.000Z</time>
      </trkpt>
      <trkpt lat="45.8148" lon="4.73968">
        <ele>367.50354</ele>
        <time>2023-07-26T13:49:12.000Z</time>
      </trkpt>
      <trkpt lat="45.81478" lon="4.73971">
        <ele>367.36093</ele>
        <time>2023-07-26T13:49:13.000Z</time>
      </trkpt>
      <trkpt lat="45.81477" lon="4.73973">
        <ele>367.42715</ele>
        <time>2023-07-26T13:49:14.000Z</time>
      </trkpt>
      <trkpt lat="45.81475" lon="4.73976">
        <ele>367.65192</ele>
        <time>2023-07-26T13:49:15.000Z</time>
      </trkpt>
      <trkpt lat="45.81473" lon="4.73979">
        <ele>367.80804</ele>
        <time>2023-07-26T13:49:16.000Z</time>
      </trkpt>
      <trkpt lat="45.81472" lon="4.73982">
        <ele>367.94055</ele>
        <time>2023-07-26T13:49:18.000Z</time>
      </trkpt>
      <trkpt lat="45.8147" lon="4.73983">
        <ele>368.27313</ele>
        <time>2023-07-26T13:49:20.000Z</time>
      </trkpt>
      <trkpt lat="45.81469" lon="4.73986">
        <ele>367.91037</ele>
        <time>2023-07-26T13:50:10.000Z</time>
      </trkpt>
      <trkpt lat="45.81466" lon="4.73989">
        <ele>367.44205</ele>
        <time>2023-07-26T13:50:12.000Z</time>
      </trkpt>
      <trkpt lat="45.81464" lon="4.73991">
        <ele>367.03058</ele>
        <time>2023-07-26T13:50:13.000Z</time>
      </trkpt>
      <trkpt lat="45.81461" lon="4.73994">
        <ele>366.59998</ele>
        <time>2023-07-26T13:50:14.000Z</time>
      </trkpt>
      <trkpt lat="45.81458" lon="4.73997">
        <ele>366.20514</ele>
        <time>2023-07-26T13:50:15.000Z</time>
      </trkpt>
      <trkpt lat="45.81456" lon="4.74001">
        <ele>365.64157</ele>
        <time>2023-07-26T13:50:16.000Z</time>
      </trkpt>
      <trkpt lat="45.81452" lon="4.74004">
        <ele>365.41782</ele>
        <time>2023-07-26T13:50:17.000Z</time>
      </trkpt>
      <trkpt lat="45.81446" lon="4.74011">
        <ele>364.52594</ele>
        <time>2023-07-26T13:50:18.000Z</time>
      </trkpt>
      <trkpt lat="45.81443" lon="4.74015">
        <ele>363.60602</ele>
        <time>2023-07-26T13:50:19.000Z</time>
      </trkpt>
      <trkpt lat="45.8144" lon="4.74016">
        <ele>363.72678</ele>
        <time>2023-07-26T13:50:21.000Z</time>
      </trkpt>
      <trkpt lat="45.8144" lon="4.74013">
        <ele>363.83527</ele>
        <time>2023-07-26T13:50:22.000Z</time>
      </trkpt>
      <trkpt lat="45.81437" lon="4.7401">
        <ele>363.76996</ele>
        <time>2023-07-26T13:50:23.000Z</time>
      </trkpt>
      <trkpt lat="45.81436" lon="4.74007">
        <ele>363.7713</ele>
        <time>2023-07-26T13:50:24.000Z</time>
      </trkpt>
      <trkpt lat="45.81434" lon="4.74005">
        <ele>363.76324</ele>
        <time>2023-07-26T13:50:25.000Z</time>
      </trkpt>
      <trkpt lat="45.81432" lon="4.74002">
        <ele>363.76581</ele>
        <time>2023-07-26T13:50:26.000Z</time>
      </trkpt>
      <trkpt lat="45.8143" lon="4.73999">
        <ele>363.60138</ele>
        <time>2023-07-26T13:50:27.000Z</time>
      </trkpt>
      <trkpt lat="45.81429" lon="4.73994">
        <ele>363.33447</ele>
        <time>2023-07-26T13:50:28.000Z</time>
      </trkpt>
      <trkpt lat="45.81427" lon="4.7399">
        <ele>363.45782</ele>
        <time>2023-07-26T13:50:29.000Z</time>
      </trkpt>
      <trkpt lat="45.81426" lon="4.73985">
        <ele>363.50873</ele>
        <time>2023-07-26T13:50:30.000Z</time>
      </trkpt>
      <trkpt lat="45.81425" lon="4.73981">
        <ele>363.11011</ele>
        <time>2023-07-26T13:50:31.000Z</time>
      </trkpt>
      <trkpt lat="45.81423" lon="4.73977">
        <ele>363.42383</ele>
        <time>2023-07-26T13:50:32.000Z</time>
      </trkpt>
      <trkpt lat="45.81422" lon="4.73972">
        <ele>363.74356</ele>
        <time>2023-07-26T13:50:33.000Z</time>
      </trkpt>
      <trkpt lat="45.8142" lon="4.73968">
        <ele>364.00934</ele>
        <time>2023-07-26T13:50:34.000Z</time>
      </trkpt>
      <trkpt lat="45.81418" lon="4.73963">
        <ele>364.33414</ele>
        <time>2023-07-26T13:50:35.000Z</time>
      </trkpt>
      <trkpt lat="45.81417" lon="4.73959">
        <ele>364.62491</ele>
        <time>2023-07-26T13:50:36.000Z</time>
      </trkpt>
      <trkpt lat="45.81415" lon="4.73955">
        <ele>365.05142</ele>
        <time>2023-07-26T13:50:37.000Z</time>
      </trkpt>
      <trkpt lat="45.81413" lon="4.73951">
        <ele>365.11307</ele>
        <time>2023-07-26T13:50:38.000Z</time>
      </trkpt>
      <trkpt lat="45.81411" lon="4.73948">
        <ele>365.9971</ele>
        <time>2023-07-26T13:50:39.000Z</time>
      </trkpt>
      <trkpt lat="45.81408" lon="4.73944">
        <ele>366.86343</ele>
        <time>2023-07-26T13:50:40.000Z</time>
      </trkpt>
      <trkpt lat="45.81405" lon="4.73941">
        <ele>366.79117</ele>
        <time>2023-07-26T13:50:41.000Z</time>
      </trkpt>
      <trkpt lat="45.81402" lon="4.73937">
        <ele>366.7348</ele>
        <time>2023-07-26T13:50:42.000Z</time>
      </trkpt>
      <trkpt lat="45.814" lon="4.73934">
        <ele>366.70569</ele>
        <time>2023-07-26T13:50:43.000Z</time>
      </trkpt>
      <trkpt lat="45.81398" lon="4.7393">
        <ele>366.70123</ele>
        <time>2023-07-26T13:50:44.000Z</time>
      </trkpt>
      <trkpt lat="45.81396" lon="4.73926">
        <ele>366.73447</ele>
        <time>2023-07-26T13:50:45.000Z</time>
      </trkpt>
      <trkpt lat="45.81394" lon="4.73923">
        <ele>366.79636</ele>
        <time>2023-07-26T13:50:46.000Z</time>
      </trkpt>
      <trkpt lat="45.81391" lon="4.73919">
        <ele>366.85352</ele>
        <time>2023-07-26T13:50:47.000Z</time>
      </trkpt>
      <trkpt lat="45.81389" lon="4.73915">
        <ele>366.98462</ele>
        <time>2023-07-26T13:50:48.000Z</time>
      </trkpt>
      <trkpt lat="45.81387" lon="4.73912">
        <ele>367.08212</ele>
        <time>2023-07-26T13:50:49.000Z</time>
      </trkpt>
      <trkpt lat="45.81384" lon="4.73908">
        <ele>367.20419</ele>
        <time>2023-07-26T13:50:50.000Z</time>
      </trkpt>
      <trkpt lat="45.81381" lon="4.73904">
        <ele>367.49002</ele>
        <time>2023-07-26T13:50:51.000Z</time>
      </trkpt>
      <trkpt lat="45.81379" lon="4.739">
        <ele>367.72989</ele>
        <time>2023-07-26T13:50:52.000Z</time>
      </trkpt>
      <trkpt lat="45.81377" lon="4.73897">
        <ele>368.00833</ele>
        <time>2023-07-26T13:50:53.000Z</time>
      </trkpt>
      <trkpt lat="45.81376" lon="4.73893">
        <ele>368.32172</ele>
        <time>2023-07-26T13:50:54.000Z</time>
      </trkpt>
      <trkpt lat="45.81374" lon="4.7389">
        <ele>368.61401</ele>
        <time>2023-07-26T13:50:55.000Z</time>
      </trkpt>
      <trkpt lat="45.81372" lon="4.73886">
        <ele>368.92966</ele>
        <time>2023-07-26T13:50:56.000Z</time>
      </trkpt>
      <trkpt lat="45.81369" lon="4.73883">
        <ele>369.28506</ele>
        <time>2023-07-26T13:50:57.000Z</time>
      </trkpt>
      <trkpt lat="45.81367" lon="4.73879">
        <ele>369.70328</ele>
        <time>2023-07-26T13:50:58.000Z</time>
      </trkpt>
      <trkpt lat="45.81365" lon="4.73875">
        <ele>369.91241</ele>
        <time>2023-07-26T13:50:59.000Z</time>
      </trkpt>
      <trkpt lat="45.81362" lon="4.73871">
        <ele>370.14301</ele>
        <time>2023-07-26T13:51:00.000Z</time>
      </trkpt>
      <trkpt lat="45.8136" lon="4.73866">
        <ele>370.30597</ele>
        <time>2023-07-26T13:51:01.000Z</time>
      </trkpt>
      <trkpt lat="45.81357" lon="4.73862">
        <ele>370.51422</ele>
        <time>2023-07-26T13:51:02.000Z</time>
      </trkpt>
      <trkpt lat="45.81354" lon="4.73858">
        <ele>370.79227</ele>
        <time>2023-07-26T13:51:03.000Z</time>
      </trkpt>
      <trkpt lat="45.81352" lon="4.73853">
        <ele>371.10849</ele>
        <time>2023-07-26T13:51:04.000Z</time>
      </trkpt>
      <trkpt lat="45.81348" lon="4.73849">
        <ele>371.35663</ele>
        <time>2023-07-26T13:51:05.000Z</time>
      </trkpt>
      <trkpt lat="45.81343" lon="4.73844">
        <ele>371.53482</ele>
        <time>2023-07-26T13:51:07.000Z</time>
      </trkpt>
      <trkpt lat="45.8134" lon="4.73842">
        <ele>371.99255</ele>
        <time>2023-07-26T13:51:08.000Z</time>
      </trkpt>
      <trkpt lat="45.81338" lon="4.73838">
        <ele>372.36902</ele>
        <time>2023-07-26T13:51:09.000Z</time>
      </trkpt>
      <trkpt lat="45.81334" lon="4.73834">
        <ele>372.67197</ele>
        <time>2023-07-26T13:51:10.000Z</time>
      </trkpt>
      <trkpt lat="45.81331" lon="4.73829">
        <ele>372.83099</ele>
        <time>2023-07-26T13:51:11.000Z</time>
      </trkpt>
      <trkpt lat="45.81327" lon="4.73824">
        <ele>373.12405</ele>
        <time>2023-07-26T13:51:12.000Z</time>
      </trkpt>
      <trkpt lat="45.81324" lon="4.7382">
        <ele>373.36194</ele>
        <time>2023-07-26T13:51:13.000Z</time>
      </trkpt>
      <trkpt lat="45.8132" lon="4.73815">
        <ele>373.59796</ele>
        <time>2023-07-26T13:51:14.000Z</time>
      </trkpt>
      <trkpt lat="45.81318" lon="4.73811">
        <ele>373.83395</ele>
        <time>2023-07-26T13:51:15.000Z</time>
      </trkpt>
      <trkpt lat="45.81315" lon="4.73806">
        <ele>374.04474</ele>
        <time>2023-07-26T13:51:16.000Z</time>
      </trkpt>
      <trkpt lat="45.81312" lon="4.73802">
        <ele>374.23288</ele>
        <time>2023-07-26T13:51:17.000Z</time>
      </trkpt>
      <trkpt lat="45.81309" lon="4.73797">
        <ele>374.37909</ele>
        <time>2023-07-26T13:51:18.000Z</time>
      </trkpt>
      <trkpt lat="45.81306" lon="4.73793">
        <ele>374.46979</ele>
        <time>2023-07-26T13:51:19.000Z</time>
      </trkpt>
      <trkpt lat="45.81303" lon="4.73789">
        <ele>374.61603</ele>
        <time>2023-07-26T13:51:20.000Z</time>
      </trkpt>
      <trkpt lat="45.81301" lon="4.73785">
        <ele>374.8006</ele>
        <time>2023-07-26T13:51:21.000Z</time>
      </trkpt>
      <trkpt lat="45.81298" lon="4.73782">
        <ele>374.94141</ele>
        <time>2023-07-26T13:51:22.000Z</time>
      </trkpt>
      <trkpt lat="45.81293" lon="4.73777">
        <ele>374.92166</ele>
        <time>2023-07-26T13:51:23.000Z</time>
      </trkpt>
      <trkpt lat="45.81289" lon="4.73773">
        <ele>375.05646</ele>
        <time>2023-07-26T13:51:24.000Z</time>
      </trkpt>
      <trkpt lat="45.81285" lon="4.73769">
        <ele>375.13678</ele>
        <time>2023-07-26T13:51:25.000Z</time>
      </trkpt>
      <trkpt lat="45.81281" lon="4.73764">
        <ele>375.25696</ele>
        <time>2023-07-26T13:51:26.000Z</time>
      </trkpt>
      <trkpt lat="45.81278" lon="4.73759">
        <ele>375.44489</ele>
        <time>2023-07-26T13:51:27.000Z</time>
      </trkpt>
      <trkpt lat="45.81275" lon="4.73754">
        <ele>375.36703</ele>
        <time>2023-07-26T13:51:28.000Z</time>
      </trkpt>
      <trkpt lat="45.81271" lon="4.7375">
        <ele>375.2735</ele>
        <time>2023-07-26T13:51:29.000Z</time>
      </trkpt>
      <trkpt lat="45.81268" lon="4.73744">
        <ele>375.16986</ele>
        <time>2023-07-26T13:51:30.000Z</time>
      </trkpt>
      <trkpt lat="45.81263" lon="4.73739">
        <ele>375.09891</ele>
        <time>2023-07-26T13:51:31.000Z</time>
      </trkpt>
      <trkpt lat="45.81259" lon="4.73737">
        <ele>375.04352</ele>
        <time>2023-07-26T13:51:32.000Z</time>
      </trkpt>
      <trkpt lat="45.81255" lon="4.73732">
        <ele>375.03442</ele>
        <time>2023-07-26T13:51:33.000Z</time>
      </trkpt>
      <trkpt lat="45.81251" lon="4.73728">
        <ele>374.99731</ele>
        <time>2023-07-26T13:51:34.000Z</time>
      </trkpt>
      <trkpt lat="45.81248" lon="4.73723">
        <ele>375.00653</ele>
        <time>2023-07-26T13:51:35.000Z</time>
      </trkpt>
      <trkpt lat="45.81244" lon="4.73719">
        <ele>375.01938</ele>
        <time>2023-07-26T13:51:36.000Z</time>
      </trkpt>
      <trkpt lat="45.8124" lon="4.73715">
        <ele>375.05585</ele>
        <time>2023-07-26T13:51:37.000Z</time>
      </trkpt>
      <trkpt lat="45.81235" lon="4.73711">
        <ele>375.10773</ele>
        <time>2023-07-26T13:51:38.000Z</time>
      </trkpt>
      <trkpt lat="45.81231" lon="4.73708">
        <ele>375.19656</ele>
        <time>2023-07-26T13:51:39.000Z</time>
      </trkpt>
      <trkpt lat="45.81226" lon="4.73707">
        <ele>375.24365</ele>
        <time>2023-07-26T13:51:40.000Z</time>
      </trkpt>
      <trkpt lat="45.81222" lon="4.73706">
        <ele>375.15271</ele>
        <time>2023-07-26T13:51:41.000Z</time>
      </trkpt>
      <trkpt lat="45.81218" lon="4.73706">
        <ele>375.0726</ele>
        <time>2023-07-26T13:51:42.000Z</time>
      </trkpt>
      <trkpt lat="45.81214" lon="4.73707">
        <ele>375.14258</ele>
        <time>2023-07-26T13:51:43.000Z</time>
      </trkpt>
      <trkpt lat="45.81209" lon="4.73705">
        <ele>375.18784</ele>
        <time>2023-07-26T13:51:44.000Z</time>
      </trkpt>
      <trkpt lat="45.81204" lon="4.73704">
        <ele>375.21951</ele>
        <time>2023-07-26T13:51:45.000Z</time>
      </trkpt>
      <trkpt lat="45.81201" lon="4.73703">
        <ele>375.21854</ele>
        <time>2023-07-26T13:51:46.000Z</time>
      </trkpt>
      <trkpt lat="45.81196" lon="4.73702">
        <ele>375.18976</ele>
        <time>2023-07-26T13:51:47.000Z</time>
      </trkpt>
      <trkpt lat="45.81192" lon="4.73701">
        <ele>375.13583</ele>
        <time>2023-07-26T13:51:48.000Z</time>
      </trkpt>
      <trkpt lat="45.81187" lon="4.737">
        <ele>375.04095</ele>
        <time>2023-07-26T13:51:49.000Z</time>
      </trkpt>
      <trkpt lat="45.81183" lon="4.73699">
        <ele>375.00171</ele>
        <time>2023-07-26T13:51:50.000Z</time>
      </trkpt>
      <trkpt lat="45.81179" lon="4.73698">
        <ele>375.07584</ele>
        <time>2023-07-26T13:51:51.000Z</time>
      </trkpt>
      <trkpt lat="45.81175" lon="4.73698">
        <ele>375.19562</ele>
        <time>2023-07-26T13:51:52.000Z</time>
      </trkpt>
      <trkpt lat="45.8117" lon="4.73696">
        <ele>375.32813</ele>
        <time>2023-07-26T13:51:53.000Z</time>
      </trkpt>
      <trkpt lat="45.81166" lon="4.73694">
        <ele>375.50085</ele>
        <time>2023-07-26T13:51:54.000Z</time>
      </trkpt>
      <trkpt lat="45.81162" lon="4.73692">
        <ele>375.51727</ele>
        <time>2023-07-26T13:51:55.000Z</time>
      </trkpt>
      <trkpt lat="45.81157" lon="4.73691">
        <ele>375.55579</ele>
        <time>2023-07-26T13:51:56.000Z</time>
      </trkpt>
      <trkpt lat="45.81152" lon="4.7369">
        <ele>375.57181</ele>
        <time>2023-07-26T13:51:57.000Z</time>
      </trkpt>
      <trkpt lat="45.81147" lon="4.73688">
        <ele>375.55051</ele>
        <time>2023-07-26T13:51:58.000Z</time>
      </trkpt>
      <trkpt lat="45.81142" lon="4.73687">
        <ele>375.49139</ele>
        <time>2023-07-26T13:51:59.000Z</time>
      </trkpt>
      <trkpt lat="45.81137" lon="4.73685">
        <ele>375.48401</ele>
        <time>2023-07-26T13:52:00.000Z</time>
      </trkpt>
      <trkpt lat="45.81131" lon="4.73683">
        <ele>375.56061</ele>
        <time>2023-07-26T13:52:01.000Z</time>
      </trkpt>
      <trkpt lat="45.81126" lon="4.73681">
        <ele>375.59042</ele>
        <time>2023-07-26T13:52:02.000Z</time>
      </trkpt>
      <trkpt lat="45.81122" lon="4.73677">
        <ele>375.59799</ele>
        <time>2023-07-26T13:52:03.000Z</time>
      </trkpt>
      <trkpt lat="45.81117" lon="4.73676">
        <ele>375.66342</ele>
        <time>2023-07-26T13:52:04.000Z</time>
      </trkpt>
      <trkpt lat="45.81111" lon="4.73674">
        <ele>375.61533</ele>
        <time>2023-07-26T13:52:05.000Z</time>
      </trkpt>
      <trkpt lat="45.81106" lon="4.73674">
        <ele>375.61148</ele>
        <time>2023-07-26T13:52:06.000Z</time>
      </trkpt>
      <trkpt lat="45.81101" lon="4.73672">
        <ele>375.58649</ele>
        <time>2023-07-26T13:52:07.000Z</time>
      </trkpt>
      <trkpt lat="45.81096" lon="4.73671">
        <ele>375.58206</ele>
        <time>2023-07-26T13:52:08.000Z</time>
      </trkpt>
      <trkpt lat="45.81091" lon="4.73671">
        <ele>375.56146</ele>
        <time>2023-07-26T13:52:09.000Z</time>
      </trkpt>
      <trkpt lat="45.81085" lon="4.7367">
        <ele>375.48907</ele>
        <time>2023-07-26T13:52:10.000Z</time>
      </trkpt>
      <trkpt lat="45.8108" lon="4.73668">
        <ele>375.41052</ele>
        <time>2023-07-26T13:52:11.000Z</time>
      </trkpt>
      <trkpt lat="45.81074" lon="4.73667">
        <ele>375.26703</ele>
        <time>2023-07-26T13:52:12.000Z</time>
      </trkpt>
      <trkpt lat="45.81069" lon="4.73666">
        <ele>375.13654</ele>
        <time>2023-07-26T13:52:13.000Z</time>
      </trkpt>
      <trkpt lat="45.81063" lon="4.73665">
        <ele>374.983</ele>
        <time>2023-07-26T13:52:14.000Z</time>
      </trkpt>
      <trkpt lat="45.81058" lon="4.73664">
        <ele>374.94501</ele>
        <time>2023-07-26T13:52:15.000Z</time>
      </trkpt>
      <trkpt lat="45.81053" lon="4.73662">
        <ele>374.89233</ele>
        <time>2023-07-26T13:52:16.000Z</time>
      </trkpt>
      <trkpt lat="45.81049" lon="4.73661">
        <ele>374.82404</ele>
        <time>2023-07-26T13:52:17.000Z</time>
      </trkpt>
      <trkpt lat="45.81045" lon="4.73661">
        <ele>374.77252</ele>
        <time>2023-07-26T13:52:18.000Z</time>
      </trkpt>
      <trkpt lat="45.81042" lon="4.73663">
        <ele>374.7348</ele>
        <time>2023-07-26T13:52:19.000Z</time>
      </trkpt>
      <trkpt lat="45.81039" lon="4.73666">
        <ele>374.69498</ele>
        <time>2023-07-26T13:52:20.000Z</time>
      </trkpt>
      <trkpt lat="45.81038" lon="4.7367">
        <ele>374.68481</ele>
        <time>2023-07-26T13:52:21.000Z</time>
      </trkpt>
      <trkpt lat="45.81036" lon="4.73675">
        <ele>374.67755</ele>
        <time>2023-07-26T13:52:22.000Z</time>
      </trkpt>
      <trkpt lat="45.81033" lon="4.73679">
        <ele>374.68884</ele>
        <time>2023-07-26T13:52:23.000Z</time>
      </trkpt>
      <trkpt lat="45.8103" lon="4.73683">
        <ele>374.57147</ele>
        <time>2023-07-26T13:52:24.000Z</time>
      </trkpt>
      <trkpt lat="45.81027" lon="4.73687">
        <ele>374.56171</ele>
        <time>2023-07-26T13:52:25.000Z</time>
      </trkpt>
      <trkpt lat="45.81025" lon="4.73691">
        <ele>374.5329</ele>
        <time>2023-07-26T13:52:26.000Z</time>
      </trkpt>
      <trkpt lat="45.81023" lon="4.73695">
        <ele>374.50165</ele>
        <time>2023-07-26T13:52:27.000Z</time>
      </trkpt>
      <trkpt lat="45.81021" lon="4.73699">
        <ele>374.43121</ele>
        <time>2023-07-26T13:52:28.000Z</time>
      </trkpt>
      <trkpt lat="45.81018" lon="4.73702">
        <ele>374.38126</ele>
        <time>2023-07-26T13:52:29.000Z</time>
      </trkpt>
      <trkpt lat="45.81015" lon="4.73706">
        <ele>374.35471</ele>
        <time>2023-07-26T13:52:30.000Z</time>
      </trkpt>
      <trkpt lat="45.81013" lon="4.7371">
        <ele>374.30438</ele>
        <time>2023-07-26T13:52:31.000Z</time>
      </trkpt>
      <trkpt lat="45.8101" lon="4.73713">
        <ele>374.27261</ele>
        <time>2023-07-26T13:52:32.000Z</time>
      </trkpt>
      <trkpt lat="45.81007" lon="4.73717">
        <ele>374.21158</ele>
        <time>2023-07-26T13:52:33.000Z</time>
      </trkpt>
      <trkpt lat="45.81004" lon="4.73721">
        <ele>374.22049</ele>
        <time>2023-07-26T13:52:34.000Z</time>
      </trkpt>
      <trkpt lat="45.81002" lon="4.73724">
        <ele>374.24078</ele>
        <time>2023-07-26T13:52:35.000Z</time>
      </trkpt>
      <trkpt lat="45.80999" lon="4.73727">
        <ele>374.25333</ele>
        <time>2023-07-26T13:52:36.000Z</time>
      </trkpt>
      <trkpt lat="45.80997" lon="4.7373">
        <ele>374.33081</ele>
        <time>2023-07-26T13:52:37.000Z</time>
      </trkpt>
      <trkpt lat="45.80994" lon="4.73732">
        <ele>374.38916</ele>
        <time>2023-07-26T13:52:38.000Z</time>
      </trkpt>
      <trkpt lat="45.80992" lon="4.73731">
        <ele>374.30557</ele>
        <time>2023-07-26T13:52:40.000Z</time>
      </trkpt>
      <trkpt lat="45.80994" lon="4.73726">
        <ele>374.18463</ele>
        <time>2023-07-26T13:52:43.000Z</time>
      </trkpt>
      <trkpt lat="45.80996" lon="4.73725">
        <ele>374.03571</ele>
        <time>2023-07-26T13:52:44.000Z</time>
      </trkpt>
      <trkpt lat="45.80998" lon="4.73724">
        <ele>373.88351</ele>
        <time>2023-07-26T13:52:45.000Z</time>
      </trkpt>
      <trkpt lat="45.81001" lon="4.73723">
        <ele>373.77002</ele>
        <time>2023-07-26T13:52:46.000Z</time>
      </trkpt>
      <trkpt lat="45.81002" lon="4.73722">
        <ele>373.80194</ele>
        <time>2023-07-26T13:52:47.000Z</time>
      </trkpt>
      <trkpt lat="45.81005" lon="4.73721">
        <ele>373.77301</ele>
        <time>2023-07-26T13:52:49.000Z</time>
      </trkpt>
      <trkpt lat="45.81007" lon="4.73719">
        <ele>373.73828</ele>
        <time>2023-07-26T13:52:51.000Z</time>
      </trkpt>
      <trkpt lat="45.81007" lon="4.73716">
        <ele>373.7807</ele>
        <time>2023-07-26T13:52:54.000Z</time>
      </trkpt>
      <trkpt lat="45.81004" lon="4.73715">
        <ele>373.67664</ele>
        <time>2023-07-26T13:52:57.000Z</time>
      </trkpt>
      <trkpt lat="45.81004" lon="4.73715">
        <ele>373.67664</ele>
      </trkpt>
      <trkpt lat="45.80989" lon="4.73715">
        <ele>373.6434</ele>
      </trkpt>
      <trkpt lat="45.80987" lon="4.73715">
        <ele>373.64951</ele>
      </trkpt>
      <trkpt lat="45.80987" lon="4.73715">
        <ele>373.64951</ele>
        <time>2023-07-26T14:00:02.000Z</time>
      </trkpt>
      <trkpt lat="45.80986" lon="4.73712">
        <ele>373.70416</ele>
        <time>2023-07-26T14:00:03.000Z</time>
      </trkpt>
      <trkpt lat="45.80986" lon="4.73708">
        <ele>373.72198</ele>
        <time>2023-07-26T14:00:04.000Z</time>
      </trkpt>
      <trkpt lat="45.80985" lon="4.73704">
        <ele>373.7453</ele>
        <time>2023-07-26T14:00:05.000Z</time>
      </trkpt>
      <trkpt lat="45.80985" lon="4.737">
        <ele>373.69049</ele>
        <time>2023-07-26T14:00:06.000Z</time>
      </trkpt>
      <trkpt lat="45.80986" lon="4.73695">
        <ele>373.61624</ele>
        <time>2023-07-26T14:00:07.000Z</time>
      </trkpt>
      <trkpt lat="45.80986" lon="4.73691">
        <ele>373.56696</ele>
        <time>2023-07-26T14:00:08.000Z</time>
      </trkpt>
      <trkpt lat="45.80986" lon="4.73686">
        <ele>373.46088</ele>
        <time>2023-07-26T14:00:09.000Z</time>
      </trkpt>
      <trkpt lat="45.80986" lon="4.73682">
        <ele>373.36505</ele>
        <time>2023-07-26T14:00:10.000Z</time>
      </trkpt>
      <trkpt lat="45.80986" lon="4.73678">
        <ele>373.42059</ele>
        <time>2023-07-26T14:00:11.000Z</time>
      </trkpt>
      <trkpt lat="45.80985" lon="4.73673">
        <ele>373.47235</ele>
        <time>2023-07-26T14:00:12.000Z</time>
      </trkpt>
      <trkpt lat="45.80985" lon="4.73668">
        <ele>373.52765</ele>
        <time>2023-07-26T14:00:13.000Z</time>
      </trkpt>
      <trkpt lat="45.80985" lon="4.73664">
        <ele>373.6243</ele>
        <time>2023-07-26T14:00:14.000Z</time>
      </trkpt>
      <trkpt lat="45.80984" lon="4.73659">
        <ele>373.6467</ele>
        <time>2023-07-26T14:00:15.000Z</time>
      </trkpt>
      <trkpt lat="45.80983" lon="4.73654">
        <ele>373.6366</ele>
        <time>2023-07-26T14:00:16.000Z</time>
      </trkpt>
      <trkpt lat="45.80983" lon="4.73648">
        <ele>373.69443</ele>
        <time>2023-07-26T14:00:17.000Z</time>
      </trkpt>
      <trkpt lat="45.80982" lon="4.73642">
        <ele>373.76276</ele>
        <time>2023-07-26T14:00:18.000Z</time>
      </trkpt>
      <trkpt lat="45.80981" lon="4.73635">
        <ele>373.75244</ele>
        <time>2023-07-26T14:00:19.000Z</time>
      </trkpt>
      <trkpt lat="45.80981" lon="4.73629">
        <ele>373.9397</ele>
        <time>2023-07-26T14:00:20.000Z</time>
      </trkpt>
      <trkpt lat="45.8098" lon="4.73623">
        <ele>374.07016</ele>
        <time>2023-07-26T14:00:21.000Z</time>
      </trkpt>
      <trkpt lat="45.8098" lon="4.73618">
        <ele>374.17242</ele>
        <time>2023-07-26T14:00:22.000Z</time>
      </trkpt>
      <trkpt lat="45.8098" lon="4.73613">
        <ele>374.28607</ele>
        <time>2023-07-26T14:00:23.000Z</time>
      </trkpt>
      <trkpt lat="45.8098" lon="4.73608">
        <ele>374.42029</ele>
        <time>2023-07-26T14:00:24.000Z</time>
      </trkpt>
      <trkpt lat="45.8098" lon="4.73603">
        <ele>374.54117</ele>
        <time>2023-07-26T14:00:25.000Z</time>
      </trkpt>
      <trkpt lat="45.80979" lon="4.73599">
        <ele>374.71371</ele>
        <time>2023-07-26T14:00:26.000Z</time>
      </trkpt>
      <trkpt lat="45.80979" lon="4.73595">
        <ele>374.85089</ele>
        <time>2023-07-26T14:00:27.000Z</time>
      </trkpt>
      <trkpt lat="45.80978" lon="4.7359">
        <ele>374.95465</ele>
        <time>2023-07-26T14:00:28.000Z</time>
      </trkpt>
      <trkpt lat="45.80978" lon="4.73587">
        <ele>375.13416</ele>
        <time>2023-07-26T14:00:29.000Z</time>
      </trkpt>
      <trkpt lat="45.80977" lon="4.73583">
        <ele>375.30646</ele>
        <time>2023-07-26T14:00:30.000Z</time>
      </trkpt>
      <trkpt lat="45.80977" lon="4.73578">
        <ele>375.47006</ele>
        <time>2023-07-26T14:00:31.000Z</time>
      </trkpt>
      <trkpt lat="45.80976" lon="4.73573">
        <ele>375.63232</ele>
        <time>2023-07-26T14:00:32.000Z</time>
      </trkpt>
      <trkpt lat="45.80976" lon="4.73569">
        <ele>375.81137</ele>
        <time>2023-07-26T14:00:33.000Z</time>
      </trkpt>
      <trkpt lat="45.80976" lon="4.73563">
        <ele>375.94092</ele>
        <time>2023-07-26T14:00:34.000Z</time>
      </trkpt>
      <trkpt lat="45.80975" lon="4.73557">
        <ele>376.09161</ele>
        <time>2023-07-26T14:00:35.000Z</time>
      </trkpt>
      <trkpt lat="45.80974" lon="4.73552">
        <ele>376.21747</ele>
        <time>2023-07-26T14:00:36.000Z</time>
      </trkpt>
      <trkpt lat="45.80974" lon="4.73547">
        <ele>376.33575</ele>
        <time>2023-07-26T14:00:37.000Z</time>
      </trkpt>
      <trkpt lat="45.80973" lon="4.73542">
        <ele>376.44669</ele>
        <time>2023-07-26T14:00:38.000Z</time>
      </trkpt>
      <trkpt lat="45.80973" lon="4.73537">
        <ele>376.56641</ele>
        <time>2023-07-26T14:00:39.000Z</time>
      </trkpt>
      <trkpt lat="45.80973" lon="4.73533">
        <ele>376.70004</ele>
        <time>2023-07-26T14:00:40.000Z</time>
      </trkpt>
      <trkpt lat="45.80972" lon="4.73528">
        <ele>376.77936</ele>
        <time>2023-07-26T14:00:41.000Z</time>
      </trkpt>
      <trkpt lat="45.80972" lon="4.73523">
        <ele>376.84964</ele>
        <time>2023-07-26T14:00:42.000Z</time>
      </trkpt>
      <trkpt lat="45.80971" lon="4.73519">
        <ele>376.93121</ele>
        <time>2023-07-26T14:00:43.000Z</time>
      </trkpt>
      <trkpt lat="45.8097" lon="4.73514">
        <ele>376.99463</ele>
        <time>2023-07-26T14:00:44.000Z</time>
      </trkpt>
      <trkpt lat="45.80969" lon="4.73508">
        <ele>377.12643</ele>
        <time>2023-07-26T14:00:45.000Z</time>
      </trkpt>
      <trkpt lat="45.80969" lon="4.73502">
        <ele>377.26123</ele>
        <time>2023-07-26T14:00:46.000Z</time>
      </trkpt>
      <trkpt lat="45.80968" lon="4.73496">
        <ele>377.41922</ele>
        <time>2023-07-26T14:00:47.000Z</time>
      </trkpt>
      <trkpt lat="45.80967" lon="4.73489">
        <ele>377.71271</ele>
        <time>2023-07-26T14:00:48.000Z</time>
      </trkpt>
      <trkpt lat="45.80966" lon="4.73482">
        <ele>377.91553</ele>
        <time>2023-07-26T14:00:49.000Z</time>
      </trkpt>
      <trkpt lat="45.80965" lon="4.73475">
        <ele>378.12091</ele>
        <time>2023-07-26T14:00:50.000Z</time>
      </trkpt>
      <trkpt lat="45.80965" lon="4.73469">
        <ele>378.28729</ele>
        <time>2023-07-26T14:00:51.000Z</time>
      </trkpt>
      <trkpt lat="45.80964" lon="4.73462">
        <ele>378.44434</ele>
        <time>2023-07-26T14:00:52.000Z</time>
      </trkpt>
      <trkpt lat="45.80964" lon="4.73456">
        <ele>378.58725</ele>
        <time>2023-07-26T14:00:53.000Z</time>
      </trkpt>
      <trkpt lat="45.80963" lon="4.73448">
        <ele>378.74158</ele>
        <time>2023-07-26T14:00:54.000Z</time>
      </trkpt>
      <trkpt lat="45.80962" lon="4.73441">
        <ele>378.88983</ele>
        <time>2023-07-26T14:00:55.000Z</time>
      </trkpt>
      <trkpt lat="45.80961" lon="4.73433">
        <ele>379.04895</ele>
        <time>2023-07-26T14:00:56.000Z</time>
      </trkpt>
      <trkpt lat="45.8096" lon="4.73428">
        <ele>379.13864</ele>
        <time>2023-07-26T14:00:57.000Z</time>
      </trkpt>
      <trkpt lat="45.8096" lon="4.73421">
        <ele>379.19791</ele>
        <time>2023-07-26T14:00:58.000Z</time>
      </trkpt>
      <trkpt lat="45.80958" lon="4.73414">
        <ele>379.38736</ele>
        <time>2023-07-26T14:00:59.000Z</time>
      </trkpt>
      <trkpt lat="45.80958" lon="4.73408">
        <ele>379.51541</ele>
        <time>2023-07-26T14:01:00.000Z</time>
      </trkpt>
      <trkpt lat="45.80957" lon="4.73401">
        <ele>379.66522</ele>
        <time>2023-07-26T14:01:01.000Z</time>
      </trkpt>
      <trkpt lat="45.80956" lon="4.73394">
        <ele>379.8111</ele>
        <time>2023-07-26T14:01:02.000Z</time>
      </trkpt>
      <trkpt lat="45.80955" lon="4.73387">
        <ele>379.91299</ele>
        <time>2023-07-26T14:01:03.000Z</time>
      </trkpt>
      <trkpt lat="45.80955" lon="4.7338">
        <ele>380.00616</ele>
        <time>2023-07-26T14:01:04.000Z</time>
      </trkpt>
      <trkpt lat="45.80954" lon="4.73372">
        <ele>380.00235</ele>
        <time>2023-07-26T14:01:05.000Z</time>
      </trkpt>
      <trkpt lat="45.80954" lon="4.73365">
        <ele>379.91946</ele>
        <time>2023-07-26T14:01:06.000Z</time>
      </trkpt>
      <trkpt lat="45.80952" lon="4.73358">
        <ele>379.85968</ele>
        <time>2023-07-26T14:01:07.000Z</time>
      </trkpt>
      <trkpt lat="45.8095" lon="4.73352">
        <ele>379.64597</ele>
        <time>2023-07-26T14:01:08.000Z</time>
      </trkpt>
      <trkpt lat="45.80947" lon="4.73344">
        <ele>379.52527</ele>
        <time>2023-07-26T14:01:09.000Z</time>
      </trkpt>
      <trkpt lat="45.80944" lon="4.73337">
        <ele>379.38745</ele>
        <time>2023-07-26T14:01:10.000Z</time>
      </trkpt>
      <trkpt lat="45.8094" lon="4.73331">
        <ele>379.26617</ele>
        <time>2023-07-26T14:01:11.000Z</time>
      </trkpt>
      <trkpt lat="45.80936" lon="4.73326">
        <ele>379.15991</ele>
        <time>2023-07-26T14:01:12.000Z</time>
      </trkpt>
      <trkpt lat="45.80932" lon="4.73322">
        <ele>379.03781</ele>
        <time>2023-07-26T14:01:13.000Z</time>
      </trkpt>
      <trkpt lat="45.80929" lon="4.73319">
        <ele>378.89594</ele>
        <time>2023-07-26T14:01:14.000Z</time>
      </trkpt>
      <trkpt lat="45.80925" lon="4.73316">
        <ele>378.75513</ele>
        <time>2023-07-26T14:01:15.000Z</time>
      </trkpt>
      <trkpt lat="45.80923" lon="4.73315">
        <ele>378.59833</ele>
        <time>2023-07-26T14:01:16.000Z</time>
      </trkpt>
      <trkpt lat="45.80921" lon="4.73313">
        <ele>378.49472</ele>
        <time>2023-07-26T14:01:17.000Z</time>
      </trkpt>
      <trkpt lat="45.80919" lon="4.73312">
        <ele>378.45172</ele>
        <time>2023-07-26T14:01:33.000Z</time>
      </trkpt>
      <trkpt lat="45.80917" lon="4.73311">
        <ele>378.2709</ele>
        <time>2023-07-26T14:01:34.000Z</time>
      </trkpt>
      <trkpt lat="45.80915" lon="4.73309">
        <ele>378.12085</ele>
        <time>2023-07-26T14:01:35.000Z</time>
      </trkpt>
      <trkpt lat="45.80913" lon="4.73305">
        <ele>377.98889</ele>
        <time>2023-07-26T14:01:36.000Z</time>
      </trkpt>
      <trkpt lat="45.80909" lon="4.73304">
        <ele>377.86783</ele>
        <time>2023-07-26T14:01:37.000Z</time>
      </trkpt>
      <trkpt lat="45.80905" lon="4.73305">
        <ele>377.7496</ele>
        <time>2023-07-26T14:01:38.000Z</time>
      </trkpt>
      <trkpt lat="45.80901" lon="4.73304">
        <ele>377.62616</ele>
        <time>2023-07-26T14:01:39.000Z</time>
      </trkpt>
      <trkpt lat="45.80897" lon="4.733">
        <ele>377.52911</ele>
        <time>2023-07-26T14:01:40.000Z</time>
      </trkpt>
      <trkpt lat="45.80893" lon="4.73297">
        <ele>377.45566</ele>
        <time>2023-07-26T14:01:41.000Z</time>
      </trkpt>
      <trkpt lat="45.80889" lon="4.73292">
        <ele>377.44281</ele>
        <time>2023-07-26T14:01:42.000Z</time>
      </trkpt>
      <trkpt lat="45.80886" lon="4.73286">
        <ele>377.4483</ele>
        <time>2023-07-26T14:01:43.000Z</time>
      </trkpt>
      <trkpt lat="45.80882" lon="4.73281">
        <ele>377.36774</ele>
        <time>2023-07-26T14:01:44.000Z</time>
      </trkpt>
      <trkpt lat="45.80877" lon="4.73274">
        <ele>377.29239</ele>
        <time>2023-07-26T14:01:45.000Z</time>
      </trkpt>
      <trkpt lat="45.80873" lon="4.73269">
        <ele>377.17859</ele>
        <time>2023-07-26T14:01:46.000Z</time>
      </trkpt>
      <trkpt lat="45.80867" lon="4.73263">
        <ele>377.03717</ele>
        <time>2023-07-26T14:01:47.000Z</time>
      </trkpt>
      <trkpt lat="45.80861" lon="4.73258">
        <ele>376.91486</ele>
        <time>2023-07-26T14:01:48.000Z</time>
      </trkpt>
      <trkpt lat="45.80856" lon="4.73252">
        <ele>376.81708</ele>
        <time>2023-07-26T14:01:49.000Z</time>
      </trkpt>
      <trkpt lat="45.8085" lon="4.73245">
        <ele>376.68091</ele>
        <time>2023-07-26T14:01:50.000Z</time>
      </trkpt>
      <trkpt lat="45.80844" lon="4.73239">
        <ele>376.5448</ele>
        <time>2023-07-26T14:01:51.000Z</time>
      </trkpt>
      <trkpt lat="45.80838" lon="4.73233">
        <ele>376.40262</ele>
        <time>2023-07-26T14:01:52.000Z</time>
      </trkpt>
      <trkpt lat="45.80831" lon="4.73227">
        <ele>376.29288</ele>
        <time>2023-07-26T14:01:53.000Z</time>
      </trkpt>
      <trkpt lat="45.80824" lon="4.7322">
        <ele>376.16269</ele>
        <time>2023-07-26T14:01:54.000Z</time>
      </trkpt>
      <trkpt lat="45.80818" lon="4.73213">
        <ele>375.99252</ele>
        <time>2023-07-26T14:01:55.000Z</time>
      </trkpt>
      <trkpt lat="45.8081" lon="4.73205">
        <ele>375.78619</ele>
        <time>2023-07-26T14:01:56.000Z</time>
      </trkpt>
      <trkpt lat="45.80804" lon="4.73197">
        <ele>375.55029</ele>
        <time>2023-07-26T14:01:57.000Z</time>
      </trkpt>
      <trkpt lat="45.80797" lon="4.7319">
        <ele>375.35028</ele>
        <time>2023-07-26T14:01:58.000Z</time>
      </trkpt>
      <trkpt lat="45.8079" lon="4.73183">
        <ele>375.13882</ele>
        <time>2023-07-26T14:01:59.000Z</time>
      </trkpt>
      <trkpt lat="45.80783" lon="4.73178">
        <ele>374.90958</ele>
        <time>2023-07-26T14:02:00.000Z</time>
      </trkpt>
      <trkpt lat="45.80776" lon="4.73171">
        <ele>374.67499</ele>
        <time>2023-07-26T14:02:01.000Z</time>
      </trkpt>
      <trkpt lat="45.8077" lon="4.73164">
        <ele>374.37338</ele>
        <time>2023-07-26T14:02:02.000Z</time>
      </trkpt>
      <trkpt lat="45.80762" lon="4.73158">
        <ele>374.07959</ele>
        <time>2023-07-26T14:02:03.000Z</time>
      </trkpt>
      <trkpt lat="45.80755" lon="4.7315">
        <ele>373.83713</ele>
        <time>2023-07-26T14:02:04.000Z</time>
      </trkpt>
      <trkpt lat="45.80749" lon="4.73143">
        <ele>373.59781</ele>
        <time>2023-07-26T14:02:05.000Z</time>
      </trkpt>
      <trkpt lat="45.80742" lon="4.73137">
        <ele>373.39008</ele>
        <time>2023-07-26T14:02:06.000Z</time>
      </trkpt>
      <trkpt lat="45.80736" lon="4.7313">
        <ele>373.17081</ele>
        <time>2023-07-26T14:02:07.000Z</time>
      </trkpt>
      <trkpt lat="45.80729" lon="4.73124">
        <ele>372.93878</ele>
        <time>2023-07-26T14:02:08.000Z</time>
      </trkpt>
      <trkpt lat="45.80723" lon="4.73118">
        <ele>372.69464</ele>
        <time>2023-07-26T14:02:09.000Z</time>
      </trkpt>
      <trkpt lat="45.80716" lon="4.73112">
        <ele>372.46582</ele>
        <time>2023-07-26T14:02:10.000Z</time>
      </trkpt>
      <trkpt lat="45.8071" lon="4.73106">
        <ele>372.22266</ele>
        <time>2023-07-26T14:02:11.000Z</time>
      </trkpt>
      <trkpt lat="45.80704" lon="4.73099">
        <ele>371.99612</ele>
        <time>2023-07-26T14:02:12.000Z</time>
      </trkpt>
      <trkpt lat="45.80697" lon="4.73092">
        <ele>371.70206</ele>
        <time>2023-07-26T14:02:13.000Z</time>
      </trkpt>
      <trkpt lat="45.80691" lon="4.73085">
        <ele>371.42911</ele>
        <time>2023-07-26T14:02:14.000Z</time>
      </trkpt>
      <trkpt lat="45.80686" lon="4.73078">
        <ele>371.1767</ele>
        <time>2023-07-26T14:02:15.000Z</time>
      </trkpt>
      <trkpt lat="45.8068" lon="4.7307">
        <ele>370.94516</ele>
        <time>2023-07-26T14:02:16.000Z</time>
      </trkpt>
      <trkpt lat="45.80674" lon="4.73062">
        <ele>370.73077</ele>
        <time>2023-07-26T14:02:17.000Z</time>
      </trkpt>
      <trkpt lat="45.80668" lon="4.73054">
        <ele>370.45517</ele>
        <time>2023-07-26T14:02:18.000Z</time>
      </trkpt>
      <trkpt lat="45.80662" lon="4.73046">
        <ele>370.20157</ele>
        <time>2023-07-26T14:02:19.000Z</time>
      </trkpt>
      <trkpt lat="45.80657" lon="4.73035">
        <ele>370.01056</ele>
        <time>2023-07-26T14:02:20.000Z</time>
      </trkpt>
      <trkpt lat="45.80652" lon="4.73025">
        <ele>369.85889</ele>
        <time>2023-07-26T14:02:21.000Z</time>
      </trkpt>
      <trkpt lat="45.80647" lon="4.73015">
        <ele>369.59268</ele>
        <time>2023-07-26T14:02:22.000Z</time>
      </trkpt>
      <trkpt lat="45.80642" lon="4.73005">
        <ele>369.30402</ele>
        <time>2023-07-26T14:02:23.000Z</time>
      </trkpt>
      <trkpt lat="45.80637" lon="4.72994">
        <ele>368.95557</ele>
        <time>2023-07-26T14:02:24.000Z</time>
      </trkpt>
      <trkpt lat="45.80632" lon="4.72985">
        <ele>368.57709</ele>
        <time>2023-07-26T14:02:25.000Z</time>
      </trkpt>
      <trkpt lat="45.80626" lon="4.72977">
        <ele>368.1969</ele>
        <time>2023-07-26T14:02:26.000Z</time>
      </trkpt>
      <trkpt lat="45.8062" lon="4.72969">
        <ele>367.81601</ele>
        <time>2023-07-26T14:02:27.000Z</time>
      </trkpt>
      <trkpt lat="45.80614" lon="4.72962">
        <ele>367.50079</ele>
        <time>2023-07-26T14:02:28.000Z</time>
      </trkpt>
      <trkpt lat="45.80608" lon="4.72957">
        <ele>367.21887</ele>
        <time>2023-07-26T14:02:29.000Z</time>
      </trkpt>
      <trkpt lat="45.80604" lon="4.72952">
        <ele>366.95386</ele>
        <time>2023-07-26T14:02:30.000Z</time>
      </trkpt>
      <trkpt lat="45.80599" lon="4.72948">
        <ele>366.50635</ele>
        <time>2023-07-26T14:02:31.000Z</time>
      </trkpt>
      <trkpt lat="45.80595" lon="4.72946">
        <ele>366.09174</ele>
        <time>2023-07-26T14:02:32.000Z</time>
      </trkpt>
      <trkpt lat="45.80591" lon="4.72947">
        <ele>365.68167</ele>
        <time>2023-07-26T14:02:33.000Z</time>
      </trkpt>
      <trkpt lat="45.80587" lon="4.7295">
        <ele>365.30554</ele>
        <time>2023-07-26T14:02:34.000Z</time>
      </trkpt>
      <trkpt lat="45.80583" lon="4.72954">
        <ele>364.98273</ele>
        <time>2023-07-26T14:02:35.000Z</time>
      </trkpt>
      <trkpt lat="45.80581" lon="4.72958">
        <ele>364.69046</ele>
        <time>2023-07-26T14:02:36.000Z</time>
      </trkpt>
      <trkpt lat="45.80578" lon="4.72963">
        <ele>364.38498</ele>
        <time>2023-07-26T14:02:37.000Z</time>
      </trkpt>
      <trkpt lat="45.80576" lon="4.72966">
        <ele>364.11078</ele>
        <time>2023-07-26T14:02:38.000Z</time>
      </trkpt>
      <trkpt lat="45.80573" lon="4.7297">
        <ele>363.85406</ele>
        <time>2023-07-26T14:02:39.000Z</time>
      </trkpt>
      <trkpt lat="45.8057" lon="4.72975">
        <ele>363.57535</ele>
        <time>2023-07-26T14:02:40.000Z</time>
      </trkpt>
      <trkpt lat="45.80568" lon="4.7298">
        <ele>363.29022</ele>
        <time>2023-07-26T14:02:41.000Z</time>
      </trkpt>
      <trkpt lat="45.80565" lon="4.72985">
        <ele>363.159</ele>
        <time>2023-07-26T14:02:42.000Z</time>
      </trkpt>
      <trkpt lat="45.80563" lon="4.7299">
        <ele>363.05875</ele>
        <time>2023-07-26T14:02:43.000Z</time>
      </trkpt>
      <trkpt lat="45.80559" lon="4.72995">
        <ele>362.95679</ele>
        <time>2023-07-26T14:02:44.000Z</time>
      </trkpt>
      <trkpt lat="45.80557" lon="4.72999">
        <ele>362.88721</ele>
        <time>2023-07-26T14:02:45.000Z</time>
      </trkpt>
      <trkpt lat="45.80554" lon="4.73004">
        <ele>362.83978</ele>
        <time>2023-07-26T14:02:46.000Z</time>
      </trkpt>
      <trkpt lat="45.80552" lon="4.73007">
        <ele>362.79065</ele>
        <time>2023-07-26T14:02:47.000Z</time>
      </trkpt>
      <trkpt lat="45.8055" lon="4.73012">
        <ele>362.6875</ele>
        <time>2023-07-26T14:02:48.000Z</time>
      </trkpt>
      <trkpt lat="45.80548" lon="4.73018">
        <ele>362.56091</ele>
        <time>2023-07-26T14:02:49.000Z</time>
      </trkpt>
      <trkpt lat="45.80546" lon="4.73023">
        <ele>362.46091</ele>
        <time>2023-07-26T14:02:50.000Z</time>
      </trkpt>
      <trkpt lat="45.80544" lon="4.73028">
        <ele>362.5661</ele>
        <time>2023-07-26T14:02:51.000Z</time>
      </trkpt>
      <trkpt lat="45.80541" lon="4.73033">
        <ele>362.65424</ele>
        <time>2023-07-26T14:02:52.000Z</time>
      </trkpt>
      <trkpt lat="45.80538" lon="4.73038">
        <ele>362.75629</ele>
        <time>2023-07-26T14:02:53.000Z</time>
      </trkpt>
      <trkpt lat="45.80535" lon="4.73042">
        <ele>362.8338</ele>
        <time>2023-07-26T14:02:54.000Z</time>
      </trkpt>
      <trkpt lat="45.80532" lon="4.73047">
        <ele>362.8428</ele>
        <time>2023-07-26T14:02:55.000Z</time>
      </trkpt>
      <trkpt lat="45.8053" lon="4.73051">
        <ele>362.82657</ele>
        <time>2023-07-26T14:02:56.000Z</time>
      </trkpt>
      <trkpt lat="45.80527" lon="4.73055">
        <ele>362.82172</ele>
        <time>2023-07-26T14:02:57.000Z</time>
      </trkpt>
      <trkpt lat="45.80525" lon="4.73059">
        <ele>362.83292</ele>
        <time>2023-07-26T14:02:58.000Z</time>
      </trkpt>
      <trkpt lat="45.80522" lon="4.73063">
        <ele>362.8284</ele>
        <time>2023-07-26T14:02:59.000Z</time>
      </trkpt>
      <trkpt lat="45.8052" lon="4.73067">
        <ele>362.82806</ele>
        <time>2023-07-26T14:03:00.000Z</time>
      </trkpt>
      <trkpt lat="45.80518" lon="4.7307">
        <ele>362.8259</ele>
        <time>2023-07-26T14:03:01.000Z</time>
      </trkpt>
      <trkpt lat="45.80516" lon="4.73072">
        <ele>362.76544</ele>
        <time>2023-07-26T14:03:02.000Z</time>
      </trkpt>
      <trkpt lat="45.80515" lon="4.73074">
        <ele>362.72449</ele>
        <time>2023-07-26T14:03:04.000Z</time>
      </trkpt>
      <trkpt lat="45.80514" lon="4.73079">
        <ele>362.62787</ele>
        <time>2023-07-26T14:03:11.000Z</time>
      </trkpt>
      <trkpt lat="45.80514" lon="4.73082">
        <ele>362.52747</ele>
        <time>2023-07-26T14:03:12.000Z</time>
      </trkpt>
      <trkpt lat="45.80513" lon="4.73086">
        <ele>362.42792</ele>
        <time>2023-07-26T14:03:13.000Z</time>
      </trkpt>
      <trkpt lat="45.80511" lon="4.73089">
        <ele>362.37506</ele>
        <time>2023-07-26T14:03:14.000Z</time>
      </trkpt>
      <trkpt lat="45.80509" lon="4.73092">
        <ele>362.31625</ele>
        <time>2023-07-26T14:03:15.000Z</time>
      </trkpt>
      <trkpt lat="45.80507" lon="4.73096">
        <ele>362.25168</ele>
        <time>2023-07-26T14:03:16.000Z</time>
      </trkpt>
      <trkpt lat="45.80503" lon="4.73101">
        <ele>362.19083</ele>
        <time>2023-07-26T14:03:17.000Z</time>
      </trkpt>
      <trkpt lat="45.80501" lon="4.73105">
        <ele>362.14194</ele>
        <time>2023-07-26T14:03:18.000Z</time>
      </trkpt>
      <trkpt lat="45.80496" lon="4.7311">
        <ele>362.06091</ele>
        <time>2023-07-26T14:03:19.000Z</time>
      </trkpt>
      <trkpt lat="45.80492" lon="4.73114">
        <ele>362.00659</ele>
        <time>2023-07-26T14:03:20.000Z</time>
      </trkpt>
      <trkpt lat="45.80487" lon="4.73118">
        <ele>361.97281</ele>
        <time>2023-07-26T14:03:21.000Z</time>
      </trkpt>
      <trkpt lat="45.80483" lon="4.73123">
        <ele>361.96838</ele>
        <time>2023-07-26T14:03:22.000Z</time>
      </trkpt>
      <trkpt lat="45.8048" lon="4.73125">
        <ele>361.99307</ele>
        <time>2023-07-26T14:03:23.000Z</time>
      </trkpt>
      <trkpt lat="45.80474" lon="4.7313">
        <ele>362.02875</ele>
        <time>2023-07-26T14:03:24.000Z</time>
      </trkpt>
      <trkpt lat="45.8047" lon="4.73133">
        <ele>362.04575</ele>
        <time>2023-07-26T14:03:25.000Z</time>
      </trkpt>
      <trkpt lat="45.80465" lon="4.73134">
        <ele>362.34161</ele>
        <time>2023-07-26T14:03:26.000Z</time>
      </trkpt>
      <trkpt lat="45.80461" lon="4.73138">
        <ele>362.59576</ele>
        <time>2023-07-26T14:03:27.000Z</time>
      </trkpt>
      <trkpt lat="45.80455" lon="4.73141">
        <ele>362.80627</ele>
        <time>2023-07-26T14:03:28.000Z</time>
      </trkpt>
      <trkpt lat="45.80449" lon="4.73146">
        <ele>363.02948</ele>
        <time>2023-07-26T14:03:29.000Z</time>
      </trkpt>
      <trkpt lat="45.8044" lon="4.73153">
        <ele>363.24677</ele>
        <time>2023-07-26T14:03:30.000Z</time>
      </trkpt>
      <trkpt lat="45.80433" lon="4.73158">
        <ele>363.48981</ele>
        <time>2023-07-26T14:03:31.000Z</time>
      </trkpt>
      <trkpt lat="45.80426" lon="4.73162">
        <ele>363.76059</ele>
        <time>2023-07-26T14:03:32.000Z</time>
      </trkpt>
      <trkpt lat="45.80421" lon="4.73165">
        <ele>364.02988</ele>
        <time>2023-07-26T14:03:33.000Z</time>
      </trkpt>
      <trkpt lat="45.80415" lon="4.73171">
        <ele>364.05878</ele>
        <time>2023-07-26T14:03:34.000Z</time>
      </trkpt>
      <trkpt lat="45.80408" lon="4.73174">
        <ele>364.12723</ele>
        <time>2023-07-26T14:03:35.000Z</time>
      </trkpt>
      <trkpt lat="45.804" lon="4.73179">
        <ele>364.22296</ele>
        <time>2023-07-26T14:03:36.000Z</time>
      </trkpt>
      <trkpt lat="45.80395" lon="4.73183">
        <ele>364.27457</ele>
        <time>2023-07-26T14:03:37.000Z</time>
      </trkpt>
      <trkpt lat="45.80388" lon="4.73188">
        <ele>364.26245</ele>
        <time>2023-07-26T14:03:38.000Z</time>
      </trkpt>
      <trkpt lat="45.80381" lon="4.73194">
        <ele>364.31808</ele>
        <time>2023-07-26T14:03:39.000Z</time>
      </trkpt>
      <trkpt lat="45.80374" lon="4.73198">
        <ele>364.32742</ele>
        <time>2023-07-26T14:03:40.000Z</time>
      </trkpt>
      <trkpt lat="45.8037" lon="4.732">
        <ele>364.33585</ele>
        <time>2023-07-26T14:03:41.000Z</time>
      </trkpt>
      <trkpt lat="45.80365" lon="4.73203">
        <ele>364.32278</ele>
        <time>2023-07-26T14:03:42.000Z</time>
      </trkpt>
      <trkpt lat="45.80361" lon="4.73206">
        <ele>364.29718</ele>
        <time>2023-07-26T14:03:43.000Z</time>
      </trkpt>
      <trkpt lat="45.80355" lon="4.73206">
        <ele>364.25229</ele>
        <time>2023-07-26T14:03:44.000Z</time>
      </trkpt>
      <trkpt lat="45.80353" lon="4.73213">
        <ele>364.09198</ele>
        <time>2023-07-26T14:03:45.000Z</time>
      </trkpt>
      <trkpt lat="45.80351" lon="4.73219">
        <ele>363.65714</ele>
        <time>2023-07-26T14:03:46.000Z</time>
      </trkpt>
      <trkpt lat="45.80348" lon="4.73225">
        <ele>363.35199</ele>
        <time>2023-07-26T14:03:47.000Z</time>
      </trkpt>
      <trkpt lat="45.80347" lon="4.7323">
        <ele>363.09671</ele>
        <time>2023-07-26T14:03:48.000Z</time>
      </trkpt>
      <trkpt lat="45.80345" lon="4.73234">
        <ele>362.62222</ele>
        <time>2023-07-26T14:03:49.000Z</time>
      </trkpt>
      <trkpt lat="45.80343" lon="4.73238">
        <ele>362.13928</ele>
        <time>2023-07-26T14:03:50.000Z</time>
      </trkpt>
      <trkpt lat="45.80341" lon="4.73241">
        <ele>361.71323</ele>
        <time>2023-07-26T14:03:51.000Z</time>
      </trkpt>
      <trkpt lat="45.80339" lon="4.73245">
        <ele>361.26151</ele>
        <time>2023-07-26T14:03:52.000Z</time>
      </trkpt>
      <trkpt lat="45.80337" lon="4.73248">
        <ele>360.8627</ele>
        <time>2023-07-26T14:03:53.000Z</time>
      </trkpt>
      <trkpt lat="45.80334" lon="4.73251">
        <ele>360.7027</ele>
        <time>2023-07-26T14:03:54.000Z</time>
      </trkpt>
      <trkpt lat="45.80331" lon="4.73253">
        <ele>360.21704</ele>
        <time>2023-07-26T14:03:55.000Z</time>
      </trkpt>
      <trkpt lat="45.80327" lon="4.73252">
        <ele>359.75604</ele>
        <time>2023-07-26T14:03:56.000Z</time>
      </trkpt>
      <trkpt lat="45.80323" lon="4.73251">
        <ele>359.32196</ele>
        <time>2023-07-26T14:03:57.000Z</time>
      </trkpt>
      <trkpt lat="45.8032" lon="4.73249">
        <ele>358.9393</ele>
        <time>2023-07-26T14:03:58.000Z</time>
      </trkpt>
      <trkpt lat="45.80316" lon="4.73248">
        <ele>358.50214</ele>
        <time>2023-07-26T14:03:59.000Z</time>
      </trkpt>
      <trkpt lat="45.80313" lon="4.73247">
        <ele>358.08148</ele>
        <time>2023-07-26T14:04:00.000Z</time>
      </trkpt>
      <trkpt lat="45.80309" lon="4.73246">
        <ele>357.63522</ele>
        <time>2023-07-26T14:04:01.000Z</time>
      </trkpt>
      <trkpt lat="45.80305" lon="4.73244">
        <ele>357.26782</ele>
        <time>2023-07-26T14:04:02.000Z</time>
      </trkpt>
      <trkpt lat="45.80301" lon="4.73243">
        <ele>356.98553</ele>
        <time>2023-07-26T14:04:03.000Z</time>
      </trkpt>
      <trkpt lat="45.80297" lon="4.73242">
        <ele>356.67432</ele>
        <time>2023-07-26T14:04:04.000Z</time>
      </trkpt>
      <trkpt lat="45.80293" lon="4.73242">
        <ele>356.52069</ele>
        <time>2023-07-26T14:04:05.000Z</time>
      </trkpt>
      <trkpt lat="45.80289" lon="4.73243">
        <ele>356.29895</ele>
        <time>2023-07-26T14:04:06.000Z</time>
      </trkpt>
      <trkpt lat="45.80285" lon="4.73245">
        <ele>356.01831</ele>
        <time>2023-07-26T14:04:07.000Z</time>
      </trkpt>
      <trkpt lat="45.80281" lon="4.73247">
        <ele>355.75009</ele>
        <time>2023-07-26T14:04:08.000Z</time>
      </trkpt>
      <trkpt lat="45.80277" lon="4.73248">
        <ele>355.689</ele>
        <time>2023-07-26T14:04:09.000Z</time>
      </trkpt>
      <trkpt lat="45.80273" lon="4.73249">
        <ele>355.63437</ele>
        <time>2023-07-26T14:04:10.000Z</time>
      </trkpt>
      <trkpt lat="45.80269" lon="4.7325">
        <ele>355.58136</ele>
        <time>2023-07-26T14:04:11.000Z</time>
      </trkpt>
      <trkpt lat="45.80265" lon="4.7325">
        <ele>355.49518</ele>
        <time>2023-07-26T14:04:12.000Z</time>
      </trkpt>
      <trkpt lat="45.80261" lon="4.73251">
        <ele>355.47501</ele>
        <time>2023-07-26T14:04:13.000Z</time>
      </trkpt>
      <trkpt lat="45.80257" lon="4.73251">
        <ele>355.44919</ele>
        <time>2023-07-26T14:04:14.000Z</time>
      </trkpt>
      <trkpt lat="45.80252" lon="4.73251">
        <ele>355.70273</ele>
        <time>2023-07-26T14:04:15.000Z</time>
      </trkpt>
      <trkpt lat="45.80248" lon="4.73251">
        <ele>355.91357</ele>
        <time>2023-07-26T14:04:16.000Z</time>
      </trkpt>
      <trkpt lat="45.80244" lon="4.73251">
        <ele>356.10834</ele>
        <time>2023-07-26T14:04:17.000Z</time>
      </trkpt>
      <trkpt lat="45.8024" lon="4.73251">
        <ele>356.32291</ele>
        <time>2023-07-26T14:04:18.000Z</time>
      </trkpt>
      <trkpt lat="45.80235" lon="4.73251">
        <ele>356.55017</ele>
        <time>2023-07-26T14:04:19.000Z</time>
      </trkpt>
      <trkpt lat="45.80229" lon="4.73251">
        <ele>356.85052</ele>
        <time>2023-07-26T14:04:20.000Z</time>
      </trkpt>
      <trkpt lat="45.80224" lon="4.73251">
        <ele>357.18225</ele>
        <time>2023-07-26T14:04:21.000Z</time>
      </trkpt>
      <trkpt lat="45.80219" lon="4.73251">
        <ele>357.21124</ele>
        <time>2023-07-26T14:04:22.000Z</time>
      </trkpt>
      <trkpt lat="45.80214" lon="4.7325">
        <ele>357.16876</ele>
        <time>2023-07-26T14:04:23.000Z</time>
      </trkpt>
      <trkpt lat="45.8021" lon="4.73251">
        <ele>357.12628</ele>
        <time>2023-07-26T14:04:24.000Z</time>
      </trkpt>
      <trkpt lat="45.80206" lon="4.73252">
        <ele>357.01822</ele>
        <time>2023-07-26T14:04:25.000Z</time>
      </trkpt>
      <trkpt lat="45.80201" lon="4.73253">
        <ele>357.01068</ele>
        <time>2023-07-26T14:04:26.000Z</time>
      </trkpt>
      <trkpt lat="45.80196" lon="4.73253">
        <ele>356.73431</ele>
        <time>2023-07-26T14:04:27.000Z</time>
      </trkpt>
      <trkpt lat="45.80191" lon="4.73253">
        <ele>356.44424</ele>
        <time>2023-07-26T14:04:28.000Z</time>
      </trkpt>
      <trkpt lat="45.80184" lon="4.73254">
        <ele>356.04492</ele>
        <time>2023-07-26T14:04:29.000Z</time>
      </trkpt>
      <trkpt lat="45.80178" lon="4.73254">
        <ele>355.61353</ele>
        <time>2023-07-26T14:04:30.000Z</time>
      </trkpt>
      <trkpt lat="45.80172" lon="4.73254">
        <ele>355.18768</ele>
        <time>2023-07-26T14:04:31.000Z</time>
      </trkpt>
      <trkpt lat="45.80166" lon="4.73254">
        <ele>354.80771</ele>
        <time>2023-07-26T14:04:32.000Z</time>
      </trkpt>
      <trkpt lat="45.8016" lon="4.73254">
        <ele>354.31</ele>
        <time>2023-07-26T14:04:33.000Z</time>
      </trkpt>
      <trkpt lat="45.80154" lon="4.73254">
        <ele>354.02002</ele>
        <time>2023-07-26T14:04:34.000Z</time>
      </trkpt>
      <trkpt lat="45.80148" lon="4.73254">
        <ele>353.74011</ele>
        <time>2023-07-26T14:04:35.000Z</time>
      </trkpt>
      <trkpt lat="45.80143" lon="4.73253">
        <ele>353.22882</ele>
        <time>2023-07-26T14:04:36.000Z</time>
      </trkpt>
      <trkpt lat="45.80137" lon="4.73253">
        <ele>352.73953</ele>
        <time>2023-07-26T14:04:37.000Z</time>
      </trkpt>
      <trkpt lat="45.80131" lon="4.73253">
        <ele>352.23447</ele>
        <time>2023-07-26T14:04:38.000Z</time>
      </trkpt>
      <trkpt lat="45.80126" lon="4.73254">
        <ele>351.70776</ele>
        <time>2023-07-26T14:04:39.000Z</time>
      </trkpt>
      <trkpt lat="45.8012" lon="4.73255">
        <ele>351.10504</ele>
        <time>2023-07-26T14:04:40.000Z</time>
      </trkpt>
      <trkpt lat="45.80116" lon="4.73256">
        <ele>350.47159</ele>
        <time>2023-07-26T14:04:41.000Z</time>
      </trkpt>
      <trkpt lat="45.8011" lon="4.73257">
        <ele>350.11542</ele>
        <time>2023-07-26T14:04:42.000Z</time>
      </trkpt>
      <trkpt lat="45.80105" lon="4.73258">
        <ele>349.72223</ele>
        <time>2023-07-26T14:04:43.000Z</time>
      </trkpt>
      <trkpt lat="45.801" lon="4.7326">
        <ele>349.34943</ele>
        <time>2023-07-26T14:04:44.000Z</time>
      </trkpt>
      <trkpt lat="45.80095" lon="4.73262">
        <ele>348.97403</ele>
        <time>2023-07-26T14:04:45.000Z</time>
      </trkpt>
      <trkpt lat="45.8009" lon="4.73264">
        <ele>348.60199</ele>
        <time>2023-07-26T14:04:46.000Z</time>
      </trkpt>
      <trkpt lat="45.80085" lon="4.73266">
        <ele>348.4725</ele>
        <time>2023-07-26T14:04:47.000Z</time>
      </trkpt>
      <trkpt lat="45.80079" lon="4.73267">
        <ele>348.33954</ele>
        <time>2023-07-26T14:04:48.000Z</time>
      </trkpt>
      <trkpt lat="45.80074" lon="4.73267">
        <ele>348.34012</ele>
        <time>2023-07-26T14:04:49.000Z</time>
      </trkpt>
      <trkpt lat="45.80069" lon="4.73268">
        <ele>348.3342</ele>
        <time>2023-07-26T14:04:50.000Z</time>
      </trkpt>
      <trkpt lat="45.80064" lon="4.7327">
        <ele>348.34418</ele>
        <time>2023-07-26T14:04:51.000Z</time>
      </trkpt>
      <trkpt lat="45.80059" lon="4.73271">
        <ele>348.34177</ele>
        <time>2023-07-26T14:04:52.000Z</time>
      </trkpt>
      <trkpt lat="45.80054" lon="4.73275">
        <ele>348.31183</ele>
        <time>2023-07-26T14:04:53.000Z</time>
      </trkpt>
      <trkpt lat="45.80048" lon="4.73276">
        <ele>348.07581</ele>
        <time>2023-07-26T14:04:54.000Z</time>
      </trkpt>
      <trkpt lat="45.80044" lon="4.73278">
        <ele>347.80591</ele>
        <time>2023-07-26T14:04:55.000Z</time>
      </trkpt>
      <trkpt lat="45.80038" lon="4.73279">
        <ele>347.78204</ele>
        <time>2023-07-26T14:04:56.000Z</time>
      </trkpt>
      <trkpt lat="45.80032" lon="4.73281">
        <ele>347.76587</ele>
        <time>2023-07-26T14:04:57.000Z</time>
      </trkpt>
      <trkpt lat="45.80027" lon="4.73283">
        <ele>347.7439</ele>
        <time>2023-07-26T14:04:58.000Z</time>
      </trkpt>
      <trkpt lat="45.80022" lon="4.73284">
        <ele>347.74847</ele>
        <time>2023-07-26T14:04:59.000Z</time>
      </trkpt>
      <trkpt lat="45.80018" lon="4.73285">
        <ele>347.75632</ele>
        <time>2023-07-26T14:05:00.000Z</time>
      </trkpt>
      <trkpt lat="45.80013" lon="4.73287">
        <ele>347.75824</ele>
        <time>2023-07-26T14:05:01.000Z</time>
      </trkpt>
      <trkpt lat="45.80007" lon="4.73287">
        <ele>348.09253</ele>
        <time>2023-07-26T14:05:02.000Z</time>
      </trkpt>
      <trkpt lat="45.80001" lon="4.73288">
        <ele>348.41235</ele>
        <time>2023-07-26T14:05:03.000Z</time>
      </trkpt>
      <trkpt lat="45.79994" lon="4.73289">
        <ele>348.39996</ele>
        <time>2023-07-26T14:05:04.000Z</time>
      </trkpt>
      <trkpt lat="45.79989" lon="4.73288">
        <ele>348.40424</ele>
        <time>2023-07-26T14:05:05.000Z</time>
      </trkpt>
      <trkpt lat="45.79983" lon="4.73289">
        <ele>348.41928</ele>
        <time>2023-07-26T14:05:06.000Z</time>
      </trkpt>
      <trkpt lat="45.79978" lon="4.7329">
        <ele>348.46399</ele>
        <time>2023-07-26T14:05:07.000Z</time>
      </trkpt>
      <trkpt lat="45.79972" lon="4.73293">
        <ele>348.496</ele>
        <time>2023-07-26T14:05:08.000Z</time>
      </trkpt>
      <trkpt lat="45.79967" lon="4.73297">
        <ele>348.54083</ele>
        <time>2023-07-26T14:05:09.000Z</time>
      </trkpt>
      <trkpt lat="45.79964" lon="4.73302">
        <ele>348.60425</ele>
        <time>2023-07-26T14:05:10.000Z</time>
      </trkpt>
      <trkpt lat="45.7996" lon="4.73309">
        <ele>348.6236</ele>
        <time>2023-07-26T14:05:11.000Z</time>
      </trkpt>
      <trkpt lat="45.79959" lon="4.73315">
        <ele>348.63232</ele>
        <time>2023-07-26T14:05:12.000Z</time>
      </trkpt>
      <trkpt lat="45.79959" lon="4.73322">
        <ele>348.66943</ele>
        <time>2023-07-26T14:05:13.000Z</time>
      </trkpt>
      <trkpt lat="45.79959" lon="4.7333">
        <ele>349.0563</ele>
        <time>2023-07-26T14:05:14.000Z</time>
      </trkpt>
      <trkpt lat="45.7996" lon="4.73337">
        <ele>349.51004</ele>
        <time>2023-07-26T14:05:15.000Z</time>
      </trkpt>
      <trkpt lat="45.79961" lon="4.73344">
        <ele>349.92889</ele>
        <time>2023-07-26T14:05:16.000Z</time>
      </trkpt>
      <trkpt lat="45.79963" lon="4.73351">
        <ele>350.33881</ele>
        <time>2023-07-26T14:05:17.000Z</time>
      </trkpt>
      <trkpt lat="45.79965" lon="4.73357">
        <ele>350.75351</ele>
        <time>2023-07-26T14:05:18.000Z</time>
      </trkpt>
      <trkpt lat="45.79966" lon="4.73364">
        <ele>351.17963</ele>
        <time>2023-07-26T14:05:19.000Z</time>
      </trkpt>
      <trkpt lat="45.79966" lon="4.73372">
        <ele>351.5885</ele>
        <time>2023-07-26T14:05:20.000Z</time>
      </trkpt>
      <trkpt lat="45.79964" lon="4.73378">
        <ele>352.05273</ele>
        <time>2023-07-26T14:05:21.000Z</time>
      </trkpt>
      <trkpt lat="45.79962" lon="4.73383">
        <ele>352.12714</ele>
        <time>2023-07-26T14:05:22.000Z</time>
      </trkpt>
      <trkpt lat="45.79959" lon="4.73389">
        <ele>352.23486</ele>
        <time>2023-07-26T14:05:23.000Z</time>
      </trkpt>
      <trkpt lat="45.79954" lon="4.73393">
        <ele>352.79803</ele>
        <time>2023-07-26T14:05:24.000Z</time>
      </trkpt>
      <trkpt lat="45.79949" lon="4.73396">
        <ele>353.36652</ele>
        <time>2023-07-26T14:05:25.000Z</time>
      </trkpt>
      <trkpt lat="45.79943" lon="4.73399">
        <ele>353.85941</ele>
        <time>2023-07-26T14:05:26.000Z</time>
      </trkpt>
      <trkpt lat="45.79939" lon="4.73401">
        <ele>354.31891</ele>
        <time>2023-07-26T14:05:27.000Z</time>
      </trkpt>
      <trkpt lat="45.79934" lon="4.73404">
        <ele>354.76352</ele>
        <time>2023-07-26T14:05:28.000Z</time>
      </trkpt>
      <trkpt lat="45.79928" lon="4.73409">
        <ele>355.18552</ele>
        <time>2023-07-26T14:05:29.000Z</time>
      </trkpt>
      <trkpt lat="45.79923" lon="4.73412">
        <ele>355.62909</ele>
        <time>2023-07-26T14:05:30.000Z</time>
      </trkpt>
      <trkpt lat="45.79917" lon="4.73416">
        <ele>356.18219</ele>
        <time>2023-07-26T14:05:31.000Z</time>
      </trkpt>
      <trkpt lat="45.79912" lon="4.73421">
        <ele>356.48145</ele>
        <time>2023-07-26T14:05:32.000Z</time>
      </trkpt>
      <trkpt lat="45.79905" lon="4.73424">
        <ele>356.8396</ele>
        <time>2023-07-26T14:05:33.000Z</time>
      </trkpt>
      <trkpt lat="45.79899" lon="4.73428">
        <ele>356.83966</ele>
        <time>2023-07-26T14:05:34.000Z</time>
      </trkpt>
      <trkpt lat="45.79892" lon="4.73429">
        <ele>356.82059</ele>
        <time>2023-07-26T14:05:35.000Z</time>
      </trkpt>
      <trkpt lat="45.79885" lon="4.7343">
        <ele>356.84512</ele>
        <time>2023-07-26T14:05:36.000Z</time>
      </trkpt>
      <trkpt lat="45.79877" lon="4.73428">
        <ele>356.86041</ele>
        <time>2023-07-26T14:05:37.000Z</time>
      </trkpt>
      <trkpt lat="45.79871" lon="4.73427">
        <ele>356.90244</ele>
        <time>2023-07-26T14:05:38.000Z</time>
      </trkpt>
      <trkpt lat="45.79865" lon="4.73423">
        <ele>356.93048</ele>
        <time>2023-07-26T14:05:39.000Z</time>
      </trkpt>
      <trkpt lat="45.79859" lon="4.73422">
        <ele>356.88065</ele>
        <time>2023-07-26T14:05:40.000Z</time>
      </trkpt>
      <trkpt lat="45.79853" lon="4.7342">
        <ele>356.98236</ele>
        <time>2023-07-26T14:05:41.000Z</time>
      </trkpt>
      <trkpt lat="45.79849" lon="4.73418">
        <ele>357.10266</ele>
        <time>2023-07-26T14:05:42.000Z</time>
      </trkpt>
      <trkpt lat="45.79844" lon="4.73419">
        <ele>356.92181</ele>
        <time>2023-07-26T14:05:43.000Z</time>
      </trkpt>
      <trkpt lat="45.79839" lon="4.73417">
        <ele>356.69778</ele>
        <time>2023-07-26T14:05:44.000Z</time>
      </trkpt>
      <trkpt lat="45.79831" lon="4.73414">
        <ele>356.53271</ele>
        <time>2023-07-26T14:05:45.000Z</time>
      </trkpt>
      <trkpt lat="45.79824" lon="4.73413">
        <ele>356.39801</ele>
        <time>2023-07-26T14:05:46.000Z</time>
      </trkpt>
      <trkpt lat="45.7982" lon="4.73413">
        <ele>356.24072</ele>
        <time>2023-07-26T14:05:47.000Z</time>
      </trkpt>
      <trkpt lat="45.79813" lon="4.73411">
        <ele>356.01175</ele>
        <time>2023-07-26T14:05:48.000Z</time>
      </trkpt>
      <trkpt lat="45.79808" lon="4.73408">
        <ele>355.797</ele>
        <time>2023-07-26T14:05:49.000Z</time>
      </trkpt>
      <trkpt lat="45.79803" lon="4.73406">
        <ele>355.55267</ele>
        <time>2023-07-26T14:05:50.000Z</time>
      </trkpt>
      <trkpt lat="45.79796" lon="4.73404">
        <ele>355.16446</ele>
        <time>2023-07-26T14:05:51.000Z</time>
      </trkpt>
      <trkpt lat="45.79789" lon="4.73403">
        <ele>355.03583</ele>
        <time>2023-07-26T14:05:52.000Z</time>
      </trkpt>
      <trkpt lat="45.79784" lon="4.73402">
        <ele>354.89758</ele>
        <time>2023-07-26T14:05:53.000Z</time>
      </trkpt>
      <trkpt lat="45.79777" lon="4.73401">
        <ele>354.87253</ele>
        <time>2023-07-26T14:05:54.000Z</time>
      </trkpt>
      <trkpt lat="45.79771" lon="4.73399">
        <ele>354.59479</ele>
        <time>2023-07-26T14:05:55.000Z</time>
      </trkpt>
      <trkpt lat="45.79765" lon="4.73397">
        <ele>354.34393</ele>
        <time>2023-07-26T14:05:56.000Z</time>
      </trkpt>
      <trkpt lat="45.79761" lon="4.73394">
        <ele>353.7757</ele>
        <time>2023-07-26T14:05:57.000Z</time>
      </trkpt>
      <trkpt lat="45.79757" lon="4.73393">
        <ele>353.14996</ele>
        <time>2023-07-26T14:05:58.000Z</time>
      </trkpt>
      <trkpt lat="45.7975" lon="4.73395">
        <ele>352.49933</ele>
        <time>2023-07-26T14:05:59.000Z</time>
      </trkpt>
      <trkpt lat="45.79744" lon="4.73398">
        <ele>351.93887</ele>
        <time>2023-07-26T14:06:00.000Z</time>
      </trkpt>
      <trkpt lat="45.79741" lon="4.73401">
        <ele>351.21063</ele>
        <time>2023-07-26T14:06:01.000Z</time>
      </trkpt>
      <trkpt lat="45.79736" lon="4.73404">
        <ele>350.46613</ele>
        <time>2023-07-26T14:06:02.000Z</time>
      </trkpt>
      <trkpt lat="45.79731" lon="4.73407">
        <ele>349.9942</ele>
        <time>2023-07-26T14:06:03.000Z</time>
      </trkpt>
      <trkpt lat="45.79726" lon="4.73407">
        <ele>349.45511</ele>
        <time>2023-07-26T14:06:04.000Z</time>
      </trkpt>
      <trkpt lat="45.79722" lon="4.73408">
        <ele>348.81705</ele>
        <time>2023-07-26T14:06:05.000Z</time>
      </trkpt>
      <trkpt lat="45.79716" lon="4.7341">
        <ele>348.15607</ele>
        <time>2023-07-26T14:06:06.000Z</time>
      </trkpt>
      <trkpt lat="45.7971" lon="4.73412">
        <ele>347.55606</ele>
        <time>2023-07-26T14:06:07.000Z</time>
      </trkpt>
      <trkpt lat="45.79704" lon="4.73414">
        <ele>347.02676</ele>
        <time>2023-07-26T14:06:08.000Z</time>
      </trkpt>
      <trkpt lat="45.79699" lon="4.73416">
        <ele>346.46826</ele>
        <time>2023-07-26T14:06:09.000Z</time>
      </trkpt>
      <trkpt lat="45.79693" lon="4.73418">
        <ele>345.95651</ele>
        <time>2023-07-26T14:06:10.000Z</time>
      </trkpt>
      <trkpt lat="45.79687" lon="4.73419">
        <ele>345.45337</ele>
        <time>2023-07-26T14:06:11.000Z</time>
      </trkpt>
      <trkpt lat="45.79682" lon="4.73421">
        <ele>344.94269</ele>
        <time>2023-07-26T14:06:12.000Z</time>
      </trkpt>
      <trkpt lat="45.79676" lon="4.73422">
        <ele>344.37616</ele>
        <time>2023-07-26T14:06:13.000Z</time>
      </trkpt>
      <trkpt lat="45.79669" lon="4.73423">
        <ele>343.70581</ele>
        <time>2023-07-26T14:06:14.000Z</time>
      </trkpt>
      <trkpt lat="45.79663" lon="4.73425">
        <ele>343.24399</ele>
        <time>2023-07-26T14:06:15.000Z</time>
      </trkpt>
      <trkpt lat="45.79657" lon="4.73426">
        <ele>342.71057</ele>
        <time>2023-07-26T14:06:16.000Z</time>
      </trkpt>
      <trkpt lat="45.79651" lon="4.73427">
        <ele>342.72354</ele>
        <time>2023-07-26T14:06:17.000Z</time>
      </trkpt>
      <trkpt lat="45.79645" lon="4.73428">
        <ele>342.76862</ele>
        <time>2023-07-26T14:06:18.000Z</time>
      </trkpt>
      <trkpt lat="45.79638" lon="4.73429">
        <ele>342.58505</ele>
        <time>2023-07-26T14:06:19.000Z</time>
      </trkpt>
      <trkpt lat="45.79632" lon="4.7343">
        <ele>342.38388</ele>
        <time>2023-07-26T14:06:20.000Z</time>
      </trkpt>
      <trkpt lat="45.79625" lon="4.7343">
        <ele>342.15161</ele>
        <time>2023-07-26T14:06:21.000Z</time>
      </trkpt>
      <trkpt lat="45.79619" lon="4.7343">
        <ele>341.93661</ele>
        <time>2023-07-26T14:06:22.000Z</time>
      </trkpt>
      <trkpt lat="45.79613" lon="4.73431">
        <ele>341.69952</ele>
        <time>2023-07-26T14:06:23.000Z</time>
      </trkpt>
      <trkpt lat="45.79606" lon="4.73431">
        <ele>341.46881</ele>
        <time>2023-07-26T14:06:24.000Z</time>
      </trkpt>
      <trkpt lat="45.796" lon="4.73433">
        <ele>341.26224</ele>
        <time>2023-07-26T14:06:25.000Z</time>
      </trkpt>
      <trkpt lat="45.79594" lon="4.73434">
        <ele>341.07846</ele>
        <time>2023-07-26T14:06:26.000Z</time>
      </trkpt>
      <trkpt lat="45.79587" lon="4.73436">
        <ele>340.83612</ele>
        <time>2023-07-26T14:06:27.000Z</time>
      </trkpt>
      <trkpt lat="45.7958" lon="4.73438">
        <ele>340.62469</ele>
        <time>2023-07-26T14:06:28.000Z</time>
      </trkpt>
      <trkpt lat="45.79574" lon="4.73441">
        <ele>340.40076</ele>
        <time>2023-07-26T14:06:29.000Z</time>
      </trkpt>
      <trkpt lat="45.79567" lon="4.73443">
        <ele>340.21808</ele>
        <time>2023-07-26T14:06:30.000Z</time>
      </trkpt>
      <trkpt lat="45.7956" lon="4.73445">
        <ele>340.06097</ele>
        <time>2023-07-26T14:06:31.000Z</time>
      </trkpt>
      <trkpt lat="45.79552" lon="4.73447">
        <ele>339.96313</ele>
        <time>2023-07-26T14:06:32.000Z</time>
      </trkpt>
      <trkpt lat="45.79545" lon="4.73448">
        <ele>339.69769</ele>
        <time>2023-07-26T14:06:33.000Z</time>
      </trkpt>
      <trkpt lat="45.79538" lon="4.73449">
        <ele>339.42273</ele>
        <time>2023-07-26T14:06:34.000Z</time>
      </trkpt>
      <trkpt lat="45.79532" lon="4.73452">
        <ele>339.13272</ele>
        <time>2023-07-26T14:06:35.000Z</time>
      </trkpt>
      <trkpt lat="45.79526" lon="4.73454">
        <ele>338.8494</ele>
        <time>2023-07-26T14:06:36.000Z</time>
      </trkpt>
      <trkpt lat="45.79519" lon="4.73457">
        <ele>338.34357</ele>
        <time>2023-07-26T14:06:37.000Z</time>
      </trkpt>
      <trkpt lat="45.79512" lon="4.73461">
        <ele>337.83029</ele>
        <time>2023-07-26T14:06:38.000Z</time>
      </trkpt>
      <trkpt lat="45.79506" lon="4.73465">
        <ele>337.5589</ele>
        <time>2023-07-26T14:06:39.000Z</time>
      </trkpt>
      <trkpt lat="45.795" lon="4.73469">
        <ele>337.27643</ele>
        <time>2023-07-26T14:06:40.000Z</time>
      </trkpt>
      <trkpt lat="45.79495" lon="4.73474">
        <ele>337.06021</ele>
        <time>2023-07-26T14:06:41.000Z</time>
      </trkpt>
      <trkpt lat="45.79489" lon="4.73478">
        <ele>336.83008</ele>
        <time>2023-07-26T14:06:42.000Z</time>
      </trkpt>
      <trkpt lat="45.79483" lon="4.73483">
        <ele>336.67487</ele>
        <time>2023-07-26T14:06:43.000Z</time>
      </trkpt>
      <trkpt lat="45.79478" lon="4.73487">
        <ele>336.52222</ele>
        <time>2023-07-26T14:06:44.000Z</time>
      </trkpt>
      <trkpt lat="45.79472" lon="4.73493">
        <ele>336.21045</ele>
        <time>2023-07-26T14:06:45.000Z</time>
      </trkpt>
      <trkpt lat="45.79466" lon="4.73498">
        <ele>335.93732</ele>
        <time>2023-07-26T14:06:46.000Z</time>
      </trkpt>
      <trkpt lat="45.7946" lon="4.73501">
        <ele>335.67825</ele>
        <time>2023-07-26T14:06:47.000Z</time>
      </trkpt>
      <trkpt lat="45.79454" lon="4.73503">
        <ele>335.41571</ele>
        <time>2023-07-26T14:06:48.000Z</time>
      </trkpt>
      <trkpt lat="45.79448" lon="4.73506">
        <ele>335.17563</ele>
        <time>2023-07-26T14:06:49.000Z</time>
      </trkpt>
      <trkpt lat="45.79442" lon="4.73509">
        <ele>334.87372</ele>
        <time>2023-07-26T14:06:50.000Z</time>
      </trkpt>
      <trkpt lat="45.79435" lon="4.73508">
        <ele>334.56265</ele>
        <time>2023-07-26T14:06:51.000Z</time>
      </trkpt>
      <trkpt lat="45.7943" lon="4.73511">
        <ele>334.18201</ele>
        <time>2023-07-26T14:06:52.000Z</time>
      </trkpt>
      <trkpt lat="45.79425" lon="4.73513">
        <ele>333.9754</ele>
        <time>2023-07-26T14:06:53.000Z</time>
      </trkpt>
      <trkpt lat="45.79419" lon="4.73515">
        <ele>333.7663</ele>
        <time>2023-07-26T14:06:54.000Z</time>
      </trkpt>
      <trkpt lat="45.79413" lon="4.73517">
        <ele>333.6037</ele>
        <time>2023-07-26T14:06:55.000Z</time>
      </trkpt>
      <trkpt lat="45.79406" lon="4.73516">
        <ele>333.46588</ele>
        <time>2023-07-26T14:06:56.000Z</time>
      </trkpt>
      <trkpt lat="45.794" lon="4.73514">
        <ele>333.29413</ele>
        <time>2023-07-26T14:06:57.000Z</time>
      </trkpt>
      <trkpt lat="45.79394" lon="4.73512">
        <ele>333.06427</ele>
        <time>2023-07-26T14:06:58.000Z</time>
      </trkpt>
      <trkpt lat="45.79387" lon="4.73508">
        <ele>332.82321</ele>
        <time>2023-07-26T14:06:59.000Z</time>
      </trkpt>
      <trkpt lat="45.79381" lon="4.73504">
        <ele>332.62143</ele>
        <time>2023-07-26T14:07:00.000Z</time>
      </trkpt>
      <trkpt lat="45.79375" lon="4.73501">
        <ele>332.53918</ele>
        <time>2023-07-26T14:07:01.000Z</time>
      </trkpt>
      <trkpt lat="45.79368" lon="4.73496">
        <ele>332.4711</ele>
        <time>2023-07-26T14:07:02.000Z</time>
      </trkpt>
      <trkpt lat="45.79362" lon="4.73494">
        <ele>332.38541</ele>
        <time>2023-07-26T14:07:03.000Z</time>
      </trkpt>
      <trkpt lat="45.79357" lon="4.7349">
        <ele>332.36429</ele>
        <time>2023-07-26T14:07:04.000Z</time>
      </trkpt>
      <trkpt lat="45.79351" lon="4.73486">
        <ele>332.28262</ele>
        <time>2023-07-26T14:07:05.000Z</time>
      </trkpt>
      <trkpt lat="45.79347" lon="4.73482">
        <ele>332.23172</ele>
        <time>2023-07-26T14:07:06.000Z</time>
      </trkpt>
      <trkpt lat="45.79341" lon="4.7348">
        <ele>332.15997</ele>
        <time>2023-07-26T14:07:07.000Z</time>
      </trkpt>
      <trkpt lat="45.79336" lon="4.73476">
        <ele>332.04489</ele>
        <time>2023-07-26T14:07:08.000Z</time>
      </trkpt>
      <trkpt lat="45.7933" lon="4.73472">
        <ele>331.91943</ele>
        <time>2023-07-26T14:07:09.000Z</time>
      </trkpt>
      <trkpt lat="45.79324" lon="4.73469">
        <ele>331.74371</ele>
        <time>2023-07-26T14:07:10.000Z</time>
      </trkpt>
      <trkpt lat="45.79318" lon="4.73466">
        <ele>331.56824</ele>
        <time>2023-07-26T14:07:11.000Z</time>
      </trkpt>
      <trkpt lat="45.79313" lon="4.73463">
        <ele>331.39725</ele>
        <time>2023-07-26T14:07:12.000Z</time>
      </trkpt>
      <trkpt lat="45.79306" lon="4.7346">
        <ele>331.20294</ele>
        <time>2023-07-26T14:07:13.000Z</time>
      </trkpt>
      <trkpt lat="45.79301" lon="4.73458">
        <ele>331.02084</ele>
        <time>2023-07-26T14:07:14.000Z</time>
      </trkpt>
      <trkpt lat="45.79294" lon="4.73456">
        <ele>330.84235</ele>
        <time>2023-07-26T14:07:15.000Z</time>
      </trkpt>
      <trkpt lat="45.79288" lon="4.73456">
        <ele>330.62445</ele>
        <time>2023-07-26T14:07:16.000Z</time>
      </trkpt>
      <trkpt lat="45.7928" lon="4.73454">
        <ele>330.46182</ele>
        <time>2023-07-26T14:07:17.000Z</time>
      </trkpt>
      <trkpt lat="45.79275" lon="4.73452">
        <ele>330.35498</ele>
        <time>2023-07-26T14:07:18.000Z</time>
      </trkpt>
      <trkpt lat="45.79268" lon="4.73449">
        <ele>330.27847</ele>
        <time>2023-07-26T14:07:19.000Z</time>
      </trkpt>
      <trkpt lat="45.79261" lon="4.73446">
        <ele>330.15198</ele>
        <time>2023-07-26T14:07:20.000Z</time>
      </trkpt>
      <trkpt lat="45.79254" lon="4.73444">
        <ele>329.84027</ele>
        <time>2023-07-26T14:07:21.000Z</time>
      </trkpt>
      <trkpt lat="45.79247" lon="4.73441">
        <ele>329.54019</ele>
        <time>2023-07-26T14:07:22.000Z</time>
      </trkpt>
      <trkpt lat="45.7924" lon="4.73437">
        <ele>329.17221</ele>
        <time>2023-07-26T14:07:23.000Z</time>
      </trkpt>
      <trkpt lat="45.79234" lon="4.73432">
        <ele>328.72354</ele>
        <time>2023-07-26T14:07:24.000Z</time>
      </trkpt>
      <trkpt lat="45.79228" lon="4.73428">
        <ele>328.52563</ele>
        <time>2023-07-26T14:07:25.000Z</time>
      </trkpt>
      <trkpt lat="45.79221" lon="4.73423">
        <ele>328.26407</ele>
        <time>2023-07-26T14:07:26.000Z</time>
      </trkpt>
      <trkpt lat="45.79214" lon="4.73418">
        <ele>328.07077</ele>
        <time>2023-07-26T14:07:27.000Z</time>
      </trkpt>
      <trkpt lat="45.79207" lon="4.73413">
        <ele>327.89423</ele>
        <time>2023-07-26T14:07:28.000Z</time>
      </trkpt>
      <trkpt lat="45.792" lon="4.7341">
        <ele>327.68332</ele>
        <time>2023-07-26T14:07:29.000Z</time>
      </trkpt>
      <trkpt lat="45.79193" lon="4.73407">
        <ele>327.50534</ele>
        <time>2023-07-26T14:07:30.000Z</time>
      </trkpt>
      <trkpt lat="45.79186" lon="4.73404">
        <ele>327.38046</ele>
        <time>2023-07-26T14:07:31.000Z</time>
      </trkpt>
      <trkpt lat="45.79179" lon="4.73403">
        <ele>327.26114</ele>
        <time>2023-07-26T14:07:32.000Z</time>
      </trkpt>
      <trkpt lat="45.79173" lon="4.73401">
        <ele>327.12909</ele>
        <time>2023-07-26T14:07:33.000Z</time>
      </trkpt>
      <trkpt lat="45.79168" lon="4.73399">
        <ele>326.91647</ele>
        <time>2023-07-26T14:07:34.000Z</time>
      </trkpt>
      <trkpt lat="45.79164" lon="4.73399">
        <ele>326.67377</ele>
        <time>2023-07-26T14:07:35.000Z</time>
      </trkpt>
      <trkpt lat="45.79161" lon="4.73397">
        <ele>326.51126</ele>
        <time>2023-07-26T14:07:36.000Z</time>
      </trkpt>
      <trkpt lat="45.79158" lon="4.73396">
        <ele>326.35712</ele>
        <time>2023-07-26T14:07:37.000Z</time>
      </trkpt>
      <trkpt lat="45.79156" lon="4.73392">
        <ele>326.26276</ele>
        <time>2023-07-26T14:07:38.000Z</time>
      </trkpt>
      <trkpt lat="45.79154" lon="4.7339">
        <ele>326.20358</ele>
        <time>2023-07-26T14:07:39.000Z</time>
      </trkpt>
      <trkpt lat="45.79152" lon="4.73389">
        <ele>326.32571</ele>
        <time>2023-07-26T14:07:40.000Z</time>
      </trkpt>
      <trkpt lat="45.79151" lon="4.73391">
        <ele>326.63861</ele>
        <time>2023-07-26T14:07:41.000Z</time>
      </trkpt>
      <trkpt lat="45.79149" lon="4.73394">
        <ele>326.64215</ele>
        <time>2023-07-26T14:07:43.000Z</time>
      </trkpt>
      <trkpt lat="45.79147" lon="4.73398">
        <ele>326.78906</ele>
        <time>2023-07-26T14:07:45.000Z</time>
      </trkpt>
      <trkpt lat="45.79145" lon="4.73399">
        <ele>326.99054</ele>
        <time>2023-07-26T14:07:46.000Z</time>
      </trkpt>
      <trkpt lat="45.79143" lon="4.734">
        <ele>327.21027</ele>
        <time>2023-07-26T14:07:47.000Z</time>
      </trkpt>
      <trkpt lat="45.7914" lon="4.73401">
        <ele>327.47089</ele>
        <time>2023-07-26T14:07:48.000Z</time>
      </trkpt>
      <trkpt lat="45.79138" lon="4.73402">
        <ele>327.66663</ele>
        <time>2023-07-26T14:07:49.000Z</time>
      </trkpt>
      <trkpt lat="45.79135" lon="4.73403">
        <ele>327.88049</ele>
        <time>2023-07-26T14:07:50.000Z</time>
      </trkpt>
      <trkpt lat="45.79132" lon="4.73405">
        <ele>328.1221</ele>
        <time>2023-07-26T14:07:51.000Z</time>
      </trkpt>
      <trkpt lat="45.7913" lon="4.73407">
        <ele>328.28806</ele>
        <time>2023-07-26T14:07:52.000Z</time>
      </trkpt>
      <trkpt lat="45.79128" lon="4.73409">
        <ele>328.47772</ele>
        <time>2023-07-26T14:07:53.000Z</time>
      </trkpt>
      <trkpt lat="45.79125" lon="4.73409">
        <ele>328.67694</ele>
        <time>2023-07-26T14:07:55.000Z</time>
      </trkpt>
      <trkpt lat="45.79123" lon="4.7341">
        <ele>328.96411</ele>
        <time>2023-07-26T14:07:57.000Z</time>
      </trkpt>
      <trkpt lat="45.79121" lon="4.73411">
        <ele>328.9827</ele>
        <time>2023-07-26T14:08:01.000Z</time>
      </trkpt>
      <trkpt lat="45.79119" lon="4.73411">
        <ele>328.83984</ele>
        <time>2023-07-26T14:08:44.000Z</time>
      </trkpt>
      <trkpt lat="45.79116" lon="4.73411">
        <ele>328.63885</ele>
        <time>2023-07-26T14:08:46.000Z</time>
      </trkpt>
      <trkpt lat="45.79114" lon="4.7341">
        <ele>328.40811</ele>
        <time>2023-07-26T14:08:47.000Z</time>
      </trkpt>
      <trkpt lat="45.79111" lon="4.73409">
        <ele>328.11343</ele>
        <time>2023-07-26T14:08:48.000Z</time>
      </trkpt>
      <trkpt lat="45.79108" lon="4.73408">
        <ele>327.73935</ele>
        <time>2023-07-26T14:08:49.000Z</time>
      </trkpt>
      <trkpt lat="45.79104" lon="4.73407">
        <ele>327.22305</ele>
        <time>2023-07-26T14:08:50.000Z</time>
      </trkpt>
      <trkpt lat="45.79101" lon="4.73405">
        <ele>326.53281</ele>
        <time>2023-07-26T14:08:51.000Z</time>
      </trkpt>
      <trkpt lat="45.79098" lon="4.73404">
        <ele>326.09924</ele>
        <time>2023-07-26T14:08:52.000Z</time>
      </trkpt>
      <trkpt lat="45.79092" lon="4.73401">
        <ele>325.50482</ele>
        <time>2023-07-26T14:08:53.000Z</time>
      </trkpt>
      <trkpt lat="45.79088" lon="4.73399">
        <ele>324.84158</ele>
        <time>2023-07-26T14:08:54.000Z</time>
      </trkpt>
      <trkpt lat="45.79083" lon="4.73397">
        <ele>324.13876</ele>
        <time>2023-07-26T14:08:55.000Z</time>
      </trkpt>
      <trkpt lat="45.79078" lon="4.73395">
        <ele>323.38464</ele>
        <time>2023-07-26T14:08:56.000Z</time>
      </trkpt>
      <trkpt lat="45.79073" lon="4.73393">
        <ele>322.65228</ele>
        <time>2023-07-26T14:08:57.000Z</time>
      </trkpt>
      <trkpt lat="45.79068" lon="4.73392">
        <ele>321.93839</ele>
        <time>2023-07-26T14:08:58.000Z</time>
      </trkpt>
      <trkpt lat="45.79063" lon="4.73391">
        <ele>321.26157</ele>
        <time>2023-07-26T14:08:59.000Z</time>
      </trkpt>
      <trkpt lat="45.79058" lon="4.73389">
        <ele>320.66098</ele>
        <time>2023-07-26T14:09:00.000Z</time>
      </trkpt>
      <trkpt lat="45.79051" lon="4.73387">
        <ele>319.99396</ele>
        <time>2023-07-26T14:09:01.000Z</time>
      </trkpt>
      <trkpt lat="45.79046" lon="4.73384">
        <ele>319.31693</ele>
        <time>2023-07-26T14:09:02.000Z</time>
      </trkpt>
      <trkpt lat="45.79039" lon="4.73383">
        <ele>318.50031</ele>
        <time>2023-07-26T14:09:03.000Z</time>
      </trkpt>
      <trkpt lat="45.79034" lon="4.7338">
        <ele>317.94672</ele>
        <time>2023-07-26T14:09:04.000Z</time>
      </trkpt>
      <trkpt lat="45.79028" lon="4.73378">
        <ele>317.5585</ele>
        <time>2023-07-26T14:09:05.000Z</time>
      </trkpt>
      <trkpt lat="45.79022" lon="4.73376">
        <ele>317.18286</ele>
        <time>2023-07-26T14:09:06.000Z</time>
      </trkpt>
      <trkpt lat="45.79017" lon="4.73378">
        <ele>316.82477</ele>
        <time>2023-07-26T14:09:07.000Z</time>
      </trkpt>
      <trkpt lat="45.7901" lon="4.7338">
        <ele>316.53229</ele>
        <time>2023-07-26T14:09:08.000Z</time>
      </trkpt>
      <trkpt lat="45.79005" lon="4.7338">
        <ele>316.2175</ele>
        <time>2023-07-26T14:09:09.000Z</time>
      </trkpt>
      <trkpt lat="45.79" lon="4.73378">
        <ele>315.92838</ele>
        <time>2023-07-26T14:09:10.000Z</time>
      </trkpt>
      <trkpt lat="45.78996" lon="4.73375">
        <ele>315.63693</ele>
        <time>2023-07-26T14:09:11.000Z</time>
      </trkpt>
      <trkpt lat="45.78992" lon="4.73371">
        <ele>315.38986</ele>
        <time>2023-07-26T14:09:12.000Z</time>
      </trkpt>
      <trkpt lat="45.78987" lon="4.73368">
        <ele>315.11945</ele>
        <time>2023-07-26T14:09:13.000Z</time>
      </trkpt>
      <trkpt lat="45.78983" lon="4.73365">
        <ele>314.92365</ele>
        <time>2023-07-26T14:09:14.000Z</time>
      </trkpt>
      <trkpt lat="45.78979" lon="4.73361">
        <ele>314.75449</ele>
        <time>2023-07-26T14:09:15.000Z</time>
      </trkpt>
      <trkpt lat="45.78974" lon="4.73361">
        <ele>314.58591</ele>
        <time>2023-07-26T14:09:16.000Z</time>
      </trkpt>
      <trkpt lat="45.7897" lon="4.73359">
        <ele>314.4169</ele>
        <time>2023-07-26T14:09:17.000Z</time>
      </trkpt>
      <trkpt lat="45.78966" lon="4.73358">
        <ele>314.22342</ele>
        <time>2023-07-26T14:09:18.000Z</time>
      </trkpt>
      <trkpt lat="45.78963" lon="4.73356">
        <ele>314.06378</ele>
        <time>2023-07-26T14:09:19.000Z</time>
      </trkpt>
      <trkpt lat="45.78959" lon="4.73354">
        <ele>313.82172</ele>
        <time>2023-07-26T14:09:20.000Z</time>
      </trkpt>
      <trkpt lat="45.78955" lon="4.73352">
        <ele>313.59537</ele>
        <time>2023-07-26T14:09:21.000Z</time>
      </trkpt>
      <trkpt lat="45.78952" lon="4.7335">
        <ele>313.37311</ele>
        <time>2023-07-26T14:09:22.000Z</time>
      </trkpt>
      <trkpt lat="45.78949" lon="4.73348">
        <ele>313.246</ele>
        <time>2023-07-26T14:09:23.000Z</time>
      </trkpt>
      <trkpt lat="45.78947" lon="4.73347">
        <ele>313.16498</ele>
        <time>2023-07-26T14:09:24.000Z</time>
      </trkpt>
      <trkpt lat="45.78945" lon="4.73346">
        <ele>313.09869</ele>
        <time>2023-07-26T14:09:25.000Z</time>
      </trkpt>
      <trkpt lat="45.78945" lon="4.73346">
        <ele>313.09869</ele>
        <time>2023-07-26T14:09:25.000Z</time>
      </trkpt>
      <trkpt lat="45.7894" lon="4.73344">
        <ele>313.16885</ele>
        <time>2023-07-26T14:18:55.000Z</time>
      </trkpt>
      <trkpt lat="45.7894" lon="4.73344">
        <ele>313.16885</ele>
        <time>2023-07-26T14:18:55.000Z</time>
      </trkpt>
      <trkpt lat="45.78938" lon="4.73344">
        <ele>313.22913</ele>
        <time>2023-07-26T14:19:00.000Z</time>
      </trkpt>
      <trkpt lat="45.78935" lon="4.73343">
        <ele>313.2421</ele>
        <time>2023-07-26T14:19:02.000Z</time>
      </trkpt>
      <trkpt lat="45.78931" lon="4.73343">
        <ele>313.31329</ele>
        <time>2023-07-26T14:19:04.000Z</time>
      </trkpt>
      <trkpt lat="45.78929" lon="4.73342">
        <ele>313.35944</ele>
        <time>2023-07-26T14:19:05.000Z</time>
      </trkpt>
      <trkpt lat="45.78927" lon="4.73342">
        <ele>313.42615</ele>
        <time>2023-07-26T14:19:06.000Z</time>
      </trkpt>
      <trkpt lat="45.78925" lon="4.73342">
        <ele>313.4928</ele>
        <time>2023-07-26T14:19:07.000Z</time>
      </trkpt>
      <trkpt lat="45.78922" lon="4.73341">
        <ele>313.57684</ele>
        <time>2023-07-26T14:19:08.000Z</time>
      </trkpt>
      <trkpt lat="45.7892" lon="4.73341">
        <ele>313.60876</ele>
        <time>2023-07-26T14:19:09.000Z</time>
      </trkpt>
      <trkpt lat="45.78918" lon="4.7334">
        <ele>313.6232</ele>
        <time>2023-07-26T14:19:10.000Z</time>
      </trkpt>
      <trkpt lat="45.78914" lon="4.73338">
        <ele>313.52875</ele>
        <time>2023-07-26T14:19:11.000Z</time>
      </trkpt>
      <trkpt lat="45.78913" lon="4.73337">
        <ele>313.44861</ele>
        <time>2023-07-26T14:19:12.000Z</time>
      </trkpt>
      <trkpt lat="45.7891" lon="4.73338">
        <ele>313.46698</ele>
        <time>2023-07-26T14:19:13.000Z</time>
      </trkpt>
      <trkpt lat="45.78908" lon="4.73338">
        <ele>313.41486</ele>
        <time>2023-07-26T14:19:14.000Z</time>
      </trkpt>
      <trkpt lat="45.78906" lon="4.73338">
        <ele>313.44839</ele>
        <time>2023-07-26T14:19:15.000Z</time>
      </trkpt>
      <trkpt lat="45.78904" lon="4.73337">
        <ele>313.47818</ele>
        <time>2023-07-26T14:19:16.000Z</time>
      </trkpt>
      <trkpt lat="45.78902" lon="4.73336">
        <ele>313.52509</ele>
        <time>2023-07-26T14:19:17.000Z</time>
      </trkpt>
      <trkpt lat="45.789" lon="4.73335">
        <ele>313.53345</ele>
        <time>2023-07-26T14:19:18.000Z</time>
      </trkpt>
      <trkpt lat="45.78898" lon="4.73335">
        <ele>313.55673</ele>
        <time>2023-07-26T14:19:19.000Z</time>
      </trkpt>
      <trkpt lat="45.78896" lon="4.73332">
        <ele>313.61093</ele>
        <time>2023-07-26T14:19:21.000Z</time>
      </trkpt>
      <trkpt lat="45.78892" lon="4.7333">
        <ele>313.45096</ele>
        <time>2023-07-26T14:19:23.000Z</time>
      </trkpt>
      <trkpt lat="45.7889" lon="4.73328">
        <ele>313.27228</ele>
        <time>2023-07-26T14:19:24.000Z</time>
      </trkpt>
      <trkpt lat="45.78889" lon="4.73329">
        <ele>313.08658</ele>
        <time>2023-07-26T14:19:28.000Z</time>
      </trkpt>
      <trkpt lat="45.78888" lon="4.73332">
        <ele>312.89822</ele>
        <time>2023-07-26T14:19:33.000Z</time>
      </trkpt>
      <trkpt lat="45.78885" lon="4.7333">
        <ele>312.79388</ele>
        <time>2023-07-26T14:19:38.000Z</time>
      </trkpt>
      <trkpt lat="45.78884" lon="4.73329">
        <ele>312.68973</ele>
        <time>2023-07-26T14:19:39.000Z</time>
      </trkpt>
      <trkpt lat="45.78882" lon="4.73327">
        <ele>312.61118</ele>
        <time>2023-07-26T14:19:40.000Z</time>
      </trkpt>
      <trkpt lat="45.7888" lon="4.73325">
        <ele>312.63351</ele>
        <time>2023-07-26T14:19:41.000Z</time>
      </trkpt>
      <trkpt lat="45.78878" lon="4.73322">
        <ele>312.65167</ele>
        <time>2023-07-26T14:19:42.000Z</time>
      </trkpt>
      <trkpt lat="45.78875" lon="4.73318">
        <ele>312.62808</ele>
        <time>2023-07-26T14:19:43.000Z</time>
      </trkpt>
      <trkpt lat="45.78872" lon="4.73315">
        <ele>312.70572</ele>
        <time>2023-07-26T14:19:44.000Z</time>
      </trkpt>
      <trkpt lat="45.78868" lon="4.73313">
        <ele>312.75668</ele>
        <time>2023-07-26T14:19:45.000Z</time>
      </trkpt>
      <trkpt lat="45.78864" lon="4.73311">
        <ele>312.69867</ele>
        <time>2023-07-26T14:19:46.000Z</time>
      </trkpt>
      <trkpt lat="45.7886" lon="4.7331">
        <ele>312.62683</ele>
        <time>2023-07-26T14:19:47.000Z</time>
      </trkpt>
      <trkpt lat="45.78856" lon="4.73308">
        <ele>312.57861</ele>
        <time>2023-07-26T14:19:48.000Z</time>
      </trkpt>
      <trkpt lat="45.78853" lon="4.73307">
        <ele>312.5444</ele>
        <time>2023-07-26T14:19:49.000Z</time>
      </trkpt>
      <trkpt lat="45.7885" lon="4.73306">
        <ele>312.58221</ele>
        <time>2023-07-26T14:19:50.000Z</time>
      </trkpt>
      <trkpt lat="45.78843" lon="4.73301">
        <ele>312.68109</ele>
        <time>2023-07-26T14:19:51.000Z</time>
      </trkpt>
      <trkpt lat="45.78839" lon="4.73297">
        <ele>312.80777</ele>
        <time>2023-07-26T14:19:52.000Z</time>
      </trkpt>
      <trkpt lat="45.78833" lon="4.73291">
        <ele>312.88577</ele>
        <time>2023-07-26T14:19:53.000Z</time>
      </trkpt>
      <trkpt lat="45.78828" lon="4.73286">
        <ele>312.78705</ele>
        <time>2023-07-26T14:19:54.000Z</time>
      </trkpt>
      <trkpt lat="45.78822" lon="4.73282">
        <ele>312.54501</ele>
        <time>2023-07-26T14:19:55.000Z</time>
      </trkpt>
      <trkpt lat="45.78815" lon="4.73279">
        <ele>312.21179</ele>
        <time>2023-07-26T14:19:56.000Z</time>
      </trkpt>
      <trkpt lat="45.78809" lon="4.73275">
        <ele>311.83307</ele>
        <time>2023-07-26T14:19:57.000Z</time>
      </trkpt>
      <trkpt lat="45.78802" lon="4.7327">
        <ele>311.33731</ele>
        <time>2023-07-26T14:19:58.000Z</time>
      </trkpt>
      <trkpt lat="45.78795" lon="4.73268">
        <ele>310.79477</ele>
        <time>2023-07-26T14:19:59.000Z</time>
      </trkpt>
      <trkpt lat="45.78789" lon="4.73265">
        <ele>310.16855</ele>
        <time>2023-07-26T14:20:00.000Z</time>
      </trkpt>
      <trkpt lat="45.78783" lon="4.73262">
        <ele>309.49957</ele>
        <time>2023-07-26T14:20:01.000Z</time>
      </trkpt>
      <trkpt lat="45.78777" lon="4.7326">
        <ele>308.858</ele>
        <time>2023-07-26T14:20:02.000Z</time>
      </trkpt>
      <trkpt lat="45.7877" lon="4.7326">
        <ele>308.25824</ele>
        <time>2023-07-26T14:20:03.000Z</time>
      </trkpt>
      <trkpt lat="45.78763" lon="4.7326">
        <ele>307.64404</ele>
        <time>2023-07-26T14:20:04.000Z</time>
      </trkpt>
      <trkpt lat="45.78758" lon="4.73259">
        <ele>306.95889</ele>
        <time>2023-07-26T14:20:05.000Z</time>
      </trkpt>
      <trkpt lat="45.78752" lon="4.73258">
        <ele>306.30661</ele>
        <time>2023-07-26T14:20:06.000Z</time>
      </trkpt>
      <trkpt lat="45.78744" lon="4.73257">
        <ele>305.71027</ele>
        <time>2023-07-26T14:20:07.000Z</time>
      </trkpt>
      <trkpt lat="45.7874" lon="4.73256">
        <ele>305.11505</ele>
        <time>2023-07-26T14:20:08.000Z</time>
      </trkpt>
      <trkpt lat="45.78732" lon="4.73256">
        <ele>304.47559</ele>
        <time>2023-07-26T14:20:09.000Z</time>
      </trkpt>
      <trkpt lat="45.78728" lon="4.73259">
        <ele>303.76083</ele>
        <time>2023-07-26T14:20:10.000Z</time>
      </trkpt>
      <trkpt lat="45.78722" lon="4.73263">
        <ele>303.00861</ele>
        <time>2023-07-26T14:20:11.000Z</time>
      </trkpt>
      <trkpt lat="45.78717" lon="4.73265">
        <ele>302.25937</ele>
        <time>2023-07-26T14:20:12.000Z</time>
      </trkpt>
      <trkpt lat="45.78715" lon="4.73266">
        <ele>301.52399</ele>
        <time>2023-07-26T14:20:13.000Z</time>
      </trkpt>
      <trkpt lat="45.78712" lon="4.73268">
        <ele>301.01596</ele>
        <time>2023-07-26T14:20:14.000Z</time>
      </trkpt>
      <trkpt lat="45.7871" lon="4.73268">
        <ele>300.68414</ele>
        <time>2023-07-26T14:20:15.000Z</time>
      </trkpt>
      <trkpt lat="45.78708" lon="4.73267">
        <ele>300.44769</ele>
        <time>2023-07-26T14:20:16.000Z</time>
      </trkpt>
      <trkpt lat="45.78707" lon="4.73269">
        <ele>300.17145</ele>
        <time>2023-07-26T14:20:19.000Z</time>
      </trkpt>
      <trkpt lat="45.78708" lon="4.73271">
        <ele>299.86188</ele>
        <time>2023-07-26T14:20:24.000Z</time>
      </trkpt>
      <trkpt lat="45.78706" lon="4.7327">
        <ele>299.59894</ele>
        <time>2023-07-26T14:20:55.000Z</time>
      </trkpt>
      <trkpt lat="45.78705" lon="4.73269">
        <ele>299.39697</ele>
        <time>2023-07-26T14:20:56.000Z</time>
      </trkpt>
      <trkpt lat="45.78702" lon="4.73267">
        <ele>299.22232</ele>
        <time>2023-07-26T14:20:57.000Z</time>
      </trkpt>
      <trkpt lat="45.78699" lon="4.73268">
        <ele>298.97339</ele>
        <time>2023-07-26T14:20:58.000Z</time>
      </trkpt>
      <trkpt lat="45.78697" lon="4.73269">
        <ele>298.74103</ele>
        <time>2023-07-26T14:20:59.000Z</time>
      </trkpt>
      <trkpt lat="45.78694" lon="4.7327">
        <ele>298.53674</ele>
        <time>2023-07-26T14:21:00.000Z</time>
      </trkpt>
      <trkpt lat="45.78691" lon="4.73273">
        <ele>298.41678</ele>
        <time>2023-07-26T14:21:01.000Z</time>
      </trkpt>
      <trkpt lat="45.78687" lon="4.73276">
        <ele>298.31348</ele>
        <time>2023-07-26T14:21:02.000Z</time>
      </trkpt>
      <trkpt lat="45.78684" lon="4.7328">
        <ele>298.21869</ele>
        <time>2023-07-26T14:21:03.000Z</time>
      </trkpt>
      <trkpt lat="45.78682" lon="4.73284">
        <ele>298.12595</ele>
        <time>2023-07-26T14:21:04.000Z</time>
      </trkpt>
      <trkpt lat="45.7868" lon="4.73288">
        <ele>298.08167</ele>
        <time>2023-07-26T14:21:05.000Z</time>
      </trkpt>
      <trkpt lat="45.78677" lon="4.73291">
        <ele>298.02179</ele>
        <time>2023-07-26T14:21:06.000Z</time>
      </trkpt>
      <trkpt lat="45.78674" lon="4.73295">
        <ele>297.92947</ele>
        <time>2023-07-26T14:21:07.000Z</time>
      </trkpt>
      <trkpt lat="45.7867" lon="4.733">
        <ele>297.80536</ele>
        <time>2023-07-26T14:21:08.000Z</time>
      </trkpt>
      <trkpt lat="45.78666" lon="4.73304">
        <ele>297.64835</ele>
        <time>2023-07-26T14:21:09.000Z</time>
      </trkpt>
      <trkpt lat="45.78662" lon="4.73308">
        <ele>297.51471</ele>
        <time>2023-07-26T14:21:10.000Z</time>
      </trkpt>
      <trkpt lat="45.78659" lon="4.73313">
        <ele>297.34454</ele>
        <time>2023-07-26T14:21:11.000Z</time>
      </trkpt>
      <trkpt lat="45.78654" lon="4.73319">
        <ele>297.21872</ele>
        <time>2023-07-26T14:21:12.000Z</time>
      </trkpt>
      <trkpt lat="45.7865" lon="4.73324">
        <ele>297.17365</ele>
        <time>2023-07-26T14:21:13.000Z</time>
      </trkpt>
      <trkpt lat="45.78646" lon="4.73328">
        <ele>297.18558</ele>
        <time>2023-07-26T14:21:14.000Z</time>
      </trkpt>
      <trkpt lat="45.78642" lon="4.73334">
        <ele>297.16232</ele>
        <time>2023-07-26T14:21:15.000Z</time>
      </trkpt>
      <trkpt lat="45.78639" lon="4.73339">
        <ele>297.09296</ele>
        <time>2023-07-26T14:21:16.000Z</time>
      </trkpt>
      <trkpt lat="45.78635" lon="4.73345">
        <ele>297.00323</ele>
        <time>2023-07-26T14:21:17.000Z</time>
      </trkpt>
      <trkpt lat="45.78631" lon="4.7335">
        <ele>296.95029</ele>
        <time>2023-07-26T14:21:18.000Z</time>
      </trkpt>
      <trkpt lat="45.78627" lon="4.73355">
        <ele>296.8606</ele>
        <time>2023-07-26T14:21:19.000Z</time>
      </trkpt>
      <trkpt lat="45.78623" lon="4.73361">
        <ele>296.76114</ele>
        <time>2023-07-26T14:21:20.000Z</time>
      </trkpt>
      <trkpt lat="45.78619" lon="4.73367">
        <ele>296.71512</ele>
        <time>2023-07-26T14:21:21.000Z</time>
      </trkpt>
      <trkpt lat="45.78615" lon="4.73373">
        <ele>296.64435</ele>
        <time>2023-07-26T14:21:22.000Z</time>
      </trkpt>
      <trkpt lat="45.7861" lon="4.7338">
        <ele>296.3587</ele>
        <time>2023-07-26T14:21:23.000Z</time>
      </trkpt>
      <trkpt lat="45.78606" lon="4.73386">
        <ele>295.9516</ele>
        <time>2023-07-26T14:21:24.000Z</time>
      </trkpt>
      <trkpt lat="45.78602" lon="4.73392">
        <ele>295.50201</ele>
        <time>2023-07-26T14:21:25.000Z</time>
      </trkpt>
      <trkpt lat="45.78598" lon="4.73398">
        <ele>295.08017</ele>
        <time>2023-07-26T14:21:26.000Z</time>
      </trkpt>
      <trkpt lat="45.78594" lon="4.73403">
        <ele>294.69257</ele>
        <time>2023-07-26T14:21:27.000Z</time>
      </trkpt>
      <trkpt lat="45.7859" lon="4.73409">
        <ele>294.30035</ele>
        <time>2023-07-26T14:21:28.000Z</time>
      </trkpt>
      <trkpt lat="45.78587" lon="4.73416">
        <ele>293.92419</ele>
        <time>2023-07-26T14:21:29.000Z</time>
      </trkpt>
      <trkpt lat="45.78584" lon="4.73421">
        <ele>293.56836</ele>
        <time>2023-07-26T14:21:30.000Z</time>
      </trkpt>
      <trkpt lat="45.7858" lon="4.73426">
        <ele>293.23117</ele>
        <time>2023-07-26T14:21:31.000Z</time>
      </trkpt>
      <trkpt lat="45.78577" lon="4.73432">
        <ele>292.83759</ele>
        <time>2023-07-26T14:21:32.000Z</time>
      </trkpt>
      <trkpt lat="45.78574" lon="4.73436">
        <ele>292.42181</ele>
        <time>2023-07-26T14:21:33.000Z</time>
      </trkpt>
      <trkpt lat="45.78569" lon="4.73441">
        <ele>291.98615</ele>
        <time>2023-07-26T14:21:34.000Z</time>
      </trkpt>
      <trkpt lat="45.78565" lon="4.73444">
        <ele>291.53403</ele>
        <time>2023-07-26T14:21:35.000Z</time>
      </trkpt>
      <trkpt lat="45.78562" lon="4.73446">
        <ele>291.09012</ele>
        <time>2023-07-26T14:21:36.000Z</time>
      </trkpt>
      <trkpt lat="45.78559" lon="4.73445">
        <ele>290.64374</ele>
        <time>2023-07-26T14:21:37.000Z</time>
      </trkpt>
      <trkpt lat="45.78556" lon="4.73444">
        <ele>290.20404</ele>
        <time>2023-07-26T14:21:38.000Z</time>
      </trkpt>
      <trkpt lat="45.78553" lon="4.73443">
        <ele>289.82013</ele>
        <time>2023-07-26T14:21:39.000Z</time>
      </trkpt>
      <trkpt lat="45.7855" lon="4.73445">
        <ele>289.47617</ele>
        <time>2023-07-26T14:21:40.000Z</time>
      </trkpt>
      <trkpt lat="45.78549" lon="4.73448">
        <ele>289.09277</ele>
        <time>2023-07-26T14:21:41.000Z</time>
      </trkpt>
      <trkpt lat="45.78548" lon="4.73452">
        <ele>288.69644</ele>
        <time>2023-07-26T14:21:42.000Z</time>
      </trkpt>
      <trkpt lat="45.78549" lon="4.73456">
        <ele>288.48724</ele>
        <time>2023-07-26T14:21:44.000Z</time>
      </trkpt>
      <trkpt lat="45.78548" lon="4.73458">
        <ele>288.38165</ele>
        <time>2023-07-26T14:21:45.000Z</time>
      </trkpt>
      <trkpt lat="45.78548" lon="4.73462">
        <ele>288.29562</ele>
        <time>2023-07-26T14:21:46.000Z</time>
      </trkpt>
      <trkpt lat="45.78547" lon="4.73466">
        <ele>288.20966</ele>
        <time>2023-07-26T14:21:47.000Z</time>
      </trkpt>
      <trkpt lat="45.78546" lon="4.73469">
        <ele>288.10248</ele>
        <time>2023-07-26T14:21:48.000Z</time>
      </trkpt>
      <trkpt lat="45.78545" lon="4.73473">
        <ele>288.01361</ele>
        <time>2023-07-26T14:21:49.000Z</time>
      </trkpt>
      <trkpt lat="45.78543" lon="4.73477">
        <ele>287.97174</ele>
        <time>2023-07-26T14:21:50.000Z</time>
      </trkpt>
      <trkpt lat="45.7854" lon="4.73482">
        <ele>287.90707</ele>
        <time>2023-07-26T14:21:51.000Z</time>
      </trkpt>
      <trkpt lat="45.78538" lon="4.73487">
        <ele>287.81757</ele>
        <time>2023-07-26T14:21:52.000Z</time>
      </trkpt>
      <trkpt lat="45.78536" lon="4.7349">
        <ele>287.7395</ele>
        <time>2023-07-26T14:21:53.000Z</time>
      </trkpt>
      <trkpt lat="45.78534" lon="4.73493">
        <ele>287.71921</ele>
        <time>2023-07-26T14:21:54.000Z</time>
      </trkpt>
      <trkpt lat="45.78533" lon="4.73496">
        <ele>287.74194</ele>
        <time>2023-07-26T14:21:55.000Z</time>
      </trkpt>
      <trkpt lat="45.78532" lon="4.73499">
        <ele>287.79001</ele>
        <time>2023-07-26T14:21:56.000Z</time>
      </trkpt>
      <trkpt lat="45.7853" lon="4.73502">
        <ele>287.88019</ele>
        <time>2023-07-26T14:21:58.000Z</time>
      </trkpt>
      <trkpt lat="45.78528" lon="4.73506">
        <ele>287.94287</ele>
        <time>2023-07-26T14:22:00.000Z</time>
      </trkpt>
      <trkpt lat="45.78527" lon="4.73509">
        <ele>288.01505</ele>
        <time>2023-07-26T14:22:01.000Z</time>
      </trkpt>
      <trkpt lat="45.78526" lon="4.73512">
        <ele>288.04089</ele>
        <time>2023-07-26T14:22:02.000Z</time>
      </trkpt>
      <trkpt lat="45.78526" lon="4.73515">
        <ele>288.04468</ele>
        <time>2023-07-26T14:22:03.000Z</time>
      </trkpt>
      <trkpt lat="45.78527" lon="4.73518">
        <ele>288.06406</ele>
        <time>2023-07-26T14:22:04.000Z</time>
      </trkpt>
      <trkpt lat="45.78529" lon="4.73521">
        <ele>288.08932</ele>
        <time>2023-07-26T14:22:05.000Z</time>
      </trkpt>
      <trkpt lat="45.78532" lon="4.73524">
        <ele>288.11432</ele>
        <time>2023-07-26T14:22:06.000Z</time>
      </trkpt>
      <trkpt lat="45.78535" lon="4.73526">
        <ele>288.13895</ele>
        <time>2023-07-26T14:22:07.000Z</time>
      </trkpt>
      <trkpt lat="45.78538" lon="4.7353">
        <ele>287.93958</ele>
        <time>2023-07-26T14:22:08.000Z</time>
      </trkpt>
      <trkpt lat="45.78541" lon="4.73533">
        <ele>287.76715</ele>
        <time>2023-07-26T14:22:09.000Z</time>
      </trkpt>
      <trkpt lat="45.78544" lon="4.73535">
        <ele>287.58295</ele>
        <time>2023-07-26T14:22:10.000Z</time>
      </trkpt>
      <trkpt lat="45.78546" lon="4.73537">
        <ele>287.38806</ele>
        <time>2023-07-26T14:22:11.000Z</time>
      </trkpt>
      <trkpt lat="45.78549" lon="4.73539">
        <ele>287.19098</ele>
        <time>2023-07-26T14:22:12.000Z</time>
      </trkpt>
      <trkpt lat="45.78552" lon="4.73541">
        <ele>287.00211</ele>
        <time>2023-07-26T14:22:13.000Z</time>
      </trkpt>
      <trkpt lat="45.78555" lon="4.73542">
        <ele>286.83188</ele>
        <time>2023-07-26T14:22:14.000Z</time>
      </trkpt>
      <trkpt lat="45.78558" lon="4.73542">
        <ele>286.68036</ele>
        <time>2023-07-26T14:22:15.000Z</time>
      </trkpt>
      <trkpt lat="45.78562" lon="4.73542">
        <ele>286.54706</ele>
        <time>2023-07-26T14:22:16.000Z</time>
      </trkpt>
      <trkpt lat="45.78564" lon="4.73542">
        <ele>286.41833</ele>
        <time>2023-07-26T14:22:17.000Z</time>
      </trkpt>
      <trkpt lat="45.78567" lon="4.73542">
        <ele>286.31171</ele>
        <time>2023-07-26T14:22:18.000Z</time>
      </trkpt>
      <trkpt lat="45.7857" lon="4.73542">
        <ele>286.20978</ele>
        <time>2023-07-26T14:22:19.000Z</time>
      </trkpt>
      <trkpt lat="45.78573" lon="4.73542">
        <ele>286.1459</ele>
        <time>2023-07-26T14:22:20.000Z</time>
      </trkpt>
      <trkpt lat="45.78577" lon="4.73542">
        <ele>286.0947</ele>
        <time>2023-07-26T14:22:21.000Z</time>
      </trkpt>
      <trkpt lat="45.7858" lon="4.73542">
        <ele>286.07703</ele>
        <time>2023-07-26T14:22:22.000Z</time>
      </trkpt>
      <trkpt lat="45.78584" lon="4.73542">
        <ele>286.05634</ele>
        <time>2023-07-26T14:22:23.000Z</time>
      </trkpt>
      <trkpt lat="45.78587" lon="4.73543">
        <ele>286.01907</ele>
        <time>2023-07-26T14:22:24.000Z</time>
      </trkpt>
      <trkpt lat="45.78591" lon="4.73543">
        <ele>285.98163</ele>
        <time>2023-07-26T14:22:25.000Z</time>
      </trkpt>
      <trkpt lat="45.78595" lon="4.73543">
        <ele>285.95859</ele>
        <time>2023-07-26T14:22:26.000Z</time>
      </trkpt>
      <trkpt lat="45.78598" lon="4.73543">
        <ele>285.9212</ele>
        <time>2023-07-26T14:22:27.000Z</time>
      </trkpt>
      <trkpt lat="45.78602" lon="4.73543">
        <ele>286.12885</ele>
        <time>2023-07-26T14:22:28.000Z</time>
      </trkpt>
      <trkpt lat="45.78605" lon="4.73543">
        <ele>286.2984</ele>
        <time>2023-07-26T14:22:29.000Z</time>
      </trkpt>
      <trkpt lat="45.78608" lon="4.73543">
        <ele>286.48871</ele>
        <time>2023-07-26T14:22:30.000Z</time>
      </trkpt>
      <trkpt lat="45.78611" lon="4.73542">
        <ele>286.6839</ele>
        <time>2023-07-26T14:22:31.000Z</time>
      </trkpt>
      <trkpt lat="45.78615" lon="4.73542">
        <ele>286.85516</ele>
        <time>2023-07-26T14:22:32.000Z</time>
      </trkpt>
      <trkpt lat="45.78619" lon="4.73543">
        <ele>287.03629</ele>
        <time>2023-07-26T14:22:33.000Z</time>
      </trkpt>
      <trkpt lat="45.78624" lon="4.73543">
        <ele>287.22018</ele>
        <time>2023-07-26T14:22:34.000Z</time>
      </trkpt>
      <trkpt lat="45.78627" lon="4.73543">
        <ele>287.3913</ele>
        <time>2023-07-26T14:22:35.000Z</time>
      </trkpt>
      <trkpt lat="45.78631" lon="4.73543">
        <ele>287.56003</ele>
        <time>2023-07-26T14:22:36.000Z</time>
      </trkpt>
      <trkpt lat="45.78635" lon="4.73542">
        <ele>287.73096</ele>
        <time>2023-07-26T14:22:37.000Z</time>
      </trkpt>
      <trkpt lat="45.78638" lon="4.73542">
        <ele>287.87909</ele>
        <time>2023-07-26T14:22:38.000Z</time>
      </trkpt>
      <trkpt lat="45.78642" lon="4.73542">
        <ele>288.03174</ele>
        <time>2023-07-26T14:22:39.000Z</time>
      </trkpt>
      <trkpt lat="45.78646" lon="4.73541">
        <ele>288.20917</ele>
        <time>2023-07-26T14:22:40.000Z</time>
      </trkpt>
      <trkpt lat="45.78649" lon="4.73541">
        <ele>288.37708</ele>
        <time>2023-07-26T14:22:41.000Z</time>
      </trkpt>
      <trkpt lat="45.78652" lon="4.7354">
        <ele>288.59222</ele>
        <time>2023-07-26T14:22:42.000Z</time>
      </trkpt>
      <trkpt lat="45.78656" lon="4.73541">
        <ele>288.81186</ele>
        <time>2023-07-26T14:22:43.000Z</time>
      </trkpt>
      <trkpt lat="45.7866" lon="4.73541">
        <ele>289.05966</ele>
        <time>2023-07-26T14:22:44.000Z</time>
      </trkpt>
      <trkpt lat="45.78662" lon="4.73541">
        <ele>289.3299</ele>
        <time>2023-07-26T14:22:45.000Z</time>
      </trkpt>
      <trkpt lat="45.78665" lon="4.73542">
        <ele>289.51285</ele>
        <time>2023-07-26T14:22:46.000Z</time>
      </trkpt>
      <trkpt lat="45.78668" lon="4.73543">
        <ele>289.71646</ele>
        <time>2023-07-26T14:22:47.000Z</time>
      </trkpt>
      <trkpt lat="45.78671" lon="4.73544">
        <ele>289.88275</ele>
        <time>2023-07-26T14:22:48.000Z</time>
      </trkpt>
      <trkpt lat="45.78674" lon="4.73544">
        <ele>290.08884</ele>
        <time>2023-07-26T14:22:49.000Z</time>
      </trkpt>
      <trkpt lat="45.78677" lon="4.73545">
        <ele>290.298</ele>
        <time>2023-07-26T14:22:50.000Z</time>
      </trkpt>
      <trkpt lat="45.7868" lon="4.73545">
        <ele>290.48666</ele>
        <time>2023-07-26T14:22:51.000Z</time>
      </trkpt>
      <trkpt lat="45.78684" lon="4.73546">
        <ele>290.67145</ele>
        <time>2023-07-26T14:22:52.000Z</time>
      </trkpt>
      <trkpt lat="45.78688" lon="4.73546">
        <ele>290.85464</ele>
        <time>2023-07-26T14:22:53.000Z</time>
      </trkpt>
      <trkpt lat="45.78693" lon="4.73546">
        <ele>291.0538</ele>
        <time>2023-07-26T14:22:54.000Z</time>
      </trkpt>
      <trkpt lat="45.78697" lon="4.73546">
        <ele>291.26248</ele>
        <time>2023-07-26T14:22:55.000Z</time>
      </trkpt>
      <trkpt lat="45.78701" lon="4.73545">
        <ele>291.4462</ele>
        <time>2023-07-26T14:22:56.000Z</time>
      </trkpt>
      <trkpt lat="45.78705" lon="4.73545">
        <ele>291.62433</ele>
        <time>2023-07-26T14:22:57.000Z</time>
      </trkpt>
      <trkpt lat="45.78708" lon="4.73544">
        <ele>291.89462</ele>
        <time>2023-07-26T14:22:58.000Z</time>
      </trkpt>
      <trkpt lat="45.78712" lon="4.73544">
        <ele>292.12201</ele>
        <time>2023-07-26T14:22:59.000Z</time>
      </trkpt>
      <trkpt lat="45.78716" lon="4.73544">
        <ele>292.29218</ele>
        <time>2023-07-26T14:23:00.000Z</time>
      </trkpt>
      <trkpt lat="45.78719" lon="4.73544">
        <ele>292.4473</ele>
        <time>2023-07-26T14:23:01.000Z</time>
      </trkpt>
      <trkpt lat="45.78722" lon="4.73544">
        <ele>292.49359</ele>
        <time>2023-07-26T14:23:02.000Z</time>
      </trkpt>
      <trkpt lat="45.78725" lon="4.73544">
        <ele>292.4693</ele>
        <time>2023-07-26T14:23:03.000Z</time>
      </trkpt>
      <trkpt lat="45.78729" lon="4.73544">
        <ele>292.41736</ele>
        <time>2023-07-26T14:23:04.000Z</time>
      </trkpt>
      <trkpt lat="45.78732" lon="4.73544">
        <ele>292.34695</ele>
        <time>2023-07-26T14:23:05.000Z</time>
      </trkpt>
      <trkpt lat="45.78735" lon="4.73543">
        <ele>292.39664</ele>
        <time>2023-07-26T14:23:06.000Z</time>
      </trkpt>
      <trkpt lat="45.78739" lon="4.73542">
        <ele>292.45297</ele>
        <time>2023-07-26T14:23:07.000Z</time>
      </trkpt>
      <trkpt lat="45.78743" lon="4.73541">
        <ele>292.53534</ele>
        <time>2023-07-26T14:23:08.000Z</time>
      </trkpt>
      <trkpt lat="45.78748" lon="4.7354">
        <ele>292.57166</ele>
        <time>2023-07-26T14:23:09.000Z</time>
      </trkpt>
      <trkpt lat="45.78752" lon="4.7354">
        <ele>292.58615</ele>
        <time>2023-07-26T14:23:10.000Z</time>
      </trkpt>
      <trkpt lat="45.78756" lon="4.73539">
        <ele>292.70294</ele>
        <time>2023-07-26T14:23:11.000Z</time>
      </trkpt>
      <trkpt lat="45.7876" lon="4.73538">
        <ele>292.83282</ele>
        <time>2023-07-26T14:23:12.000Z</time>
      </trkpt>
      <trkpt lat="45.78764" lon="4.73537">
        <ele>292.93454</ele>
        <time>2023-07-26T14:23:13.000Z</time>
      </trkpt>
      <trkpt lat="45.78768" lon="4.73535">
        <ele>293.42963</ele>
        <time>2023-07-26T14:23:14.000Z</time>
      </trkpt>
      <trkpt lat="45.78772" lon="4.73533">
        <ele>293.92111</ele>
        <time>2023-07-26T14:23:15.000Z</time>
      </trkpt>
      <trkpt lat="45.78776" lon="4.7353">
        <ele>294.46844</ele>
        <time>2023-07-26T14:23:16.000Z</time>
      </trkpt>
      <trkpt lat="45.78779" lon="4.73526">
        <ele>295.09076</ele>
        <time>2023-07-26T14:23:17.000Z</time>
      </trkpt>
      <trkpt lat="45.7878" lon="4.73521">
        <ele>295.62286</ele>
        <time>2023-07-26T14:23:18.000Z</time>
      </trkpt>
      <trkpt lat="45.78779" lon="4.73517">
        <ele>296.23273</ele>
        <time>2023-07-26T14:23:19.000Z</time>
      </trkpt>
      <trkpt lat="45.78771" lon="4.73517">
        <ele>296.86945</ele>
        <time>2023-07-26T14:23:20.000Z</time>
      </trkpt>
      <trkpt lat="45.78767" lon="4.73519">
        <ele>297.48969</ele>
        <time>2023-07-26T14:23:21.000Z</time>
      </trkpt>
      <trkpt lat="45.78762" lon="4.73522">
        <ele>298.12506</ele>
        <time>2023-07-26T14:23:22.000Z</time>
      </trkpt>
      <trkpt lat="45.78758" lon="4.73523">
        <ele>298.79614</ele>
        <time>2023-07-26T14:23:23.000Z</time>
      </trkpt>
      <trkpt lat="45.78755" lon="4.73525">
        <ele>299.46832</ele>
        <time>2023-07-26T14:23:24.000Z</time>
      </trkpt>
      <trkpt lat="45.78751" lon="4.73527">
        <ele>300.17422</ele>
        <time>2023-07-26T14:23:25.000Z</time>
      </trkpt>
      <trkpt lat="45.78746" lon="4.73528">
        <ele>300.89719</ele>
        <time>2023-07-26T14:23:26.000Z</time>
      </trkpt>
      <trkpt lat="45.78741" lon="4.73528">
        <ele>301.64233</ele>
        <time>2023-07-26T14:23:27.000Z</time>
      </trkpt>
      <trkpt lat="45.78737" lon="4.73529">
        <ele>301.7316</ele>
        <time>2023-07-26T14:23:28.000Z</time>
      </trkpt>
      <trkpt lat="45.78732" lon="4.73529">
        <ele>301.92151</ele>
        <time>2023-07-26T14:23:29.000Z</time>
      </trkpt>
      <trkpt lat="45.78727" lon="4.73527">
        <ele>302.15698</ele>
        <time>2023-07-26T14:23:30.000Z</time>
      </trkpt>
      <trkpt lat="45.78723" lon="4.73526">
        <ele>302.33734</ele>
        <time>2023-07-26T14:23:31.000Z</time>
      </trkpt>
      <trkpt lat="45.78719" lon="4.73525">
        <ele>302.54529</ele>
        <time>2023-07-26T14:23:32.000Z</time>
      </trkpt>
      <trkpt lat="45.78714" lon="4.73523">
        <ele>302.76242</ele>
        <time>2023-07-26T14:23:33.000Z</time>
      </trkpt>
      <trkpt lat="45.7871" lon="4.73521">
        <ele>302.62653</ele>
        <time>2023-07-26T14:23:34.000Z</time>
      </trkpt>
      <trkpt lat="45.78706" lon="4.73518">
        <ele>302.5202</ele>
        <time>2023-07-26T14:23:35.000Z</time>
      </trkpt>
      <trkpt lat="45.78701" lon="4.73516">
        <ele>302.36325</ele>
        <time>2023-07-26T14:23:36.000Z</time>
      </trkpt>
      <trkpt lat="45.78697" lon="4.73514">
        <ele>302.11002</ele>
        <time>2023-07-26T14:23:37.000Z</time>
      </trkpt>
      <trkpt lat="45.78693" lon="4.73511">
        <ele>301.88013</ele>
        <time>2023-07-26T14:23:38.000Z</time>
      </trkpt>
      <trkpt lat="45.78689" lon="4.73509">
        <ele>301.59329</ele>
        <time>2023-07-26T14:23:39.000Z</time>
      </trkpt>
      <trkpt lat="45.78685" lon="4.73507">
        <ele>301.30978</ele>
        <time>2023-07-26T14:23:40.000Z</time>
      </trkpt>
      <trkpt lat="45.78681" lon="4.73506">
        <ele>301.07678</ele>
        <time>2023-07-26T14:23:41.000Z</time>
      </trkpt>
      <trkpt lat="45.78677" lon="4.73503">
        <ele>300.89957</ele>
        <time>2023-07-26T14:23:42.000Z</time>
      </trkpt>
      <trkpt lat="45.78672" lon="4.73501">
        <ele>300.78024</ele>
        <time>2023-07-26T14:23:43.000Z</time>
      </trkpt>
      <trkpt lat="45.78668" lon="4.73499">
        <ele>300.64984</ele>
        <time>2023-07-26T14:23:44.000Z</time>
      </trkpt>
      <trkpt lat="45.78663" lon="4.73497">
        <ele>300.52148</ele>
        <time>2023-07-26T14:23:45.000Z</time>
      </trkpt>
      <trkpt lat="45.78659" lon="4.73495">
        <ele>300.3432</ele>
        <time>2023-07-26T14:23:46.000Z</time>
      </trkpt>
      <trkpt lat="45.78655" lon="4.73493">
        <ele>300.15616</ele>
        <time>2023-07-26T14:23:47.000Z</time>
      </trkpt>
      <trkpt lat="45.78651" lon="4.73491">
        <ele>300.65131</ele>
        <time>2023-07-26T14:23:48.000Z</time>
      </trkpt>
      <trkpt lat="45.78648" lon="4.73488">
        <ele>301.05695</ele>
        <time>2023-07-26T14:23:49.000Z</time>
      </trkpt>
      <trkpt lat="45.78644" lon="4.73485">
        <ele>301.68332</ele>
        <time>2023-07-26T14:23:50.000Z</time>
      </trkpt>
      <trkpt lat="45.78641" lon="4.73483">
        <ele>302.29129</ele>
        <time>2023-07-26T14:23:51.000Z</time>
      </trkpt>
      <trkpt lat="45.78638" lon="4.73477">
        <ele>302.80374</ele>
        <time>2023-07-26T14:23:52.000Z</time>
      </trkpt>
      <trkpt lat="45.78636" lon="4.73472">
        <ele>303.23163</ele>
        <time>2023-07-26T14:23:53.000Z</time>
      </trkpt>
      <trkpt lat="45.78635" lon="4.73466">
        <ele>303.56152</ele>
        <time>2023-07-26T14:23:54.000Z</time>
      </trkpt>
      <trkpt lat="45.78635" lon="4.73461">
        <ele>303.84872</ele>
        <time>2023-07-26T14:23:55.000Z</time>
      </trkpt>
      <trkpt lat="45.78637" lon="4.73456">
        <ele>304.11514</ele>
        <time>2023-07-26T14:23:56.000Z</time>
      </trkpt>
      <trkpt lat="45.7864" lon="4.73453">
        <ele>304.30231</ele>
        <time>2023-07-26T14:23:57.000Z</time>
      </trkpt>
      <trkpt lat="45.78643" lon="4.73448">
        <ele>304.42401</ele>
        <time>2023-07-26T14:23:58.000Z</time>
      </trkpt>
      <trkpt lat="45.78647" lon="4.73445">
        <ele>304.72742</ele>
        <time>2023-07-26T14:23:59.000Z</time>
      </trkpt>
      <trkpt lat="45.78649" lon="4.7344">
        <ele>305.02094</ele>
        <time>2023-07-26T14:24:00.000Z</time>
      </trkpt>
      <trkpt lat="45.78653" lon="4.73437">
        <ele>305.3237</ele>
        <time>2023-07-26T14:24:01.000Z</time>
      </trkpt>
      <trkpt lat="45.78656" lon="4.73434">
        <ele>305.64484</ele>
        <time>2023-07-26T14:24:02.000Z</time>
      </trkpt>
      <trkpt lat="45.7866" lon="4.73432">
        <ele>305.931</ele>
        <time>2023-07-26T14:24:03.000Z</time>
      </trkpt>
      <trkpt lat="45.78664" lon="4.73429">
        <ele>306.26758</ele>
        <time>2023-07-26T14:24:04.000Z</time>
      </trkpt>
      <trkpt lat="45.78667" lon="4.73427">
        <ele>306.55646</ele>
        <time>2023-07-26T14:24:05.000Z</time>
      </trkpt>
      <trkpt lat="45.78671" lon="4.73424">
        <ele>306.81012</ele>
        <time>2023-07-26T14:24:06.000Z</time>
      </trkpt>
      <trkpt lat="45.78675" lon="4.73422">
        <ele>307.00043</ele>
        <time>2023-07-26T14:24:07.000Z</time>
      </trkpt>
      <trkpt lat="45.78678" lon="4.73419">
        <ele>307.15961</ele>
        <time>2023-07-26T14:24:08.000Z</time>
      </trkpt>
      <trkpt lat="45.78683" lon="4.73415">
        <ele>307.30222</ele>
        <time>2023-07-26T14:24:09.000Z</time>
      </trkpt>
      <trkpt lat="45.78687" lon="4.73412">
        <ele>307.25494</ele>
        <time>2023-07-26T14:24:10.000Z</time>
      </trkpt>
      <trkpt lat="45.78691" lon="4.7341">
        <ele>307.20471</ele>
        <time>2023-07-26T14:24:11.000Z</time>
      </trkpt>
      <trkpt lat="45.78694" lon="4.73407">
        <ele>307.28549</ele>
        <time>2023-07-26T14:24:12.000Z</time>
      </trkpt>
      <trkpt lat="45.78699" lon="4.73406">
        <ele>307.47339</ele>
        <time>2023-07-26T14:24:13.000Z</time>
      </trkpt>
      <trkpt lat="45.78703" lon="4.73405">
        <ele>307.65549</ele>
        <time>2023-07-26T14:24:14.000Z</time>
      </trkpt>
      <trkpt lat="45.78707" lon="4.73402">
        <ele>307.88013</ele>
        <time>2023-07-26T14:24:15.000Z</time>
      </trkpt>
      <trkpt lat="45.78711" lon="4.73399">
        <ele>308.1297</ele>
        <time>2023-07-26T14:24:16.000Z</time>
      </trkpt>
      <trkpt lat="45.78715" lon="4.73397">
        <ele>308.45963</ele>
        <time>2023-07-26T14:24:17.000Z</time>
      </trkpt>
      <trkpt lat="45.78718" lon="4.73393">
        <ele>308.82635</ele>
        <time>2023-07-26T14:24:18.000Z</time>
      </trkpt>
      <trkpt lat="45.78722" lon="4.73389">
        <ele>309.03983</ele>
        <time>2023-07-26T14:24:19.000Z</time>
      </trkpt>
      <trkpt lat="45.78725" lon="4.73386">
        <ele>309.27643</ele>
        <time>2023-07-26T14:24:20.000Z</time>
      </trkpt>
      <trkpt lat="45.78728" lon="4.73383">
        <ele>309.49518</ele>
        <time>2023-07-26T14:24:21.000Z</time>
      </trkpt>
      <trkpt lat="45.78733" lon="4.73379">
        <ele>309.69705</ele>
        <time>2023-07-26T14:24:22.000Z</time>
      </trkpt>
      <trkpt lat="45.78738" lon="4.73376">
        <ele>309.90829</ele>
        <time>2023-07-26T14:24:23.000Z</time>
      </trkpt>
      <trkpt lat="45.78742" lon="4.73373">
        <ele>310.10336</ele>
        <time>2023-07-26T14:24:24.000Z</time>
      </trkpt>
      <trkpt lat="45.78746" lon="4.7337">
        <ele>310.29218</ele>
        <time>2023-07-26T14:24:25.000Z</time>
      </trkpt>
      <trkpt lat="45.78751" lon="4.73369">
        <ele>310.47552</ele>
        <time>2023-07-26T14:24:26.000Z</time>
      </trkpt>
      <trkpt lat="45.78755" lon="4.73366">
        <ele>310.68686</ele>
        <time>2023-07-26T14:24:27.000Z</time>
      </trkpt>
      <trkpt lat="45.78759" lon="4.73363">
        <ele>310.92892</ele>
        <time>2023-07-26T14:24:28.000Z</time>
      </trkpt>
      <trkpt lat="45.78764" lon="4.73359">
        <ele>311.19565</ele>
        <time>2023-07-26T14:24:29.000Z</time>
      </trkpt>
      <trkpt lat="45.78768" lon="4.73357">
        <ele>311.41006</ele>
        <time>2023-07-26T14:24:30.000Z</time>
      </trkpt>
      <trkpt lat="45.78772" lon="4.73353">
        <ele>311.63513</ele>
        <time>2023-07-26T14:24:31.000Z</time>
      </trkpt>
      <trkpt lat="45.78776" lon="4.7335">
        <ele>311.77475</ele>
        <time>2023-07-26T14:24:32.000Z</time>
      </trkpt>
      <trkpt lat="45.78781" lon="4.73348">
        <ele>311.88858</ele>
        <time>2023-07-26T14:24:33.000Z</time>
      </trkpt>
      <trkpt lat="45.78785" lon="4.73345">
        <ele>312.03784</ele>
        <time>2023-07-26T14:24:34.000Z</time>
      </trkpt>
      <trkpt lat="45.78788" lon="4.73342">
        <ele>312.12567</ele>
        <time>2023-07-26T14:24:35.000Z</time>
      </trkpt>
      <trkpt lat="45.7879" lon="4.73339">
        <ele>312.18246</ele>
        <time>2023-07-26T14:24:36.000Z</time>
      </trkpt>
      <trkpt lat="45.78794" lon="4.73336">
        <ele>312.20947</ele>
        <time>2023-07-26T14:24:37.000Z</time>
      </trkpt>
      <trkpt lat="45.78796" lon="4.73333">
        <ele>312.46786</ele>
        <time>2023-07-26T14:24:38.000Z</time>
      </trkpt>
      <trkpt lat="45.788" lon="4.73331">
        <ele>312.67761</ele>
        <time>2023-07-26T14:24:39.000Z</time>
      </trkpt>
      <trkpt lat="45.78803" lon="4.7333">
        <ele>312.88693</ele>
        <time>2023-07-26T14:24:40.000Z</time>
      </trkpt>
      <trkpt lat="45.78808" lon="4.73327">
        <ele>313.08667</ele>
        <time>2023-07-26T14:24:41.000Z</time>
      </trkpt>
      <trkpt lat="45.78812" lon="4.73324">
        <ele>313.25458</ele>
        <time>2023-07-26T14:24:42.000Z</time>
      </trkpt>
      <trkpt lat="45.78817" lon="4.73322">
        <ele>313.33054</ele>
        <time>2023-07-26T14:24:43.000Z</time>
      </trkpt>
      <trkpt lat="45.78821" lon="4.73321">
        <ele>313.35895</ele>
        <time>2023-07-26T14:24:44.000Z</time>
      </trkpt>
      <trkpt lat="45.78826" lon="4.73319">
        <ele>313.38971</ele>
        <time>2023-07-26T14:24:45.000Z</time>
      </trkpt>
      <trkpt lat="45.78832" lon="4.73317">
        <ele>313.41302</ele>
        <time>2023-07-26T14:24:46.000Z</time>
      </trkpt>
      <trkpt lat="45.78837" lon="4.73318">
        <ele>313.5079</ele>
        <time>2023-07-26T14:24:47.000Z</time>
      </trkpt>
      <trkpt lat="45.78843" lon="4.73318">
        <ele>313.53366</ele>
        <time>2023-07-26T14:24:48.000Z</time>
      </trkpt>
      <trkpt lat="45.7885" lon="4.73319">
        <ele>313.61749</ele>
        <time>2023-07-26T14:24:49.000Z</time>
      </trkpt>
      <trkpt lat="45.78858" lon="4.73324">
        <ele>313.5423</ele>
        <time>2023-07-26T14:24:50.000Z</time>
      </trkpt>
      <trkpt lat="45.78864" lon="4.73327">
        <ele>313.72711</ele>
        <time>2023-07-26T14:24:51.000Z</time>
      </trkpt>
      <trkpt lat="45.78872" lon="4.7333">
        <ele>313.89862</ele>
        <time>2023-07-26T14:24:52.000Z</time>
      </trkpt>
      <trkpt lat="45.78877" lon="4.73331">
        <ele>314.04266</ele>
        <time>2023-07-26T14:24:53.000Z</time>
      </trkpt>
      <trkpt lat="45.78885" lon="4.73333">
        <ele>314.18744</ele>
        <time>2023-07-26T14:24:54.000Z</time>
      </trkpt>
      <trkpt lat="45.78891" lon="4.73334">
        <ele>314.31638</ele>
        <time>2023-07-26T14:24:55.000Z</time>
      </trkpt>
      <trkpt lat="45.78898" lon="4.73333">
        <ele>314.44458</ele>
        <time>2023-07-26T14:24:56.000Z</time>
      </trkpt>
      <trkpt lat="45.78904" lon="4.73335">
        <ele>314.52069</ele>
        <time>2023-07-26T14:24:57.000Z</time>
      </trkpt>
      <trkpt lat="45.7891" lon="4.73337">
        <ele>314.39386</ele>
        <time>2023-07-26T14:24:58.000Z</time>
      </trkpt>
      <trkpt lat="45.78916" lon="4.7334">
        <ele>314.24982</ele>
        <time>2023-07-26T14:24:59.000Z</time>
      </trkpt>
      <trkpt lat="45.78921" lon="4.73341">
        <ele>314.07739</ele>
        <time>2023-07-26T14:25:00.000Z</time>
      </trkpt>
      <trkpt lat="45.78926" lon="4.73345">
        <ele>313.88199</ele>
        <time>2023-07-26T14:25:01.000Z</time>
      </trkpt>
      <trkpt lat="45.78931" lon="4.73347">
        <ele>313.66281</ele>
        <time>2023-07-26T14:25:02.000Z</time>
      </trkpt>
      <trkpt lat="45.78936" lon="4.73349">
        <ele>313.50937</ele>
        <time>2023-07-26T14:25:03.000Z</time>
      </trkpt>
      <trkpt lat="45.7894" lon="4.73349">
        <ele>313.38562</ele>
        <time>2023-07-26T14:25:04.000Z</time>
      </trkpt>
      <trkpt lat="45.78945" lon="4.73349">
        <ele>313.26526</ele>
        <time>2023-07-26T14:25:05.000Z</time>
      </trkpt>
      <trkpt lat="45.78949" lon="4.7335">
        <ele>313.19669</ele>
        <time>2023-07-26T14:25:06.000Z</time>
      </trkpt>
      <trkpt lat="45.78954" lon="4.73351">
        <ele>313.05112</ele>
        <time>2023-07-26T14:25:07.000Z</time>
      </trkpt>
      <trkpt lat="45.78959" lon="4.73353">
        <ele>312.9343</ele>
        <time>2023-07-26T14:25:08.000Z</time>
      </trkpt>
      <trkpt lat="45.78963" lon="4.73355">
        <ele>312.74707</ele>
        <time>2023-07-26T14:25:09.000Z</time>
      </trkpt>
      <trkpt lat="45.78967" lon="4.73357">
        <ele>312.71524</ele>
        <time>2023-07-26T14:25:10.000Z</time>
      </trkpt>
      <trkpt lat="45.78972" lon="4.73359">
        <ele>312.45132</ele>
        <time>2023-07-26T14:25:11.000Z</time>
      </trkpt>
      <trkpt lat="45.78976" lon="4.73362">
        <ele>312.16388</ele>
        <time>2023-07-26T14:25:12.000Z</time>
      </trkpt>
      <trkpt lat="45.78981" lon="4.73364">
        <ele>311.94852</ele>
        <time>2023-07-26T14:25:13.000Z</time>
      </trkpt>
      <trkpt lat="45.78985" lon="4.73367">
        <ele>311.73663</ele>
        <time>2023-07-26T14:25:14.000Z</time>
      </trkpt>
      <trkpt lat="45.78991" lon="4.73367">
        <ele>311.60321</ele>
        <time>2023-07-26T14:25:15.000Z</time>
      </trkpt>
      <trkpt lat="45.78996" lon="4.7337">
        <ele>311.47342</ele>
        <time>2023-07-26T14:25:16.000Z</time>
      </trkpt>
      <trkpt lat="45.79001" lon="4.73371">
        <ele>311.44092</ele>
        <time>2023-07-26T14:25:17.000Z</time>
      </trkpt>
      <trkpt lat="45.79005" lon="4.73372">
        <ele>311.37311</ele>
        <time>2023-07-26T14:25:18.000Z</time>
      </trkpt>
      <trkpt lat="45.79009" lon="4.73373">
        <ele>311.34534</ele>
        <time>2023-07-26T14:25:19.000Z</time>
      </trkpt>
      <trkpt lat="45.79012" lon="4.73376">
        <ele>311.36826</ele>
        <time>2023-07-26T14:25:20.000Z</time>
      </trkpt>
      <trkpt lat="45.79016" lon="4.73378">
        <ele>311.45499</ele>
        <time>2023-07-26T14:25:21.000Z</time>
      </trkpt>
      <trkpt lat="45.79021" lon="4.73379">
        <ele>311.51056</ele>
        <time>2023-07-26T14:25:22.000Z</time>
      </trkpt>
      <trkpt lat="45.79026" lon="4.73379">
        <ele>311.63693</ele>
        <time>2023-07-26T14:25:23.000Z</time>
      </trkpt>
      <trkpt lat="45.79031" lon="4.73379">
        <ele>311.80225</ele>
        <time>2023-07-26T14:25:24.000Z</time>
      </trkpt>
      <trkpt lat="45.79034" lon="4.73379">
        <ele>311.98309</ele>
        <time>2023-07-26T14:25:25.000Z</time>
      </trkpt>
      <trkpt lat="45.79039" lon="4.7338">
        <ele>312.14789</ele>
        <time>2023-07-26T14:25:26.000Z</time>
      </trkpt>
      <trkpt lat="45.79043" lon="4.73382">
        <ele>312.32962</ele>
        <time>2023-07-26T14:25:27.000Z</time>
      </trkpt>
      <trkpt lat="45.79047" lon="4.73382">
        <ele>312.4953</ele>
        <time>2023-07-26T14:25:28.000Z</time>
      </trkpt>
      <trkpt lat="45.79051" lon="4.73384">
        <ele>312.69153</ele>
        <time>2023-07-26T14:25:29.000Z</time>
      </trkpt>
      <trkpt lat="45.79055" lon="4.73385">
        <ele>312.88519</ele>
        <time>2023-07-26T14:25:30.000Z</time>
      </trkpt>
      <trkpt lat="45.79058" lon="4.73386">
        <ele>313.06918</ele>
        <time>2023-07-26T14:25:31.000Z</time>
      </trkpt>
      <trkpt lat="45.79062" lon="4.73387">
        <ele>313.345</ele>
        <time>2023-07-26T14:25:32.000Z</time>
      </trkpt>
      <trkpt lat="45.79065" lon="4.73388">
        <ele>313.58948</ele>
        <time>2023-07-26T14:25:33.000Z</time>
      </trkpt>
      <trkpt lat="45.79068" lon="4.73389">
        <ele>313.80707</ele>
        <time>2023-07-26T14:25:34.000Z</time>
      </trkpt>
      <trkpt lat="45.79072" lon="4.7339">
        <ele>313.99161</ele>
        <time>2023-07-26T14:25:35.000Z</time>
      </trkpt>
      <trkpt lat="45.79075" lon="4.7339">
        <ele>314.19931</ele>
        <time>2023-07-26T14:25:36.000Z</time>
      </trkpt>
      <trkpt lat="45.79078" lon="4.73391">
        <ele>314.41293</ele>
        <time>2023-07-26T14:25:37.000Z</time>
      </trkpt>
      <trkpt lat="45.79082" lon="4.73391">
        <ele>314.63638</ele>
        <time>2023-07-26T14:25:38.000Z</time>
      </trkpt>
      <trkpt lat="45.79085" lon="4.73392">
        <ele>314.90674</ele>
        <time>2023-07-26T14:25:39.000Z</time>
      </trkpt>
      <trkpt lat="45.79089" lon="4.73392">
        <ele>315.14539</ele>
        <time>2023-07-26T14:25:40.000Z</time>
      </trkpt>
      <trkpt lat="45.79092" lon="4.73393">
        <ele>315.34702</ele>
        <time>2023-07-26T14:25:41.000Z</time>
      </trkpt>
      <trkpt lat="45.79095" lon="4.73394">
        <ele>315.6445</ele>
        <time>2023-07-26T14:25:42.000Z</time>
      </trkpt>
      <trkpt lat="45.79098" lon="4.73395">
        <ele>315.89532</ele>
        <time>2023-07-26T14:25:43.000Z</time>
      </trkpt>
      <trkpt lat="45.791" lon="4.73396">
        <ele>316.04153</ele>
        <time>2023-07-26T14:25:44.000Z</time>
      </trkpt>
      <trkpt lat="45.79104" lon="4.73398">
        <ele>316.17923</ele>
        <time>2023-07-26T14:25:45.000Z</time>
      </trkpt>
      <trkpt lat="45.79107" lon="4.73399">
        <ele>316.30402</ele>
        <time>2023-07-26T14:25:46.000Z</time>
      </trkpt>
      <trkpt lat="45.7911" lon="4.734">
        <ele>316.45016</ele>
        <time>2023-07-26T14:25:47.000Z</time>
      </trkpt>
      <trkpt lat="45.79114" lon="4.734">
        <ele>316.64594</ele>
        <time>2023-07-26T14:25:48.000Z</time>
      </trkpt>
      <trkpt lat="45.79118" lon="4.73401">
        <ele>316.78781</ele>
        <time>2023-07-26T14:25:49.000Z</time>
      </trkpt>
      <trkpt lat="45.79121" lon="4.73401">
        <ele>316.93002</ele>
        <time>2023-07-26T14:25:50.000Z</time>
      </trkpt>
      <trkpt lat="45.79124" lon="4.73401">
        <ele>316.98956</ele>
        <time>2023-07-26T14:25:51.000Z</time>
      </trkpt>
      <trkpt lat="45.79127" lon="4.73402">
        <ele>316.93658</ele>
        <time>2023-07-26T14:25:52.000Z</time>
      </trkpt>
      <trkpt lat="45.7913" lon="4.73402">
        <ele>316.89899</ele>
        <time>2023-07-26T14:25:53.000Z</time>
      </trkpt>
      <trkpt lat="45.79133" lon="4.73401">
        <ele>316.90378</ele>
        <time>2023-07-26T14:25:54.000Z</time>
      </trkpt>
      <trkpt lat="45.79136" lon="4.734">
        <ele>316.92007</ele>
        <time>2023-07-26T14:25:55.000Z</time>
      </trkpt>
      <trkpt lat="45.79138" lon="4.73399">
        <ele>316.88751</ele>
        <time>2023-07-26T14:25:56.000Z</time>
      </trkpt>
      <trkpt lat="45.79141" lon="4.73399">
        <ele>316.88242</ele>
        <time>2023-07-26T14:25:57.000Z</time>
      </trkpt>
      <trkpt lat="45.79143" lon="4.73398">
        <ele>316.91046</ele>
        <time>2023-07-26T14:25:58.000Z</time>
      </trkpt>
      <trkpt lat="45.79145" lon="4.73395">
        <ele>316.94482</ele>
        <time>2023-07-26T14:26:00.000Z</time>
      </trkpt>
      <trkpt lat="45.79146" lon="4.73393">
        <ele>316.90775</ele>
        <time>2023-07-26T14:26:12.000Z</time>
      </trkpt>
      <trkpt lat="45.79147" lon="4.7339">
        <ele>316.86124</ele>
        <time>2023-07-26T14:26:29.000Z</time>
      </trkpt>
      <trkpt lat="45.79149" lon="4.73391">
        <ele>316.73795</ele>
        <time>2023-07-26T14:26:30.000Z</time>
      </trkpt>
      <trkpt lat="45.79151" lon="4.73392">
        <ele>316.61423</ele>
        <time>2023-07-26T14:26:31.000Z</time>
      </trkpt>
      <trkpt lat="45.79153" lon="4.73396">
        <ele>316.53195</ele>
        <time>2023-07-26T14:26:33.000Z</time>
      </trkpt>
      <trkpt lat="45.79155" lon="4.73397">
        <ele>316.47672</ele>
        <time>2023-07-26T14:26:34.000Z</time>
      </trkpt>
      <trkpt lat="45.79157" lon="4.73398">
        <ele>316.45224</ele>
        <time>2023-07-26T14:26:35.000Z</time>
      </trkpt>
      <trkpt lat="45.79159" lon="4.73398">
        <ele>316.36615</ele>
        <time>2023-07-26T14:26:36.000Z</time>
      </trkpt>
      <trkpt lat="45.79161" lon="4.73398">
        <ele>316.26251</ele>
        <time>2023-07-26T14:26:37.000Z</time>
      </trkpt>
      <trkpt lat="45.79163" lon="4.73396">
        <ele>316.18451</ele>
        <time>2023-07-26T14:26:38.000Z</time>
      </trkpt>
      <trkpt lat="45.79165" lon="4.73394">
        <ele>316.10748</ele>
        <time>2023-07-26T14:26:39.000Z</time>
      </trkpt>
      <trkpt lat="45.79167" lon="4.73392">
        <ele>316.08463</ele>
        <time>2023-07-26T14:26:40.000Z</time>
      </trkpt>
      <trkpt lat="45.79169" lon="4.7339">
        <ele>316.16418</ele>
        <time>2023-07-26T14:26:42.000Z</time>
      </trkpt>
      <trkpt lat="45.79171" lon="4.73387">
        <ele>316.21265</ele>
        <time>2023-07-26T14:26:44.000Z</time>
      </trkpt>
      <trkpt lat="45.79175" lon="4.73384">
        <ele>316.26834</ele>
        <time>2023-07-26T14:26:46.000Z</time>
      </trkpt>
      <trkpt lat="45.79177" lon="4.73383">
        <ele>316.28177</ele>
        <time>2023-07-26T14:26:47.000Z</time>
      </trkpt>
      <trkpt lat="45.79179" lon="4.73381">
        <ele>316.32568</ele>
        <time>2023-07-26T14:26:48.000Z</time>
      </trkpt>
      <trkpt lat="45.79182" lon="4.73379">
        <ele>316.3353</ele>
        <time>2023-07-26T14:26:49.000Z</time>
      </trkpt>
      <trkpt lat="45.79185" lon="4.73377">
        <ele>316.25583</ele>
        <time>2023-07-26T14:26:50.000Z</time>
      </trkpt>
      <trkpt lat="45.79188" lon="4.73375">
        <ele>316.13</ele>
        <time>2023-07-26T14:26:51.000Z</time>
      </trkpt>
      <trkpt lat="45.79192" lon="4.73372">
        <ele>316.0686</ele>
        <time>2023-07-26T14:26:52.000Z</time>
      </trkpt>
      <trkpt lat="45.79195" lon="4.73369">
        <ele>316.02194</ele>
        <time>2023-07-26T14:26:53.000Z</time>
      </trkpt>
      <trkpt lat="45.79199" lon="4.73366">
        <ele>315.93051</ele>
        <time>2023-07-26T14:26:54.000Z</time>
      </trkpt>
      <trkpt lat="45.79202" lon="4.73364">
        <ele>315.85648</ele>
        <time>2023-07-26T14:26:55.000Z</time>
      </trkpt>
      <trkpt lat="45.79206" lon="4.73362">
        <ele>315.81476</ele>
        <time>2023-07-26T14:26:56.000Z</time>
      </trkpt>
      <trkpt lat="45.7921" lon="4.7336">
        <ele>315.74661</ele>
        <time>2023-07-26T14:26:57.000Z</time>
      </trkpt>
      <trkpt lat="45.79213" lon="4.73359">
        <ele>315.66434</ele>
        <time>2023-07-26T14:26:58.000Z</time>
      </trkpt>
      <trkpt lat="45.79217" lon="4.73357">
        <ele>315.64642</ele>
        <time>2023-07-26T14:26:59.000Z</time>
      </trkpt>
      <trkpt lat="45.7922" lon="4.73356">
        <ele>315.63553</ele>
        <time>2023-07-26T14:27:00.000Z</time>
      </trkpt>
      <trkpt lat="45.79224" lon="4.73354">
        <ele>315.65942</ele>
        <time>2023-07-26T14:27:01.000Z</time>
      </trkpt>
      <trkpt lat="45.79227" lon="4.73353">
        <ele>315.66138</ele>
        <time>2023-07-26T14:27:02.000Z</time>
      </trkpt>
      <trkpt lat="45.7923" lon="4.73353">
        <ele>315.69919</ele>
        <time>2023-07-26T14:27:03.000Z</time>
      </trkpt>
      <trkpt lat="45.79234" lon="4.73353">
        <ele>315.69183</ele>
        <time>2023-07-26T14:27:04.000Z</time>
      </trkpt>
      <trkpt lat="45.79236" lon="4.73353">
        <ele>315.75555</ele>
        <time>2023-07-26T14:27:05.000Z</time>
      </trkpt>
      <trkpt lat="45.79239" lon="4.73353">
        <ele>315.82092</ele>
        <time>2023-07-26T14:27:06.000Z</time>
      </trkpt>
      <trkpt lat="45.79242" lon="4.73353">
        <ele>315.92596</ele>
        <time>2023-07-26T14:27:07.000Z</time>
      </trkpt>
      <trkpt lat="45.79247" lon="4.73352">
        <ele>316.02191</ele>
        <time>2023-07-26T14:27:08.000Z</time>
      </trkpt>
      <trkpt lat="45.7925" lon="4.73352">
        <ele>316.07462</ele>
        <time>2023-07-26T14:27:09.000Z</time>
      </trkpt>
      <trkpt lat="45.79253" lon="4.73351">
        <ele>316.19785</ele>
        <time>2023-07-26T14:27:10.000Z</time>
      </trkpt>
      <trkpt lat="45.79256" lon="4.73351">
        <ele>316.3168</ele>
        <time>2023-07-26T14:27:11.000Z</time>
      </trkpt>
      <trkpt lat="45.79259" lon="4.7335">
        <ele>316.46365</ele>
        <time>2023-07-26T14:27:12.000Z</time>
      </trkpt>
      <trkpt lat="45.79263" lon="4.7335">
        <ele>316.64664</ele>
        <time>2023-07-26T14:27:13.000Z</time>
      </trkpt>
      <trkpt lat="45.79266" lon="4.73349">
        <ele>316.91354</ele>
        <time>2023-07-26T14:27:14.000Z</time>
      </trkpt>
      <trkpt lat="45.79269" lon="4.73349">
        <ele>317.14542</ele>
        <time>2023-07-26T14:27:15.000Z</time>
      </trkpt>
      <trkpt lat="45.79272" lon="4.73349">
        <ele>317.3851</ele>
        <time>2023-07-26T14:27:16.000Z</time>
      </trkpt>
      <trkpt lat="45.79274" lon="4.73349">
        <ele>317.63348</ele>
        <time>2023-07-26T14:27:17.000Z</time>
      </trkpt>
      <trkpt lat="45.79277" lon="4.7335">
        <ele>317.77753</ele>
        <time>2023-07-26T14:27:18.000Z</time>
      </trkpt>
      <trkpt lat="45.79281" lon="4.7335">
        <ele>317.89496</ele>
        <time>2023-07-26T14:27:19.000Z</time>
      </trkpt>
      <trkpt lat="45.79285" lon="4.73349">
        <ele>318.00784</ele>
        <time>2023-07-26T14:27:20.000Z</time>
      </trkpt>
      <trkpt lat="45.79289" lon="4.73349">
        <ele>318.08752</ele>
        <time>2023-07-26T14:27:21.000Z</time>
      </trkpt>
      <trkpt lat="45.79294" lon="4.73348">
        <ele>318.20047</ele>
        <time>2023-07-26T14:27:22.000Z</time>
      </trkpt>
      <trkpt lat="45.79298" lon="4.73348">
        <ele>319.81332</ele>
        <time>2023-07-26T14:27:23.000Z</time>
      </trkpt>
      <trkpt lat="45.79302" lon="4.73348">
        <ele>319.98032</ele>
        <time>2023-07-26T14:27:24.000Z</time>
      </trkpt>
      <trkpt lat="45.79307" lon="4.73348">
        <ele>321.58969</ele>
        <time>2023-07-26T14:27:25.000Z</time>
      </trkpt>
      <trkpt lat="45.79311" lon="4.73348">
        <ele>323.24655</ele>
        <time>2023-07-26T14:27:26.000Z</time>
      </trkpt>
      <trkpt lat="45.79315" lon="4.73347">
        <ele>324.34402</ele>
        <time>2023-07-26T14:27:27.000Z</time>
      </trkpt>
      <trkpt lat="45.79319" lon="4.73347">
        <ele>325.50351</ele>
        <time>2023-07-26T14:27:28.000Z</time>
      </trkpt>
      <trkpt lat="45.79322" lon="4.73346">
        <ele>326.72354</ele>
        <time>2023-07-26T14:27:29.000Z</time>
      </trkpt>
      <trkpt lat="45.79326" lon="4.73347">
        <ele>328.03949</ele>
        <time>2023-07-26T14:27:30.000Z</time>
      </trkpt>
      <trkpt lat="45.7933" lon="4.73347">
        <ele>329.35162</ele>
        <time>2023-07-26T14:27:31.000Z</time>
      </trkpt>
      <trkpt lat="45.79333" lon="4.73347">
        <ele>330.63589</ele>
        <time>2023-07-26T14:27:32.000Z</time>
      </trkpt>
      <trkpt lat="45.79337" lon="4.73347">
        <ele>331.8833</ele>
        <time>2023-07-26T14:27:33.000Z</time>
      </trkpt>
      <trkpt lat="45.79341" lon="4.73346">
        <ele>333.22623</ele>
        <time>2023-07-26T14:27:34.000Z</time>
      </trkpt>
      <trkpt lat="45.79344" lon="4.73344">
        <ele>334.55618</ele>
        <time>2023-07-26T14:27:35.000Z</time>
      </trkpt>
      <trkpt lat="45.79347" lon="4.73343">
        <ele>335.78397</ele>
        <time>2023-07-26T14:27:36.000Z</time>
      </trkpt>
      <trkpt lat="45.7935" lon="4.73342">
        <ele>337.03543</ele>
        <time>2023-07-26T14:27:37.000Z</time>
      </trkpt>
      <trkpt lat="45.79352" lon="4.73342">
        <ele>338.53012</ele>
        <time>2023-07-26T14:27:38.000Z</time>
      </trkpt>
      <trkpt lat="45.79355" lon="4.73341">
        <ele>340.07794</ele>
        <time>2023-07-26T14:27:39.000Z</time>
      </trkpt>
      <trkpt lat="45.79359" lon="4.7334">
        <ele>341.54156</ele>
        <time>2023-07-26T14:27:40.000Z</time>
      </trkpt>
      <trkpt lat="45.79363" lon="4.73339">
        <ele>342.94888</ele>
        <time>2023-07-26T14:27:41.000Z</time>
      </trkpt>
      <trkpt lat="45.79366" lon="4.73338">
        <ele>344.33829</ele>
        <time>2023-07-26T14:27:42.000Z</time>
      </trkpt>
      <trkpt lat="45.79369" lon="4.73337">
        <ele>344.15668</ele>
        <time>2023-07-26T14:27:43.000Z</time>
      </trkpt>
      <trkpt lat="45.79372" lon="4.73337">
        <ele>345.40204</ele>
        <time>2023-07-26T14:27:44.000Z</time>
      </trkpt>
      <trkpt lat="45.79375" lon="4.73337">
        <ele>344.23721</ele>
        <time>2023-07-26T14:27:45.000Z</time>
      </trkpt>
      <trkpt lat="45.79377" lon="4.73337">
        <ele>342.99152</ele>
        <time>2023-07-26T14:27:46.000Z</time>
      </trkpt>
      <trkpt lat="45.7938" lon="4.73337">
        <ele>342.30179</ele>
        <time>2023-07-26T14:27:48.000Z</time>
      </trkpt>
      <trkpt lat="45.79382" lon="4.73337">
        <ele>341.5694</ele>
        <time>2023-07-26T14:27:49.000Z</time>
      </trkpt>
      <trkpt lat="45.79385" lon="4.73336">
        <ele>340.84018</ele>
        <time>2023-07-26T14:27:50.000Z</time>
      </trkpt>
      <trkpt lat="45.79388" lon="4.73335">
        <ele>340.01465</ele>
        <time>2023-07-26T14:27:51.000Z</time>
      </trkpt>
      <trkpt lat="45.79391" lon="4.73335">
        <ele>339.19608</ele>
        <time>2023-07-26T14:27:52.000Z</time>
      </trkpt>
      <trkpt lat="45.79394" lon="4.73335">
        <ele>338.37625</ele>
        <time>2023-07-26T14:27:53.000Z</time>
      </trkpt>
      <trkpt lat="45.79398" lon="4.73335">
        <ele>337.52728</ele>
        <time>2023-07-26T14:27:54.000Z</time>
      </trkpt>
      <trkpt lat="45.79402" lon="4.73336">
        <ele>336.53574</ele>
        <time>2023-07-26T14:27:55.000Z</time>
      </trkpt>
      <trkpt lat="45.79407" lon="4.73336">
        <ele>335.50995</ele>
        <time>2023-07-26T14:27:56.000Z</time>
      </trkpt>
      <trkpt lat="45.79412" lon="4.73335">
        <ele>334.59589</ele>
        <time>2023-07-26T14:27:57.000Z</time>
      </trkpt>
      <trkpt lat="45.79417" lon="4.73335">
        <ele>333.66425</ele>
        <time>2023-07-26T14:27:58.000Z</time>
      </trkpt>
      <trkpt lat="45.79422" lon="4.73334">
        <ele>332.62622</ele>
        <time>2023-07-26T14:27:59.000Z</time>
      </trkpt>
      <trkpt lat="45.79427" lon="4.73334">
        <ele>331.5401</ele>
        <time>2023-07-26T14:28:00.000Z</time>
      </trkpt>
      <trkpt lat="45.79431" lon="4.73333">
        <ele>330.57159</ele>
        <time>2023-07-26T14:28:01.000Z</time>
      </trkpt>
      <trkpt lat="45.79435" lon="4.73332">
        <ele>329.59711</ele>
        <time>2023-07-26T14:28:02.000Z</time>
      </trkpt>
      <trkpt lat="45.79438" lon="4.73331">
        <ele>328.67938</ele>
        <time>2023-07-26T14:28:03.000Z</time>
      </trkpt>
      <trkpt lat="45.79442" lon="4.73331">
        <ele>327.82254</ele>
        <time>2023-07-26T14:28:04.000Z</time>
      </trkpt>
      <trkpt lat="45.79445" lon="4.73331">
        <ele>326.84293</ele>
        <time>2023-07-26T14:28:05.000Z</time>
      </trkpt>
      <trkpt lat="45.79448" lon="4.73332">
        <ele>326.81012</ele>
        <time>2023-07-26T14:28:06.000Z</time>
      </trkpt>
      <trkpt lat="45.79451" lon="4.73332">
        <ele>326.80551</ele>
        <time>2023-07-26T14:28:07.000Z</time>
      </trkpt>
      <trkpt lat="45.79453" lon="4.73333">
        <ele>326.79462</ele>
        <time>2023-07-26T14:28:08.000Z</time>
      </trkpt>
      <trkpt lat="45.79456" lon="4.73333">
        <ele>326.78937</ele>
        <time>2023-07-26T14:28:09.000Z</time>
      </trkpt>
      <trkpt lat="45.79457" lon="4.73336">
        <ele>326.65631</ele>
        <time>2023-07-26T14:28:10.000Z</time>
      </trkpt>
      <trkpt lat="45.7946" lon="4.73337">
        <ele>326.52841</ele>
        <time>2023-07-26T14:28:11.000Z</time>
      </trkpt>
      <trkpt lat="45.79463" lon="4.73336">
        <ele>326.48407</ele>
        <time>2023-07-26T14:28:12.000Z</time>
      </trkpt>
      <trkpt lat="45.79465" lon="4.73336">
        <ele>326.45892</ele>
        <time>2023-07-26T14:28:13.000Z</time>
      </trkpt>
      <trkpt lat="45.79468" lon="4.73336">
        <ele>326.44846</ele>
        <time>2023-07-26T14:28:14.000Z</time>
      </trkpt>
      <trkpt lat="45.7947" lon="4.73337">
        <ele>326.49084</ele>
        <time>2023-07-26T14:28:17.000Z</time>
      </trkpt>
      <trkpt lat="45.79472" lon="4.73337">
        <ele>327.68768</ele>
        <time>2023-07-26T14:29:32.000Z</time>
      </trkpt>
      <trkpt lat="45.79474" lon="4.73335">
        <ele>328.81464</ele>
        <time>2023-07-26T14:29:35.000Z</time>
      </trkpt>
      <trkpt lat="45.79477" lon="4.73336">
        <ele>329.9826</ele>
        <time>2023-07-26T14:29:38.000Z</time>
      </trkpt>
      <trkpt lat="45.79478" lon="4.73337">
        <ele>330.85669</ele>
        <time>2023-07-26T14:30:43.000Z</time>
      </trkpt>
      <trkpt lat="45.7948" lon="4.73336">
        <ele>331.71997</ele>
        <time>2023-07-26T14:30:44.000Z</time>
      </trkpt>
      <trkpt lat="45.79482" lon="4.73336">
        <ele>332.54819</ele>
        <time>2023-07-26T14:30:45.000Z</time>
      </trkpt>
      <trkpt lat="45.79486" lon="4.73334">
        <ele>333.41922</ele>
        <time>2023-07-26T14:30:47.000Z</time>
      </trkpt>
      <trkpt lat="45.79487" lon="4.73334">
        <ele>334.22772</ele>
        <time>2023-07-26T14:30:48.000Z</time>
      </trkpt>
      <trkpt lat="45.7949" lon="4.73334">
        <ele>335.26038</ele>
        <time>2023-07-26T14:30:50.000Z</time>
      </trkpt>
      <trkpt lat="45.79492" lon="4.73334">
        <ele>336.4942</ele>
        <time>2023-07-26T14:30:51.000Z</time>
      </trkpt>
      <trkpt lat="45.79494" lon="4.73334">
        <ele>337.79346</ele>
        <time>2023-07-26T14:30:52.000Z</time>
      </trkpt>
      <trkpt lat="45.79496" lon="4.73334">
        <ele>338.66235</ele>
        <time>2023-07-26T14:30:53.000Z</time>
      </trkpt>
      <trkpt lat="45.79498" lon="4.73335">
        <ele>339.61169</ele>
        <time>2023-07-26T14:30:54.000Z</time>
      </trkpt>
      <trkpt lat="45.795" lon="4.73335">
        <ele>340.50266</ele>
        <time>2023-07-26T14:30:55.000Z</time>
      </trkpt>
      <trkpt lat="45.79502" lon="4.73336">
        <ele>341.46088</ele>
        <time>2023-07-26T14:30:56.000Z</time>
      </trkpt>
      <trkpt lat="45.79505" lon="4.73337">
        <ele>342.41156</ele>
        <time>2023-07-26T14:30:58.000Z</time>
      </trkpt>
      <trkpt lat="45.79507" lon="4.73338">
        <ele>343.31284</ele>
        <time>2023-07-26T14:31:00.000Z</time>
      </trkpt>
      <trkpt lat="45.79509" lon="4.7334">
        <ele>344.50436</ele>
        <time>2023-07-26T14:31:01.000Z</time>
      </trkpt>
      <trkpt lat="45.79511" lon="4.73342">
        <ele>345.73468</ele>
        <time>2023-07-26T14:31:02.000Z</time>
      </trkpt>
      <trkpt lat="45.79512" lon="4.73343">
        <ele>346.89325</ele>
        <time>2023-07-26T14:31:03.000Z</time>
      </trkpt>
      <trkpt lat="45.79514" lon="4.73345">
        <ele>346.97638</ele>
        <time>2023-07-26T14:31:04.000Z</time>
      </trkpt>
      <trkpt lat="45.79516" lon="4.73346">
        <ele>346.95856</ele>
        <time>2023-07-26T14:31:05.000Z</time>
      </trkpt>
      <trkpt lat="45.79517" lon="4.73349">
        <ele>346.8775</ele>
        <time>2023-07-26T14:31:06.000Z</time>
      </trkpt>
      <trkpt lat="45.79517" lon="4.73351">
        <ele>347.18002</ele>
        <time>2023-07-26T14:31:07.000Z</time>
      </trkpt>
      <trkpt lat="45.79517" lon="4.73354">
        <ele>347.54333</ele>
        <time>2023-07-26T14:31:08.000Z</time>
      </trkpt>
      <trkpt lat="45.79518" lon="4.73357">
        <ele>347.42099</ele>
        <time>2023-07-26T14:31:09.000Z</time>
      </trkpt>
      <trkpt lat="45.79518" lon="4.7336">
        <ele>347.39395</ele>
        <time>2023-07-26T14:31:10.000Z</time>
      </trkpt>
      <trkpt lat="45.79519" lon="4.73362">
        <ele>347.53815</ele>
        <time>2023-07-26T14:31:11.000Z</time>
      </trkpt>
      <trkpt lat="45.7952" lon="4.73366">
        <ele>347.35983</ele>
        <time>2023-07-26T14:31:13.000Z</time>
      </trkpt>
      <trkpt lat="45.79523" lon="4.73368">
        <ele>347.10547</ele>
        <time>2023-07-26T14:31:15.000Z</time>
      </trkpt>
      <trkpt lat="45.79525" lon="4.73369">
        <ele>346.73428</ele>
        <time>2023-07-26T14:31:16.000Z</time>
      </trkpt>
      <trkpt lat="45.79528" lon="4.7337">
        <ele>346.85651</ele>
        <time>2023-07-26T14:31:18.000Z</time>
      </trkpt>
      <trkpt lat="45.79529" lon="4.73373">
        <ele>346.82852</ele>
        <time>2023-07-26T14:31:20.000Z</time>
      </trkpt>
      <trkpt lat="45.79532" lon="4.73375">
        <ele>346.74371</ele>
        <time>2023-07-26T14:31:22.000Z</time>
      </trkpt>
      <trkpt lat="45.79534" lon="4.73375">
        <ele>346.74652</ele>
        <time>2023-07-26T14:31:23.000Z</time>
      </trkpt>
      <trkpt lat="45.79536" lon="4.73376">
        <ele>346.77512</ele>
        <time>2023-07-26T14:31:24.000Z</time>
      </trkpt>
      <trkpt lat="45.7954" lon="4.73376">
        <ele>346.8671</ele>
        <time>2023-07-26T14:31:26.000Z</time>
      </trkpt>
      <trkpt lat="45.79542" lon="4.73377">
        <ele>346.66025</ele>
        <time>2023-07-26T14:31:27.000Z</time>
      </trkpt>
      <trkpt lat="45.79545" lon="4.73379">
        <ele>346.36438</ele>
        <time>2023-07-26T14:31:29.000Z</time>
      </trkpt>
      <trkpt lat="45.79546" lon="4.73381">
        <ele>346.1817</ele>
        <time>2023-07-26T14:31:30.000Z</time>
      </trkpt>
      <trkpt lat="45.79548" lon="4.73383">
        <ele>346.10272</ele>
        <time>2023-07-26T14:31:31.000Z</time>
      </trkpt>
      <trkpt lat="45.7955" lon="4.73385">
        <ele>346.10275</ele>
        <time>2023-07-26T14:31:32.000Z</time>
      </trkpt>
      <trkpt lat="45.79552" lon="4.73386">
        <ele>346.04706</ele>
        <time>2023-07-26T14:31:33.000Z</time>
      </trkpt>
      <trkpt lat="45.79554" lon="4.73388">
        <ele>345.81897</ele>
        <time>2023-07-26T14:31:34.000Z</time>
      </trkpt>
      <trkpt lat="45.79556" lon="4.7339">
        <ele>345.54166</ele>
        <time>2023-07-26T14:31:35.000Z</time>
      </trkpt>
      <trkpt lat="45.79558" lon="4.73393">
        <ele>345.82565</ele>
        <time>2023-07-26T14:31:37.000Z</time>
      </trkpt>
      <trkpt lat="45.7956" lon="4.73393">
        <ele>345.99454</ele>
        <time>2023-07-26T14:31:39.000Z</time>
      </trkpt>
      <trkpt lat="45.79563" lon="4.73394">
        <ele>346.01785</ele>
        <time>2023-07-26T14:33:40.000Z</time>
      </trkpt>
      <trkpt lat="45.79566" lon="4.73394">
        <ele>346.38983</ele>
        <time>2023-07-26T14:33:42.000Z</time>
      </trkpt>
      <trkpt lat="45.79568" lon="4.73394">
        <ele>346.8645</ele>
        <time>2023-07-26T14:33:43.000Z</time>
      </trkpt>
      <trkpt lat="45.7957" lon="4.73396">
        <ele>346.97641</ele>
        <time>2023-07-26T14:33:45.000Z</time>
      </trkpt>
      <trkpt lat="45.79568" lon="4.73399">
        <ele>347.30228</ele>
        <time>2023-07-26T14:33:48.000Z</time>
      </trkpt>
      <trkpt lat="45.79567" lon="4.73401">
        <ele>347.36426</ele>
        <time>2023-07-26T14:33:51.000Z</time>
      </trkpt>
      <trkpt lat="45.79569" lon="4.73404">
        <ele>347.53082</ele>
        <time>2023-07-26T14:33:54.000Z</time>
      </trkpt>
      <trkpt lat="45.79571" lon="4.73406">
        <ele>347.96344</ele>
        <time>2023-07-26T14:33:56.000Z</time>
      </trkpt>
      <trkpt lat="45.79573" lon="4.73408">
        <ele>348.35858</ele>
        <time>2023-07-26T14:33:58.000Z</time>
      </trkpt>
      <trkpt lat="45.79576" lon="4.73409">
        <ele>348.68188</ele>
        <time>2023-07-26T14:34:00.000Z</time>
      </trkpt>
      <trkpt lat="45.79578" lon="4.73408">
        <ele>348.61188</ele>
        <time>2023-07-26T14:34:01.000Z</time>
      </trkpt>
      <trkpt lat="45.7958" lon="4.73408">
        <ele>348.64005</ele>
        <time>2023-07-26T14:34:02.000Z</time>
      </trkpt>
      <trkpt lat="45.79582" lon="4.73409">
        <ele>348.60236</ele>
        <time>2023-07-26T14:34:03.000Z</time>
      </trkpt>
      <trkpt lat="45.79584" lon="4.7341">
        <ele>348.4884</ele>
        <time>2023-07-26T14:34:04.000Z</time>
      </trkpt>
      <trkpt lat="45.79586" lon="4.73409">
        <ele>348.76218</ele>
        <time>2023-07-26T14:34:05.000Z</time>
      </trkpt>
      <trkpt lat="45.79588" lon="4.7341">
        <ele>348.09784</ele>
        <time>2023-07-26T14:34:06.000Z</time>
      </trkpt>
      <trkpt lat="45.79591" lon="4.7341">
        <ele>347.50946</ele>
        <time>2023-07-26T14:34:07.000Z</time>
      </trkpt>
      <trkpt lat="45.79593" lon="4.73411">
        <ele>346.8522</ele>
        <time>2023-07-26T14:34:08.000Z</time>
      </trkpt>
      <trkpt lat="45.79595" lon="4.73412">
        <ele>346.08945</ele>
        <time>2023-07-26T14:34:09.000Z</time>
      </trkpt>
      <trkpt lat="45.79597" lon="4.73414">
        <ele>345.40594</ele>
        <time>2023-07-26T14:34:10.000Z</time>
      </trkpt>
      <trkpt lat="45.79598" lon="4.73416">
        <ele>344.66553</ele>
        <time>2023-07-26T14:34:11.000Z</time>
      </trkpt>
      <trkpt lat="45.79599" lon="4.73419">
        <ele>343.63361</ele>
        <time>2023-07-26T14:34:12.000Z</time>
      </trkpt>
      <trkpt lat="45.796" lon="4.73422">
        <ele>342.52023</ele>
        <time>2023-07-26T14:34:13.000Z</time>
      </trkpt>
      <trkpt lat="45.79601" lon="4.73424">
        <ele>341.80777</ele>
        <time>2023-07-26T14:34:14.000Z</time>
      </trkpt>
      <trkpt lat="45.79602" lon="4.73428">
        <ele>340.7995</ele>
        <time>2023-07-26T14:34:16.000Z</time>
      </trkpt>
      <trkpt lat="45.79602" lon="4.73431">
        <ele>340.12579</ele>
        <time>2023-07-26T14:34:18.000Z</time>
      </trkpt>
      <trkpt lat="45.79602" lon="4.73433">
        <ele>340.10394</ele>
        <time>2023-07-26T14:34:55.000Z</time>
      </trkpt>
      <trkpt lat="45.79604" lon="4.73437">
        <ele>339.7984</ele>
        <time>2023-07-26T14:34:57.000Z</time>
      </trkpt>
      <trkpt lat="45.79606" lon="4.73438">
        <ele>339.49283</ele>
        <time>2023-07-26T14:34:58.000Z</time>
      </trkpt>
      <trkpt lat="45.79608" lon="4.73438">
        <ele>339.16641</ele>
        <time>2023-07-26T14:34:59.000Z</time>
      </trkpt>
      <trkpt lat="45.7961" lon="4.73437">
        <ele>339.23029</ele>
        <time>2023-07-26T14:35:00.000Z</time>
      </trkpt>
      <trkpt lat="45.79612" lon="4.73437">
        <ele>339.27924</ele>
        <time>2023-07-26T14:35:01.000Z</time>
      </trkpt>
      <trkpt lat="45.79614" lon="4.73436">
        <ele>339.49564</ele>
        <time>2023-07-26T14:35:02.000Z</time>
      </trkpt>
      <trkpt lat="45.79616" lon="4.73436">
        <ele>339.7915</ele>
        <time>2023-07-26T14:35:03.000Z</time>
      </trkpt>
      <trkpt lat="45.79619" lon="4.73435">
        <ele>339.79526</ele>
        <time>2023-07-26T14:35:04.000Z</time>
      </trkpt>
      <trkpt lat="45.79622" lon="4.73436">
        <ele>340.83603</ele>
        <time>2023-07-26T14:35:05.000Z</time>
      </trkpt>
      <trkpt lat="45.79624" lon="4.73436">
        <ele>341.45929</ele>
        <time>2023-07-26T14:35:06.000Z</time>
      </trkpt>
      <trkpt lat="45.79627" lon="4.73435">
        <ele>342.20914</ele>
        <time>2023-07-26T14:35:07.000Z</time>
      </trkpt>
      <trkpt lat="45.79629" lon="4.73435">
        <ele>342.99579</ele>
        <time>2023-07-26T14:35:08.000Z</time>
      </trkpt>
      <trkpt lat="45.79632" lon="4.73434">
        <ele>343.7514</ele>
        <time>2023-07-26T14:35:09.000Z</time>
      </trkpt>
      <trkpt lat="45.79635" lon="4.73434">
        <ele>344.54291</ele>
        <time>2023-07-26T14:35:10.000Z</time>
      </trkpt>
      <trkpt lat="45.79638" lon="4.73434">
        <ele>345.33185</ele>
        <time>2023-07-26T14:35:11.000Z</time>
      </trkpt>
      <trkpt lat="45.79641" lon="4.73434">
        <ele>346.16107</ele>
        <time>2023-07-26T14:35:12.000Z</time>
      </trkpt>
      <trkpt lat="45.79644" lon="4.73433">
        <ele>347.12805</ele>
        <time>2023-07-26T14:35:13.000Z</time>
      </trkpt>
      <trkpt lat="45.79647" lon="4.73432">
        <ele>348.08429</ele>
        <time>2023-07-26T14:35:14.000Z</time>
      </trkpt>
      <trkpt lat="45.7965" lon="4.73431">
        <ele>349.10458</ele>
        <time>2023-07-26T14:35:15.000Z</time>
      </trkpt>
      <trkpt lat="45.79653" lon="4.7343">
        <ele>349.50162</ele>
        <time>2023-07-26T14:35:16.000Z</time>
      </trkpt>
      <trkpt lat="45.79656" lon="4.73429">
        <ele>349.47714</ele>
        <time>2023-07-26T14:35:17.000Z</time>
      </trkpt>
      <trkpt lat="45.79659" lon="4.73428">
        <ele>349.55371</ele>
        <time>2023-07-26T14:35:18.000Z</time>
      </trkpt>
      <trkpt lat="45.79662" lon="4.73427">
        <ele>349.62708</ele>
        <time>2023-07-26T14:35:19.000Z</time>
      </trkpt>
      <trkpt lat="45.79665" lon="4.73427">
        <ele>349.68616</ele>
        <time>2023-07-26T14:35:20.000Z</time>
      </trkpt>
      <trkpt lat="45.79668" lon="4.73426">
        <ele>349.98761</ele>
        <time>2023-07-26T14:35:21.000Z</time>
      </trkpt>
      <trkpt lat="45.79671" lon="4.73425">
        <ele>350.17172</ele>
        <time>2023-07-26T14:35:22.000Z</time>
      </trkpt>
      <trkpt lat="45.79674" lon="4.73424">
        <ele>350.24731</ele>
        <time>2023-07-26T14:35:23.000Z</time>
      </trkpt>
      <trkpt lat="45.79678" lon="4.73423">
        <ele>349.8916</ele>
        <time>2023-07-26T14:35:24.000Z</time>
      </trkpt>
      <trkpt lat="45.79681" lon="4.73421">
        <ele>348.99307</ele>
        <time>2023-07-26T14:35:25.000Z</time>
      </trkpt>
      <trkpt lat="45.79685" lon="4.73421">
        <ele>348.50674</ele>
        <time>2023-07-26T14:35:26.000Z</time>
      </trkpt>
      <trkpt lat="45.79688" lon="4.7342">
        <ele>348.53558</ele>
        <time>2023-07-26T14:35:27.000Z</time>
      </trkpt>
      <trkpt lat="45.79692" lon="4.73419">
        <ele>348.57779</ele>
        <time>2023-07-26T14:35:28.000Z</time>
      </trkpt>
      <trkpt lat="45.79696" lon="4.73418">
        <ele>348.80267</ele>
        <time>2023-07-26T14:35:29.000Z</time>
      </trkpt>
      <trkpt lat="45.79699" lon="4.73417">
        <ele>349.06345</ele>
        <time>2023-07-26T14:35:30.000Z</time>
      </trkpt>
      <trkpt lat="45.79702" lon="4.73416">
        <ele>349.34866</ele>
        <time>2023-07-26T14:35:31.000Z</time>
      </trkpt>
      <trkpt lat="45.79706" lon="4.73414">
        <ele>349.73138</ele>
        <time>2023-07-26T14:35:32.000Z</time>
      </trkpt>
      <trkpt lat="45.79709" lon="4.73412">
        <ele>349.95541</ele>
        <time>2023-07-26T14:35:33.000Z</time>
      </trkpt>
      <trkpt lat="45.79712" lon="4.73411">
        <ele>349.87891</ele>
        <time>2023-07-26T14:35:34.000Z</time>
      </trkpt>
      <trkpt lat="45.79716" lon="4.7341">
        <ele>349.81284</ele>
        <time>2023-07-26T14:35:35.000Z</time>
      </trkpt>
      <trkpt lat="45.7972" lon="4.73409">
        <ele>349.7132</ele>
        <time>2023-07-26T14:35:36.000Z</time>
      </trkpt>
      <trkpt lat="45.79723" lon="4.73407">
        <ele>350.02493</ele>
        <time>2023-07-26T14:35:37.000Z</time>
      </trkpt>
      <trkpt lat="45.79727" lon="4.73406">
        <ele>350.22943</ele>
        <time>2023-07-26T14:35:38.000Z</time>
      </trkpt>
      <trkpt lat="45.79731" lon="4.73405">
        <ele>350.40701</ele>
        <time>2023-07-26T14:35:39.000Z</time>
      </trkpt>
      <trkpt lat="45.79735" lon="4.73404">
        <ele>350.57306</ele>
        <time>2023-07-26T14:35:40.000Z</time>
      </trkpt>
      <trkpt lat="45.79739" lon="4.73402">
        <ele>350.47504</ele>
        <time>2023-07-26T14:35:41.000Z</time>
      </trkpt>
      <trkpt lat="45.79742" lon="4.73399">
        <ele>350.33368</ele>
        <time>2023-07-26T14:35:42.000Z</time>
      </trkpt>
      <trkpt lat="45.79745" lon="4.73397">
        <ele>350.15515</ele>
        <time>2023-07-26T14:35:43.000Z</time>
      </trkpt>
      <trkpt lat="45.79749" lon="4.73395">
        <ele>350.3526</ele>
        <time>2023-07-26T14:35:44.000Z</time>
      </trkpt>
      <trkpt lat="45.79752" lon="4.73394">
        <ele>351.06943</ele>
        <time>2023-07-26T14:35:45.000Z</time>
      </trkpt>
      <trkpt lat="45.79756" lon="4.73394">
        <ele>351.76468</ele>
        <time>2023-07-26T14:35:46.000Z</time>
      </trkpt>
      <trkpt lat="45.79759" lon="4.73395">
        <ele>351.87616</ele>
        <time>2023-07-26T14:35:47.000Z</time>
      </trkpt>
      <trkpt lat="45.79763" lon="4.73396">
        <ele>351.98477</ele>
        <time>2023-07-26T14:35:48.000Z</time>
      </trkpt>
      <trkpt lat="45.79766" lon="4.73396">
        <ele>351.91803</ele>
        <time>2023-07-26T14:35:49.000Z</time>
      </trkpt>
      <trkpt lat="45.7977" lon="4.73397">
        <ele>351.84973</ele>
        <time>2023-07-26T14:35:50.000Z</time>
      </trkpt>
      <trkpt lat="45.79773" lon="4.73397">
        <ele>351.8172</ele>
        <time>2023-07-26T14:35:51.000Z</time>
      </trkpt>
      <trkpt lat="45.79777" lon="4.73398">
        <ele>351.88892</ele>
        <time>2023-07-26T14:35:52.000Z</time>
      </trkpt>
      <trkpt lat="45.79781" lon="4.73399">
        <ele>352.12042</ele>
        <time>2023-07-26T14:35:53.000Z</time>
      </trkpt>
      <trkpt lat="45.79785" lon="4.734">
        <ele>352.3624</ele>
        <time>2023-07-26T14:35:54.000Z</time>
      </trkpt>
      <trkpt lat="45.79789" lon="4.734">
        <ele>352.15219</ele>
        <time>2023-07-26T14:35:55.000Z</time>
      </trkpt>
      <trkpt lat="45.79794" lon="4.73401">
        <ele>351.81732</ele>
        <time>2023-07-26T14:35:56.000Z</time>
      </trkpt>
      <trkpt lat="45.79798" lon="4.73403">
        <ele>351.36841</ele>
        <time>2023-07-26T14:35:57.000Z</time>
      </trkpt>
      <trkpt lat="45.79802" lon="4.73405">
        <ele>350.93021</ele>
        <time>2023-07-26T14:35:58.000Z</time>
      </trkpt>
      <trkpt lat="45.79806" lon="4.73407">
        <ele>350.55606</ele>
        <time>2023-07-26T14:35:59.000Z</time>
      </trkpt>
      <trkpt lat="45.7981" lon="4.73407">
        <ele>350.23959</ele>
        <time>2023-07-26T14:36:00.000Z</time>
      </trkpt>
      <trkpt lat="45.79814" lon="4.73408">
        <ele>349.90204</ele>
        <time>2023-07-26T14:36:01.000Z</time>
      </trkpt>
      <trkpt lat="45.79818" lon="4.73409">
        <ele>349.60297</ele>
        <time>2023-07-26T14:36:02.000Z</time>
      </trkpt>
      <trkpt lat="45.79822" lon="4.7341">
        <ele>349.34406</ele>
        <time>2023-07-26T14:36:03.000Z</time>
      </trkpt>
      <trkpt lat="45.79826" lon="4.73411">
        <ele>349.11945</ele>
        <time>2023-07-26T14:36:04.000Z</time>
      </trkpt>
      <trkpt lat="45.7983" lon="4.73412">
        <ele>348.88477</ele>
        <time>2023-07-26T14:36:05.000Z</time>
      </trkpt>
      <trkpt lat="45.79836" lon="4.73414">
        <ele>348.62964</ele>
        <time>2023-07-26T14:36:06.000Z</time>
      </trkpt>
      <trkpt lat="45.7984" lon="4.73415">
        <ele>348.37445</ele>
        <time>2023-07-26T14:36:07.000Z</time>
      </trkpt>
      <trkpt lat="45.79844" lon="4.73416">
        <ele>348.10251</ele>
        <time>2023-07-26T14:36:08.000Z</time>
      </trkpt>
      <trkpt lat="45.79849" lon="4.73417">
        <ele>347.81406</ele>
        <time>2023-07-26T14:36:09.000Z</time>
      </trkpt>
      <trkpt lat="45.79854" lon="4.73418">
        <ele>347.5025</ele>
        <time>2023-07-26T14:36:10.000Z</time>
      </trkpt>
      <trkpt lat="45.79858" lon="4.73419">
        <ele>347.11578</ele>
        <time>2023-07-26T14:36:11.000Z</time>
      </trkpt>
      <trkpt lat="45.79862" lon="4.73419">
        <ele>346.51227</ele>
        <time>2023-07-26T14:36:12.000Z</time>
      </trkpt>
      <trkpt lat="45.79867" lon="4.73422">
        <ele>345.72787</ele>
        <time>2023-07-26T14:36:13.000Z</time>
      </trkpt>
      <trkpt lat="45.79871" lon="4.73423">
        <ele>345.28207</ele>
        <time>2023-07-26T14:36:14.000Z</time>
      </trkpt>
      <trkpt lat="45.79876" lon="4.73424">
        <ele>345.20673</ele>
        <time>2023-07-26T14:36:15.000Z</time>
      </trkpt>
      <trkpt lat="45.7988" lon="4.73427">
        <ele>345.24866</ele>
        <time>2023-07-26T14:36:16.000Z</time>
      </trkpt>
      <trkpt lat="45.79885" lon="4.73427">
        <ele>345.40561</ele>
        <time>2023-07-26T14:36:17.000Z</time>
      </trkpt>
      <trkpt lat="45.7989" lon="4.73428">
        <ele>345.58453</ele>
        <time>2023-07-26T14:36:18.000Z</time>
      </trkpt>
      <trkpt lat="45.79895" lon="4.73425">
        <ele>345.75891</ele>
        <time>2023-07-26T14:36:19.000Z</time>
      </trkpt>
      <trkpt lat="45.79899" lon="4.73424">
        <ele>345.89276</ele>
        <time>2023-07-26T14:36:20.000Z</time>
      </trkpt>
      <trkpt lat="45.79903" lon="4.73422">
        <ele>346.0379</ele>
        <time>2023-07-26T14:36:21.000Z</time>
      </trkpt>
      <trkpt lat="45.79907" lon="4.73421">
        <ele>346.16757</ele>
        <time>2023-07-26T14:36:22.000Z</time>
      </trkpt>
      <trkpt lat="45.79911" lon="4.7342">
        <ele>346.27435</ele>
        <time>2023-07-26T14:36:23.000Z</time>
      </trkpt>
      <trkpt lat="45.79915" lon="4.73417">
        <ele>346.35654</ele>
        <time>2023-07-26T14:36:24.000Z</time>
      </trkpt>
      <trkpt lat="45.79919" lon="4.73415">
        <ele>346.44891</ele>
        <time>2023-07-26T14:36:25.000Z</time>
      </trkpt>
      <trkpt lat="45.79922" lon="4.73412">
        <ele>346.55713</ele>
        <time>2023-07-26T14:36:26.000Z</time>
      </trkpt>
      <trkpt lat="45.79926" lon="4.7341">
        <ele>346.64471</ele>
        <time>2023-07-26T14:36:27.000Z</time>
      </trkpt>
      <trkpt lat="45.7993" lon="4.73409">
        <ele>346.74396</ele>
        <time>2023-07-26T14:36:28.000Z</time>
      </trkpt>
      <trkpt lat="45.79933" lon="4.73407">
        <ele>346.89761</ele>
        <time>2023-07-26T14:36:29.000Z</time>
      </trkpt>
      <trkpt lat="45.79936" lon="4.73406">
        <ele>347.02069</ele>
        <time>2023-07-26T14:36:30.000Z</time>
      </trkpt>
      <trkpt lat="45.79941" lon="4.73403">
        <ele>347.18643</ele>
        <time>2023-07-26T14:36:31.000Z</time>
      </trkpt>
      <trkpt lat="45.79945" lon="4.73399">
        <ele>347.35492</ele>
        <time>2023-07-26T14:36:32.000Z</time>
      </trkpt>
      <trkpt lat="45.79949" lon="4.73397">
        <ele>347.51691</ele>
        <time>2023-07-26T14:36:33.000Z</time>
      </trkpt>
      <trkpt lat="45.79953" lon="4.73394">
        <ele>347.6586</ele>
        <time>2023-07-26T14:36:34.000Z</time>
      </trkpt>
      <trkpt lat="45.79957" lon="4.73391">
        <ele>347.77936</ele>
        <time>2023-07-26T14:36:35.000Z</time>
      </trkpt>
      <trkpt lat="45.79959" lon="4.73387">
        <ele>347.92612</ele>
        <time>2023-07-26T14:36:36.000Z</time>
      </trkpt>
      <trkpt lat="45.79963" lon="4.73381">
        <ele>348.04156</ele>
        <time>2023-07-26T14:36:37.000Z</time>
      </trkpt>
      <trkpt lat="45.79964" lon="4.73374">
        <ele>348.09888</ele>
        <time>2023-07-26T14:36:38.000Z</time>
      </trkpt>
      <trkpt lat="45.79965" lon="4.73368">
        <ele>348.08755</ele>
        <time>2023-07-26T14:36:39.000Z</time>
      </trkpt>
      <trkpt lat="45.79964" lon="4.73361">
        <ele>348.10214</ele>
        <time>2023-07-26T14:36:40.000Z</time>
      </trkpt>
      <trkpt lat="45.79962" lon="4.73354">
        <ele>348.54355</ele>
        <time>2023-07-26T14:36:41.000Z</time>
      </trkpt>
      <trkpt lat="45.79961" lon="4.73349">
        <ele>348.94128</ele>
        <time>2023-07-26T14:36:42.000Z</time>
      </trkpt>
      <trkpt lat="45.7996" lon="4.73342">
        <ele>349.34338</ele>
        <time>2023-07-26T14:36:43.000Z</time>
      </trkpt>
      <trkpt lat="45.79959" lon="4.73335">
        <ele>349.94379</ele>
        <time>2023-07-26T14:36:44.000Z</time>
      </trkpt>
      <trkpt lat="45.79959" lon="4.73328">
        <ele>350.50824</ele>
        <time>2023-07-26T14:36:45.000Z</time>
      </trkpt>
      <trkpt lat="45.79959" lon="4.7332">
        <ele>351.11847</ele>
        <time>2023-07-26T14:36:46.000Z</time>
      </trkpt>
      <trkpt lat="45.79961" lon="4.73313">
        <ele>351.46194</ele>
        <time>2023-07-26T14:36:47.000Z</time>
      </trkpt>
      <trkpt lat="45.79962" lon="4.73306">
        <ele>351.82898</ele>
        <time>2023-07-26T14:36:48.000Z</time>
      </trkpt>
      <trkpt lat="45.79967" lon="4.73301">
        <ele>352.14801</ele>
        <time>2023-07-26T14:36:49.000Z</time>
      </trkpt>
      <trkpt lat="45.79971" lon="4.73297">
        <ele>352.51605</ele>
        <time>2023-07-26T14:36:50.000Z</time>
      </trkpt>
      <trkpt lat="45.79976" lon="4.73295">
        <ele>352.84512</ele>
        <time>2023-07-26T14:36:51.000Z</time>
      </trkpt>
      <trkpt lat="45.7998" lon="4.73293">
        <ele>353.16455</ele>
        <time>2023-07-26T14:36:52.000Z</time>
      </trkpt>
      <trkpt lat="45.79986" lon="4.73293">
        <ele>353.48526</ele>
        <time>2023-07-26T14:36:53.000Z</time>
      </trkpt>
      <trkpt lat="45.79991" lon="4.73293">
        <ele>353.89984</ele>
        <time>2023-07-26T14:36:54.000Z</time>
      </trkpt>
      <trkpt lat="45.79996" lon="4.73292">
        <ele>354.42661</ele>
        <time>2023-07-26T14:36:55.000Z</time>
      </trkpt>
      <trkpt lat="45.80001" lon="4.73291">
        <ele>354.95016</ele>
        <time>2023-07-26T14:36:56.000Z</time>
      </trkpt>
      <trkpt lat="45.80007" lon="4.7329">
        <ele>355.21408</ele>
        <time>2023-07-26T14:36:57.000Z</time>
      </trkpt>
      <trkpt lat="45.80011" lon="4.73289">
        <ele>355.56387</ele>
        <time>2023-07-26T14:36:58.000Z</time>
      </trkpt>
      <trkpt lat="45.80016" lon="4.73287">
        <ele>355.97333</ele>
        <time>2023-07-26T14:36:59.000Z</time>
      </trkpt>
      <trkpt lat="45.80021" lon="4.73286">
        <ele>356.37677</ele>
        <time>2023-07-26T14:37:00.000Z</time>
      </trkpt>
      <trkpt lat="45.80026" lon="4.73285">
        <ele>356.34067</ele>
        <time>2023-07-26T14:37:01.000Z</time>
      </trkpt>
      <trkpt lat="45.80031" lon="4.73284">
        <ele>356.3273</ele>
        <time>2023-07-26T14:37:02.000Z</time>
      </trkpt>
      <trkpt lat="45.80036" lon="4.73283">
        <ele>356.29987</ele>
        <time>2023-07-26T14:37:03.000Z</time>
      </trkpt>
      <trkpt lat="45.80041" lon="4.7328">
        <ele>356.22284</ele>
        <time>2023-07-26T14:37:04.000Z</time>
      </trkpt>
      <trkpt lat="45.80046" lon="4.73279">
        <ele>356.28653</ele>
        <time>2023-07-26T14:37:05.000Z</time>
      </trkpt>
      <trkpt lat="45.8005" lon="4.73278">
        <ele>356.31403</ele>
        <time>2023-07-26T14:37:06.000Z</time>
      </trkpt>
      <trkpt lat="45.80055" lon="4.73277">
        <ele>356.33853</ele>
        <time>2023-07-26T14:37:07.000Z</time>
      </trkpt>
      <trkpt lat="45.8006" lon="4.73276">
        <ele>356.36203</ele>
        <time>2023-07-26T14:37:08.000Z</time>
      </trkpt>
      <trkpt lat="45.80065" lon="4.73275">
        <ele>356.34958</ele>
        <time>2023-07-26T14:37:09.000Z</time>
      </trkpt>
      <trkpt lat="45.8007" lon="4.73273">
        <ele>356.33313</ele>
        <time>2023-07-26T14:37:10.000Z</time>
      </trkpt>
      <trkpt lat="45.80075" lon="4.73271">
        <ele>356.33673</ele>
        <time>2023-07-26T14:37:11.000Z</time>
      </trkpt>
      <trkpt lat="45.8008" lon="4.73269">
        <ele>356.32129</ele>
        <time>2023-07-26T14:37:12.000Z</time>
      </trkpt>
      <trkpt lat="45.80085" lon="4.73266">
        <ele>356.34012</ele>
        <time>2023-07-26T14:37:13.000Z</time>
      </trkpt>
      <trkpt lat="45.80089" lon="4.73264">
        <ele>356.24628</ele>
        <time>2023-07-26T14:37:14.000Z</time>
      </trkpt>
      <trkpt lat="45.80095" lon="4.73263">
        <ele>356.19327</ele>
        <time>2023-07-26T14:37:15.000Z</time>
      </trkpt>
      <trkpt lat="45.801" lon="4.73262">
        <ele>356.21576</ele>
        <time>2023-07-26T14:37:16.000Z</time>
      </trkpt>
      <trkpt lat="45.80104" lon="4.73259">
        <ele>356.22803</ele>
        <time>2023-07-26T14:37:17.000Z</time>
      </trkpt>
      <trkpt lat="45.80109" lon="4.73259">
        <ele>356.23459</ele>
        <time>2023-07-26T14:37:18.000Z</time>
      </trkpt>
      <trkpt lat="45.80114" lon="4.73257">
        <ele>356.18799</ele>
        <time>2023-07-26T14:37:19.000Z</time>
      </trkpt>
      <trkpt lat="45.80119" lon="4.73257">
        <ele>356.13739</ele>
        <time>2023-07-26T14:37:20.000Z</time>
      </trkpt>
      <trkpt lat="45.80124" lon="4.73257">
        <ele>356.12497</ele>
        <time>2023-07-26T14:37:21.000Z</time>
      </trkpt>
      <trkpt lat="45.80129" lon="4.73259">
        <ele>356.08112</ele>
        <time>2023-07-26T14:37:22.000Z</time>
      </trkpt>
      <trkpt lat="45.80134" lon="4.73257">
        <ele>356.06949</ele>
        <time>2023-07-26T14:37:23.000Z</time>
      </trkpt>
      <trkpt lat="45.8014" lon="4.73257">
        <ele>355.88757</ele>
        <time>2023-07-26T14:37:24.000Z</time>
      </trkpt>
      <trkpt lat="45.80145" lon="4.73258">
        <ele>355.57614</ele>
        <time>2023-07-26T14:37:25.000Z</time>
      </trkpt>
      <trkpt lat="45.80149" lon="4.73258">
        <ele>355.28195</ele>
        <time>2023-07-26T14:37:26.000Z</time>
      </trkpt>
      <trkpt lat="45.80155" lon="4.73258">
        <ele>355.27231</ele>
        <time>2023-07-26T14:37:27.000Z</time>
      </trkpt>
      <trkpt lat="45.8016" lon="4.73258">
        <ele>355.21405</ele>
        <time>2023-07-26T14:37:28.000Z</time>
      </trkpt>
      <trkpt lat="45.80164" lon="4.73258">
        <ele>355.21124</ele>
        <time>2023-07-26T14:37:29.000Z</time>
      </trkpt>
      <trkpt lat="45.80169" lon="4.73258">
        <ele>355.21069</ele>
        <time>2023-07-26T14:37:30.000Z</time>
      </trkpt>
      <trkpt lat="45.80174" lon="4.73258">
        <ele>355.22952</ele>
        <time>2023-07-26T14:37:31.000Z</time>
      </trkpt>
      <trkpt lat="45.80179" lon="4.73258">
        <ele>355.24225</ele>
        <time>2023-07-26T14:37:32.000Z</time>
      </trkpt>
      <trkpt lat="45.80184" lon="4.73257">
        <ele>355.26614</ele>
        <time>2023-07-26T14:37:33.000Z</time>
      </trkpt>
      <trkpt lat="45.80188" lon="4.73256">
        <ele>355.33191</ele>
        <time>2023-07-26T14:37:34.000Z</time>
      </trkpt>
      <trkpt lat="45.80193" lon="4.73256">
        <ele>355.38809</ele>
        <time>2023-07-26T14:37:35.000Z</time>
      </trkpt>
      <trkpt lat="45.80198" lon="4.73255">
        <ele>355.43188</ele>
        <time>2023-07-26T14:37:36.000Z</time>
      </trkpt>
      <trkpt lat="45.80202" lon="4.73255">
        <ele>355.74536</ele>
        <time>2023-07-26T14:37:37.000Z</time>
      </trkpt>
      <trkpt lat="45.80207" lon="4.73255">
        <ele>356.00699</ele>
        <time>2023-07-26T14:37:38.000Z</time>
      </trkpt>
      <trkpt lat="45.80212" lon="4.73254">
        <ele>356.30698</ele>
        <time>2023-07-26T14:37:39.000Z</time>
      </trkpt>
      <trkpt lat="45.80218" lon="4.73255">
        <ele>356.49872</ele>
        <time>2023-07-26T14:37:40.000Z</time>
      </trkpt>
      <trkpt lat="45.80222" lon="4.73255">
        <ele>356.46265</ele>
        <time>2023-07-26T14:37:41.000Z</time>
      </trkpt>
      <trkpt lat="45.80227" lon="4.73255">
        <ele>356.49881</ele>
        <time>2023-07-26T14:37:42.000Z</time>
      </trkpt>
      <trkpt lat="45.80233" lon="4.73255">
        <ele>356.4964</ele>
        <time>2023-07-26T14:37:43.000Z</time>
      </trkpt>
      <trkpt lat="45.80237" lon="4.73255">
        <ele>356.5191</ele>
        <time>2023-07-26T14:37:44.000Z</time>
      </trkpt>
      <trkpt lat="45.80242" lon="4.73254">
        <ele>356.55807</ele>
        <time>2023-07-26T14:37:45.000Z</time>
      </trkpt>
      <trkpt lat="45.80246" lon="4.73253">
        <ele>356.57443</ele>
        <time>2023-07-26T14:37:46.000Z</time>
      </trkpt>
      <trkpt lat="45.80251" lon="4.73252">
        <ele>356.63007</ele>
        <time>2023-07-26T14:37:47.000Z</time>
      </trkpt>
      <trkpt lat="45.80255" lon="4.73252">
        <ele>356.70029</ele>
        <time>2023-07-26T14:37:48.000Z</time>
      </trkpt>
      <trkpt lat="45.8026" lon="4.73251">
        <ele>356.8093</ele>
        <time>2023-07-26T14:37:49.000Z</time>
      </trkpt>
      <trkpt lat="45.80265" lon="4.73251">
        <ele>356.90915</ele>
        <time>2023-07-26T14:37:50.000Z</time>
      </trkpt>
      <trkpt lat="45.8027" lon="4.73251">
        <ele>356.97775</ele>
        <time>2023-07-26T14:37:51.000Z</time>
      </trkpt>
      <trkpt lat="45.80275" lon="4.7325">
        <ele>357.03235</ele>
        <time>2023-07-26T14:37:52.000Z</time>
      </trkpt>
      <trkpt lat="45.80279" lon="4.7325">
        <ele>357.14081</ele>
        <time>2023-07-26T14:37:53.000Z</time>
      </trkpt>
      <trkpt lat="45.80283" lon="4.7325">
        <ele>357.17206</ele>
        <time>2023-07-26T14:37:54.000Z</time>
      </trkpt>
      <trkpt lat="45.80287" lon="4.73249">
        <ele>356.84219</ele>
        <time>2023-07-26T14:37:55.000Z</time>
      </trkpt>
      <trkpt lat="45.80292" lon="4.73247">
        <ele>356.47272</ele>
        <time>2023-07-26T14:37:56.000Z</time>
      </trkpt>
      <trkpt lat="45.80297" lon="4.73246">
        <ele>356.09491</ele>
        <time>2023-07-26T14:37:57.000Z</time>
      </trkpt>
      <trkpt lat="45.80302" lon="4.73246">
        <ele>355.68744</ele>
        <time>2023-07-26T14:37:58.000Z</time>
      </trkpt>
      <trkpt lat="45.80306" lon="4.73248">
        <ele>355.26181</ele>
        <time>2023-07-26T14:37:59.000Z</time>
      </trkpt>
      <trkpt lat="45.8031" lon="4.7325">
        <ele>354.94684</ele>
        <time>2023-07-26T14:38:00.000Z</time>
      </trkpt>
      <trkpt lat="45.80315" lon="4.73251">
        <ele>354.86249</ele>
        <time>2023-07-26T14:38:01.000Z</time>
      </trkpt>
      <trkpt lat="45.80318" lon="4.73254">
        <ele>354.69528</ele>
        <time>2023-07-26T14:38:02.000Z</time>
      </trkpt>
      <trkpt lat="45.80322" lon="4.73256">
        <ele>354.55527</ele>
        <time>2023-07-26T14:38:03.000Z</time>
      </trkpt>
      <trkpt lat="45.80326" lon="4.73256">
        <ele>354.40421</ele>
        <time>2023-07-26T14:38:04.000Z</time>
      </trkpt>
      <trkpt lat="45.8033" lon="4.73255">
        <ele>354.22879</ele>
        <time>2023-07-26T14:38:05.000Z</time>
      </trkpt>
      <trkpt lat="45.80333" lon="4.73252">
        <ele>354.06265</ele>
        <time>2023-07-26T14:38:06.000Z</time>
      </trkpt>
      <trkpt lat="45.80336" lon="4.7325">
        <ele>353.84512</ele>
        <time>2023-07-26T14:38:07.000Z</time>
      </trkpt>
      <trkpt lat="45.8034" lon="4.73246">
        <ele>353.65173</ele>
        <time>2023-07-26T14:38:08.000Z</time>
      </trkpt>
      <trkpt lat="45.80341" lon="4.7324">
        <ele>353.4068</ele>
        <time>2023-07-26T14:38:09.000Z</time>
      </trkpt>
      <trkpt lat="45.80343" lon="4.73235">
        <ele>353.14481</ele>
        <time>2023-07-26T14:38:10.000Z</time>
      </trkpt>
      <trkpt lat="45.80345" lon="4.7323">
        <ele>352.92267</ele>
        <time>2023-07-26T14:38:11.000Z</time>
      </trkpt>
      <trkpt lat="45.80347" lon="4.73226">
        <ele>352.71942</ele>
        <time>2023-07-26T14:38:12.000Z</time>
      </trkpt>
      <trkpt lat="45.80348" lon="4.73223">
        <ele>352.45187</ele>
        <time>2023-07-26T14:38:13.000Z</time>
      </trkpt>
      <trkpt lat="45.80349" lon="4.73219">
        <ele>352.37283</ele>
        <time>2023-07-26T14:38:15.000Z</time>
      </trkpt>
      <trkpt lat="45.8035" lon="4.73215">
        <ele>352.48587</ele>
        <time>2023-07-26T14:40:09.000Z</time>
      </trkpt>
      <trkpt lat="45.80349" lon="4.7321">
        <ele>352.67953</ele>
        <time>2023-07-26T14:40:10.000Z</time>
      </trkpt>
      <trkpt lat="45.80348" lon="4.73206">
        <ele>352.89545</ele>
        <time>2023-07-26T14:40:11.000Z</time>
      </trkpt>
      <trkpt lat="45.80348" lon="4.73202">
        <ele>353.13174</ele>
        <time>2023-07-26T14:40:12.000Z</time>
      </trkpt>
      <trkpt lat="45.80347" lon="4.73198">
        <ele>353.43243</ele>
        <time>2023-07-26T14:40:13.000Z</time>
      </trkpt>
      <trkpt lat="45.80346" lon="4.73193">
        <ele>353.75946</ele>
        <time>2023-07-26T14:40:14.000Z</time>
      </trkpt>
      <trkpt lat="45.80345" lon="4.73189">
        <ele>353.82324</ele>
        <time>2023-07-26T14:40:15.000Z</time>
      </trkpt>
      <trkpt lat="45.80344" lon="4.73185">
        <ele>354.01379</ele>
        <time>2023-07-26T14:40:16.000Z</time>
      </trkpt>
      <trkpt lat="45.80344" lon="4.7318">
        <ele>354.20572</ele>
        <time>2023-07-26T14:40:17.000Z</time>
      </trkpt>
      <trkpt lat="45.80343" lon="4.73174">
        <ele>354.40594</ele>
        <time>2023-07-26T14:40:18.000Z</time>
      </trkpt>
      <trkpt lat="45.80343" lon="4.73168">
        <ele>354.77069</ele>
        <time>2023-07-26T14:40:19.000Z</time>
      </trkpt>
      <trkpt lat="45.80344" lon="4.73162">
        <ele>355.11411</ele>
        <time>2023-07-26T14:40:20.000Z</time>
      </trkpt>
      <trkpt lat="45.80345" lon="4.73156">
        <ele>355.43066</ele>
        <time>2023-07-26T14:40:21.000Z</time>
      </trkpt>
      <trkpt lat="45.80346" lon="4.7315">
        <ele>355.69937</ele>
        <time>2023-07-26T14:40:22.000Z</time>
      </trkpt>
      <trkpt lat="45.80347" lon="4.73144">
        <ele>355.89413</ele>
        <time>2023-07-26T14:40:23.000Z</time>
      </trkpt>
      <trkpt lat="45.80348" lon="4.73138">
        <ele>356.15869</ele>
        <time>2023-07-26T14:40:24.000Z</time>
      </trkpt>
      <trkpt lat="45.80349" lon="4.73132">
        <ele>356.41046</ele>
        <time>2023-07-26T14:40:25.000Z</time>
      </trkpt>
      <trkpt lat="45.80348" lon="4.73126">
        <ele>356.66904</ele>
        <time>2023-07-26T14:40:26.000Z</time>
      </trkpt>
      <trkpt lat="45.80348" lon="4.73122">
        <ele>356.93997</ele>
        <time>2023-07-26T14:40:27.000Z</time>
      </trkpt>
      <trkpt lat="45.80346" lon="4.73117">
        <ele>357.13507</ele>
        <time>2023-07-26T14:40:28.000Z</time>
      </trkpt>
      <trkpt lat="45.80343" lon="4.73112">
        <ele>357.20313</ele>
        <time>2023-07-26T14:40:29.000Z</time>
      </trkpt>
      <trkpt lat="45.80341" lon="4.73108">
        <ele>357.18378</ele>
        <time>2023-07-26T14:40:30.000Z</time>
      </trkpt>
      <trkpt lat="45.80338" lon="4.73104">
        <ele>357.11078</ele>
        <time>2023-07-26T14:40:31.000Z</time>
      </trkpt>
      <trkpt lat="45.80335" lon="4.731">
        <ele>357.0379</ele>
        <time>2023-07-26T14:40:32.000Z</time>
      </trkpt>
      <trkpt lat="45.80332" lon="4.73096">
        <ele>356.91205</ele>
        <time>2023-07-26T14:40:33.000Z</time>
      </trkpt>
      <trkpt lat="45.8033" lon="4.73091">
        <ele>356.76877</ele>
        <time>2023-07-26T14:40:34.000Z</time>
      </trkpt>
      <trkpt lat="45.80327" lon="4.73087">
        <ele>356.785</ele>
        <time>2023-07-26T14:40:35.000Z</time>
      </trkpt>
      <trkpt lat="45.80325" lon="4.73082">
        <ele>356.69797</ele>
        <time>2023-07-26T14:40:36.000Z</time>
      </trkpt>
      <trkpt lat="45.80323" lon="4.73077">
        <ele>356.60321</ele>
        <time>2023-07-26T14:40:37.000Z</time>
      </trkpt>
      <trkpt lat="45.80321" lon="4.73073">
        <ele>356.83783</ele>
        <time>2023-07-26T14:40:38.000Z</time>
      </trkpt>
      <trkpt lat="45.80318" lon="4.73068">
        <ele>356.97107</ele>
        <time>2023-07-26T14:40:39.000Z</time>
      </trkpt>
      <trkpt lat="45.80316" lon="4.73064">
        <ele>356.79993</ele>
        <time>2023-07-26T14:40:40.000Z</time>
      </trkpt>
      <trkpt lat="45.80314" lon="4.73059">
        <ele>356.7149</ele>
        <time>2023-07-26T14:40:41.000Z</time>
      </trkpt>
      <trkpt lat="45.80311" lon="4.73052">
        <ele>356.67206</ele>
        <time>2023-07-26T14:40:42.000Z</time>
      </trkpt>
      <trkpt lat="45.80309" lon="4.73046">
        <ele>356.7038</ele>
        <time>2023-07-26T14:40:43.000Z</time>
      </trkpt>
      <trkpt lat="45.80306" lon="4.7304">
        <ele>356.69485</ele>
        <time>2023-07-26T14:40:44.000Z</time>
      </trkpt>
      <trkpt lat="45.80303" lon="4.73035">
        <ele>356.6427</ele>
        <time>2023-07-26T14:40:45.000Z</time>
      </trkpt>
      <trkpt lat="45.80302" lon="4.73031">
        <ele>356.5889</ele>
        <time>2023-07-26T14:40:46.000Z</time>
      </trkpt>
      <trkpt lat="45.80299" lon="4.73026">
        <ele>356.5033</ele>
        <time>2023-07-26T14:40:47.000Z</time>
      </trkpt>
      <trkpt lat="45.80297" lon="4.73024">
        <ele>356.32346</ele>
        <time>2023-07-26T14:40:48.000Z</time>
      </trkpt>
      <trkpt lat="45.80295" lon="4.7302">
        <ele>356.35565</ele>
        <time>2023-07-26T14:40:49.000Z</time>
      </trkpt>
      <trkpt lat="45.80295" lon="4.73017">
        <ele>356.36444</ele>
        <time>2023-07-26T14:40:50.000Z</time>
      </trkpt>
      <trkpt lat="45.80294" lon="4.73013">
        <ele>356.54608</ele>
        <time>2023-07-26T14:40:51.000Z</time>
      </trkpt>
      <trkpt lat="45.80293" lon="4.73009">
        <ele>356.77704</ele>
        <time>2023-07-26T14:40:52.000Z</time>
      </trkpt>
      <trkpt lat="45.80294" lon="4.73004">
        <ele>357.00708</ele>
        <time>2023-07-26T14:40:53.000Z</time>
      </trkpt>
      <trkpt lat="45.80294" lon="4.73001">
        <ele>357.22064</ele>
        <time>2023-07-26T14:40:54.000Z</time>
      </trkpt>
      <trkpt lat="45.80296" lon="4.72998">
        <ele>357.49869</ele>
        <time>2023-07-26T14:40:55.000Z</time>
      </trkpt>
      <trkpt lat="45.80299" lon="4.72995">
        <ele>357.80408</ele>
        <time>2023-07-26T14:40:56.000Z</time>
      </trkpt>
      <trkpt lat="45.80301" lon="4.72993">
        <ele>358.20331</ele>
        <time>2023-07-26T14:40:57.000Z</time>
      </trkpt>
      <trkpt lat="45.80305" lon="4.7299">
        <ele>358.26843</ele>
        <time>2023-07-26T14:40:58.000Z</time>
      </trkpt>
      <trkpt lat="45.80308" lon="4.72987">
        <ele>358.04428</ele>
        <time>2023-07-26T14:40:59.000Z</time>
      </trkpt>
      <trkpt lat="45.80312" lon="4.72985">
        <ele>358.19598</ele>
        <time>2023-07-26T14:41:00.000Z</time>
      </trkpt>
      <trkpt lat="45.80316" lon="4.72982">
        <ele>358.2923</ele>
        <time>2023-07-26T14:41:01.000Z</time>
      </trkpt>
      <trkpt lat="45.8032" lon="4.7298">
        <ele>358.35004</ele>
        <time>2023-07-26T14:41:02.000Z</time>
      </trkpt>
      <trkpt lat="45.80324" lon="4.72979">
        <ele>358.38626</ele>
        <time>2023-07-26T14:41:03.000Z</time>
      </trkpt>
      <trkpt lat="45.80327" lon="4.72977">
        <ele>358.3927</ele>
        <time>2023-07-26T14:41:04.000Z</time>
      </trkpt>
      <trkpt lat="45.80332" lon="4.72976">
        <ele>358.39899</ele>
        <time>2023-07-26T14:41:05.000Z</time>
      </trkpt>
      <trkpt lat="45.80336" lon="4.72975">
        <ele>358.38849</ele>
        <time>2023-07-26T14:41:06.000Z</time>
      </trkpt>
      <trkpt lat="45.8034" lon="4.72972">
        <ele>358.39093</ele>
        <time>2023-07-26T14:41:07.000Z</time>
      </trkpt>
      <trkpt lat="45.80344" lon="4.72969">
        <ele>358.42575</ele>
        <time>2023-07-26T14:41:08.000Z</time>
      </trkpt>
      <trkpt lat="45.80349" lon="4.72967">
        <ele>358.42325</ele>
        <time>2023-07-26T14:41:09.000Z</time>
      </trkpt>
      <trkpt lat="45.80353" lon="4.72964">
        <ele>358.59027</ele>
        <time>2023-07-26T14:41:10.000Z</time>
      </trkpt>
      <trkpt lat="45.80357" lon="4.72961">
        <ele>358.61435</ele>
        <time>2023-07-26T14:41:11.000Z</time>
      </trkpt>
      <trkpt lat="45.80362" lon="4.72959">
        <ele>358.60938</ele>
        <time>2023-07-26T14:41:12.000Z</time>
      </trkpt>
      <trkpt lat="45.80366" lon="4.72955">
        <ele>358.61469</ele>
        <time>2023-07-26T14:41:13.000Z</time>
      </trkpt>
      <trkpt lat="45.80371" lon="4.72951">
        <ele>358.62686</ele>
        <time>2023-07-26T14:41:14.000Z</time>
      </trkpt>
      <trkpt lat="45.80376" lon="4.72947">
        <ele>358.67514</ele>
        <time>2023-07-26T14:41:15.000Z</time>
      </trkpt>
      <trkpt lat="45.8038" lon="4.72946">
        <ele>358.74341</ele>
        <time>2023-07-26T14:41:16.000Z</time>
      </trkpt>
      <trkpt lat="45.80385" lon="4.72944">
        <ele>358.75125</ele>
        <time>2023-07-26T14:41:17.000Z</time>
      </trkpt>
      <trkpt lat="45.8039" lon="4.72941">
        <ele>358.76239</ele>
        <time>2023-07-26T14:41:18.000Z</time>
      </trkpt>
      <trkpt lat="45.80394" lon="4.72939">
        <ele>358.80072</ele>
        <time>2023-07-26T14:41:19.000Z</time>
      </trkpt>
      <trkpt lat="45.80399" lon="4.72935">
        <ele>358.88849</ele>
        <time>2023-07-26T14:41:20.000Z</time>
      </trkpt>
      <trkpt lat="45.80402" lon="4.72933">
        <ele>358.96393</ele>
        <time>2023-07-26T14:41:21.000Z</time>
      </trkpt>
      <trkpt lat="45.80405" lon="4.72931">
        <ele>359.11334</ele>
        <time>2023-07-26T14:41:22.000Z</time>
      </trkpt>
      <trkpt lat="45.80408" lon="4.72928">
        <ele>359.32852</ele>
        <time>2023-07-26T14:41:23.000Z</time>
      </trkpt>
      <trkpt lat="45.8041" lon="4.72926">
        <ele>359.54355</ele>
        <time>2023-07-26T14:41:24.000Z</time>
      </trkpt>
      <trkpt lat="45.80412" lon="4.72925">
        <ele>359.77188</ele>
        <time>2023-07-26T14:41:25.000Z</time>
      </trkpt>
      <trkpt lat="45.80412" lon="4.7292">
        <ele>360.03683</ele>
        <time>2023-07-26T14:41:26.000Z</time>
      </trkpt>
      <trkpt lat="45.80411" lon="4.72917">
        <ele>360.30917</ele>
        <time>2023-07-26T14:41:27.000Z</time>
      </trkpt>
      <trkpt lat="45.80409" lon="4.72914">
        <ele>360.57938</ele>
        <time>2023-07-26T14:41:28.000Z</time>
      </trkpt>
      <trkpt lat="45.80407" lon="4.72911">
        <ele>360.87473</ele>
        <time>2023-07-26T14:41:29.000Z</time>
      </trkpt>
      <trkpt lat="45.80406" lon="4.72907">
        <ele>361.10236</ele>
        <time>2023-07-26T14:41:30.000Z</time>
      </trkpt>
      <trkpt lat="45.80404" lon="4.72903">
        <ele>361.34204</ele>
        <time>2023-07-26T14:41:31.000Z</time>
      </trkpt>
      <trkpt lat="45.80403" lon="4.72899">
        <ele>361.54752</ele>
        <time>2023-07-26T14:41:32.000Z</time>
      </trkpt>
      <trkpt lat="45.80401" lon="4.72895">
        <ele>361.80399</ele>
        <time>2023-07-26T14:41:33.000Z</time>
      </trkpt>
      <trkpt lat="45.804" lon="4.7289">
        <ele>361.76776</ele>
        <time>2023-07-26T14:41:34.000Z</time>
      </trkpt>
      <trkpt lat="45.80399" lon="4.72886">
        <ele>361.73654</ele>
        <time>2023-07-26T14:41:35.000Z</time>
      </trkpt>
      <trkpt lat="45.80398" lon="4.72882">
        <ele>361.43317</ele>
        <time>2023-07-26T14:41:36.000Z</time>
      </trkpt>
      <trkpt lat="45.80397" lon="4.72877">
        <ele>361.10394</ele>
        <time>2023-07-26T14:41:37.000Z</time>
      </trkpt>
      <trkpt lat="45.80395" lon="4.72872">
        <ele>360.76178</ele>
        <time>2023-07-26T14:41:38.000Z</time>
      </trkpt>
      <trkpt lat="45.80394" lon="4.72867">
        <ele>360.62079</ele>
        <time>2023-07-26T14:41:39.000Z</time>
      </trkpt>
      <trkpt lat="45.80392" lon="4.72862">
        <ele>360.36743</ele>
        <time>2023-07-26T14:41:40.000Z</time>
      </trkpt>
      <trkpt lat="45.8039" lon="4.72858">
        <ele>360.12903</ele>
        <time>2023-07-26T14:41:41.000Z</time>
      </trkpt>
      <trkpt lat="45.80389" lon="4.72853">
        <ele>359.7959</ele>
        <time>2023-07-26T14:41:42.000Z</time>
      </trkpt>
      <trkpt lat="45.80386" lon="4.72847">
        <ele>359.44159</ele>
        <time>2023-07-26T14:41:43.000Z</time>
      </trkpt>
      <trkpt lat="45.80384" lon="4.72841">
        <ele>359.12622</ele>
        <time>2023-07-26T14:41:44.000Z</time>
      </trkpt>
      <trkpt lat="45.80382" lon="4.72836">
        <ele>358.77069</ele>
        <time>2023-07-26T14:41:45.000Z</time>
      </trkpt>
      <trkpt lat="45.80379" lon="4.72829">
        <ele>358.43146</ele>
        <time>2023-07-26T14:41:46.000Z</time>
      </trkpt>
      <trkpt lat="45.80376" lon="4.72823">
        <ele>357.96924</ele>
        <time>2023-07-26T14:41:47.000Z</time>
      </trkpt>
      <trkpt lat="45.80373" lon="4.72816">
        <ele>357.53174</ele>
        <time>2023-07-26T14:41:48.000Z</time>
      </trkpt>
      <trkpt lat="45.8037" lon="4.7281">
        <ele>357.06683</ele>
        <time>2023-07-26T14:41:49.000Z</time>
      </trkpt>
      <trkpt lat="45.80368" lon="4.72802">
        <ele>356.46292</ele>
        <time>2023-07-26T14:41:50.000Z</time>
      </trkpt>
      <trkpt lat="45.80367" lon="4.72795">
        <ele>355.91556</ele>
        <time>2023-07-26T14:41:51.000Z</time>
      </trkpt>
      <trkpt lat="45.80366" lon="4.72789">
        <ele>355.40393</ele>
        <time>2023-07-26T14:41:52.000Z</time>
      </trkpt>
      <trkpt lat="45.80365" lon="4.72781">
        <ele>354.79578</ele>
        <time>2023-07-26T14:41:53.000Z</time>
      </trkpt>
      <trkpt lat="45.80363" lon="4.72776">
        <ele>354.45245</ele>
        <time>2023-07-26T14:41:54.000Z</time>
      </trkpt>
      <trkpt lat="45.80363" lon="4.72772">
        <ele>354.0838</ele>
        <time>2023-07-26T14:41:55.000Z</time>
      </trkpt>
      <trkpt lat="45.80364" lon="4.72769">
        <ele>354.00885</ele>
        <time>2023-07-26T14:41:56.000Z</time>
      </trkpt>
      <trkpt lat="45.80365" lon="4.72765">
        <ele>353.97015</ele>
        <time>2023-07-26T14:41:58.000Z</time>
      </trkpt>
      <trkpt lat="45.80366" lon="4.72763">
        <ele>353.82599</ele>
        <time>2023-07-26T14:42:00.000Z</time>
      </trkpt>
      <trkpt lat="45.80366" lon="4.7276">
        <ele>353.72174</ele>
        <time>2023-07-26T14:42:06.000Z</time>
      </trkpt>
      <trkpt lat="45.80367" lon="4.72757">
        <ele>353.59409</ele>
        <time>2023-07-26T14:42:08.000Z</time>
      </trkpt>
      <trkpt lat="45.80367" lon="4.72755">
        <ele>353.45154</ele>
        <time>2023-07-26T14:42:10.000Z</time>
      </trkpt>
      <trkpt lat="45.80368" lon="4.72752">
        <ele>353.3338</ele>
        <time>2023-07-26T14:42:12.000Z</time>
      </trkpt>
      <trkpt lat="45.8037" lon="4.7275">
        <ele>353.20541</ele>
        <time>2023-07-26T14:42:20.000Z</time>
      </trkpt>
      <trkpt lat="45.80371" lon="4.72745">
        <ele>353.0062</ele>
        <time>2023-07-26T14:42:29.000Z</time>
      </trkpt>
      <trkpt lat="45.80371" lon="4.72742">
        <ele>352.8215</ele>
        <time>2023-07-26T14:42:30.000Z</time>
      </trkpt>
      <trkpt lat="45.80372" lon="4.72737">
        <ele>352.70084</ele>
        <time>2023-07-26T14:42:31.000Z</time>
      </trkpt>
      <trkpt lat="45.80373" lon="4.72732">
        <ele>352.84689</ele>
        <time>2023-07-26T14:42:32.000Z</time>
      </trkpt>
      <trkpt lat="45.80374" lon="4.72728">
        <ele>352.94464</ele>
        <time>2023-07-26T14:42:33.000Z</time>
      </trkpt>
      <trkpt lat="45.80375" lon="4.72723">
        <ele>352.96143</ele>
        <time>2023-07-26T14:42:34.000Z</time>
      </trkpt>
      <trkpt lat="45.80375" lon="4.72718">
        <ele>353.01196</ele>
        <time>2023-07-26T14:42:35.000Z</time>
      </trkpt>
      <trkpt lat="45.80376" lon="4.72712">
        <ele>353.14844</ele>
        <time>2023-07-26T14:42:36.000Z</time>
      </trkpt>
      <trkpt lat="45.80378" lon="4.72707">
        <ele>353.26459</ele>
        <time>2023-07-26T14:42:37.000Z</time>
      </trkpt>
      <trkpt lat="45.80379" lon="4.72703">
        <ele>353.47412</ele>
        <time>2023-07-26T14:42:38.000Z</time>
      </trkpt>
      <trkpt lat="45.8038" lon="4.72698">
        <ele>353.68378</ele>
        <time>2023-07-26T14:42:39.000Z</time>
      </trkpt>
      <trkpt lat="45.8038" lon="4.72694">
        <ele>354.01877</ele>
        <time>2023-07-26T14:42:40.000Z</time>
      </trkpt>
      <trkpt lat="45.80381" lon="4.7269">
        <ele>353.95667</ele>
        <time>2023-07-26T14:42:41.000Z</time>
      </trkpt>
      <trkpt lat="45.80381" lon="4.72686">
        <ele>353.97299</ele>
        <time>2023-07-26T14:42:42.000Z</time>
      </trkpt>
      <trkpt lat="45.8038" lon="4.72683">
        <ele>354.13428</ele>
        <time>2023-07-26T14:42:43.000Z</time>
      </trkpt>
      <trkpt lat="45.80379" lon="4.72681">
        <ele>354.22516</ele>
        <time>2023-07-26T14:42:44.000Z</time>
      </trkpt>
      <trkpt lat="45.80377" lon="4.72678">
        <ele>354.33185</ele>
        <time>2023-07-26T14:42:46.000Z</time>
      </trkpt>
      <trkpt lat="45.80376" lon="4.72673">
        <ele>354.36807</ele>
        <time>2023-07-26T14:42:48.000Z</time>
      </trkpt>
      <trkpt lat="45.80376" lon="4.7267">
        <ele>354.46124</ele>
        <time>2023-07-26T14:42:50.000Z</time>
      </trkpt>
      <trkpt lat="45.80373" lon="4.72665">
        <ele>354.46219</ele>
        <time>2023-07-26T14:42:52.000Z</time>
      </trkpt>
      <trkpt lat="45.80371" lon="4.72661">
        <ele>354.51743</ele>
        <time>2023-07-26T14:42:54.000Z</time>
      </trkpt>
      <trkpt lat="45.8037" lon="4.72659">
        <ele>354.71933</ele>
        <time>2023-07-26T14:42:56.000Z</time>
      </trkpt>
      <trkpt lat="45.80368" lon="4.72659">
        <ele>354.83661</ele>
        <time>2023-07-26T14:43:12.000Z</time>
      </trkpt>
      <trkpt lat="45.80366" lon="4.72657">
        <ele>354.97324</ele>
        <time>2023-07-26T14:43:14.000Z</time>
      </trkpt>
      <trkpt lat="45.80364" lon="4.72656">
        <ele>354.7937</ele>
        <time>2023-07-26T14:43:16.000Z</time>
      </trkpt>
      <trkpt lat="45.80363" lon="4.72654">
        <ele>354.60675</ele>
        <time>2023-07-26T14:43:20.000Z</time>
      </trkpt>
      <trkpt lat="45.8036" lon="4.72652">
        <ele>354.42734</ele>
        <time>2023-07-26T14:43:22.000Z</time>
      </trkpt>
      <trkpt lat="45.80359" lon="4.72652">
        <ele>354.11566</ele>
        <time>2023-07-26T14:43:25.000Z</time>
      </trkpt>
      <trkpt lat="45.80359" lon="4.7265">
        <ele>353.95337</ele>
        <time>2023-07-26T14:44:23.000Z</time>
      </trkpt>
      <trkpt lat="45.80356" lon="4.72648">
        <ele>353.32257</ele>
        <time>2023-07-26T14:44:36.000Z</time>
      </trkpt>
      <trkpt lat="45.80355" lon="4.72646">
        <ele>352.74603</ele>
        <time>2023-07-26T14:44:37.000Z</time>
      </trkpt>
      <trkpt lat="45.80353" lon="4.72644">
        <ele>352.07602</ele>
        <time>2023-07-26T14:44:38.000Z</time>
      </trkpt>
      <trkpt lat="45.8035" lon="4.72641">
        <ele>351.76495</ele>
        <time>2023-07-26T14:44:39.000Z</time>
      </trkpt>
      <trkpt lat="45.80348" lon="4.72636">
        <ele>351.34265</ele>
        <time>2023-07-26T14:44:40.000Z</time>
      </trkpt>
      <trkpt lat="45.80346" lon="4.72633">
        <ele>350.93192</ele>
        <time>2023-07-26T14:44:41.000Z</time>
      </trkpt>
      <trkpt lat="45.80342" lon="4.72629">
        <ele>350.52206</ele>
        <time>2023-07-26T14:44:42.000Z</time>
      </trkpt>
      <trkpt lat="45.80338" lon="4.72626">
        <ele>350.10532</ele>
        <time>2023-07-26T14:44:43.000Z</time>
      </trkpt>
      <trkpt lat="45.80333" lon="4.72622">
        <ele>349.73172</ele>
        <time>2023-07-26T14:44:44.000Z</time>
      </trkpt>
      <trkpt lat="45.80329" lon="4.72617">
        <ele>349.2851</ele>
        <time>2023-07-26T14:44:45.000Z</time>
      </trkpt>
      <trkpt lat="45.80324" lon="4.72611">
        <ele>348.8938</ele>
        <time>2023-07-26T14:44:46.000Z</time>
      </trkpt>
      <trkpt lat="45.80318" lon="4.72607">
        <ele>348.74277</ele>
        <time>2023-07-26T14:44:47.000Z</time>
      </trkpt>
      <trkpt lat="45.80313" lon="4.72601">
        <ele>348.4751</ele>
        <time>2023-07-26T14:44:48.000Z</time>
      </trkpt>
      <trkpt lat="45.80309" lon="4.72596">
        <ele>348.45108</ele>
        <time>2023-07-26T14:44:49.000Z</time>
      </trkpt>
      <trkpt lat="45.80306" lon="4.72593">
        <ele>348.4064</ele>
        <time>2023-07-26T14:44:50.000Z</time>
      </trkpt>
      <trkpt lat="45.80304" lon="4.72591">
        <ele>348.37994</ele>
        <time>2023-07-26T14:44:51.000Z</time>
      </trkpt>
      <trkpt lat="45.803" lon="4.72589">
        <ele>348.55133</ele>
        <time>2023-07-26T14:44:52.000Z</time>
      </trkpt>
      <trkpt lat="45.80298" lon="4.7259">
        <ele>348.74701</ele>
        <time>2023-07-26T14:44:53.000Z</time>
      </trkpt>
      <trkpt lat="45.80296" lon="4.72588">
        <ele>348.70212</ele>
        <time>2023-07-26T14:44:55.000Z</time>
      </trkpt>
      <trkpt lat="45.80294" lon="4.72586">
        <ele>348.49393</ele>
        <time>2023-07-26T14:44:56.000Z</time>
      </trkpt>
      <trkpt lat="45.80292" lon="4.72584">
        <ele>348.77094</ele>
        <time>2023-07-26T14:44:57.000Z</time>
      </trkpt>
      <trkpt lat="45.8029" lon="4.72582">
        <ele>349.15353</ele>
        <time>2023-07-26T14:44:58.000Z</time>
      </trkpt>
      <trkpt lat="45.80288" lon="4.7258">
        <ele>349.50677</ele>
        <time>2023-07-26T14:44:59.000Z</time>
      </trkpt>
      <trkpt lat="45.80286" lon="4.72578">
        <ele>349.91953</ele>
        <time>2023-07-26T14:45:01.000Z</time>
      </trkpt>
      <trkpt lat="45.80284" lon="4.72576">
        <ele>350.31866</ele>
        <time>2023-07-26T14:45:02.000Z</time>
      </trkpt>
      <trkpt lat="45.80282" lon="4.72574">
        <ele>350.73126</ele>
        <time>2023-07-26T14:45:03.000Z</time>
      </trkpt>
      <trkpt lat="45.8028" lon="4.72572">
        <ele>351.3205</ele>
        <time>2023-07-26T14:45:04.000Z</time>
      </trkpt>
      <trkpt lat="45.80277" lon="4.72571">
        <ele>351.9212</ele>
        <time>2023-07-26T14:45:05.000Z</time>
      </trkpt>
      <trkpt lat="45.80274" lon="4.72569">
        <ele>352.4274</ele>
        <time>2023-07-26T14:45:06.000Z</time>
      </trkpt>
      <trkpt lat="45.80271" lon="4.72567">
        <ele>352.99365</ele>
        <time>2023-07-26T14:45:07.000Z</time>
      </trkpt>
      <trkpt lat="45.80269" lon="4.72566">
        <ele>353.50647</ele>
        <time>2023-07-26T14:45:08.000Z</time>
      </trkpt>
      <trkpt lat="45.80266" lon="4.72564">
        <ele>353.76263</ele>
        <time>2023-07-26T14:45:09.000Z</time>
      </trkpt>
      <trkpt lat="45.80264" lon="4.72561">
        <ele>353.99612</ele>
        <time>2023-07-26T14:45:10.000Z</time>
      </trkpt>
      <trkpt lat="45.80261" lon="4.72559">
        <ele>354.07492</ele>
        <time>2023-07-26T14:45:11.000Z</time>
      </trkpt>
      <trkpt lat="45.80258" lon="4.72556">
        <ele>354.15674</ele>
        <time>2023-07-26T14:45:12.000Z</time>
      </trkpt>
      <trkpt lat="45.80255" lon="4.72553">
        <ele>353.99323</ele>
        <time>2023-07-26T14:45:13.000Z</time>
      </trkpt>
      <trkpt lat="45.80251" lon="4.7255">
        <ele>353.72812</ele>
        <time>2023-07-26T14:45:14.000Z</time>
      </trkpt>
      <trkpt lat="45.80248" lon="4.72548">
        <ele>353.36649</ele>
        <time>2023-07-26T14:45:15.000Z</time>
      </trkpt>
      <trkpt lat="45.80246" lon="4.72546">
        <ele>352.90137</ele>
        <time>2023-07-26T14:45:16.000Z</time>
      </trkpt>
      <trkpt lat="45.80244" lon="4.72545">
        <ele>352.11288</ele>
        <time>2023-07-26T14:45:17.000Z</time>
      </trkpt>
      <trkpt lat="45.80242" lon="4.72545">
        <ele>351.24387</ele>
        <time>2023-07-26T14:45:20.000Z</time>
      </trkpt>
      <trkpt lat="45.80241" lon="4.72543">
        <ele>350.966</ele>
        <time>2023-07-26T14:45:26.000Z</time>
      </trkpt>
      <trkpt lat="45.80239" lon="4.72542">
        <ele>349.83173</ele>
        <time>2023-07-26T14:45:32.000Z</time>
      </trkpt>
      <trkpt lat="45.80237" lon="4.72543">
        <ele>349.20673</ele>
        <time>2023-07-26T14:46:53.000Z</time>
      </trkpt>
      <trkpt lat="45.80234" lon="4.72542">
        <ele>348.90277</ele>
        <time>2023-07-26T14:47:14.000Z</time>
      </trkpt>
      <trkpt lat="45.80232" lon="4.72541">
        <ele>348.71643</ele>
        <time>2023-07-26T14:47:15.000Z</time>
      </trkpt>
      <trkpt lat="45.8023" lon="4.7254">
        <ele>348.62531</ele>
        <time>2023-07-26T14:47:16.000Z</time>
      </trkpt>
      <trkpt lat="45.80227" lon="4.72538">
        <ele>348.62808</ele>
        <time>2023-07-26T14:47:17.000Z</time>
      </trkpt>
      <trkpt lat="45.80225" lon="4.72536">
        <ele>347.92709</ele>
        <time>2023-07-26T14:47:19.000Z</time>
      </trkpt>
      <trkpt lat="45.80223" lon="4.72534">
        <ele>347.21509</ele>
        <time>2023-07-26T14:47:20.000Z</time>
      </trkpt>
      <trkpt lat="45.8022" lon="4.72533">
        <ele>346.57269</ele>
        <time>2023-07-26T14:47:21.000Z</time>
      </trkpt>
      <trkpt lat="45.80217" lon="4.72532">
        <ele>345.90958</ele>
        <time>2023-07-26T14:47:22.000Z</time>
      </trkpt>
      <trkpt lat="45.80214" lon="4.72531">
        <ele>345.302</ele>
        <time>2023-07-26T14:47:23.000Z</time>
      </trkpt>
      <trkpt lat="45.80212" lon="4.72529">
        <ele>344.60767</ele>
        <time>2023-07-26T14:47:24.000Z</time>
      </trkpt>
      <trkpt lat="45.80209" lon="4.72527">
        <ele>343.76031</ele>
        <time>2023-07-26T14:47:25.000Z</time>
      </trkpt>
      <trkpt lat="45.80207" lon="4.72524">
        <ele>343.46619</ele>
        <time>2023-07-26T14:47:26.000Z</time>
      </trkpt>
      <trkpt lat="45.80205" lon="4.7252">
        <ele>343.17352</ele>
        <time>2023-07-26T14:47:27.000Z</time>
      </trkpt>
      <trkpt lat="45.80203" lon="4.72516">
        <ele>342.97003</ele>
        <time>2023-07-26T14:47:28.000Z</time>
      </trkpt>
      <trkpt lat="45.80202" lon="4.72511">
        <ele>343.10367</ele>
        <time>2023-07-26T14:47:29.000Z</time>
      </trkpt>
      <trkpt lat="45.80201" lon="4.72506">
        <ele>343.58893</ele>
        <time>2023-07-26T14:47:30.000Z</time>
      </trkpt>
      <trkpt lat="45.80201" lon="4.72502">
        <ele>344.06552</ele>
        <time>2023-07-26T14:47:31.000Z</time>
      </trkpt>
      <trkpt lat="45.80201" lon="4.72498">
        <ele>343.75653</ele>
        <time>2023-07-26T14:47:32.000Z</time>
      </trkpt>
      <trkpt lat="45.80201" lon="4.72493">
        <ele>344.31137</ele>
        <time>2023-07-26T14:47:33.000Z</time>
      </trkpt>
      <trkpt lat="45.80201" lon="4.72488">
        <ele>344.33511</ele>
        <time>2023-07-26T14:47:34.000Z</time>
      </trkpt>
      <trkpt lat="45.80201" lon="4.72484">
        <ele>344.05612</ele>
        <time>2023-07-26T14:47:35.000Z</time>
      </trkpt>
      <trkpt lat="45.80199" lon="4.7248">
        <ele>343.65201</ele>
        <time>2023-07-26T14:47:36.000Z</time>
      </trkpt>
      <trkpt lat="45.80198" lon="4.72476">
        <ele>343.05392</ele>
        <time>2023-07-26T14:47:37.000Z</time>
      </trkpt>
      <trkpt lat="45.80196" lon="4.72473">
        <ele>342.42624</ele>
        <time>2023-07-26T14:47:38.000Z</time>
      </trkpt>
      <trkpt lat="45.80194" lon="4.7247">
        <ele>342.56519</ele>
        <time>2023-07-26T14:47:39.000Z</time>
      </trkpt>
      <trkpt lat="45.80193" lon="4.72467">
        <ele>342.65314</ele>
        <time>2023-07-26T14:47:40.000Z</time>
      </trkpt>
      <trkpt lat="45.80192" lon="4.72462">
        <ele>342.73358</ele>
        <time>2023-07-26T14:47:42.000Z</time>
      </trkpt>
      <trkpt lat="45.80191" lon="4.72459">
        <ele>342.8255</ele>
        <time>2023-07-26T14:47:44.000Z</time>
      </trkpt>
      <trkpt lat="45.80192" lon="4.72456">
        <ele>342.8555</ele>
        <time>2023-07-26T14:47:47.000Z</time>
      </trkpt>
      <trkpt lat="45.80191" lon="4.72453">
        <ele>343.70068</ele>
        <time>2023-07-26T14:47:51.000Z</time>
      </trkpt>
      <trkpt lat="45.8019" lon="4.72451">
        <ele>343.94742</ele>
        <time>2023-07-26T14:48:08.000Z</time>
      </trkpt>
      <trkpt lat="45.80192" lon="4.72449">
        <ele>344.21573</ele>
        <time>2023-07-26T14:48:10.000Z</time>
      </trkpt>
      <trkpt lat="45.80194" lon="4.72449">
        <ele>344.47528</ele>
        <time>2023-07-26T14:48:11.000Z</time>
      </trkpt>
      <trkpt lat="45.80198" lon="4.72449">
        <ele>344.73505</ele>
        <time>2023-07-26T14:48:13.000Z</time>
      </trkpt>
      <trkpt lat="45.802" lon="4.72449">
        <ele>344.87506</ele>
        <time>2023-07-26T14:48:14.000Z</time>
      </trkpt>
      <trkpt lat="45.80202" lon="4.72448">
        <ele>345.05817</ele>
        <time>2023-07-26T14:48:15.000Z</time>
      </trkpt>
      <trkpt lat="45.80204" lon="4.72448">
        <ele>345.24121</ele>
        <time>2023-07-26T14:48:16.000Z</time>
      </trkpt>
      <trkpt lat="45.80207" lon="4.72448">
        <ele>345.46494</ele>
        <time>2023-07-26T14:48:17.000Z</time>
      </trkpt>
      <trkpt lat="45.80209" lon="4.72448">
        <ele>345.68512</ele>
        <time>2023-07-26T14:48:18.000Z</time>
      </trkpt>
      <trkpt lat="45.80212" lon="4.72447">
        <ele>345.8356</ele>
        <time>2023-07-26T14:48:19.000Z</time>
      </trkpt>
      <trkpt lat="45.80215" lon="4.72446">
        <ele>345.99518</ele>
        <time>2023-07-26T14:48:20.000Z</time>
      </trkpt>
      <trkpt lat="45.80217" lon="4.72444">
        <ele>346.06772</ele>
        <time>2023-07-26T14:48:21.000Z</time>
      </trkpt>
      <trkpt lat="45.8022" lon="4.72442">
        <ele>346.14459</ele>
        <time>2023-07-26T14:48:22.000Z</time>
      </trkpt>
      <trkpt lat="45.80223" lon="4.7244">
        <ele>346.21259</ele>
        <time>2023-07-26T14:48:23.000Z</time>
      </trkpt>
      <trkpt lat="45.80226" lon="4.72438">
        <ele>346.33221</ele>
        <time>2023-07-26T14:48:24.000Z</time>
      </trkpt>
      <trkpt lat="45.80229" lon="4.72435">
        <ele>346.49188</ele>
        <time>2023-07-26T14:48:25.000Z</time>
      </trkpt>
      <trkpt lat="45.80232" lon="4.72433">
        <ele>346.67102</ele>
        <time>2023-07-26T14:48:26.000Z</time>
      </trkpt>
      <trkpt lat="45.80236" lon="4.72431">
        <ele>346.85605</ele>
        <time>2023-07-26T14:48:27.000Z</time>
      </trkpt>
      <trkpt lat="45.8024" lon="4.72429">
        <ele>347.09586</ele>
        <time>2023-07-26T14:48:28.000Z</time>
      </trkpt>
      <trkpt lat="45.80243" lon="4.72428">
        <ele>346.51923</ele>
        <time>2023-07-26T14:48:29.000Z</time>
      </trkpt>
      <trkpt lat="45.80247" lon="4.72426">
        <ele>346.54395</ele>
        <time>2023-07-26T14:48:30.000Z</time>
      </trkpt>
      <trkpt lat="45.8025" lon="4.72424">
        <ele>346.53784</ele>
        <time>2023-07-26T14:48:31.000Z</time>
      </trkpt>
      <trkpt lat="45.80254" lon="4.72421">
        <ele>346.52914</ele>
        <time>2023-07-26T14:48:32.000Z</time>
      </trkpt>
      <trkpt lat="45.80258" lon="4.72418">
        <ele>346.52634</ele>
        <time>2023-07-26T14:48:33.000Z</time>
      </trkpt>
      <trkpt lat="45.80262" lon="4.72415">
        <ele>346.65103</ele>
        <time>2023-07-26T14:48:34.000Z</time>
      </trkpt>
      <trkpt lat="45.80266" lon="4.72413">
        <ele>346.73737</ele>
        <time>2023-07-26T14:48:35.000Z</time>
      </trkpt>
      <trkpt lat="45.8027" lon="4.7241">
        <ele>346.84146</ele>
        <time>2023-07-26T14:48:36.000Z</time>
      </trkpt>
      <trkpt lat="45.80275" lon="4.72408">
        <ele>346.95673</ele>
        <time>2023-07-26T14:48:37.000Z</time>
      </trkpt>
      <trkpt lat="45.80279" lon="4.72407">
        <ele>347.03656</ele>
        <time>2023-07-26T14:48:38.000Z</time>
      </trkpt>
      <trkpt lat="45.80283" lon="4.72405">
        <ele>347.12323</ele>
        <time>2023-07-26T14:48:39.000Z</time>
      </trkpt>
      <trkpt lat="45.80287" lon="4.72404">
        <ele>347.2139</ele>
        <time>2023-07-26T14:48:40.000Z</time>
      </trkpt>
      <trkpt lat="45.80291" lon="4.72403">
        <ele>347.38208</ele>
        <time>2023-07-26T14:48:41.000Z</time>
      </trkpt>
      <trkpt lat="45.80296" lon="4.72401">
        <ele>347.54852</ele>
        <time>2023-07-26T14:48:42.000Z</time>
      </trkpt>
      <trkpt lat="45.80301" lon="4.724">
        <ele>347.65109</ele>
        <time>2023-07-26T14:48:43.000Z</time>
      </trkpt>
      <trkpt lat="45.80304" lon="4.72399">
        <ele>347.78714</ele>
        <time>2023-07-26T14:48:44.000Z</time>
      </trkpt>
      <trkpt lat="45.80309" lon="4.72395">
        <ele>347.91519</ele>
        <time>2023-07-26T14:48:45.000Z</time>
      </trkpt>
      <trkpt lat="45.80313" lon="4.72391">
        <ele>348.04623</ele>
        <time>2023-07-26T14:48:46.000Z</time>
      </trkpt>
      <trkpt lat="45.80316" lon="4.72386">
        <ele>348.19159</ele>
        <time>2023-07-26T14:48:47.000Z</time>
      </trkpt>
      <trkpt lat="45.8032" lon="4.72384">
        <ele>348.24646</ele>
        <time>2023-07-26T14:48:48.000Z</time>
      </trkpt>
      <trkpt lat="45.80324" lon="4.72382">
        <ele>348.30283</ele>
        <time>2023-07-26T14:48:49.000Z</time>
      </trkpt>
      <trkpt lat="45.80327" lon="4.72381">
        <ele>348.36249</ele>
        <time>2023-07-26T14:48:50.000Z</time>
      </trkpt>
      <trkpt lat="45.80331" lon="4.72379">
        <ele>348.44501</ele>
        <time>2023-07-26T14:48:51.000Z</time>
      </trkpt>
      <trkpt lat="45.80333" lon="4.72378">
        <ele>348.5137</ele>
        <time>2023-07-26T14:48:52.000Z</time>
      </trkpt>
      <trkpt lat="45.80336" lon="4.72376">
        <ele>348.52588</ele>
        <time>2023-07-26T14:48:53.000Z</time>
      </trkpt>
      <trkpt lat="45.80339" lon="4.72374">
        <ele>348.90192</ele>
        <time>2023-07-26T14:48:54.000Z</time>
      </trkpt>
      <trkpt lat="45.80342" lon="4.72372">
        <ele>349.0473</ele>
        <time>2023-07-26T14:48:55.000Z</time>
      </trkpt>
      <trkpt lat="45.80345" lon="4.7237">
        <ele>349.18283</ele>
        <time>2023-07-26T14:48:56.000Z</time>
      </trkpt>
      <trkpt lat="45.80347" lon="4.72369">
        <ele>349.30621</ele>
        <time>2023-07-26T14:48:57.000Z</time>
      </trkpt>
      <trkpt lat="45.80349" lon="4.72368">
        <ele>349.44882</ele>
        <time>2023-07-26T14:48:59.000Z</time>
      </trkpt>
      <trkpt lat="45.80351" lon="4.72368">
        <ele>349.58365</ele>
        <time>2023-07-26T14:49:01.000Z</time>
      </trkpt>
      <trkpt lat="45.80355" lon="4.72368">
        <ele>349.71835</ele>
        <time>2023-07-26T14:49:03.000Z</time>
      </trkpt>
      <trkpt lat="45.80357" lon="4.72367">
        <ele>349.91687</ele>
        <time>2023-07-26T14:49:04.000Z</time>
      </trkpt>
      <trkpt lat="45.80359" lon="4.72367">
        <ele>350.07324</ele>
        <time>2023-07-26T14:49:05.000Z</time>
      </trkpt>
      <trkpt lat="45.80361" lon="4.72366">
        <ele>350.27841</ele>
        <time>2023-07-26T14:49:06.000Z</time>
      </trkpt>
      <trkpt lat="45.80364" lon="4.72364">
        <ele>350.51373</ele>
        <time>2023-07-26T14:49:07.000Z</time>
      </trkpt>
      <trkpt lat="45.80367" lon="4.72362">
        <ele>350.69958</ele>
        <time>2023-07-26T14:49:08.000Z</time>
      </trkpt>
      <trkpt lat="45.8037" lon="4.7236">
        <ele>350.84393</ele>
        <time>2023-07-26T14:49:09.000Z</time>
      </trkpt>
      <trkpt lat="45.80373" lon="4.72358">
        <ele>351.00348</ele>
        <time>2023-07-26T14:49:10.000Z</time>
      </trkpt>
      <trkpt lat="45.80377" lon="4.72356">
        <ele>351.26971</ele>
        <time>2023-07-26T14:49:11.000Z</time>
      </trkpt>
      <trkpt lat="45.80381" lon="4.72355">
        <ele>351.48376</ele>
        <time>2023-07-26T14:49:12.000Z</time>
      </trkpt>
      <trkpt lat="45.80385" lon="4.72354">
        <ele>351.55899</ele>
        <time>2023-07-26T14:49:13.000Z</time>
      </trkpt>
      <trkpt lat="45.80388" lon="4.72352">
        <ele>351.64511</ele>
        <time>2023-07-26T14:49:14.000Z</time>
      </trkpt>
      <trkpt lat="45.80392" lon="4.7235">
        <ele>351.85843</ele>
        <time>2023-07-26T14:49:15.000Z</time>
      </trkpt>
      <trkpt lat="45.80397" lon="4.72348">
        <ele>351.85605</ele>
        <time>2023-07-26T14:49:16.000Z</time>
      </trkpt>
      <trkpt lat="45.80402" lon="4.72345">
        <ele>351.55447</ele>
        <time>2023-07-26T14:49:17.000Z</time>
      </trkpt>
      <trkpt lat="45.80406" lon="4.72342">
        <ele>351.45715</ele>
        <time>2023-07-26T14:49:18.000Z</time>
      </trkpt>
      <trkpt lat="45.8041" lon="4.7234">
        <ele>351.34915</ele>
        <time>2023-07-26T14:49:19.000Z</time>
      </trkpt>
      <trkpt lat="45.80415" lon="4.72338">
        <ele>351.32025</ele>
        <time>2023-07-26T14:49:20.000Z</time>
      </trkpt>
      <trkpt lat="45.80419" lon="4.72336">
        <ele>351.27618</ele>
        <time>2023-07-26T14:49:21.000Z</time>
      </trkpt>
      <trkpt lat="45.80423" lon="4.72334">
        <ele>351.32291</ele>
        <time>2023-07-26T14:49:22.000Z</time>
      </trkpt>
      <trkpt lat="45.80427" lon="4.72332">
        <ele>351.32648</ele>
        <time>2023-07-26T14:49:23.000Z</time>
      </trkpt>
      <trkpt lat="45.80431" lon="4.7233">
        <ele>351.23798</ele>
        <time>2023-07-26T14:49:24.000Z</time>
      </trkpt>
      <trkpt lat="45.80435" lon="4.72328">
        <ele>351.15332</ele>
        <time>2023-07-26T14:49:25.000Z</time>
      </trkpt>
      <trkpt lat="45.8044" lon="4.72327">
        <ele>351.02509</ele>
        <time>2023-07-26T14:49:26.000Z</time>
      </trkpt>
      <trkpt lat="45.80445" lon="4.72325">
        <ele>350.85593</ele>
        <time>2023-07-26T14:49:27.000Z</time>
      </trkpt>
      <trkpt lat="45.80449" lon="4.72323">
        <ele>350.81409</ele>
        <time>2023-07-26T14:49:28.000Z</time>
      </trkpt>
      <trkpt lat="45.80454" lon="4.72321">
        <ele>350.82385</ele>
        <time>2023-07-26T14:49:29.000Z</time>
      </trkpt>
      <trkpt lat="45.80459" lon="4.72319">
        <ele>350.81235</ele>
        <time>2023-07-26T14:49:30.000Z</time>
      </trkpt>
      <trkpt lat="45.80463" lon="4.72317">
        <ele>350.56366</ele>
        <time>2023-07-26T14:49:31.000Z</time>
      </trkpt>
      <trkpt lat="45.80468" lon="4.72316">
        <ele>350.36563</ele>
        <time>2023-07-26T14:49:32.000Z</time>
      </trkpt>
      <trkpt lat="45.80473" lon="4.72314">
        <ele>350.29565</ele>
        <time>2023-07-26T14:49:33.000Z</time>
      </trkpt>
      <trkpt lat="45.80481" lon="4.72313">
        <ele>349.93335</ele>
        <time>2023-07-26T14:49:34.000Z</time>
      </trkpt>
      <trkpt lat="45.80484" lon="4.72309">
        <ele>349.46863</ele>
        <time>2023-07-26T14:49:35.000Z</time>
      </trkpt>
      <trkpt lat="45.80489" lon="4.72306">
        <ele>349.7088</ele>
        <time>2023-07-26T14:49:36.000Z</time>
      </trkpt>
      <trkpt lat="45.80493" lon="4.72303">
        <ele>349.90555</ele>
        <time>2023-07-26T14:49:37.000Z</time>
      </trkpt>
      <trkpt lat="45.80498" lon="4.72301">
        <ele>350.38568</ele>
        <time>2023-07-26T14:49:38.000Z</time>
      </trkpt>
      <trkpt lat="45.80502" lon="4.72301">
        <ele>350.90411</ele>
        <time>2023-07-26T14:49:39.000Z</time>
      </trkpt>
      <trkpt lat="45.80506" lon="4.723">
        <ele>351.07397</ele>
        <time>2023-07-26T14:49:40.000Z</time>
      </trkpt>
      <trkpt lat="45.8051" lon="4.72297">
        <ele>351.3627</ele>
        <time>2023-07-26T14:49:41.000Z</time>
      </trkpt>
      <trkpt lat="45.80513" lon="4.72294">
        <ele>351.6246</ele>
        <time>2023-07-26T14:49:42.000Z</time>
      </trkpt>
      <trkpt lat="45.80519" lon="4.7229">
        <ele>351.88538</ele>
        <time>2023-07-26T14:49:43.000Z</time>
      </trkpt>
      <trkpt lat="45.80524" lon="4.72289">
        <ele>352.14731</ele>
        <time>2023-07-26T14:49:44.000Z</time>
      </trkpt>
      <trkpt lat="45.80529" lon="4.72288">
        <ele>352.36459</ele>
        <time>2023-07-26T14:49:45.000Z</time>
      </trkpt>
      <trkpt lat="45.80534" lon="4.72285">
        <ele>352.61752</ele>
        <time>2023-07-26T14:49:46.000Z</time>
      </trkpt>
      <trkpt lat="45.80539" lon="4.72282">
        <ele>352.84137</ele>
        <time>2023-07-26T14:49:47.000Z</time>
      </trkpt>
      <trkpt lat="45.80544" lon="4.7228">
        <ele>352.99832</ele>
        <time>2023-07-26T14:49:48.000Z</time>
      </trkpt>
      <trkpt lat="45.8055" lon="4.72277">
        <ele>353.09644</ele>
        <time>2023-07-26T14:49:49.000Z</time>
      </trkpt>
      <trkpt lat="45.80556" lon="4.72274">
        <ele>353.30853</ele>
        <time>2023-07-26T14:49:50.000Z</time>
      </trkpt>
      <trkpt lat="45.8056" lon="4.72272">
        <ele>353.82571</ele>
        <time>2023-07-26T14:49:51.000Z</time>
      </trkpt>
      <trkpt lat="45.80566" lon="4.72268">
        <ele>354.35284</ele>
        <time>2023-07-26T14:49:52.000Z</time>
      </trkpt>
      <trkpt lat="45.8057" lon="4.72267">
        <ele>354.61801</ele>
        <time>2023-07-26T14:49:53.000Z</time>
      </trkpt>
      <trkpt lat="45.80575" lon="4.72265">
        <ele>355.21234</ele>
        <time>2023-07-26T14:49:54.000Z</time>
      </trkpt>
      <trkpt lat="45.8058" lon="4.72262">
        <ele>355.99652</ele>
        <time>2023-07-26T14:49:55.000Z</time>
      </trkpt>
      <trkpt lat="45.80584" lon="4.72259">
        <ele>355.96796</ele>
        <time>2023-07-26T14:49:56.000Z</time>
      </trkpt>
      <trkpt lat="45.80589" lon="4.72256">
        <ele>355.97137</ele>
        <time>2023-07-26T14:49:57.000Z</time>
      </trkpt>
      <trkpt lat="45.80595" lon="4.72255">
        <ele>355.68039</ele>
        <time>2023-07-26T14:49:58.000Z</time>
      </trkpt>
      <trkpt lat="45.80598" lon="4.72253">
        <ele>355.36642</ele>
        <time>2023-07-26T14:49:59.000Z</time>
      </trkpt>
      <trkpt lat="45.80601" lon="4.72249">
        <ele>355.35483</ele>
        <time>2023-07-26T14:50:00.000Z</time>
      </trkpt>
      <trkpt lat="45.80604" lon="4.72249">
        <ele>355.24133</ele>
        <time>2023-07-26T14:50:01.000Z</time>
      </trkpt>
      <trkpt lat="45.80608" lon="4.72248">
        <ele>355.06366</ele>
        <time>2023-07-26T14:50:02.000Z</time>
      </trkpt>
      <trkpt lat="45.8061" lon="4.72247">
        <ele>354.92053</ele>
        <time>2023-07-26T14:50:03.000Z</time>
      </trkpt>
      <trkpt lat="45.80612" lon="4.72245">
        <ele>354.75854</ele>
        <time>2023-07-26T14:50:04.000Z</time>
      </trkpt>
      <trkpt lat="45.80615" lon="4.72244">
        <ele>354.69531</ele>
        <time>2023-07-26T14:50:05.000Z</time>
      </trkpt>
      <trkpt lat="45.80619" lon="4.72242">
        <ele>354.42947</ele>
        <time>2023-07-26T14:50:06.000Z</time>
      </trkpt>
      <trkpt lat="45.80622" lon="4.7224">
        <ele>354.39273</ele>
        <time>2023-07-26T14:50:07.000Z</time>
      </trkpt>
      <trkpt lat="45.80626" lon="4.72239">
        <ele>354.34296</ele>
        <time>2023-07-26T14:50:08.000Z</time>
      </trkpt>
      <trkpt lat="45.80629" lon="4.72237">
        <ele>354.32294</ele>
        <time>2023-07-26T14:50:09.000Z</time>
      </trkpt>
      <trkpt lat="45.80633" lon="4.72235">
        <ele>354.19324</ele>
        <time>2023-07-26T14:50:10.000Z</time>
      </trkpt>
      <trkpt lat="45.80636" lon="4.72233">
        <ele>353.96793</ele>
        <time>2023-07-26T14:50:11.000Z</time>
      </trkpt>
      <trkpt lat="45.80639" lon="4.72231">
        <ele>353.711</ele>
        <time>2023-07-26T14:50:12.000Z</time>
      </trkpt>
      <trkpt lat="45.80643" lon="4.72228">
        <ele>353.70523</ele>
        <time>2023-07-26T14:50:13.000Z</time>
      </trkpt>
      <trkpt lat="45.80646" lon="4.72226">
        <ele>353.62143</ele>
        <time>2023-07-26T14:50:14.000Z</time>
      </trkpt>
      <trkpt lat="45.80649" lon="4.72224">
        <ele>353.41144</ele>
        <time>2023-07-26T14:50:15.000Z</time>
      </trkpt>
      <trkpt lat="45.80653" lon="4.72222">
        <ele>353.54541</ele>
        <time>2023-07-26T14:50:16.000Z</time>
      </trkpt>
      <trkpt lat="45.80655" lon="4.7222">
        <ele>353.62399</ele>
        <time>2023-07-26T14:50:17.000Z</time>
      </trkpt>
      <trkpt lat="45.80658" lon="4.72218">
        <ele>353.77826</ele>
        <time>2023-07-26T14:50:18.000Z</time>
      </trkpt>
      <trkpt lat="45.80661" lon="4.72215">
        <ele>353.92773</ele>
        <time>2023-07-26T14:50:19.000Z</time>
      </trkpt>
      <trkpt lat="45.80664" lon="4.72214">
        <ele>353.9985</ele>
        <time>2023-07-26T14:50:20.000Z</time>
      </trkpt>
      <trkpt lat="45.80667" lon="4.72212">
        <ele>354.03705</ele>
        <time>2023-07-26T14:50:21.000Z</time>
      </trkpt>
      <trkpt lat="45.8067" lon="4.72212">
        <ele>354.07892</ele>
        <time>2023-07-26T14:50:22.000Z</time>
      </trkpt>
      <trkpt lat="45.80674" lon="4.72212">
        <ele>354.15244</ele>
        <time>2023-07-26T14:50:23.000Z</time>
      </trkpt>
      <trkpt lat="45.80677" lon="4.72212">
        <ele>354.25714</ele>
        <time>2023-07-26T14:50:24.000Z</time>
      </trkpt>
      <trkpt lat="45.80681" lon="4.72212">
        <ele>354.28256</ele>
        <time>2023-07-26T14:50:25.000Z</time>
      </trkpt>
      <trkpt lat="45.80684" lon="4.72214">
        <ele>354.43512</ele>
        <time>2023-07-26T14:50:26.000Z</time>
      </trkpt>
      <trkpt lat="45.80688" lon="4.72216">
        <ele>354.51791</ele>
        <time>2023-07-26T14:50:27.000Z</time>
      </trkpt>
      <trkpt lat="45.8069" lon="4.72219">
        <ele>354.60013</ele>
        <time>2023-07-26T14:50:28.000Z</time>
      </trkpt>
      <trkpt lat="45.80693" lon="4.72222">
        <ele>354.70435</ele>
        <time>2023-07-26T14:50:29.000Z</time>
      </trkpt>
      <trkpt lat="45.80696" lon="4.72225">
        <ele>354.88269</ele>
        <time>2023-07-26T14:50:30.000Z</time>
      </trkpt>
      <trkpt lat="45.80698" lon="4.72229">
        <ele>354.8623</ele>
        <time>2023-07-26T14:50:31.000Z</time>
      </trkpt>
      <trkpt lat="45.80699" lon="4.72235">
        <ele>354.83966</ele>
        <time>2023-07-26T14:50:32.000Z</time>
      </trkpt>
      <trkpt lat="45.80699" lon="4.72241">
        <ele>354.80365</ele>
        <time>2023-07-26T14:50:33.000Z</time>
      </trkpt>
      <trkpt lat="45.80699" lon="4.72247">
        <ele>354.77591</ele>
        <time>2023-07-26T14:50:34.000Z</time>
      </trkpt>
      <trkpt lat="45.80698" lon="4.72253">
        <ele>354.70932</ele>
        <time>2023-07-26T14:50:35.000Z</time>
      </trkpt>
      <trkpt lat="45.80699" lon="4.72261">
        <ele>354.62762</ele>
        <time>2023-07-26T14:50:36.000Z</time>
      </trkpt>
      <trkpt lat="45.80698" lon="4.72267">
        <ele>354.50702</ele>
        <time>2023-07-26T14:50:37.000Z</time>
      </trkpt>
      <trkpt lat="45.80697" lon="4.72274">
        <ele>354.35226</ele>
        <time>2023-07-26T14:50:38.000Z</time>
      </trkpt>
      <trkpt lat="45.80697" lon="4.72282">
        <ele>354.18542</ele>
        <time>2023-07-26T14:50:39.000Z</time>
      </trkpt>
      <trkpt lat="45.80696" lon="4.72291">
        <ele>354.06308</ele>
        <time>2023-07-26T14:50:40.000Z</time>
      </trkpt>
      <trkpt lat="45.80695" lon="4.72301">
        <ele>353.95624</ele>
        <time>2023-07-26T14:50:41.000Z</time>
      </trkpt>
      <trkpt lat="45.80693" lon="4.7231">
        <ele>353.81381</ele>
        <time>2023-07-26T14:50:42.000Z</time>
      </trkpt>
      <trkpt lat="45.80692" lon="4.72318">
        <ele>353.60947</ele>
        <time>2023-07-26T14:50:43.000Z</time>
      </trkpt>
      <trkpt lat="45.8069" lon="4.72323">
        <ele>353.38104</ele>
        <time>2023-07-26T14:50:44.000Z</time>
      </trkpt>
      <trkpt lat="45.80687" lon="4.72326">
        <ele>353.18005</ele>
        <time>2023-07-26T14:50:45.000Z</time>
      </trkpt>
      <trkpt lat="45.80685" lon="4.7233">
        <ele>353.02472</ele>
        <time>2023-07-26T14:50:46.000Z</time>
      </trkpt>
      <trkpt lat="45.80686" lon="4.72335">
        <ele>352.74615</ele>
        <time>2023-07-26T14:50:47.000Z</time>
      </trkpt>
      <trkpt lat="45.80686" lon="4.72337">
        <ele>352.48651</ele>
        <time>2023-07-26T14:50:48.000Z</time>
      </trkpt>
      <trkpt lat="45.80688" lon="4.7234">
        <ele>352.21695</ele>
        <time>2023-07-26T14:50:49.000Z</time>
      </trkpt>
      <trkpt lat="45.8069" lon="4.72343">
        <ele>351.8407</ele>
        <time>2023-07-26T14:50:50.000Z</time>
      </trkpt>
      <trkpt lat="45.80691" lon="4.72347">
        <ele>351.65823</ele>
        <time>2023-07-26T14:50:51.000Z</time>
      </trkpt>
      <trkpt lat="45.80689" lon="4.7235">
        <ele>351.47357</ele>
        <time>2023-07-26T14:50:52.000Z</time>
      </trkpt>
      <trkpt lat="45.80688" lon="4.72354">
        <ele>351.35318</ele>
        <time>2023-07-26T14:50:53.000Z</time>
      </trkpt>
      <trkpt lat="45.80688" lon="4.72359">
        <ele>351.26703</ele>
        <time>2023-07-26T14:50:54.000Z</time>
      </trkpt>
      <trkpt lat="45.80687" lon="4.72365">
        <ele>351.14716</ele>
        <time>2023-07-26T14:50:55.000Z</time>
      </trkpt>
      <trkpt lat="45.80685" lon="4.7237">
        <ele>351.0621</ele>
        <time>2023-07-26T14:50:56.000Z</time>
      </trkpt>
      <trkpt lat="45.80684" lon="4.72376">
        <ele>350.99643</ele>
        <time>2023-07-26T14:50:57.000Z</time>
      </trkpt>
      <trkpt lat="45.80683" lon="4.72382">
        <ele>350.92502</ele>
        <time>2023-07-26T14:50:58.000Z</time>
      </trkpt>
      <trkpt lat="45.80683" lon="4.72388">
        <ele>350.93414</ele>
        <time>2023-07-26T14:50:59.000Z</time>
      </trkpt>
      <trkpt lat="45.80685" lon="4.72396">
        <ele>350.92825</ele>
        <time>2023-07-26T14:51:00.000Z</time>
      </trkpt>
      <trkpt lat="45.80684" lon="4.72403">
        <ele>350.89825</ele>
        <time>2023-07-26T14:51:01.000Z</time>
      </trkpt>
      <trkpt lat="45.80683" lon="4.7241">
        <ele>350.93124</ele>
        <time>2023-07-26T14:51:02.000Z</time>
      </trkpt>
      <trkpt lat="45.80683" lon="4.72417">
        <ele>350.92523</ele>
        <time>2023-07-26T14:51:03.000Z</time>
      </trkpt>
      <trkpt lat="45.80682" lon="4.72423">
        <ele>350.92032</ele>
        <time>2023-07-26T14:51:04.000Z</time>
      </trkpt>
      <trkpt lat="45.80682" lon="4.72429">
        <ele>350.95737</ele>
        <time>2023-07-26T14:51:05.000Z</time>
      </trkpt>
      <trkpt lat="45.80683" lon="4.72434">
        <ele>351.00717</ele>
        <time>2023-07-26T14:51:06.000Z</time>
      </trkpt>
      <trkpt lat="45.80684" lon="4.72441">
        <ele>351.0452</ele>
        <time>2023-07-26T14:51:07.000Z</time>
      </trkpt>
      <trkpt lat="45.80687" lon="4.72445">
        <ele>351.16931</ele>
        <time>2023-07-26T14:51:08.000Z</time>
      </trkpt>
      <trkpt lat="45.8069" lon="4.72453">
        <ele>351.26715</ele>
        <time>2023-07-26T14:51:09.000Z</time>
      </trkpt>
      <trkpt lat="45.80694" lon="4.72457">
        <ele>351.40338</ele>
        <time>2023-07-26T14:51:10.000Z</time>
      </trkpt>
      <trkpt lat="45.80698" lon="4.7246">
        <ele>351.60394</ele>
        <time>2023-07-26T14:51:11.000Z</time>
      </trkpt>
      <trkpt lat="45.80701" lon="4.72463">
        <ele>351.85873</ele>
        <time>2023-07-26T14:51:12.000Z</time>
      </trkpt>
      <trkpt lat="45.80705" lon="4.72464">
        <ele>352.13614</ele>
        <time>2023-07-26T14:51:13.000Z</time>
      </trkpt>
      <trkpt lat="45.80709" lon="4.72468">
        <ele>352.37686</ele>
        <time>2023-07-26T14:51:14.000Z</time>
      </trkpt>
      <trkpt lat="45.80713" lon="4.7247">
        <ele>352.75076</ele>
        <time>2023-07-26T14:51:15.000Z</time>
      </trkpt>
      <trkpt lat="45.80717" lon="4.72473">
        <ele>353.08588</ele>
        <time>2023-07-26T14:51:16.000Z</time>
      </trkpt>
      <trkpt lat="45.80721" lon="4.72475">
        <ele>353.44565</ele>
        <time>2023-07-26T14:51:17.000Z</time>
      </trkpt>
      <trkpt lat="45.80726" lon="4.72476">
        <ele>353.78949</ele>
        <time>2023-07-26T14:51:18.000Z</time>
      </trkpt>
      <trkpt lat="45.8073" lon="4.72477">
        <ele>354.05338</ele>
        <time>2023-07-26T14:51:19.000Z</time>
      </trkpt>
      <trkpt lat="45.80733" lon="4.7248">
        <ele>354.31689</ele>
        <time>2023-07-26T14:51:20.000Z</time>
      </trkpt>
      <trkpt lat="45.80737" lon="4.72481">
        <ele>354.67197</ele>
        <time>2023-07-26T14:51:21.000Z</time>
      </trkpt>
      <trkpt lat="45.80742" lon="4.72482">
        <ele>355.06189</ele>
        <time>2023-07-26T14:51:22.000Z</time>
      </trkpt>
      <trkpt lat="45.80746" lon="4.72484">
        <ele>355.31494</ele>
        <time>2023-07-26T14:51:23.000Z</time>
      </trkpt>
      <trkpt lat="45.8075" lon="4.72487">
        <ele>355.52435</ele>
        <time>2023-07-26T14:51:24.000Z</time>
      </trkpt>
      <trkpt lat="45.80754" lon="4.72489">
        <ele>355.68292</ele>
        <time>2023-07-26T14:51:25.000Z</time>
      </trkpt>
      <trkpt lat="45.80758" lon="4.72491">
        <ele>355.79031</ele>
        <time>2023-07-26T14:51:26.000Z</time>
      </trkpt>
      <trkpt lat="45.80763" lon="4.72493">
        <ele>355.93195</ele>
        <time>2023-07-26T14:51:27.000Z</time>
      </trkpt>
      <trkpt lat="45.80768" lon="4.72495">
        <ele>355.95221</ele>
        <time>2023-07-26T14:51:28.000Z</time>
      </trkpt>
      <trkpt lat="45.80772" lon="4.72497">
        <ele>355.96869</ele>
        <time>2023-07-26T14:51:29.000Z</time>
      </trkpt>
      <trkpt lat="45.80776" lon="4.72499">
        <ele>356.10626</ele>
        <time>2023-07-26T14:51:30.000Z</time>
      </trkpt>
      <trkpt lat="45.8078" lon="4.72504">
        <ele>356.25043</ele>
        <time>2023-07-26T14:51:31.000Z</time>
      </trkpt>
      <trkpt lat="45.80786" lon="4.72505">
        <ele>356.45764</ele>
        <time>2023-07-26T14:51:32.000Z</time>
      </trkpt>
      <trkpt lat="45.80791" lon="4.72506">
        <ele>356.33768</ele>
        <time>2023-07-26T14:51:33.000Z</time>
      </trkpt>
      <trkpt lat="45.80795" lon="4.72508">
        <ele>356.25595</ele>
        <time>2023-07-26T14:51:34.000Z</time>
      </trkpt>
      <trkpt lat="45.808" lon="4.7251">
        <ele>356.00629</ele>
        <time>2023-07-26T14:51:35.000Z</time>
      </trkpt>
      <trkpt lat="45.80804" lon="4.72511">
        <ele>355.78268</ele>
        <time>2023-07-26T14:51:36.000Z</time>
      </trkpt>
      <trkpt lat="45.80809" lon="4.72512">
        <ele>355.59967</ele>
        <time>2023-07-26T14:51:37.000Z</time>
      </trkpt>
      <trkpt lat="45.80813" lon="4.72514">
        <ele>355.45319</ele>
        <time>2023-07-26T14:51:38.000Z</time>
      </trkpt>
      <trkpt lat="45.80818" lon="4.72517">
        <ele>355.32037</ele>
        <time>2023-07-26T14:51:39.000Z</time>
      </trkpt>
      <trkpt lat="45.80822" lon="4.7252">
        <ele>355.18738</ele>
        <time>2023-07-26T14:51:40.000Z</time>
      </trkpt>
      <trkpt lat="45.80827" lon="4.72524">
        <ele>354.96567</ele>
        <time>2023-07-26T14:51:41.000Z</time>
      </trkpt>
      <trkpt lat="45.80832" lon="4.72525">
        <ele>354.70331</ele>
        <time>2023-07-26T14:51:42.000Z</time>
      </trkpt>
      <trkpt lat="45.80835" lon="4.72527">
        <ele>354.63699</ele>
        <time>2023-07-26T14:51:43.000Z</time>
      </trkpt>
      <trkpt lat="45.8084" lon="4.72529">
        <ele>354.6521</ele>
        <time>2023-07-26T14:51:44.000Z</time>
      </trkpt>
      <trkpt lat="45.80844" lon="4.7253">
        <ele>354.67154</ele>
        <time>2023-07-26T14:51:45.000Z</time>
      </trkpt>
      <trkpt lat="45.80849" lon="4.72532">
        <ele>354.76715</ele>
        <time>2023-07-26T14:51:46.000Z</time>
      </trkpt>
      <trkpt lat="45.80855" lon="4.72535">
        <ele>354.89899</ele>
        <time>2023-07-26T14:51:47.000Z</time>
      </trkpt>
      <trkpt lat="45.80859" lon="4.72537">
        <ele>355.09265</ele>
        <time>2023-07-26T14:51:48.000Z</time>
      </trkpt>
      <trkpt lat="45.80863" lon="4.72539">
        <ele>355.2944</ele>
        <time>2023-07-26T14:51:49.000Z</time>
      </trkpt>
      <trkpt lat="45.80867" lon="4.72542">
        <ele>355.34665</ele>
        <time>2023-07-26T14:51:50.000Z</time>
      </trkpt>
      <trkpt lat="45.80872" lon="4.72545">
        <ele>355.35806</ele>
        <time>2023-07-26T14:51:51.000Z</time>
      </trkpt>
      <trkpt lat="45.80877" lon="4.72548">
        <ele>355.39423</ele>
        <time>2023-07-26T14:51:52.000Z</time>
      </trkpt>
      <trkpt lat="45.80882" lon="4.72548">
        <ele>355.43665</ele>
        <time>2023-07-26T14:51:53.000Z</time>
      </trkpt>
      <trkpt lat="45.80887" lon="4.72549">
        <ele>355.56757</ele>
        <time>2023-07-26T14:51:54.000Z</time>
      </trkpt>
      <trkpt lat="45.8089" lon="4.72552">
        <ele>355.77307</ele>
        <time>2023-07-26T14:51:55.000Z</time>
      </trkpt>
      <trkpt lat="45.80894" lon="4.72553">
        <ele>355.97433</ele>
        <time>2023-07-26T14:51:56.000Z</time>
      </trkpt>
      <trkpt lat="45.80898" lon="4.72555">
        <ele>356.17792</ele>
        <time>2023-07-26T14:51:57.000Z</time>
      </trkpt>
      <trkpt lat="45.80901" lon="4.72555">
        <ele>356.32574</ele>
        <time>2023-07-26T14:51:58.000Z</time>
      </trkpt>
      <trkpt lat="45.80906" lon="4.72558">
        <ele>356.5184</ele>
        <time>2023-07-26T14:51:59.000Z</time>
      </trkpt>
      <trkpt lat="45.8091" lon="4.72559">
        <ele>356.72919</ele>
        <time>2023-07-26T14:52:00.000Z</time>
      </trkpt>
      <trkpt lat="45.80916" lon="4.72562">
        <ele>356.98364</ele>
        <time>2023-07-26T14:52:01.000Z</time>
      </trkpt>
      <trkpt lat="45.80921" lon="4.72566">
        <ele>357.21466</ele>
        <time>2023-07-26T14:52:02.000Z</time>
      </trkpt>
      <trkpt lat="45.80926" lon="4.72569">
        <ele>357.42358</ele>
        <time>2023-07-26T14:52:03.000Z</time>
      </trkpt>
      <trkpt lat="45.8093" lon="4.72571">
        <ele>357.63809</ele>
        <time>2023-07-26T14:52:04.000Z</time>
      </trkpt>
      <trkpt lat="45.80936" lon="4.72575">
        <ele>357.86478</ele>
        <time>2023-07-26T14:52:05.000Z</time>
      </trkpt>
      <trkpt lat="45.80941" lon="4.7258">
        <ele>358.09488</ele>
        <time>2023-07-26T14:52:06.000Z</time>
      </trkpt>
      <trkpt lat="45.80946" lon="4.72583">
        <ele>358.22321</ele>
        <time>2023-07-26T14:52:07.000Z</time>
      </trkpt>
      <trkpt lat="45.8095" lon="4.72584">
        <ele>358.30484</ele>
        <time>2023-07-26T14:52:08.000Z</time>
      </trkpt>
      <trkpt lat="45.80955" lon="4.72586">
        <ele>358.54474</ele>
        <time>2023-07-26T14:52:09.000Z</time>
      </trkpt>
      <trkpt lat="45.80958" lon="4.72586">
        <ele>358.80011</ele>
        <time>2023-07-26T14:52:10.000Z</time>
      </trkpt>
      <trkpt lat="45.80962" lon="4.72589">
        <ele>359.14636</ele>
        <time>2023-07-26T14:52:11.000Z</time>
      </trkpt>
      <trkpt lat="45.80967" lon="4.72592">
        <ele>359.54364</ele>
        <time>2023-07-26T14:52:12.000Z</time>
      </trkpt>
      <trkpt lat="45.80972" lon="4.72595">
        <ele>359.92755</ele>
        <time>2023-07-26T14:52:13.000Z</time>
      </trkpt>
      <trkpt lat="45.80977" lon="4.72596">
        <ele>360.30475</ele>
        <time>2023-07-26T14:52:14.000Z</time>
      </trkpt>
      <trkpt lat="45.80982" lon="4.72599">
        <ele>360.32053</ele>
        <time>2023-07-26T14:52:15.000Z</time>
      </trkpt>
      <trkpt lat="45.80987" lon="4.726">
        <ele>360.34726</ele>
        <time>2023-07-26T14:52:16.000Z</time>
      </trkpt>
      <trkpt lat="45.80992" lon="4.72601">
        <ele>360.33734</ele>
        <time>2023-07-26T14:52:17.000Z</time>
      </trkpt>
      <trkpt lat="45.80999" lon="4.72602">
        <ele>360.39853</ele>
        <time>2023-07-26T14:52:18.000Z</time>
      </trkpt>
      <trkpt lat="45.81004" lon="4.72607">
        <ele>360.42883</ele>
        <time>2023-07-26T14:52:19.000Z</time>
      </trkpt>
      <trkpt lat="45.81009" lon="4.72609">
        <ele>360.45392</ele>
        <time>2023-07-26T14:52:20.000Z</time>
      </trkpt>
      <trkpt lat="45.81014" lon="4.72613">
        <ele>360.46552</ele>
        <time>2023-07-26T14:52:21.000Z</time>
      </trkpt>
      <trkpt lat="45.81018" lon="4.72617">
        <ele>360.46838</ele>
        <time>2023-07-26T14:52:22.000Z</time>
      </trkpt>
      <trkpt lat="45.81022" lon="4.72621">
        <ele>360.52252</ele>
        <time>2023-07-26T14:52:23.000Z</time>
      </trkpt>
      <trkpt lat="45.81026" lon="4.72623">
        <ele>360.51129</ele>
        <time>2023-07-26T14:52:24.000Z</time>
      </trkpt>
      <trkpt lat="45.8103" lon="4.72629">
        <ele>360.48972</ele>
        <time>2023-07-26T14:52:25.000Z</time>
      </trkpt>
      <trkpt lat="45.81035" lon="4.72633">
        <ele>360.2746</ele>
        <time>2023-07-26T14:52:26.000Z</time>
      </trkpt>
      <trkpt lat="45.81037" lon="4.72636">
        <ele>360.14877</ele>
        <time>2023-07-26T14:52:27.000Z</time>
      </trkpt>
      <trkpt lat="45.81042" lon="4.72639">
        <ele>360.08063</ele>
        <time>2023-07-26T14:52:28.000Z</time>
      </trkpt>
      <trkpt lat="45.81046" lon="4.72643">
        <ele>359.83759</ele>
        <time>2023-07-26T14:52:29.000Z</time>
      </trkpt>
      <trkpt lat="45.81051" lon="4.72645">
        <ele>359.60272</ele>
        <time>2023-07-26T14:52:30.000Z</time>
      </trkpt>
      <trkpt lat="45.81056" lon="4.72648">
        <ele>359.2533</ele>
        <time>2023-07-26T14:52:31.000Z</time>
      </trkpt>
      <trkpt lat="45.81059" lon="4.7265">
        <ele>358.72638</ele>
        <time>2023-07-26T14:52:32.000Z</time>
      </trkpt>
      <trkpt lat="45.81063" lon="4.72655">
        <ele>358.45746</ele>
        <time>2023-07-26T14:52:33.000Z</time>
      </trkpt>
      <trkpt lat="45.81069" lon="4.72661">
        <ele>358.08032</ele>
        <time>2023-07-26T14:52:34.000Z</time>
      </trkpt>
      <trkpt lat="45.81073" lon="4.72664">
        <ele>358.05414</ele>
        <time>2023-07-26T14:52:35.000Z</time>
      </trkpt>
      <trkpt lat="45.81078" lon="4.72666">
        <ele>357.9791</ele>
        <time>2023-07-26T14:52:36.000Z</time>
      </trkpt>
      <trkpt lat="45.81082" lon="4.72669">
        <ele>357.9386</ele>
        <time>2023-07-26T14:52:37.000Z</time>
      </trkpt>
      <trkpt lat="45.81086" lon="4.72674">
        <ele>357.8299</ele>
        <time>2023-07-26T14:52:38.000Z</time>
      </trkpt>
      <trkpt lat="45.8109" lon="4.72677">
        <ele>357.69928</ele>
        <time>2023-07-26T14:52:39.000Z</time>
      </trkpt>
      <trkpt lat="45.81095" lon="4.72681">
        <ele>357.57413</ele>
        <time>2023-07-26T14:52:40.000Z</time>
      </trkpt>
      <trkpt lat="45.811" lon="4.72685">
        <ele>357.50986</ele>
        <time>2023-07-26T14:52:41.000Z</time>
      </trkpt>
      <trkpt lat="45.81104" lon="4.72688">
        <ele>357.51938</ele>
        <time>2023-07-26T14:52:42.000Z</time>
      </trkpt>
      <trkpt lat="45.81109" lon="4.72693">
        <ele>357.53815</ele>
        <time>2023-07-26T14:52:43.000Z</time>
      </trkpt>
      <trkpt lat="45.81113" lon="4.72698">
        <ele>357.55524</ele>
        <time>2023-07-26T14:52:44.000Z</time>
      </trkpt>
      <trkpt lat="45.81118" lon="4.727">
        <ele>357.62131</ele>
        <time>2023-07-26T14:52:45.000Z</time>
      </trkpt>
      <trkpt lat="45.81123" lon="4.72706">
        <ele>357.81116</ele>
        <time>2023-07-26T14:52:46.000Z</time>
      </trkpt>
      <trkpt lat="45.81128" lon="4.72711">
        <ele>357.83081</ele>
        <time>2023-07-26T14:52:47.000Z</time>
      </trkpt>
      <trkpt lat="45.81133" lon="4.72717">
        <ele>357.8248</ele>
        <time>2023-07-26T14:52:48.000Z</time>
      </trkpt>
      <trkpt lat="45.81138" lon="4.72722">
        <ele>357.82095</ele>
        <time>2023-07-26T14:52:49.000Z</time>
      </trkpt>
      <trkpt lat="45.81142" lon="4.72726">
        <ele>357.79013</ele>
        <time>2023-07-26T14:52:50.000Z</time>
      </trkpt>
      <trkpt lat="45.81147" lon="4.7273">
        <ele>357.74304</ele>
        <time>2023-07-26T14:52:51.000Z</time>
      </trkpt>
      <trkpt lat="45.8115" lon="4.72734">
        <ele>357.69739</ele>
        <time>2023-07-26T14:52:52.000Z</time>
      </trkpt>
      <trkpt lat="45.81156" lon="4.72736">
        <ele>357.664</ele>
        <time>2023-07-26T14:52:53.000Z</time>
      </trkpt>
      <trkpt lat="45.8116" lon="4.72739">
        <ele>357.6684</ele>
        <time>2023-07-26T14:52:54.000Z</time>
      </trkpt>
      <trkpt lat="45.81166" lon="4.72743">
        <ele>357.64365</ele>
        <time>2023-07-26T14:52:55.000Z</time>
      </trkpt>
      <trkpt lat="45.81171" lon="4.72746">
        <ele>357.70923</ele>
        <time>2023-07-26T14:52:56.000Z</time>
      </trkpt>
      <trkpt lat="45.81175" lon="4.72748">
        <ele>357.81067</ele>
        <time>2023-07-26T14:52:57.000Z</time>
      </trkpt>
      <trkpt lat="45.81178" lon="4.7275">
        <ele>357.78757</ele>
        <time>2023-07-26T14:52:58.000Z</time>
      </trkpt>
      <trkpt lat="45.81179" lon="4.72755">
        <ele>357.8067</ele>
        <time>2023-07-26T14:52:59.000Z</time>
      </trkpt>
      <trkpt lat="45.81182" lon="4.72759">
        <ele>357.82465</ele>
        <time>2023-07-26T14:53:00.000Z</time>
      </trkpt>
      <trkpt lat="45.81185" lon="4.72762">
        <ele>357.82794</ele>
        <time>2023-07-26T14:53:01.000Z</time>
      </trkpt>
      <trkpt lat="45.81186" lon="4.72766">
        <ele>357.75644</ele>
        <time>2023-07-26T14:53:02.000Z</time>
      </trkpt>
      <trkpt lat="45.81189" lon="4.72767">
        <ele>357.65341</ele>
        <time>2023-07-26T14:53:03.000Z</time>
      </trkpt>
      <trkpt lat="45.81191" lon="4.72769">
        <ele>357.52808</ele>
        <time>2023-07-26T14:53:04.000Z</time>
      </trkpt>
      <trkpt lat="45.81196" lon="4.72771">
        <ele>357.30768</ele>
        <time>2023-07-26T14:53:06.000Z</time>
      </trkpt>
      <trkpt lat="45.81198" lon="4.72773">
        <ele>357.14059</ele>
        <time>2023-07-26T14:53:07.000Z</time>
      </trkpt>
      <trkpt lat="45.81201" lon="4.72776">
        <ele>357.09274</ele>
        <time>2023-07-26T14:53:08.000Z</time>
      </trkpt>
      <trkpt lat="45.81204" lon="4.72779">
        <ele>357.08475</ele>
        <time>2023-07-26T14:53:09.000Z</time>
      </trkpt>
      <trkpt lat="45.81207" lon="4.7278">
        <ele>357.14911</ele>
        <time>2023-07-26T14:53:10.000Z</time>
      </trkpt>
      <trkpt lat="45.8121" lon="4.72782">
        <ele>357.20419</ele>
        <time>2023-07-26T14:53:11.000Z</time>
      </trkpt>
      <trkpt lat="45.81214" lon="4.72783">
        <ele>357.30142</ele>
        <time>2023-07-26T14:53:12.000Z</time>
      </trkpt>
      <trkpt lat="45.81218" lon="4.72784">
        <ele>357.39496</ele>
        <time>2023-07-26T14:53:13.000Z</time>
      </trkpt>
      <trkpt lat="45.81222" lon="4.72783">
        <ele>357.5148</ele>
        <time>2023-07-26T14:53:14.000Z</time>
      </trkpt>
      <trkpt lat="45.81226" lon="4.72781">
        <ele>357.64594</ele>
        <time>2023-07-26T14:53:15.000Z</time>
      </trkpt>
      <trkpt lat="45.8123" lon="4.72778">
        <ele>357.7037</ele>
        <time>2023-07-26T14:53:16.000Z</time>
      </trkpt>
      <trkpt lat="45.81232" lon="4.72773">
        <ele>357.71814</ele>
        <time>2023-07-26T14:53:17.000Z</time>
      </trkpt>
      <trkpt lat="45.81234" lon="4.72768">
        <ele>357.6315</ele>
        <time>2023-07-26T14:53:18.000Z</time>
      </trkpt>
      <trkpt lat="45.81236" lon="4.72763">
        <ele>357.74249</ele>
        <time>2023-07-26T14:53:19.000Z</time>
      </trkpt>
      <trkpt lat="45.81237" lon="4.72758">
        <ele>357.80743</ele>
        <time>2023-07-26T14:53:20.000Z</time>
      </trkpt>
      <trkpt lat="45.81239" lon="4.72753">
        <ele>357.90582</ele>
        <time>2023-07-26T14:53:21.000Z</time>
      </trkpt>
      <trkpt lat="45.8124" lon="4.72748">
        <ele>358.00171</ele>
        <time>2023-07-26T14:53:22.000Z</time>
      </trkpt>
      <trkpt lat="45.81242" lon="4.72743">
        <ele>358.13974</ele>
        <time>2023-07-26T14:53:23.000Z</time>
      </trkpt>
      <trkpt lat="45.81244" lon="4.72738">
        <ele>358.29715</ele>
        <time>2023-07-26T14:53:24.000Z</time>
      </trkpt>
      <trkpt lat="45.81246" lon="4.72733">
        <ele>358.53934</ele>
        <time>2023-07-26T14:53:25.000Z</time>
      </trkpt>
      <trkpt lat="45.81248" lon="4.72728">
        <ele>358.84433</ele>
        <time>2023-07-26T14:53:26.000Z</time>
      </trkpt>
      <trkpt lat="45.81249" lon="4.72723">
        <ele>359.13452</ele>
        <time>2023-07-26T14:53:27.000Z</time>
      </trkpt>
      <trkpt lat="45.81251" lon="4.72718">
        <ele>359.44235</ele>
        <time>2023-07-26T14:53:28.000Z</time>
      </trkpt>
      <trkpt lat="45.81252" lon="4.72713">
        <ele>359.67218</ele>
        <time>2023-07-26T14:53:29.000Z</time>
      </trkpt>
      <trkpt lat="45.81254" lon="4.72708">
        <ele>359.84885</ele>
        <time>2023-07-26T14:53:30.000Z</time>
      </trkpt>
      <trkpt lat="45.81255" lon="4.72702">
        <ele>360.05756</ele>
        <time>2023-07-26T14:53:31.000Z</time>
      </trkpt>
      <trkpt lat="45.81257" lon="4.72697">
        <ele>360.2486</ele>
        <time>2023-07-26T14:53:32.000Z</time>
      </trkpt>
      <trkpt lat="45.81259" lon="4.72692">
        <ele>360.46024</ele>
        <time>2023-07-26T14:53:33.000Z</time>
      </trkpt>
      <trkpt lat="45.8126" lon="4.72687">
        <ele>360.66571</ele>
        <time>2023-07-26T14:53:34.000Z</time>
      </trkpt>
      <trkpt lat="45.81262" lon="4.72682">
        <ele>360.83246</ele>
        <time>2023-07-26T14:53:35.000Z</time>
      </trkpt>
      <trkpt lat="45.81264" lon="4.72676">
        <ele>361.10596</ele>
        <time>2023-07-26T14:53:36.000Z</time>
      </trkpt>
      <trkpt lat="45.81265" lon="4.7267">
        <ele>361.36661</ele>
        <time>2023-07-26T14:53:37.000Z</time>
      </trkpt>
      <trkpt lat="45.81267" lon="4.72666">
        <ele>361.64307</ele>
        <time>2023-07-26T14:53:38.000Z</time>
      </trkpt>
      <trkpt lat="45.81269" lon="4.7266">
        <ele>361.8576</ele>
        <time>2023-07-26T14:53:39.000Z</time>
      </trkpt>
      <trkpt lat="45.81271" lon="4.72656">
        <ele>362.07855</ele>
        <time>2023-07-26T14:53:40.000Z</time>
      </trkpt>
      <trkpt lat="45.81273" lon="4.72651">
        <ele>362.28824</ele>
        <time>2023-07-26T14:53:41.000Z</time>
      </trkpt>
      <trkpt lat="45.81275" lon="4.72645">
        <ele>362.5058</ele>
        <time>2023-07-26T14:53:42.000Z</time>
      </trkpt>
      <trkpt lat="45.81277" lon="4.72639">
        <ele>362.74011</ele>
        <time>2023-07-26T14:53:43.000Z</time>
      </trkpt>
      <trkpt lat="45.81278" lon="4.72634">
        <ele>362.9505</ele>
        <time>2023-07-26T14:53:44.000Z</time>
      </trkpt>
      <trkpt lat="45.8128" lon="4.72628">
        <ele>363.13028</ele>
        <time>2023-07-26T14:53:45.000Z</time>
      </trkpt>
      <trkpt lat="45.81282" lon="4.72622">
        <ele>363.32599</ele>
        <time>2023-07-26T14:53:46.000Z</time>
      </trkpt>
      <trkpt lat="45.81283" lon="4.72615">
        <ele>363.51297</ele>
        <time>2023-07-26T14:53:47.000Z</time>
      </trkpt>
      <trkpt lat="45.81285" lon="4.7261">
        <ele>363.6857</ele>
        <time>2023-07-26T14:53:48.000Z</time>
      </trkpt>
      <trkpt lat="45.81287" lon="4.72605">
        <ele>363.90689</ele>
        <time>2023-07-26T14:53:49.000Z</time>
      </trkpt>
      <trkpt lat="45.8129" lon="4.72599">
        <ele>364.12958</ele>
        <time>2023-07-26T14:53:50.000Z</time>
      </trkpt>
      <trkpt lat="45.81292" lon="4.72593">
        <ele>364.37482</ele>
        <time>2023-07-26T14:53:51.000Z</time>
      </trkpt>
      <trkpt lat="45.81293" lon="4.72586">
        <ele>364.58347</ele>
        <time>2023-07-26T14:53:52.000Z</time>
      </trkpt>
      <trkpt lat="45.81296" lon="4.72579">
        <ele>364.77011</ele>
        <time>2023-07-26T14:53:53.000Z</time>
      </trkpt>
      <trkpt lat="45.81298" lon="4.72573">
        <ele>364.95215</ele>
        <time>2023-07-26T14:53:54.000Z</time>
      </trkpt>
      <trkpt lat="45.813" lon="4.72566">
        <ele>365.12476</ele>
        <time>2023-07-26T14:53:55.000Z</time>
      </trkpt>
      <trkpt lat="45.81301" lon="4.7256">
        <ele>365.26663</ele>
        <time>2023-07-26T14:53:56.000Z</time>
      </trkpt>
      <trkpt lat="45.81303" lon="4.72554">
        <ele>365.4024</ele>
        <time>2023-07-26T14:53:57.000Z</time>
      </trkpt>
      <trkpt lat="45.81305" lon="4.72548">
        <ele>365.55463</ele>
        <time>2023-07-26T14:53:58.000Z</time>
      </trkpt>
      <trkpt lat="45.81308" lon="4.72543">
        <ele>365.74469</ele>
        <time>2023-07-26T14:53:59.000Z</time>
      </trkpt>
      <trkpt lat="45.81309" lon="4.72536">
        <ele>365.92102</ele>
        <time>2023-07-26T14:54:00.000Z</time>
      </trkpt>
      <trkpt lat="45.81311" lon="4.7253">
        <ele>366.07355</ele>
        <time>2023-07-26T14:54:01.000Z</time>
      </trkpt>
      <trkpt lat="45.81313" lon="4.72524">
        <ele>366.18314</ele>
        <time>2023-07-26T14:54:02.000Z</time>
      </trkpt>
      <trkpt lat="45.81315" lon="4.72518">
        <ele>366.29947</ele>
        <time>2023-07-26T14:54:03.000Z</time>
      </trkpt>
      <trkpt lat="45.81317" lon="4.72513">
        <ele>366.42328</ele>
        <time>2023-07-26T14:54:04.000Z</time>
      </trkpt>
      <trkpt lat="45.81319" lon="4.72507">
        <ele>366.54337</ele>
        <time>2023-07-26T14:54:05.000Z</time>
      </trkpt>
      <trkpt lat="45.81321" lon="4.72501">
        <ele>366.66119</ele>
        <time>2023-07-26T14:54:06.000Z</time>
      </trkpt>
      <trkpt lat="45.81322" lon="4.72495">
        <ele>366.7883</ele>
        <time>2023-07-26T14:54:07.000Z</time>
      </trkpt>
      <trkpt lat="45.81325" lon="4.7249">
        <ele>366.90399</ele>
        <time>2023-07-26T14:54:08.000Z</time>
      </trkpt>
      <trkpt lat="45.81326" lon="4.72483">
        <ele>366.97641</ele>
        <time>2023-07-26T14:54:09.000Z</time>
      </trkpt>
      <trkpt lat="45.81328" lon="4.72477">
        <ele>367.04691</ele>
        <time>2023-07-26T14:54:10.000Z</time>
      </trkpt>
      <trkpt lat="45.8133" lon="4.72471">
        <ele>367.16595</ele>
        <time>2023-07-26T14:54:11.000Z</time>
      </trkpt>
      <trkpt lat="45.81332" lon="4.72464">
        <ele>367.30783</ele>
        <time>2023-07-26T14:54:12.000Z</time>
      </trkpt>
      <trkpt lat="45.81334" lon="4.72459">
        <ele>367.47266</ele>
        <time>2023-07-26T14:54:13.000Z</time>
      </trkpt>
      <trkpt lat="45.81335" lon="4.72453">
        <ele>367.61591</ele>
        <time>2023-07-26T14:54:14.000Z</time>
      </trkpt>
      <trkpt lat="45.81336" lon="4.72448">
        <ele>367.78143</ele>
        <time>2023-07-26T14:54:15.000Z</time>
      </trkpt>
      <trkpt lat="45.81337" lon="4.72441">
        <ele>367.93896</ele>
        <time>2023-07-26T14:54:16.000Z</time>
      </trkpt>
      <trkpt lat="45.81339" lon="4.72436">
        <ele>368.3241</ele>
        <time>2023-07-26T14:54:17.000Z</time>
      </trkpt>
      <trkpt lat="45.8134" lon="4.7243">
        <ele>368.72455</ele>
        <time>2023-07-26T14:54:18.000Z</time>
      </trkpt>
      <trkpt lat="45.81342" lon="4.72424">
        <ele>369.06061</ele>
        <time>2023-07-26T14:54:19.000Z</time>
      </trkpt>
      <trkpt lat="45.81343" lon="4.72418">
        <ele>369.44229</ele>
        <time>2023-07-26T14:54:20.000Z</time>
      </trkpt>
      <trkpt lat="45.81345" lon="4.72412">
        <ele>369.85895</ele>
        <time>2023-07-26T14:54:21.000Z</time>
      </trkpt>
      <trkpt lat="45.81345" lon="4.72406">
        <ele>370.29919</ele>
        <time>2023-07-26T14:54:22.000Z</time>
      </trkpt>
      <trkpt lat="45.81345" lon="4.72401">
        <ele>370.7168</ele>
        <time>2023-07-26T14:54:23.000Z</time>
      </trkpt>
      <trkpt lat="45.81345" lon="4.72395">
        <ele>371.12775</ele>
        <time>2023-07-26T14:54:24.000Z</time>
      </trkpt>
      <trkpt lat="45.81345" lon="4.7239">
        <ele>371.54572</ele>
        <time>2023-07-26T14:54:25.000Z</time>
      </trkpt>
      <trkpt lat="45.81345" lon="4.72386">
        <ele>371.94385</ele>
        <time>2023-07-26T14:54:26.000Z</time>
      </trkpt>
      <trkpt lat="45.81345" lon="4.72382">
        <ele>372.34015</ele>
        <time>2023-07-26T14:54:27.000Z</time>
      </trkpt>
      <trkpt lat="45.81347" lon="4.72379">
        <ele>372.75571</ele>
        <time>2023-07-26T14:54:28.000Z</time>
      </trkpt>
      <trkpt lat="45.8135" lon="4.72376">
        <ele>373.19156</ele>
        <time>2023-07-26T14:54:29.000Z</time>
      </trkpt>
      <trkpt lat="45.81353" lon="4.72374">
        <ele>373.65253</ele>
        <time>2023-07-26T14:54:30.000Z</time>
      </trkpt>
      <trkpt lat="45.81356" lon="4.72371">
        <ele>374.04718</ele>
        <time>2023-07-26T14:54:31.000Z</time>
      </trkpt>
      <trkpt lat="45.81358" lon="4.72368">
        <ele>374.44012</ele>
        <time>2023-07-26T14:54:32.000Z</time>
      </trkpt>
      <trkpt lat="45.81361" lon="4.72365">
        <ele>374.83365</ele>
        <time>2023-07-26T14:54:33.000Z</time>
      </trkpt>
      <trkpt lat="45.81363" lon="4.72361">
        <ele>375.2327</ele>
        <time>2023-07-26T14:54:34.000Z</time>
      </trkpt>
      <trkpt lat="45.81364" lon="4.72357">
        <ele>375.58563</ele>
        <time>2023-07-26T14:54:35.000Z</time>
      </trkpt>
      <trkpt lat="45.81366" lon="4.72353">
        <ele>375.95709</ele>
        <time>2023-07-26T14:54:36.000Z</time>
      </trkpt>
      <trkpt lat="45.81367" lon="4.72348">
        <ele>376.11829</ele>
        <time>2023-07-26T14:54:37.000Z</time>
      </trkpt>
      <trkpt lat="45.81368" lon="4.72344">
        <ele>376.27338</ele>
        <time>2023-07-26T14:54:38.000Z</time>
      </trkpt>
      <trkpt lat="45.8137" lon="4.72339">
        <ele>376.46841</ele>
        <time>2023-07-26T14:54:39.000Z</time>
      </trkpt>
      <trkpt lat="45.81371" lon="4.72335">
        <ele>376.60837</ele>
        <time>2023-07-26T14:54:40.000Z</time>
      </trkpt>
      <trkpt lat="45.81372" lon="4.7233">
        <ele>376.73941</ele>
        <time>2023-07-26T14:54:41.000Z</time>
      </trkpt>
      <trkpt lat="45.81374" lon="4.72325">
        <ele>376.88354</ele>
        <time>2023-07-26T14:54:42.000Z</time>
      </trkpt>
      <trkpt lat="45.81375" lon="4.72321">
        <ele>377.03769</ele>
        <time>2023-07-26T14:54:43.000Z</time>
      </trkpt>
      <trkpt lat="45.81376" lon="4.72316">
        <ele>377.19022</ele>
        <time>2023-07-26T14:54:44.000Z</time>
      </trkpt>
      <trkpt lat="45.81378" lon="4.72311">
        <ele>377.34552</ele>
        <time>2023-07-26T14:54:45.000Z</time>
      </trkpt>
      <trkpt lat="45.81379" lon="4.72307">
        <ele>377.51239</ele>
        <time>2023-07-26T14:54:46.000Z</time>
      </trkpt>
      <trkpt lat="45.81381" lon="4.72302">
        <ele>377.68472</ele>
        <time>2023-07-26T14:54:47.000Z</time>
      </trkpt>
      <trkpt lat="45.81382" lon="4.72297">
        <ele>377.83673</ele>
        <time>2023-07-26T14:54:48.000Z</time>
      </trkpt>
      <trkpt lat="45.81384" lon="4.72293">
        <ele>377.97174</ele>
        <time>2023-07-26T14:54:49.000Z</time>
      </trkpt>
      <trkpt lat="45.81385" lon="4.72288">
        <ele>378.06125</ele>
        <time>2023-07-26T14:54:50.000Z</time>
      </trkpt>
      <trkpt lat="45.81387" lon="4.72283">
        <ele>378.16888</ele>
        <time>2023-07-26T14:54:51.000Z</time>
      </trkpt>
      <trkpt lat="45.81388" lon="4.72278">
        <ele>378.16544</ele>
        <time>2023-07-26T14:54:52.000Z</time>
      </trkpt>
      <trkpt lat="45.8139" lon="4.72274">
        <ele>378.14896</ele>
        <time>2023-07-26T14:54:53.000Z</time>
      </trkpt>
      <trkpt lat="45.81392" lon="4.72269">
        <ele>378.13361</ele>
        <time>2023-07-26T14:54:54.000Z</time>
      </trkpt>
      <trkpt lat="45.81393" lon="4.72265">
        <ele>378.14133</ele>
        <time>2023-07-26T14:54:55.000Z</time>
      </trkpt>
      <trkpt lat="45.81394" lon="4.7226">
        <ele>378.13901</ele>
        <time>2023-07-26T14:54:56.000Z</time>
      </trkpt>
      <trkpt lat="45.81395" lon="4.72255">
        <ele>378.14102</ele>
        <time>2023-07-26T14:54:57.000Z</time>
      </trkpt>
      <trkpt lat="45.81397" lon="4.7225">
        <ele>378.12262</ele>
        <time>2023-07-26T14:54:58.000Z</time>
      </trkpt>
      <trkpt lat="45.81398" lon="4.72245">
        <ele>378.12177</ele>
        <time>2023-07-26T14:54:59.000Z</time>
      </trkpt>
      <trkpt lat="45.814" lon="4.72239">
        <ele>378.18414</ele>
        <time>2023-07-26T14:55:00.000Z</time>
      </trkpt>
      <trkpt lat="45.81401" lon="4.72234">
        <ele>378.23602</ele>
        <time>2023-07-26T14:55:01.000Z</time>
      </trkpt>
      <trkpt lat="45.81402" lon="4.7223">
        <ele>378.23511</ele>
        <time>2023-07-26T14:55:02.000Z</time>
      </trkpt>
      <trkpt lat="45.81404" lon="4.72225">
        <ele>378.3598</ele>
        <time>2023-07-26T14:55:03.000Z</time>
      </trkpt>
      <trkpt lat="45.81405" lon="4.7222">
        <ele>378.49286</ele>
        <time>2023-07-26T14:55:04.000Z</time>
      </trkpt>
      <trkpt lat="45.81407" lon="4.72214">
        <ele>378.60339</ele>
        <time>2023-07-26T14:55:05.000Z</time>
      </trkpt>
      <trkpt lat="45.81408" lon="4.7221">
        <ele>378.69156</ele>
        <time>2023-07-26T14:55:06.000Z</time>
      </trkpt>
      <trkpt lat="45.8141" lon="4.72205">
        <ele>378.79141</ele>
        <time>2023-07-26T14:55:07.000Z</time>
      </trkpt>
      <trkpt lat="45.81412" lon="4.72201">
        <ele>378.90259</ele>
        <time>2023-07-26T14:55:08.000Z</time>
      </trkpt>
      <trkpt lat="45.81413" lon="4.72196">
        <ele>379.02591</ele>
        <time>2023-07-26T14:55:09.000Z</time>
      </trkpt>
      <trkpt lat="45.81415" lon="4.7219">
        <ele>379.20367</ele>
        <time>2023-07-26T14:55:10.000Z</time>
      </trkpt>
      <trkpt lat="45.81416" lon="4.72185">
        <ele>379.34805</ele>
        <time>2023-07-26T14:55:11.000Z</time>
      </trkpt>
      <trkpt lat="45.81418" lon="4.72179">
        <ele>379.60724</ele>
        <time>2023-07-26T14:55:12.000Z</time>
      </trkpt>
      <trkpt lat="45.8142" lon="4.72174">
        <ele>379.86371</ele>
        <time>2023-07-26T14:55:13.000Z</time>
      </trkpt>
      <trkpt lat="45.81422" lon="4.72168">
        <ele>380.14075</ele>
        <time>2023-07-26T14:55:14.000Z</time>
      </trkpt>
      <trkpt lat="45.81424" lon="4.72163">
        <ele>380.42535</ele>
        <time>2023-07-26T14:55:15.000Z</time>
      </trkpt>
      <trkpt lat="45.81425" lon="4.72158">
        <ele>380.67487</ele>
        <time>2023-07-26T14:55:16.000Z</time>
      </trkpt>
      <trkpt lat="45.81427" lon="4.72153">
        <ele>380.92291</ele>
        <time>2023-07-26T14:55:17.000Z</time>
      </trkpt>
      <trkpt lat="45.81429" lon="4.72148">
        <ele>381.13324</ele>
        <time>2023-07-26T14:55:18.000Z</time>
      </trkpt>
      <trkpt lat="45.81431" lon="4.72143">
        <ele>381.36218</ele>
        <time>2023-07-26T14:55:19.000Z</time>
      </trkpt>
      <trkpt lat="45.81433" lon="4.72137">
        <ele>381.57632</ele>
        <time>2023-07-26T14:55:20.000Z</time>
      </trkpt>
      <trkpt lat="45.81435" lon="4.72132">
        <ele>381.74551</ele>
        <time>2023-07-26T14:55:21.000Z</time>
      </trkpt>
      <trkpt lat="45.81437" lon="4.72126">
        <ele>381.95248</ele>
        <time>2023-07-26T14:55:22.000Z</time>
      </trkpt>
      <trkpt lat="45.81439" lon="4.7212">
        <ele>382.01089</ele>
        <time>2023-07-26T14:55:23.000Z</time>
      </trkpt>
      <trkpt lat="45.8144" lon="4.72115">
        <ele>382.09979</ele>
        <time>2023-07-26T14:55:24.000Z</time>
      </trkpt>
      <trkpt lat="45.81442" lon="4.72109">
        <ele>382.18634</ele>
        <time>2023-07-26T14:55:25.000Z</time>
      </trkpt>
      <trkpt lat="45.81444" lon="4.72104">
        <ele>382.21307</ele>
        <time>2023-07-26T14:55:26.000Z</time>
      </trkpt>
      <trkpt lat="45.81445" lon="4.72098">
        <ele>382.38065</ele>
        <time>2023-07-26T14:55:27.000Z</time>
      </trkpt>
      <trkpt lat="45.81447" lon="4.72093">
        <ele>382.5451</ele>
        <time>2023-07-26T14:55:28.000Z</time>
      </trkpt>
      <trkpt lat="45.81449" lon="4.72087">
        <ele>382.71454</ele>
        <time>2023-07-26T14:55:29.000Z</time>
      </trkpt>
      <trkpt lat="45.81451" lon="4.72082">
        <ele>382.84946</ele>
        <time>2023-07-26T14:55:30.000Z</time>
      </trkpt>
      <trkpt lat="45.81453" lon="4.72077">
        <ele>382.99036</ele>
        <time>2023-07-26T14:55:31.000Z</time>
      </trkpt>
      <trkpt lat="45.81454" lon="4.72071">
        <ele>383.14044</ele>
        <time>2023-07-26T14:55:32.000Z</time>
      </trkpt>
      <trkpt lat="45.81456" lon="4.72066">
        <ele>383.29288</ele>
        <time>2023-07-26T14:55:33.000Z</time>
      </trkpt>
      <trkpt lat="45.81458" lon="4.7206">
        <ele>383.41144</ele>
        <time>2023-07-26T14:55:34.000Z</time>
      </trkpt>
      <trkpt lat="45.8146" lon="4.72054">
        <ele>383.5415</ele>
        <time>2023-07-26T14:55:35.000Z</time>
      </trkpt>
      <trkpt lat="45.81462" lon="4.72049">
        <ele>383.68567</ele>
        <time>2023-07-26T14:55:36.000Z</time>
      </trkpt>
      <trkpt lat="45.81463" lon="4.72043">
        <ele>383.84146</ele>
        <time>2023-07-26T14:55:37.000Z</time>
      </trkpt>
      <trkpt lat="45.81465" lon="4.72036">
        <ele>384.04068</ele>
        <time>2023-07-26T14:55:38.000Z</time>
      </trkpt>
      <trkpt lat="45.81466" lon="4.72031">
        <ele>384.20697</ele>
        <time>2023-07-26T14:55:39.000Z</time>
      </trkpt>
      <trkpt lat="45.81467" lon="4.72025">
        <ele>384.25772</ele>
        <time>2023-07-26T14:55:40.000Z</time>
      </trkpt>
      <trkpt lat="45.81468" lon="4.72019">
        <ele>384.35541</ele>
        <time>2023-07-26T14:55:41.000Z</time>
      </trkpt>
      <trkpt lat="45.81469" lon="4.72014">
        <ele>384.4426</ele>
        <time>2023-07-26T14:55:42.000Z</time>
      </trkpt>
      <trkpt lat="45.8147" lon="4.7201">
        <ele>384.54709</ele>
        <time>2023-07-26T14:55:43.000Z</time>
      </trkpt>
      <trkpt lat="45.81471" lon="4.72007">
        <ele>384.61597</ele>
        <time>2023-07-26T14:55:44.000Z</time>
      </trkpt>
      <trkpt lat="45.81472" lon="4.72003">
        <ele>384.69345</ele>
        <time>2023-07-26T14:55:45.000Z</time>
      </trkpt>
      <trkpt lat="45.81473" lon="4.72001">
        <ele>384.78906</ele>
        <time>2023-07-26T14:55:46.000Z</time>
      </trkpt>
      <trkpt lat="45.81475" lon="4.71996">
        <ele>384.92383</ele>
        <time>2023-07-26T14:55:48.000Z</time>
      </trkpt>
      <trkpt lat="45.81477" lon="4.71995">
        <ele>385.17413</ele>
        <time>2023-07-26T14:55:49.000Z</time>
      </trkpt>
      <trkpt lat="45.81479" lon="4.71995">
        <ele>385.38721</ele>
        <time>2023-07-26T14:55:50.000Z</time>
      </trkpt>
      <trkpt lat="45.81481" lon="4.71993">
        <ele>385.59088</ele>
        <time>2023-07-26T14:55:51.000Z</time>
      </trkpt>
      <trkpt lat="45.81483" lon="4.7199">
        <ele>385.83087</ele>
        <time>2023-07-26T14:55:52.000Z</time>
      </trkpt>
      <trkpt lat="45.81484" lon="4.71984">
        <ele>386.05667</ele>
        <time>2023-07-26T14:55:53.000Z</time>
      </trkpt>
      <trkpt lat="45.81485" lon="4.71978">
        <ele>386.27338</ele>
        <time>2023-07-26T14:55:54.000Z</time>
      </trkpt>
      <trkpt lat="45.81486" lon="4.71972">
        <ele>386.49298</ele>
        <time>2023-07-26T14:55:55.000Z</time>
      </trkpt>
      <trkpt lat="45.81486" lon="4.71966">
        <ele>386.72202</ele>
        <time>2023-07-26T14:55:56.000Z</time>
      </trkpt>
      <trkpt lat="45.81486" lon="4.71958">
        <ele>386.99115</ele>
        <time>2023-07-26T14:55:57.000Z</time>
      </trkpt>
      <trkpt lat="45.81487" lon="4.71952">
        <ele>387.25128</ele>
        <time>2023-07-26T14:55:58.000Z</time>
      </trkpt>
      <trkpt lat="45.81487" lon="4.71945">
        <ele>387.49844</ele>
        <time>2023-07-26T14:55:59.000Z</time>
      </trkpt>
      <trkpt lat="45.81488" lon="4.71939">
        <ele>387.72388</ele>
        <time>2023-07-26T14:56:00.000Z</time>
      </trkpt>
      <trkpt lat="45.81488" lon="4.71931">
        <ele>387.99045</ele>
        <time>2023-07-26T14:56:01.000Z</time>
      </trkpt>
      <trkpt lat="45.81489" lon="4.71926">
        <ele>388.19446</ele>
        <time>2023-07-26T14:56:02.000Z</time>
      </trkpt>
      <trkpt lat="45.8149" lon="4.71919">
        <ele>388.51871</ele>
        <time>2023-07-26T14:56:03.000Z</time>
      </trkpt>
      <trkpt lat="45.81491" lon="4.71913">
        <ele>388.79868</ele>
        <time>2023-07-26T14:56:04.000Z</time>
      </trkpt>
      <trkpt lat="45.81491" lon="4.71906">
        <ele>389.07111</ele>
        <time>2023-07-26T14:56:05.000Z</time>
      </trkpt>
      <trkpt lat="45.81492" lon="4.71899">
        <ele>389.35498</ele>
        <time>2023-07-26T14:56:06.000Z</time>
      </trkpt>
      <trkpt lat="45.81493" lon="4.71892">
        <ele>389.68851</ele>
        <time>2023-07-26T14:56:07.000Z</time>
      </trkpt>
      <trkpt lat="45.81494" lon="4.71884">
        <ele>389.81641</ele>
        <time>2023-07-26T14:56:08.000Z</time>
      </trkpt>
      <trkpt lat="45.81494" lon="4.71877">
        <ele>389.79092</ele>
        <time>2023-07-26T14:56:09.000Z</time>
      </trkpt>
      <trkpt lat="45.81495" lon="4.7187">
        <ele>389.78342</ele>
        <time>2023-07-26T14:56:10.000Z</time>
      </trkpt>
      <trkpt lat="45.81496" lon="4.71864">
        <ele>389.79623</ele>
        <time>2023-07-26T14:56:11.000Z</time>
      </trkpt>
      <trkpt lat="45.81496" lon="4.71857">
        <ele>389.75089</ele>
        <time>2023-07-26T14:56:12.000Z</time>
      </trkpt>
      <trkpt lat="45.81497" lon="4.71849">
        <ele>389.8559</ele>
        <time>2023-07-26T14:56:13.000Z</time>
      </trkpt>
      <trkpt lat="45.81498" lon="4.71841">
        <ele>389.93365</ele>
        <time>2023-07-26T14:56:14.000Z</time>
      </trkpt>
      <trkpt lat="45.81498" lon="4.71834">
        <ele>390.02704</ele>
        <time>2023-07-26T14:56:15.000Z</time>
      </trkpt>
      <trkpt lat="45.81499" lon="4.71827">
        <ele>390.10464</ele>
        <time>2023-07-26T14:56:16.000Z</time>
      </trkpt>
      <trkpt lat="45.81501" lon="4.71822">
        <ele>390.14737</ele>
        <time>2023-07-26T14:56:17.000Z</time>
      </trkpt>
      <trkpt lat="45.81502" lon="4.71815">
        <ele>390.16013</ele>
        <time>2023-07-26T14:56:18.000Z</time>
      </trkpt>
      <trkpt lat="45.81504" lon="4.71808">
        <ele>390.19473</ele>
        <time>2023-07-26T14:56:19.000Z</time>
      </trkpt>
      <trkpt lat="45.81504" lon="4.71801">
        <ele>390.26553</ele>
        <time>2023-07-26T14:56:20.000Z</time>
      </trkpt>
      <trkpt lat="45.81505" lon="4.71794">
        <ele>390.37289</ele>
        <time>2023-07-26T14:56:21.000Z</time>
      </trkpt>
      <trkpt lat="45.81507" lon="4.71787">
        <ele>390.54947</ele>
        <time>2023-07-26T14:56:22.000Z</time>
      </trkpt>
      <trkpt lat="45.81508" lon="4.71781">
        <ele>390.5271</ele>
        <time>2023-07-26T14:56:23.000Z</time>
      </trkpt>
      <trkpt lat="45.81509" lon="4.71774">
        <ele>390.50381</ele>
        <time>2023-07-26T14:56:24.000Z</time>
      </trkpt>
      <trkpt lat="45.81511" lon="4.71767">
        <ele>390.69827</ele>
        <time>2023-07-26T14:56:25.000Z</time>
      </trkpt>
      <trkpt lat="45.81512" lon="4.71763">
        <ele>390.83334</ele>
        <time>2023-07-26T14:56:26.000Z</time>
      </trkpt>
      <trkpt lat="45.81513" lon="4.71758">
        <ele>390.98932</ele>
        <time>2023-07-26T14:56:27.000Z</time>
      </trkpt>
      <trkpt lat="45.81514" lon="4.71753">
        <ele>391.16766</ele>
        <time>2023-07-26T14:56:28.000Z</time>
      </trkpt>
      <trkpt lat="45.81516" lon="4.7175">
        <ele>391.28619</ele>
        <time>2023-07-26T14:56:29.000Z</time>
      </trkpt>
      <trkpt lat="45.81518" lon="4.71748">
        <ele>391.36874</ele>
        <time>2023-07-26T14:56:31.000Z</time>
      </trkpt>
      <trkpt lat="45.81521" lon="4.7175">
        <ele>391.59079</ele>
        <time>2023-07-26T14:56:53.000Z</time>
      </trkpt>
      <trkpt lat="45.81523" lon="4.71748">
        <ele>391.83896</ele>
        <time>2023-07-26T14:56:55.000Z</time>
      </trkpt>
      <trkpt lat="45.81525" lon="4.71747">
        <ele>391.95929</ele>
        <time>2023-07-26T14:56:56.000Z</time>
      </trkpt>
      <trkpt lat="45.81527" lon="4.71745">
        <ele>392.30328</ele>
        <time>2023-07-26T14:56:57.000Z</time>
      </trkpt>
      <trkpt lat="45.81529" lon="4.71744">
        <ele>392.61465</ele>
        <time>2023-07-26T14:56:58.000Z</time>
      </trkpt>
      <trkpt lat="45.81531" lon="4.71742">
        <ele>392.54126</ele>
        <time>2023-07-26T14:56:59.000Z</time>
      </trkpt>
      <trkpt lat="45.81533" lon="4.71739">
        <ele>392.48883</ele>
        <time>2023-07-26T14:57:00.000Z</time>
      </trkpt>
      <trkpt lat="45.81534" lon="4.71736">
        <ele>392.42749</ele>
        <time>2023-07-26T14:57:01.000Z</time>
      </trkpt>
      <trkpt lat="45.81534" lon="4.71731">
        <ele>392.32193</ele>
        <time>2023-07-26T14:57:02.000Z</time>
      </trkpt>
      <trkpt lat="45.81534" lon="4.71727">
        <ele>392.27054</ele>
        <time>2023-07-26T14:57:03.000Z</time>
      </trkpt>
      <trkpt lat="45.81536" lon="4.71722">
        <ele>392.37265</ele>
        <time>2023-07-26T14:57:04.000Z</time>
      </trkpt>
      <trkpt lat="45.81538" lon="4.71719">
        <ele>392.46652</ele>
        <time>2023-07-26T14:57:05.000Z</time>
      </trkpt>
      <trkpt lat="45.81541" lon="4.71718">
        <ele>392.86945</ele>
        <time>2023-07-26T14:57:06.000Z</time>
      </trkpt>
      <trkpt lat="45.81544" lon="4.71718">
        <ele>392.9538</ele>
        <time>2023-07-26T14:57:07.000Z</time>
      </trkpt>
      <trkpt lat="45.81546" lon="4.71719">
        <ele>392.82965</ele>
        <time>2023-07-26T14:57:08.000Z</time>
      </trkpt>
      <trkpt lat="45.81549" lon="4.7172">
        <ele>393.15851</ele>
        <time>2023-07-26T14:57:09.000Z</time>
      </trkpt>
      <trkpt lat="45.81551" lon="4.7172">
        <ele>393.45294</ele>
        <time>2023-07-26T14:57:10.000Z</time>
      </trkpt>
      <trkpt lat="45.81553" lon="4.7172">
        <ele>393.74353</ele>
        <time>2023-07-26T14:57:11.000Z</time>
      </trkpt>
      <trkpt lat="45.81556" lon="4.7172">
        <ele>394.08191</ele>
        <time>2023-07-26T14:57:12.000Z</time>
      </trkpt>
      <trkpt lat="45.81558" lon="4.7172">
        <ele>394.27502</ele>
        <time>2023-07-26T14:57:13.000Z</time>
      </trkpt>
      <trkpt lat="45.81561" lon="4.71719">
        <ele>394.31073</ele>
        <time>2023-07-26T14:57:14.000Z</time>
      </trkpt>
      <trkpt lat="45.81564" lon="4.71718">
        <ele>394.34531</ele>
        <time>2023-07-26T14:57:15.000Z</time>
      </trkpt>
      <trkpt lat="45.81566" lon="4.71718">
        <ele>394.345</ele>
        <time>2023-07-26T14:57:16.000Z</time>
      </trkpt>
      <trkpt lat="45.8157" lon="4.71719">
        <ele>394.17349</ele>
        <time>2023-07-26T14:57:17.000Z</time>
      </trkpt>
      <trkpt lat="45.81573" lon="4.71719">
        <ele>394.12592</ele>
        <time>2023-07-26T14:57:18.000Z</time>
      </trkpt>
      <trkpt lat="45.81576" lon="4.7172">
        <ele>394.43469</ele>
        <time>2023-07-26T14:57:19.000Z</time>
      </trkpt>
      <trkpt lat="45.81579" lon="4.7172">
        <ele>394.74435</ele>
        <time>2023-07-26T14:57:20.000Z</time>
      </trkpt>
      <trkpt lat="45.81581" lon="4.71719">
        <ele>395.06476</ele>
        <time>2023-07-26T14:57:21.000Z</time>
      </trkpt>
      <trkpt lat="45.81584" lon="4.71718">
        <ele>395.43851</ele>
        <time>2023-07-26T14:57:22.000Z</time>
      </trkpt>
      <trkpt lat="45.81587" lon="4.71718">
        <ele>395.74149</ele>
        <time>2023-07-26T14:57:23.000Z</time>
      </trkpt>
      <trkpt lat="45.8159" lon="4.71718">
        <ele>395.87753</ele>
        <time>2023-07-26T14:57:24.000Z</time>
      </trkpt>
      <trkpt lat="45.81593" lon="4.71718">
        <ele>396.00995</ele>
        <time>2023-07-26T14:57:25.000Z</time>
      </trkpt>
      <trkpt lat="45.81596" lon="4.71718">
        <ele>395.92047</ele>
        <time>2023-07-26T14:57:26.000Z</time>
      </trkpt>
      <trkpt lat="45.81598" lon="4.71718">
        <ele>396.15988</ele>
        <time>2023-07-26T14:57:27.000Z</time>
      </trkpt>
      <trkpt lat="45.81601" lon="4.71717">
        <ele>396.3912</ele>
        <time>2023-07-26T14:57:28.000Z</time>
      </trkpt>
      <trkpt lat="45.81604" lon="4.71717">
        <ele>396.19681</ele>
        <time>2023-07-26T14:57:29.000Z</time>
      </trkpt>
      <trkpt lat="45.81607" lon="4.71716">
        <ele>396.03168</ele>
        <time>2023-07-26T14:57:30.000Z</time>
      </trkpt>
      <trkpt lat="45.8161" lon="4.71716">
        <ele>395.85199</ele>
        <time>2023-07-26T14:57:31.000Z</time>
      </trkpt>
      <trkpt lat="45.81613" lon="4.71716">
        <ele>395.73428</ele>
        <time>2023-07-26T14:57:32.000Z</time>
      </trkpt>
      <trkpt lat="45.81617" lon="4.71715">
        <ele>395.7948</ele>
        <time>2023-07-26T14:57:33.000Z</time>
      </trkpt>
      <trkpt lat="45.8162" lon="4.71715">
        <ele>395.84872</ele>
        <time>2023-07-26T14:57:34.000Z</time>
      </trkpt>
      <trkpt lat="45.81624" lon="4.71715">
        <ele>395.90598</ele>
        <time>2023-07-26T14:57:35.000Z</time>
      </trkpt>
      <trkpt lat="45.81627" lon="4.71715">
        <ele>395.96719</ele>
        <time>2023-07-26T14:57:36.000Z</time>
      </trkpt>
      <trkpt lat="45.81631" lon="4.71713">
        <ele>395.92288</ele>
        <time>2023-07-26T14:57:37.000Z</time>
      </trkpt>
      <trkpt lat="45.81634" lon="4.71711">
        <ele>395.76984</ele>
        <time>2023-07-26T14:57:38.000Z</time>
      </trkpt>
      <trkpt lat="45.81637" lon="4.71711">
        <ele>395.61557</ele>
        <time>2023-07-26T14:57:39.000Z</time>
      </trkpt>
      <trkpt lat="45.81641" lon="4.71712">
        <ele>395.41156</ele>
        <time>2023-07-26T14:57:40.000Z</time>
      </trkpt>
      <trkpt lat="45.81646" lon="4.71713">
        <ele>395.20624</ele>
        <time>2023-07-26T14:57:41.000Z</time>
      </trkpt>
      <trkpt lat="45.8165" lon="4.71713">
        <ele>394.97015</ele>
        <time>2023-07-26T14:57:42.000Z</time>
      </trkpt>
      <trkpt lat="45.81655" lon="4.71713">
        <ele>394.69467</ele>
        <time>2023-07-26T14:57:43.000Z</time>
      </trkpt>
      <trkpt lat="45.8166" lon="4.71712">
        <ele>394.62048</ele>
        <time>2023-07-26T14:57:44.000Z</time>
      </trkpt>
      <trkpt lat="45.81664" lon="4.71712">
        <ele>394.53796</ele>
        <time>2023-07-26T14:57:45.000Z</time>
      </trkpt>
      <trkpt lat="45.81669" lon="4.71712">
        <ele>394.43854</ele>
        <time>2023-07-26T14:57:46.000Z</time>
      </trkpt>
      <trkpt lat="45.81675" lon="4.71712">
        <ele>394.35809</ele>
        <time>2023-07-26T14:57:47.000Z</time>
      </trkpt>
      <trkpt lat="45.81681" lon="4.71712">
        <ele>394.27344</ele>
        <time>2023-07-26T14:57:48.000Z</time>
      </trkpt>
      <trkpt lat="45.81689" lon="4.71713">
        <ele>390.97556</ele>
        <time>2023-07-26T14:57:49.000Z</time>
      </trkpt>
      <trkpt lat="45.81695" lon="4.71715">
        <ele>390.73566</ele>
        <time>2023-07-26T14:57:50.000Z</time>
      </trkpt>
      <trkpt lat="45.81701" lon="4.71715">
        <ele>390.48392</ele>
        <time>2023-07-26T14:57:51.000Z</time>
      </trkpt>
      <trkpt lat="45.81708" lon="4.71717">
        <ele>390.13852</ele>
        <time>2023-07-26T14:57:52.000Z</time>
      </trkpt>
      <trkpt lat="45.81716" lon="4.71719">
        <ele>389.77637</ele>
        <time>2023-07-26T14:57:53.000Z</time>
      </trkpt>
      <trkpt lat="45.81724" lon="4.7172">
        <ele>389.42032</ele>
        <time>2023-07-26T14:57:54.000Z</time>
      </trkpt>
      <trkpt lat="45.81732" lon="4.71722">
        <ele>389.0275</ele>
        <time>2023-07-26T14:57:55.000Z</time>
      </trkpt>
      <trkpt lat="45.81741" lon="4.71724">
        <ele>388.60986</ele>
        <time>2023-07-26T14:57:56.000Z</time>
      </trkpt>
      <trkpt lat="45.81749" lon="4.71725">
        <ele>388.25827</ele>
        <time>2023-07-26T14:57:57.000Z</time>
      </trkpt>
      <trkpt lat="45.81757" lon="4.71728">
        <ele>387.87958</ele>
        <time>2023-07-26T14:57:58.000Z</time>
      </trkpt>
      <trkpt lat="45.81766" lon="4.71729">
        <ele>387.49493</ele>
        <time>2023-07-26T14:57:59.000Z</time>
      </trkpt>
      <trkpt lat="45.81776" lon="4.7173">
        <ele>387.12888</ele>
        <time>2023-07-26T14:58:00.000Z</time>
      </trkpt>
      <trkpt lat="45.81785" lon="4.71731">
        <ele>386.76187</ele>
        <time>2023-07-26T14:58:01.000Z</time>
      </trkpt>
      <trkpt lat="45.81794" lon="4.71733">
        <ele>386.34125</ele>
        <time>2023-07-26T14:58:02.000Z</time>
      </trkpt>
      <trkpt lat="45.81803" lon="4.71734">
        <ele>385.9097</ele>
        <time>2023-07-26T14:58:03.000Z</time>
      </trkpt>
      <trkpt lat="45.81813" lon="4.71735">
        <ele>385.25836</ele>
        <time>2023-07-26T14:58:04.000Z</time>
      </trkpt>
      <trkpt lat="45.81823" lon="4.71736">
        <ele>384.57404</ele>
        <time>2023-07-26T14:58:05.000Z</time>
      </trkpt>
      <trkpt lat="45.81834" lon="4.71737">
        <ele>383.86237</ele>
        <time>2023-07-26T14:58:06.000Z</time>
      </trkpt>
      <trkpt lat="45.81844" lon="4.7174">
        <ele>383.09561</ele>
        <time>2023-07-26T14:58:07.000Z</time>
      </trkpt>
      <trkpt lat="45.81855" lon="4.7174">
        <ele>382.28998</ele>
        <time>2023-07-26T14:58:08.000Z</time>
      </trkpt>
      <trkpt lat="45.81866" lon="4.71739">
        <ele>384.7045</ele>
        <time>2023-07-26T14:58:09.000Z</time>
      </trkpt>
      <trkpt lat="45.81877" lon="4.71739">
        <ele>384.02408</ele>
        <time>2023-07-26T14:58:10.000Z</time>
      </trkpt>
      <trkpt lat="45.81889" lon="4.71738">
        <ele>383.34308</ele>
        <time>2023-07-26T14:58:11.000Z</time>
      </trkpt>
      <trkpt lat="45.819" lon="4.71736">
        <ele>382.73355</ele>
        <time>2023-07-26T14:58:12.000Z</time>
      </trkpt>
      <trkpt lat="45.81911" lon="4.71735">
        <ele>382.12396</ele>
        <time>2023-07-26T14:58:13.000Z</time>
      </trkpt>
      <trkpt lat="45.81922" lon="4.71735">
        <ele>381.46378</ele>
        <time>2023-07-26T14:58:14.000Z</time>
      </trkpt>
      <trkpt lat="45.81934" lon="4.71734">
        <ele>380.82111</ele>
        <time>2023-07-26T14:58:15.000Z</time>
      </trkpt>
      <trkpt lat="45.81946" lon="4.71734">
        <ele>380.18253</ele>
        <time>2023-07-26T14:58:16.000Z</time>
      </trkpt>
      <trkpt lat="45.81957" lon="4.71733">
        <ele>379.57242</ele>
        <time>2023-07-26T14:58:17.000Z</time>
      </trkpt>
      <trkpt lat="45.81967" lon="4.71732">
        <ele>378.79227</ele>
        <time>2023-07-26T14:58:18.000Z</time>
      </trkpt>
      <trkpt lat="45.81977" lon="4.7173">
        <ele>378.04779</ele>
        <time>2023-07-26T14:58:19.000Z</time>
      </trkpt>
      <trkpt lat="45.81986" lon="4.71728">
        <ele>377.3251</ele>
        <time>2023-07-26T14:58:20.000Z</time>
      </trkpt>
      <trkpt lat="45.81996" lon="4.71726">
        <ele>376.6123</ele>
        <time>2023-07-26T14:58:21.000Z</time>
      </trkpt>
      <trkpt lat="45.82005" lon="4.71723">
        <ele>375.97592</ele>
        <time>2023-07-26T14:58:22.000Z</time>
      </trkpt>
      <trkpt lat="45.82014" lon="4.71721">
        <ele>375.39111</ele>
        <time>2023-07-26T14:58:23.000Z</time>
      </trkpt>
      <trkpt lat="45.82022" lon="4.71719">
        <ele>374.85455</ele>
        <time>2023-07-26T14:58:24.000Z</time>
      </trkpt>
      <trkpt lat="45.8203" lon="4.71717">
        <ele>374.3511</ele>
        <time>2023-07-26T14:58:25.000Z</time>
      </trkpt>
      <trkpt lat="45.82038" lon="4.71715">
        <ele>373.89459</ele>
        <time>2023-07-26T14:58:26.000Z</time>
      </trkpt>
      <trkpt lat="45.82047" lon="4.71713">
        <ele>373.49481</ele>
        <time>2023-07-26T14:58:27.000Z</time>
      </trkpt>
      <trkpt lat="45.82055" lon="4.71711">
        <ele>373.10901</ele>
        <time>2023-07-26T14:58:28.000Z</time>
      </trkpt>
      <trkpt lat="45.82063" lon="4.71709">
        <ele>372.71838</ele>
        <time>2023-07-26T14:58:29.000Z</time>
      </trkpt>
      <trkpt lat="45.82071" lon="4.71707">
        <ele>372.32971</ele>
        <time>2023-07-26T14:58:30.000Z</time>
      </trkpt>
      <trkpt lat="45.82079" lon="4.71705">
        <ele>371.92627</ele>
        <time>2023-07-26T14:58:31.000Z</time>
      </trkpt>
      <trkpt lat="45.82084" lon="4.71703">
        <ele>371.53528</ele>
        <time>2023-07-26T14:58:32.000Z</time>
      </trkpt>
      <trkpt lat="45.82089" lon="4.717">
        <ele>371.14154</ele>
        <time>2023-07-26T14:58:33.000Z</time>
      </trkpt>
      <trkpt lat="45.82094" lon="4.71697">
        <ele>370.81503</ele>
        <time>2023-07-26T14:58:34.000Z</time>
      </trkpt>
      <trkpt lat="45.82097" lon="4.71693">
        <ele>370.43161</ele>
        <time>2023-07-26T14:58:35.000Z</time>
      </trkpt>
      <trkpt lat="45.82102" lon="4.7169">
        <ele>370.10654</ele>
        <time>2023-07-26T14:58:36.000Z</time>
      </trkpt>
      <trkpt lat="45.82106" lon="4.71688">
        <ele>369.73862</ele>
        <time>2023-07-26T14:58:37.000Z</time>
      </trkpt>
      <trkpt lat="45.82109" lon="4.71686">
        <ele>369.55615</ele>
        <time>2023-07-26T14:58:38.000Z</time>
      </trkpt>
      <trkpt lat="45.82113" lon="4.71686">
        <ele>369.32196</ele>
        <time>2023-07-26T14:58:39.000Z</time>
      </trkpt>
      <trkpt lat="45.82118" lon="4.71683">
        <ele>369.08356</ele>
        <time>2023-07-26T14:58:40.000Z</time>
      </trkpt>
      <trkpt lat="45.82123" lon="4.71681">
        <ele>368.84299</ele>
        <time>2023-07-26T14:58:41.000Z</time>
      </trkpt>
      <trkpt lat="45.82127" lon="4.71678">
        <ele>368.56042</ele>
        <time>2023-07-26T14:58:42.000Z</time>
      </trkpt>
      <trkpt lat="45.82133" lon="4.71672">
        <ele>368.27313</ele>
        <time>2023-07-26T14:58:43.000Z</time>
      </trkpt>
      <trkpt lat="45.82139" lon="4.71667">
        <ele>367.97128</ele>
        <time>2023-07-26T14:58:44.000Z</time>
      </trkpt>
      <trkpt lat="45.82146" lon="4.71662">
        <ele>367.57916</ele>
        <time>2023-07-26T14:58:45.000Z</time>
      </trkpt>
      <trkpt lat="45.82153" lon="4.7166">
        <ele>367.15442</ele>
        <time>2023-07-26T14:58:46.000Z</time>
      </trkpt>
      <trkpt lat="45.82161" lon="4.71657">
        <ele>366.69489</ele>
        <time>2023-07-26T14:58:47.000Z</time>
      </trkpt>
      <trkpt lat="45.82169" lon="4.71653">
        <ele>366.24701</ele>
        <time>2023-07-26T14:58:48.000Z</time>
      </trkpt>
      <trkpt lat="45.82176" lon="4.71649">
        <ele>365.81512</ele>
        <time>2023-07-26T14:58:49.000Z</time>
      </trkpt>
      <trkpt lat="45.82184" lon="4.71645">
        <ele>365.38333</ele>
        <time>2023-07-26T14:58:50.000Z</time>
      </trkpt>
      <trkpt lat="45.82192" lon="4.71642">
        <ele>364.93744</ele>
        <time>2023-07-26T14:58:51.000Z</time>
      </trkpt>
      <trkpt lat="45.822" lon="4.71639">
        <ele>364.46945</ele>
        <time>2023-07-26T14:58:52.000Z</time>
      </trkpt>
      <trkpt lat="45.82208" lon="4.71636">
        <ele>364.01947</ele>
        <time>2023-07-26T14:58:53.000Z</time>
      </trkpt>
      <trkpt lat="45.82216" lon="4.71634">
        <ele>363.53448</ele>
        <time>2023-07-26T14:58:54.000Z</time>
      </trkpt>
      <trkpt lat="45.82224" lon="4.71631">
        <ele>363.12421</ele>
        <time>2023-07-26T14:58:55.000Z</time>
      </trkpt>
      <trkpt lat="45.82232" lon="4.71627">
        <ele>362.68436</ele>
        <time>2023-07-26T14:58:56.000Z</time>
      </trkpt>
      <trkpt lat="45.82239" lon="4.71622">
        <ele>361.71329</ele>
        <time>2023-07-26T14:58:57.000Z</time>
      </trkpt>
      <trkpt lat="45.82246" lon="4.71617">
        <ele>360.73956</ele>
        <time>2023-07-26T14:58:58.000Z</time>
      </trkpt>
      <trkpt lat="45.82253" lon="4.71612">
        <ele>359.81076</ele>
        <time>2023-07-26T14:58:59.000Z</time>
      </trkpt>
      <trkpt lat="45.8226" lon="4.71607">
        <ele>358.87201</ele>
        <time>2023-07-26T14:59:00.000Z</time>
      </trkpt>
      <trkpt lat="45.82267" lon="4.71602">
        <ele>357.92569</ele>
        <time>2023-07-26T14:59:01.000Z</time>
      </trkpt>
      <trkpt lat="45.82273" lon="4.71597">
        <ele>357.00995</ele>
        <time>2023-07-26T14:59:02.000Z</time>
      </trkpt>
      <trkpt lat="45.8228" lon="4.71592">
        <ele>356.0878</ele>
        <time>2023-07-26T14:59:03.000Z</time>
      </trkpt>
      <trkpt lat="45.82287" lon="4.71588">
        <ele>355.16333</ele>
        <time>2023-07-26T14:59:04.000Z</time>
      </trkpt>
      <trkpt lat="45.82293" lon="4.71584">
        <ele>354.3277</ele>
        <time>2023-07-26T14:59:05.000Z</time>
      </trkpt>
      <trkpt lat="45.82299" lon="4.71579">
        <ele>353.51205</ele>
        <time>2023-07-26T14:59:06.000Z</time>
      </trkpt>
      <trkpt lat="45.82304" lon="4.71576">
        <ele>352.74323</ele>
        <time>2023-07-26T14:59:07.000Z</time>
      </trkpt>
      <trkpt lat="45.8231" lon="4.71571">
        <ele>351.97659</ele>
        <time>2023-07-26T14:59:08.000Z</time>
      </trkpt>
      <trkpt lat="45.82316" lon="4.71566">
        <ele>351.23682</ele>
        <time>2023-07-26T14:59:09.000Z</time>
      </trkpt>
      <trkpt lat="45.82322" lon="4.71563">
        <ele>350.49585</ele>
        <time>2023-07-26T14:59:10.000Z</time>
      </trkpt>
      <trkpt lat="45.82327" lon="4.71559">
        <ele>349.80103</ele>
        <time>2023-07-26T14:59:11.000Z</time>
      </trkpt>
      <trkpt lat="45.82333" lon="4.71555">
        <ele>349.10446</ele>
        <time>2023-07-26T14:59:12.000Z</time>
      </trkpt>
      <trkpt lat="45.82339" lon="4.7155">
        <ele>348.42328</ele>
        <time>2023-07-26T14:59:13.000Z</time>
      </trkpt>
      <trkpt lat="45.82344" lon="4.71546">
        <ele>347.75232</ele>
        <time>2023-07-26T14:59:14.000Z</time>
      </trkpt>
      <trkpt lat="45.8235" lon="4.71542">
        <ele>347.10333</ele>
        <time>2023-07-26T14:59:15.000Z</time>
      </trkpt>
      <trkpt lat="45.82356" lon="4.71539">
        <ele>346.42676</ele>
        <time>2023-07-26T14:59:16.000Z</time>
      </trkpt>
      <trkpt lat="45.82361" lon="4.71534">
        <ele>346.31006</ele>
        <time>2023-07-26T14:59:17.000Z</time>
      </trkpt>
      <trkpt lat="45.82367" lon="4.7153">
        <ele>346.21695</ele>
        <time>2023-07-26T14:59:18.000Z</time>
      </trkpt>
      <trkpt lat="45.82373" lon="4.71526">
        <ele>346.08771</ele>
        <time>2023-07-26T14:59:19.000Z</time>
      </trkpt>
      <trkpt lat="45.82379" lon="4.71521">
        <ele>345.97046</ele>
        <time>2023-07-26T14:59:20.000Z</time>
      </trkpt>
      <trkpt lat="45.82385" lon="4.71518">
        <ele>345.86401</ele>
        <time>2023-07-26T14:59:21.000Z</time>
      </trkpt>
      <trkpt lat="45.8239" lon="4.71513">
        <ele>345.74457</ele>
        <time>2023-07-26T14:59:22.000Z</time>
      </trkpt>
      <trkpt lat="45.82397" lon="4.7151">
        <ele>345.59708</ele>
        <time>2023-07-26T14:59:23.000Z</time>
      </trkpt>
      <trkpt lat="45.82402" lon="4.71505">
        <ele>345.45264</ele>
        <time>2023-07-26T14:59:24.000Z</time>
      </trkpt>
      <trkpt lat="45.82409" lon="4.715">
        <ele>345.31851</ele>
        <time>2023-07-26T14:59:25.000Z</time>
      </trkpt>
      <trkpt lat="45.82415" lon="4.71495">
        <ele>345.1514</ele>
        <time>2023-07-26T14:59:26.000Z</time>
      </trkpt>
      <trkpt lat="45.82421" lon="4.71491">
        <ele>344.9686</ele>
        <time>2023-07-26T14:59:27.000Z</time>
      </trkpt>
      <trkpt lat="45.82428" lon="4.71486">
        <ele>344.80753</ele>
        <time>2023-07-26T14:59:28.000Z</time>
      </trkpt>
      <trkpt lat="45.82434" lon="4.71482">
        <ele>344.62387</ele>
        <time>2023-07-26T14:59:29.000Z</time>
      </trkpt>
      <trkpt lat="45.82441" lon="4.71477">
        <ele>344.44843</ele>
        <time>2023-07-26T14:59:30.000Z</time>
      </trkpt>
      <trkpt lat="45.82447" lon="4.71474">
        <ele>344.26004</ele>
        <time>2023-07-26T14:59:31.000Z</time>
      </trkpt>
      <trkpt lat="45.82454" lon="4.7147">
        <ele>344.1088</ele>
        <time>2023-07-26T14:59:32.000Z</time>
      </trkpt>
      <trkpt lat="45.8246" lon="4.71468">
        <ele>343.83966</ele>
        <time>2023-07-26T14:59:33.000Z</time>
      </trkpt>
      <trkpt lat="45.82467" lon="4.71464">
        <ele>343.58823</ele>
        <time>2023-07-26T14:59:34.000Z</time>
      </trkpt>
      <trkpt lat="45.82473" lon="4.71461">
        <ele>343.30014</ele>
        <time>2023-07-26T14:59:35.000Z</time>
      </trkpt>
      <trkpt lat="45.82479" lon="4.71458">
        <ele>343.18475</ele>
        <time>2023-07-26T14:59:36.000Z</time>
      </trkpt>
      <trkpt lat="45.82487" lon="4.71456">
        <ele>343.01697</ele>
        <time>2023-07-26T14:59:37.000Z</time>
      </trkpt>
      <trkpt lat="45.82493" lon="4.71453">
        <ele>342.84747</ele>
        <time>2023-07-26T14:59:38.000Z</time>
      </trkpt>
      <trkpt lat="45.825" lon="4.71451">
        <ele>342.68756</ele>
        <time>2023-07-26T14:59:39.000Z</time>
      </trkpt>
      <trkpt lat="45.82507" lon="4.71449">
        <ele>342.48315</ele>
        <time>2023-07-26T14:59:40.000Z</time>
      </trkpt>
      <trkpt lat="45.82515" lon="4.71446">
        <ele>342.28809</ele>
        <time>2023-07-26T14:59:41.000Z</time>
      </trkpt>
      <trkpt lat="45.82522" lon="4.71443">
        <ele>342.0856</ele>
        <time>2023-07-26T14:59:42.000Z</time>
      </trkpt>
      <trkpt lat="45.82531" lon="4.7144">
        <ele>341.92621</ele>
        <time>2023-07-26T14:59:43.000Z</time>
      </trkpt>
      <trkpt lat="45.82539" lon="4.71438">
        <ele>341.75092</ele>
        <time>2023-07-26T14:59:44.000Z</time>
      </trkpt>
      <trkpt lat="45.82546" lon="4.71434">
        <ele>341.55377</ele>
        <time>2023-07-26T14:59:45.000Z</time>
      </trkpt>
      <trkpt lat="45.82555" lon="4.71431">
        <ele>341.38162</ele>
        <time>2023-07-26T14:59:46.000Z</time>
      </trkpt>
      <trkpt lat="45.82562" lon="4.71427">
        <ele>341.17389</ele>
        <time>2023-07-26T14:59:47.000Z</time>
      </trkpt>
      <trkpt lat="45.8257" lon="4.71424">
        <ele>340.94901</ele>
        <time>2023-07-26T14:59:48.000Z</time>
      </trkpt>
      <trkpt lat="45.82579" lon="4.71421">
        <ele>340.69943</ele>
        <time>2023-07-26T14:59:49.000Z</time>
      </trkpt>
      <trkpt lat="45.82588" lon="4.71418">
        <ele>340.4339</ele>
        <time>2023-07-26T14:59:50.000Z</time>
      </trkpt>
      <trkpt lat="45.82596" lon="4.71415">
        <ele>340.16922</ele>
        <time>2023-07-26T14:59:51.000Z</time>
      </trkpt>
      <trkpt lat="45.82605" lon="4.71412">
        <ele>339.8674</ele>
        <time>2023-07-26T14:59:52.000Z</time>
      </trkpt>
      <trkpt lat="45.82614" lon="4.71411">
        <ele>339.6557</ele>
        <time>2023-07-26T14:59:53.000Z</time>
      </trkpt>
      <trkpt lat="45.82623" lon="4.71409">
        <ele>339.39047</ele>
        <time>2023-07-26T14:59:54.000Z</time>
      </trkpt>
      <trkpt lat="45.82632" lon="4.71408">
        <ele>339.11359</ele>
        <time>2023-07-26T14:59:55.000Z</time>
      </trkpt>
      <trkpt lat="45.8264" lon="4.71409">
        <ele>338.69193</ele>
        <time>2023-07-26T14:59:56.000Z</time>
      </trkpt>
      <trkpt lat="45.82648" lon="4.71409">
        <ele>338.30069</ele>
        <time>2023-07-26T14:59:57.000Z</time>
      </trkpt>
      <trkpt lat="45.82656" lon="4.71412">
        <ele>337.89447</ele>
        <time>2023-07-26T14:59:58.000Z</time>
      </trkpt>
      <trkpt lat="45.82665" lon="4.71416">
        <ele>337.44821</ele>
        <time>2023-07-26T14:59:59.000Z</time>
      </trkpt>
      <trkpt lat="45.82673" lon="4.71419">
        <ele>337.03107</ele>
        <time>2023-07-26T15:00:00.000Z</time>
      </trkpt>
      <trkpt lat="45.8268" lon="4.71423">
        <ele>336.60648</ele>
        <time>2023-07-26T15:00:01.000Z</time>
      </trkpt>
      <trkpt lat="45.82688" lon="4.71428">
        <ele>336.17334</ele>
        <time>2023-07-26T15:00:02.000Z</time>
      </trkpt>
      <trkpt lat="45.82696" lon="4.71432">
        <ele>335.73965</ele>
        <time>2023-07-26T15:00:03.000Z</time>
      </trkpt>
      <trkpt lat="45.82704" lon="4.71437">
        <ele>335.32303</ele>
        <time>2023-07-26T15:00:04.000Z</time>
      </trkpt>
      <trkpt lat="45.82712" lon="4.7144">
        <ele>334.93805</ele>
        <time>2023-07-26T15:00:05.000Z</time>
      </trkpt>
      <trkpt lat="45.8272" lon="4.71444">
        <ele>334.52686</ele>
        <time>2023-07-26T15:00:06.000Z</time>
      </trkpt>
      <trkpt lat="45.82728" lon="4.71446">
        <ele>334.16156</ele>
        <time>2023-07-26T15:00:07.000Z</time>
      </trkpt>
      <trkpt lat="45.82736" lon="4.71449">
        <ele>333.79156</ele>
        <time>2023-07-26T15:00:08.000Z</time>
      </trkpt>
      <trkpt lat="45.82744" lon="4.71452">
        <ele>333.44049</ele>
        <time>2023-07-26T15:00:09.000Z</time>
      </trkpt>
      <trkpt lat="45.82754" lon="4.71454">
        <ele>333.12509</ele>
        <time>2023-07-26T15:00:10.000Z</time>
      </trkpt>
      <trkpt lat="45.82762" lon="4.71457">
        <ele>332.82294</ele>
        <time>2023-07-26T15:00:11.000Z</time>
      </trkpt>
      <trkpt lat="45.82771" lon="4.71461">
        <ele>332.52258</ele>
        <time>2023-07-26T15:00:12.000Z</time>
      </trkpt>
      <trkpt lat="45.8278" lon="4.71464">
        <ele>332.2327</ele>
        <time>2023-07-26T15:00:13.000Z</time>
      </trkpt>
      <trkpt lat="45.82789" lon="4.71467">
        <ele>331.96378</ele>
        <time>2023-07-26T15:00:14.000Z</time>
      </trkpt>
      <trkpt lat="45.82799" lon="4.71469">
        <ele>331.70587</ele>
        <time>2023-07-26T15:00:15.000Z</time>
      </trkpt>
      <trkpt lat="45.82808" lon="4.71471">
        <ele>331.4379</ele>
        <time>2023-07-26T15:00:16.000Z</time>
      </trkpt>
      <trkpt lat="45.82817" lon="4.71473">
        <ele>331.19284</ele>
        <time>2023-07-26T15:00:17.000Z</time>
      </trkpt>
      <trkpt lat="45.82826" lon="4.71476">
        <ele>330.95645</ele>
        <time>2023-07-26T15:00:18.000Z</time>
      </trkpt>
      <trkpt lat="45.82835" lon="4.71478">
        <ele>330.76865</ele>
        <time>2023-07-26T15:00:19.000Z</time>
      </trkpt>
      <trkpt lat="45.82843" lon="4.7148">
        <ele>330.58435</ele>
        <time>2023-07-26T15:00:20.000Z</time>
      </trkpt>
      <trkpt lat="45.82851" lon="4.71481">
        <ele>330.39993</ele>
        <time>2023-07-26T15:00:21.000Z</time>
      </trkpt>
      <trkpt lat="45.82859" lon="4.71483">
        <ele>330.21118</ele>
        <time>2023-07-26T15:00:22.000Z</time>
      </trkpt>
      <trkpt lat="45.82866" lon="4.71486">
        <ele>329.97418</ele>
        <time>2023-07-26T15:00:23.000Z</time>
      </trkpt>
      <trkpt lat="45.82873" lon="4.71488">
        <ele>329.7435</ele>
        <time>2023-07-26T15:00:24.000Z</time>
      </trkpt>
      <trkpt lat="45.8288" lon="4.7149">
        <ele>329.45953</ele>
        <time>2023-07-26T15:00:25.000Z</time>
      </trkpt>
      <trkpt lat="45.82887" lon="4.71492">
        <ele>329.20172</ele>
        <time>2023-07-26T15:00:26.000Z</time>
      </trkpt>
      <trkpt lat="45.82894" lon="4.71494">
        <ele>330.01837</ele>
        <time>2023-07-26T15:00:27.000Z</time>
      </trkpt>
      <trkpt lat="45.82901" lon="4.71497">
        <ele>330.82413</ele>
        <time>2023-07-26T15:00:28.000Z</time>
      </trkpt>
      <trkpt lat="45.82908" lon="4.71501">
        <ele>331.63202</ele>
        <time>2023-07-26T15:00:29.000Z</time>
      </trkpt>
      <trkpt lat="45.82914" lon="4.71506">
        <ele>332.39069</ele>
        <time>2023-07-26T15:00:30.000Z</time>
      </trkpt>
      <trkpt lat="45.82917" lon="4.7151">
        <ele>333.11288</ele>
        <time>2023-07-26T15:00:31.000Z</time>
      </trkpt>
      <trkpt lat="45.82919" lon="4.71512">
        <ele>333.82779</ele>
        <time>2023-07-26T15:00:32.000Z</time>
      </trkpt>
      <trkpt lat="45.82924" lon="4.71515">
        <ele>334.5325</ele>
        <time>2023-07-26T15:00:33.000Z</time>
      </trkpt>
      <trkpt lat="45.82928" lon="4.71515">
        <ele>335.2897</ele>
        <time>2023-07-26T15:00:34.000Z</time>
      </trkpt>
      <trkpt lat="45.82932" lon="4.71513">
        <ele>336.05157</ele>
        <time>2023-07-26T15:00:35.000Z</time>
      </trkpt>
      <trkpt lat="45.82936" lon="4.7151">
        <ele>336.83826</ele>
        <time>2023-07-26T15:00:36.000Z</time>
      </trkpt>
      <trkpt lat="45.8294" lon="4.71507">
        <ele>337.64221</ele>
        <time>2023-07-26T15:00:37.000Z</time>
      </trkpt>
      <trkpt lat="45.82944" lon="4.71504">
        <ele>338.453</ele>
        <time>2023-07-26T15:00:38.000Z</time>
      </trkpt>
      <trkpt lat="45.82949" lon="4.71499">
        <ele>339.26727</ele>
        <time>2023-07-26T15:00:39.000Z</time>
      </trkpt>
      <trkpt lat="45.82954" lon="4.71498">
        <ele>338.966</ele>
        <time>2023-07-26T15:00:40.000Z</time>
      </trkpt>
      <trkpt lat="45.8296" lon="4.71496">
        <ele>338.64584</ele>
        <time>2023-07-26T15:00:41.000Z</time>
      </trkpt>
      <trkpt lat="45.82964" lon="4.71492">
        <ele>338.31088</ele>
        <time>2023-07-26T15:00:42.000Z</time>
      </trkpt>
      <trkpt lat="45.82969" lon="4.71489">
        <ele>338.0195</ele>
        <time>2023-07-26T15:00:43.000Z</time>
      </trkpt>
      <trkpt lat="45.82974" lon="4.71485">
        <ele>337.72879</ele>
        <time>2023-07-26T15:00:44.000Z</time>
      </trkpt>
      <trkpt lat="45.82979" lon="4.71482">
        <ele>337.48737</ele>
        <time>2023-07-26T15:00:45.000Z</time>
      </trkpt>
      <trkpt lat="45.82984" lon="4.7148">
        <ele>337.27206</ele>
        <time>2023-07-26T15:00:46.000Z</time>
      </trkpt>
      <trkpt lat="45.8299" lon="4.71479">
        <ele>336.00052</ele>
        <time>2023-07-26T15:00:47.000Z</time>
      </trkpt>
      <trkpt lat="45.82996" lon="4.71477">
        <ele>334.83145</ele>
        <time>2023-07-26T15:00:48.000Z</time>
      </trkpt>
      <trkpt lat="45.83001" lon="4.71476">
        <ele>333.64267</ele>
        <time>2023-07-26T15:00:49.000Z</time>
      </trkpt>
      <trkpt lat="45.83006" lon="4.71477">
        <ele>332.54306</ele>
        <time>2023-07-26T15:00:50.000Z</time>
      </trkpt>
      <trkpt lat="45.83011" lon="4.71477">
        <ele>331.46222</ele>
        <time>2023-07-26T15:00:51.000Z</time>
      </trkpt>
      <trkpt lat="45.83017" lon="4.71477">
        <ele>330.423</ele>
        <time>2023-07-26T15:00:52.000Z</time>
      </trkpt>
      <trkpt lat="45.83021" lon="4.71477">
        <ele>329.39426</ele>
        <time>2023-07-26T15:00:53.000Z</time>
      </trkpt>
      <trkpt lat="45.83026" lon="4.71478">
        <ele>328.33459</ele>
        <time>2023-07-26T15:00:54.000Z</time>
      </trkpt>
      <trkpt lat="45.83031" lon="4.7148">
        <ele>327.28378</ele>
        <time>2023-07-26T15:00:55.000Z</time>
      </trkpt>
      <trkpt lat="45.83036" lon="4.71482">
        <ele>326.21564</ele>
        <time>2023-07-26T15:00:56.000Z</time>
      </trkpt>
      <trkpt lat="45.8304" lon="4.71485">
        <ele>325.13275</ele>
        <time>2023-07-26T15:00:57.000Z</time>
      </trkpt>
      <trkpt lat="45.83045" lon="4.71487">
        <ele>324.07681</ele>
        <time>2023-07-26T15:00:58.000Z</time>
      </trkpt>
      <trkpt lat="45.83049" lon="4.7149">
        <ele>322.95215</ele>
        <time>2023-07-26T15:00:59.000Z</time>
      </trkpt>
      <trkpt lat="45.83053" lon="4.71493">
        <ele>322.98792</ele>
        <time>2023-07-26T15:01:00.000Z</time>
      </trkpt>
      <trkpt lat="45.83057" lon="4.71497">
        <ele>323.02423</ele>
        <time>2023-07-26T15:01:01.000Z</time>
      </trkpt>
      <trkpt lat="45.8306" lon="4.715">
        <ele>323.11401</ele>
        <time>2023-07-26T15:01:02.000Z</time>
      </trkpt>
      <trkpt lat="45.83064" lon="4.71504">
        <ele>324.06735</ele>
        <time>2023-07-26T15:01:03.000Z</time>
      </trkpt>
      <trkpt lat="45.83068" lon="4.71508">
        <ele>324.97754</ele>
        <time>2023-07-26T15:01:04.000Z</time>
      </trkpt>
      <trkpt lat="45.83071" lon="4.71512">
        <ele>325.86066</ele>
        <time>2023-07-26T15:01:05.000Z</time>
      </trkpt>
      <trkpt lat="45.83076" lon="4.71515">
        <ele>326.74268</ele>
        <time>2023-07-26T15:01:06.000Z</time>
      </trkpt>
      <trkpt lat="45.83079" lon="4.71518">
        <ele>327.61945</ele>
        <time>2023-07-26T15:01:07.000Z</time>
      </trkpt>
      <trkpt lat="45.83083" lon="4.71522">
        <ele>328.43719</ele>
        <time>2023-07-26T15:01:08.000Z</time>
      </trkpt>
      <trkpt lat="45.83088" lon="4.71526">
        <ele>329.28693</ele>
        <time>2023-07-26T15:01:09.000Z</time>
      </trkpt>
      <trkpt lat="45.83093" lon="4.7153">
        <ele>330.09857</ele>
        <time>2023-07-26T15:01:10.000Z</time>
      </trkpt>
      <trkpt lat="45.83097" lon="4.71533">
        <ele>330.92389</ele>
        <time>2023-07-26T15:01:11.000Z</time>
      </trkpt>
      <trkpt lat="45.83101" lon="4.71534">
        <ele>331.76617</ele>
        <time>2023-07-26T15:01:12.000Z</time>
      </trkpt>
      <trkpt lat="45.83105" lon="4.71537">
        <ele>332.62552</ele>
        <time>2023-07-26T15:01:13.000Z</time>
      </trkpt>
      <trkpt lat="45.83108" lon="4.7154">
        <ele>333.49576</ele>
        <time>2023-07-26T15:01:14.000Z</time>
      </trkpt>
      <trkpt lat="45.8311" lon="4.71544">
        <ele>334.3714</ele>
        <time>2023-07-26T15:01:15.000Z</time>
      </trkpt>
      <trkpt lat="45.83111" lon="4.71547">
        <ele>335.27145</ele>
        <time>2023-07-26T15:01:16.000Z</time>
      </trkpt>
      <trkpt lat="45.83114" lon="4.71548">
        <ele>336.75699</ele>
        <time>2023-07-26T15:01:17.000Z</time>
      </trkpt>
      <trkpt lat="45.83117" lon="4.7155">
        <ele>338.2211</ele>
        <time>2023-07-26T15:01:18.000Z</time>
      </trkpt>
      <trkpt lat="45.8312" lon="4.71552">
        <ele>339.17477</ele>
        <time>2023-07-26T15:01:19.000Z</time>
      </trkpt>
      <trkpt lat="45.83122" lon="4.71552">
        <ele>340.159</ele>
        <time>2023-07-26T15:01:20.000Z</time>
      </trkpt>
      <trkpt lat="45.83125" lon="4.71554">
        <ele>341.38336</ele>
        <time>2023-07-26T15:01:21.000Z</time>
      </trkpt>
      <trkpt lat="45.83127" lon="4.71555">
        <ele>342.58099</ele>
        <time>2023-07-26T15:01:22.000Z</time>
      </trkpt>
      <trkpt lat="45.83132" lon="4.71556">
        <ele>342.89905</ele>
        <time>2023-07-26T15:01:23.000Z</time>
      </trkpt>
      <trkpt lat="45.83135" lon="4.71558">
        <ele>343.29419</ele>
        <time>2023-07-26T15:01:24.000Z</time>
      </trkpt>
      <trkpt lat="45.83138" lon="4.7156">
        <ele>343.74319</ele>
        <time>2023-07-26T15:01:25.000Z</time>
      </trkpt>
      <trkpt lat="45.8314" lon="4.71562">
        <ele>344.16913</ele>
        <time>2023-07-26T15:01:26.000Z</time>
      </trkpt>
      <trkpt lat="45.83143" lon="4.71564">
        <ele>344.86429</ele>
        <time>2023-07-26T15:01:27.000Z</time>
      </trkpt>
      <trkpt lat="45.83147" lon="4.71566">
        <ele>345.5643</ele>
        <time>2023-07-26T15:01:28.000Z</time>
      </trkpt>
      <trkpt lat="45.8315" lon="4.71568">
        <ele>346.30872</ele>
        <time>2023-07-26T15:01:29.000Z</time>
      </trkpt>
      <trkpt lat="45.83153" lon="4.7157">
        <ele>347.24069</ele>
        <time>2023-07-26T15:01:30.000Z</time>
      </trkpt>
      <trkpt lat="45.83156" lon="4.71571">
        <ele>347.47769</ele>
        <time>2023-07-26T15:01:31.000Z</time>
      </trkpt>
      <trkpt lat="45.8316" lon="4.71572">
        <ele>347.81027</ele>
        <time>2023-07-26T15:01:32.000Z</time>
      </trkpt>
      <trkpt lat="45.83164" lon="4.71574">
        <ele>348.13177</ele>
        <time>2023-07-26T15:01:33.000Z</time>
      </trkpt>
      <trkpt lat="45.83168" lon="4.71577">
        <ele>348.33905</ele>
        <time>2023-07-26T15:01:34.000Z</time>
      </trkpt>
      <trkpt lat="45.83172" lon="4.71579">
        <ele>348.58258</ele>
        <time>2023-07-26T15:01:35.000Z</time>
      </trkpt>
      <trkpt lat="45.83176" lon="4.71581">
        <ele>348.80365</ele>
        <time>2023-07-26T15:01:36.000Z</time>
      </trkpt>
      <trkpt lat="45.83181" lon="4.71584">
        <ele>348.4809</ele>
        <time>2023-07-26T15:01:37.000Z</time>
      </trkpt>
      <trkpt lat="45.83185" lon="4.71586">
        <ele>348.16635</ele>
        <time>2023-07-26T15:01:38.000Z</time>
      </trkpt>
      <trkpt lat="45.83192" lon="4.71588">
        <ele>348.46799</ele>
        <time>2023-07-26T15:01:39.000Z</time>
      </trkpt>
      <trkpt lat="45.83196" lon="4.7159">
        <ele>347.74701</ele>
        <time>2023-07-26T15:01:40.000Z</time>
      </trkpt>
      <trkpt lat="45.83198" lon="4.71594">
        <ele>346.74716</ele>
        <time>2023-07-26T15:01:41.000Z</time>
      </trkpt>
      <trkpt lat="45.83203" lon="4.71595">
        <ele>345.78354</ele>
        <time>2023-07-26T15:01:42.000Z</time>
      </trkpt>
      <trkpt lat="45.83208" lon="4.71597">
        <ele>344.82178</ele>
        <time>2023-07-26T15:01:43.000Z</time>
      </trkpt>
      <trkpt lat="45.83213" lon="4.716">
        <ele>343.83203</ele>
        <time>2023-07-26T15:01:44.000Z</time>
      </trkpt>
      <trkpt lat="45.83219" lon="4.71601">
        <ele>342.77835</ele>
        <time>2023-07-26T15:01:45.000Z</time>
      </trkpt>
      <trkpt lat="45.83223" lon="4.71604">
        <ele>341.71625</ele>
        <time>2023-07-26T15:01:46.000Z</time>
      </trkpt>
      <trkpt lat="45.83228" lon="4.71606">
        <ele>340.39923</ele>
        <time>2023-07-26T15:01:47.000Z</time>
      </trkpt>
      <trkpt lat="45.83232" lon="4.71608">
        <ele>339.05515</ele>
        <time>2023-07-26T15:01:48.000Z</time>
      </trkpt>
      <trkpt lat="45.83236" lon="4.7161">
        <ele>337.67191</ele>
        <time>2023-07-26T15:01:49.000Z</time>
      </trkpt>
      <trkpt lat="45.8324" lon="4.71613">
        <ele>336.09039</ele>
        <time>2023-07-26T15:01:50.000Z</time>
      </trkpt>
      <trkpt lat="45.83244" lon="4.71615">
        <ele>335.23639</ele>
        <time>2023-07-26T15:01:51.000Z</time>
      </trkpt>
      <trkpt lat="45.83248" lon="4.71617">
        <ele>334.27011</ele>
        <time>2023-07-26T15:01:52.000Z</time>
      </trkpt>
      <trkpt lat="45.83253" lon="4.71619">
        <ele>333.31512</ele>
        <time>2023-07-26T15:01:53.000Z</time>
      </trkpt>
      <trkpt lat="45.83258" lon="4.71622">
        <ele>332.49356</ele>
        <time>2023-07-26T15:01:54.000Z</time>
      </trkpt>
      <trkpt lat="45.83263" lon="4.71624">
        <ele>331.64307</ele>
        <time>2023-07-26T15:01:55.000Z</time>
      </trkpt>
      <trkpt lat="45.8327" lon="4.71629">
        <ele>330.74652</ele>
        <time>2023-07-26T15:01:56.000Z</time>
      </trkpt>
      <trkpt lat="45.83274" lon="4.7163">
        <ele>329.8356</ele>
        <time>2023-07-26T15:01:57.000Z</time>
      </trkpt>
      <trkpt lat="45.83279" lon="4.71631">
        <ele>328.91656</ele>
        <time>2023-07-26T15:01:58.000Z</time>
      </trkpt>
      <trkpt lat="45.83283" lon="4.71633">
        <ele>327.99356</ele>
        <time>2023-07-26T15:01:59.000Z</time>
      </trkpt>
      <trkpt lat="45.83287" lon="4.71634">
        <ele>328.03183</ele>
        <time>2023-07-26T15:02:00.000Z</time>
      </trkpt>
      <trkpt lat="45.83292" lon="4.71636">
        <ele>328.1004</ele>
        <time>2023-07-26T15:02:01.000Z</time>
      </trkpt>
      <trkpt lat="45.83296" lon="4.71636">
        <ele>328.16751</ele>
        <time>2023-07-26T15:02:02.000Z</time>
      </trkpt>
      <trkpt lat="45.83301" lon="4.71635">
        <ele>328.26669</ele>
        <time>2023-07-26T15:02:03.000Z</time>
      </trkpt>
      <trkpt lat="45.83306" lon="4.71636">
        <ele>328.38809</ele>
        <time>2023-07-26T15:02:04.000Z</time>
      </trkpt>
      <trkpt lat="45.83311" lon="4.71638">
        <ele>328.48346</ele>
        <time>2023-07-26T15:02:05.000Z</time>
      </trkpt>
      <trkpt lat="45.83316" lon="4.71639">
        <ele>328.5816</ele>
        <time>2023-07-26T15:02:06.000Z</time>
      </trkpt>
      <trkpt lat="45.8332" lon="4.71638">
        <ele>328.63428</ele>
        <time>2023-07-26T15:02:07.000Z</time>
      </trkpt>
      <trkpt lat="45.83326" lon="4.7164">
        <ele>328.69336</ele>
        <time>2023-07-26T15:02:08.000Z</time>
      </trkpt>
      <trkpt lat="45.8333" lon="4.71639">
        <ele>328.7554</ele>
        <time>2023-07-26T15:02:09.000Z</time>
      </trkpt>
      <trkpt lat="45.83335" lon="4.71638">
        <ele>328.84601</ele>
        <time>2023-07-26T15:02:10.000Z</time>
      </trkpt>
      <trkpt lat="45.83339" lon="4.71638">
        <ele>328.89804</ele>
        <time>2023-07-26T15:02:11.000Z</time>
      </trkpt>
      <trkpt lat="45.83343" lon="4.71637">
        <ele>328.9201</ele>
        <time>2023-07-26T15:02:12.000Z</time>
      </trkpt>
      <trkpt lat="45.83346" lon="4.71634">
        <ele>328.96234</ele>
        <time>2023-07-26T15:02:13.000Z</time>
      </trkpt>
      <trkpt lat="45.8335" lon="4.7163">
        <ele>328.98297</ele>
        <time>2023-07-26T15:02:14.000Z</time>
      </trkpt>
      <trkpt lat="45.83352" lon="4.71626">
        <ele>328.98514</ele>
        <time>2023-07-26T15:02:15.000Z</time>
      </trkpt>
      <trkpt lat="45.83355" lon="4.71622">
        <ele>329.03729</ele>
        <time>2023-07-26T15:02:16.000Z</time>
      </trkpt>
      <trkpt lat="45.83358" lon="4.71617">
        <ele>329.08054</ele>
        <time>2023-07-26T15:02:17.000Z</time>
      </trkpt>
      <trkpt lat="45.8336" lon="4.71613">
        <ele>329.1059</ele>
        <time>2023-07-26T15:02:18.000Z</time>
      </trkpt>
      <trkpt lat="45.83362" lon="4.71607">
        <ele>329.12427</ele>
        <time>2023-07-26T15:02:19.000Z</time>
      </trkpt>
      <trkpt lat="45.83364" lon="4.71602">
        <ele>329.13254</ele>
        <time>2023-07-26T15:02:20.000Z</time>
      </trkpt>
      <trkpt lat="45.83366" lon="4.71596">
        <ele>329.16272</ele>
        <time>2023-07-26T15:02:21.000Z</time>
      </trkpt>
      <trkpt lat="45.83367" lon="4.71588">
        <ele>329.14224</ele>
        <time>2023-07-26T15:02:22.000Z</time>
      </trkpt>
      <trkpt lat="45.8337" lon="4.71582">
        <ele>329.11584</ele>
        <time>2023-07-26T15:02:23.000Z</time>
      </trkpt>
      <trkpt lat="45.83372" lon="4.71577">
        <ele>329.07257</ele>
        <time>2023-07-26T15:02:24.000Z</time>
      </trkpt>
      <trkpt lat="45.83375" lon="4.7157">
        <ele>329.10336</ele>
        <time>2023-07-26T15:02:25.000Z</time>
      </trkpt>
      <trkpt lat="45.83379" lon="4.71566">
        <ele>329.09134</ele>
        <time>2023-07-26T15:02:26.000Z</time>
      </trkpt>
      <trkpt lat="45.83383" lon="4.71563">
        <ele>329.09311</ele>
        <time>2023-07-26T15:02:27.000Z</time>
      </trkpt>
      <trkpt lat="45.83387" lon="4.71558">
        <ele>329.11829</ele>
        <time>2023-07-26T15:02:28.000Z</time>
      </trkpt>
      <trkpt lat="45.83391" lon="4.71555">
        <ele>329.13425</ele>
        <time>2023-07-26T15:02:29.000Z</time>
      </trkpt>
      <trkpt lat="45.83396" lon="4.71553">
        <ele>329.14374</ele>
        <time>2023-07-26T15:02:30.000Z</time>
      </trkpt>
      <trkpt lat="45.834" lon="4.71554">
        <ele>329.17664</ele>
        <time>2023-07-26T15:02:31.000Z</time>
      </trkpt>
      <trkpt lat="45.83405" lon="4.71558">
        <ele>329.2478</ele>
        <time>2023-07-26T15:02:32.000Z</time>
      </trkpt>
      <trkpt lat="45.8341" lon="4.71561">
        <ele>329.29376</ele>
        <time>2023-07-26T15:02:33.000Z</time>
      </trkpt>
      <trkpt lat="45.83414" lon="4.71564">
        <ele>329.34421</ele>
        <time>2023-07-26T15:02:34.000Z</time>
      </trkpt>
      <trkpt lat="45.83417" lon="4.71571">
        <ele>329.3663</ele>
        <time>2023-07-26T15:02:35.000Z</time>
      </trkpt>
      <trkpt lat="45.83421" lon="4.71574">
        <ele>329.70255</ele>
        <time>2023-07-26T15:02:36.000Z</time>
      </trkpt>
      <trkpt lat="45.83425" lon="4.71578">
        <ele>330.01392</ele>
        <time>2023-07-26T15:02:37.000Z</time>
      </trkpt>
      <trkpt lat="45.83429" lon="4.71582">
        <ele>330.33685</ele>
        <time>2023-07-26T15:02:38.000Z</time>
      </trkpt>
      <trkpt lat="45.83433" lon="4.71586">
        <ele>330.36169</ele>
        <time>2023-07-26T15:02:39.000Z</time>
      </trkpt>
      <trkpt lat="45.83437" lon="4.71589">
        <ele>330.42795</ele>
        <time>2023-07-26T15:02:40.000Z</time>
      </trkpt>
      <trkpt lat="45.83441" lon="4.7159">
        <ele>330.51251</ele>
        <time>2023-07-26T15:02:41.000Z</time>
      </trkpt>
      <trkpt lat="45.83444" lon="4.71584">
        <ele>330.65973</ele>
        <time>2023-07-26T15:02:42.000Z</time>
      </trkpt>
      <trkpt lat="45.83448" lon="4.71578">
        <ele>330.83002</ele>
        <time>2023-07-26T15:02:43.000Z</time>
      </trkpt>
      <trkpt lat="45.83448" lon="4.71573">
        <ele>331.03183</ele>
        <time>2023-07-26T15:02:44.000Z</time>
      </trkpt>
      <trkpt lat="45.83449" lon="4.71566">
        <ele>331.22433</ele>
        <time>2023-07-26T15:02:45.000Z</time>
      </trkpt>
      <trkpt lat="45.83449" lon="4.7156">
        <ele>331.52328</ele>
        <time>2023-07-26T15:02:46.000Z</time>
      </trkpt>
      <trkpt lat="45.8345" lon="4.71554">
        <ele>332.21359</ele>
        <time>2023-07-26T15:02:47.000Z</time>
      </trkpt>
      <trkpt lat="45.83451" lon="4.71547">
        <ele>332.87927</ele>
        <time>2023-07-26T15:02:48.000Z</time>
      </trkpt>
      <trkpt lat="45.83451" lon="4.71541">
        <ele>333.56363</ele>
        <time>2023-07-26T15:02:49.000Z</time>
      </trkpt>
      <trkpt lat="45.83451" lon="4.71535">
        <ele>333.76822</ele>
        <time>2023-07-26T15:02:50.000Z</time>
      </trkpt>
      <trkpt lat="45.83453" lon="4.71528">
        <ele>333.94345</ele>
        <time>2023-07-26T15:02:51.000Z</time>
      </trkpt>
      <trkpt lat="45.83453" lon="4.71523">
        <ele>334.2027</ele>
        <time>2023-07-26T15:02:52.000Z</time>
      </trkpt>
      <trkpt lat="45.83453" lon="4.71517">
        <ele>334.47183</ele>
        <time>2023-07-26T15:02:53.000Z</time>
      </trkpt>
      <trkpt lat="45.83454" lon="4.71511">
        <ele>334.74744</ele>
        <time>2023-07-26T15:02:54.000Z</time>
      </trkpt>
      <trkpt lat="45.83455" lon="4.71506">
        <ele>335.08167</ele>
        <time>2023-07-26T15:02:55.000Z</time>
      </trkpt>
      <trkpt lat="45.83456" lon="4.715">
        <ele>335.11981</ele>
        <time>2023-07-26T15:02:56.000Z</time>
      </trkpt>
      <trkpt lat="45.83457" lon="4.71496">
        <ele>335.14374</ele>
        <time>2023-07-26T15:02:57.000Z</time>
      </trkpt>
      <trkpt lat="45.83458" lon="4.71492">
        <ele>335.15622</ele>
        <time>2023-07-26T15:02:58.000Z</time>
      </trkpt>
      <trkpt lat="45.83458" lon="4.71488">
        <ele>335.47668</ele>
        <time>2023-07-26T15:02:59.000Z</time>
      </trkpt>
      <trkpt lat="45.83458" lon="4.71484">
        <ele>335.76855</ele>
        <time>2023-07-26T15:03:00.000Z</time>
      </trkpt>
      <trkpt lat="45.83453" lon="4.71484">
        <ele>336.0318</ele>
        <time>2023-07-26T15:03:01.000Z</time>
      </trkpt>
      <trkpt lat="45.83449" lon="4.7148">
        <ele>336.28558</ele>
        <time>2023-07-26T15:03:02.000Z</time>
      </trkpt>
      <trkpt lat="45.83446" lon="4.71478">
        <ele>336.53931</ele>
        <time>2023-07-26T15:03:03.000Z</time>
      </trkpt>
      <trkpt lat="45.8344" lon="4.71475">
        <ele>336.71451</ele>
        <time>2023-07-26T15:03:04.000Z</time>
      </trkpt>
      <trkpt lat="45.83437" lon="4.71472">
        <ele>336.89941</ele>
        <time>2023-07-26T15:03:05.000Z</time>
      </trkpt>
      <trkpt lat="45.83432" lon="4.7147">
        <ele>337.32611</ele>
        <time>2023-07-26T15:03:06.000Z</time>
      </trkpt>
      <trkpt lat="45.83428" lon="4.71467">
        <ele>337.37128</ele>
        <time>2023-07-26T15:03:07.000Z</time>
      </trkpt>
      <trkpt lat="45.83424" lon="4.71464">
        <ele>337.41577</ele>
        <time>2023-07-26T15:03:08.000Z</time>
      </trkpt>
      <trkpt lat="45.83419" lon="4.7146">
        <ele>337.42401</ele>
        <time>2023-07-26T15:03:09.000Z</time>
      </trkpt>
      <trkpt lat="45.83415" lon="4.71457">
        <ele>337.89783</ele>
        <time>2023-07-26T15:03:10.000Z</time>
      </trkpt>
      <trkpt lat="45.83411" lon="4.71453">
        <ele>338.38556</ele>
        <time>2023-07-26T15:03:11.000Z</time>
      </trkpt>
      <trkpt lat="45.83407" lon="4.71449">
        <ele>338.76785</ele>
        <time>2023-07-26T15:03:12.000Z</time>
      </trkpt>
      <trkpt lat="45.83404" lon="4.71444">
        <ele>339.1239</ele>
        <time>2023-07-26T15:03:13.000Z</time>
      </trkpt>
      <trkpt lat="45.834" lon="4.71438">
        <ele>339.1167</ele>
        <time>2023-07-26T15:03:14.000Z</time>
      </trkpt>
      <trkpt lat="45.83397" lon="4.71433">
        <ele>339.07452</ele>
        <time>2023-07-26T15:03:15.000Z</time>
      </trkpt>
      <trkpt lat="45.83394" lon="4.71429">
        <ele>338.99594</ele>
        <time>2023-07-26T15:03:16.000Z</time>
      </trkpt>
      <trkpt lat="45.83391" lon="4.71423">
        <ele>338.94135</ele>
        <time>2023-07-26T15:03:17.000Z</time>
      </trkpt>
      <trkpt lat="45.83388" lon="4.71418">
        <ele>338.99899</ele>
        <time>2023-07-26T15:03:18.000Z</time>
      </trkpt>
      <trkpt lat="45.83385" lon="4.71411">
        <ele>339.02838</ele>
        <time>2023-07-26T15:03:19.000Z</time>
      </trkpt>
      <trkpt lat="45.83381" lon="4.71404">
        <ele>339.06708</ele>
        <time>2023-07-26T15:03:20.000Z</time>
      </trkpt>
      <trkpt lat="45.83379" lon="4.714">
        <ele>339.11386</ele>
        <time>2023-07-26T15:03:21.000Z</time>
      </trkpt>
      <trkpt lat="45.83375" lon="4.71394">
        <ele>339.117</ele>
        <time>2023-07-26T15:03:22.000Z</time>
      </trkpt>
      <trkpt lat="45.83372" lon="4.71389">
        <ele>339.06903</ele>
        <time>2023-07-26T15:03:23.000Z</time>
      </trkpt>
      <trkpt lat="45.83369" lon="4.71382">
        <ele>339.05289</ele>
        <time>2023-07-26T15:03:24.000Z</time>
      </trkpt>
      <trkpt lat="45.83366" lon="4.71376">
        <ele>339.01337</ele>
        <time>2023-07-26T15:03:25.000Z</time>
      </trkpt>
      <trkpt lat="45.83363" lon="4.71369">
        <ele>338.67236</ele>
        <time>2023-07-26T15:03:26.000Z</time>
      </trkpt>
      <trkpt lat="45.8336" lon="4.71363">
        <ele>338.34274</ele>
        <time>2023-07-26T15:03:27.000Z</time>
      </trkpt>
      <trkpt lat="45.83356" lon="4.71358">
        <ele>338.00732</ele>
        <time>2023-07-26T15:03:28.000Z</time>
      </trkpt>
      <trkpt lat="45.83353" lon="4.71352">
        <ele>337.70807</ele>
        <time>2023-07-26T15:03:29.000Z</time>
      </trkpt>
      <trkpt lat="45.83349" lon="4.71345">
        <ele>337.39081</ele>
        <time>2023-07-26T15:03:30.000Z</time>
      </trkpt>
      <trkpt lat="45.83345" lon="4.7134">
        <ele>337.09991</ele>
        <time>2023-07-26T15:03:31.000Z</time>
      </trkpt>
      <trkpt lat="45.83341" lon="4.71334">
        <ele>336.78439</ele>
        <time>2023-07-26T15:03:32.000Z</time>
      </trkpt>
      <trkpt lat="45.83337" lon="4.71328">
        <ele>336.47668</ele>
        <time>2023-07-26T15:03:33.000Z</time>
      </trkpt>
      <trkpt lat="45.83333" lon="4.71323">
        <ele>336.5238</ele>
        <time>2023-07-26T15:03:34.000Z</time>
      </trkpt>
      <trkpt lat="45.83329" lon="4.71317">
        <ele>336.55899</ele>
        <time>2023-07-26T15:03:35.000Z</time>
      </trkpt>
      <trkpt lat="45.83325" lon="4.71311">
        <ele>336.62888</ele>
        <time>2023-07-26T15:03:36.000Z</time>
      </trkpt>
      <trkpt lat="45.8332" lon="4.71306">
        <ele>336.7869</ele>
        <time>2023-07-26T15:03:37.000Z</time>
      </trkpt>
      <trkpt lat="45.83316" lon="4.713">
        <ele>336.82404</ele>
        <time>2023-07-26T15:03:38.000Z</time>
      </trkpt>
      <trkpt lat="45.83313" lon="4.71293">
        <ele>336.86954</ele>
        <time>2023-07-26T15:03:39.000Z</time>
      </trkpt>
      <trkpt lat="45.83308" lon="4.71286">
        <ele>336.91324</ele>
        <time>2023-07-26T15:03:40.000Z</time>
      </trkpt>
      <trkpt lat="45.83306" lon="4.71278">
        <ele>337.00977</ele>
        <time>2023-07-26T15:03:41.000Z</time>
      </trkpt>
      <trkpt lat="45.83303" lon="4.71271">
        <ele>337.14557</ele>
        <time>2023-07-26T15:03:42.000Z</time>
      </trkpt>
      <trkpt lat="45.833" lon="4.71263">
        <ele>337.32745</ele>
        <time>2023-07-26T15:03:43.000Z</time>
      </trkpt>
      <trkpt lat="45.83298" lon="4.71255">
        <ele>337.5072</ele>
        <time>2023-07-26T15:03:44.000Z</time>
      </trkpt>
      <trkpt lat="45.83296" lon="4.71247">
        <ele>337.71344</ele>
        <time>2023-07-26T15:03:45.000Z</time>
      </trkpt>
      <trkpt lat="45.83294" lon="4.71239">
        <ele>337.94601</ele>
        <time>2023-07-26T15:03:46.000Z</time>
      </trkpt>
      <trkpt lat="45.83292" lon="4.71231">
        <ele>338.15414</ele>
        <time>2023-07-26T15:03:47.000Z</time>
      </trkpt>
      <trkpt lat="45.8329" lon="4.71223">
        <ele>338.36868</ele>
        <time>2023-07-26T15:03:48.000Z</time>
      </trkpt>
      <trkpt lat="45.83289" lon="4.71215">
        <ele>338.56882</ele>
        <time>2023-07-26T15:03:49.000Z</time>
      </trkpt>
      <trkpt lat="45.83289" lon="4.71206">
        <ele>338.74622</ele>
        <time>2023-07-26T15:03:50.000Z</time>
      </trkpt>
      <trkpt lat="45.83288" lon="4.71197">
        <ele>338.91745</ele>
        <time>2023-07-26T15:03:51.000Z</time>
      </trkpt>
      <trkpt lat="45.83288" lon="4.71189">
        <ele>339.10547</ele>
        <time>2023-07-26T15:03:52.000Z</time>
      </trkpt>
      <trkpt lat="45.83288" lon="4.71181">
        <ele>339.30243</ele>
        <time>2023-07-26T15:03:53.000Z</time>
      </trkpt>
      <trkpt lat="45.83287" lon="4.71174">
        <ele>339.50839</ele>
        <time>2023-07-26T15:03:54.000Z</time>
      </trkpt>
      <trkpt lat="45.83286" lon="4.71164">
        <ele>339.75281</ele>
        <time>2023-07-26T15:03:55.000Z</time>
      </trkpt>
      <trkpt lat="45.83285" lon="4.71154">
        <ele>339.96921</ele>
        <time>2023-07-26T15:03:56.000Z</time>
      </trkpt>
      <trkpt lat="45.83284" lon="4.71146">
        <ele>340.05045</ele>
        <time>2023-07-26T15:03:57.000Z</time>
      </trkpt>
      <trkpt lat="45.83283" lon="4.71138">
        <ele>340.12518</ele>
        <time>2023-07-26T15:03:58.000Z</time>
      </trkpt>
      <trkpt lat="45.83283" lon="4.7113">
        <ele>340.15723</ele>
        <time>2023-07-26T15:03:59.000Z</time>
      </trkpt>
      <trkpt lat="45.83282" lon="4.71121">
        <ele>340.34637</ele>
        <time>2023-07-26T15:04:00.000Z</time>
      </trkpt>
      <trkpt lat="45.83281" lon="4.71113">
        <ele>340.48996</ele>
        <time>2023-07-26T15:04:01.000Z</time>
      </trkpt>
      <trkpt lat="45.8328" lon="4.71104">
        <ele>340.61774</ele>
        <time>2023-07-26T15:04:02.000Z</time>
      </trkpt>
      <trkpt lat="45.8328" lon="4.71096">
        <ele>340.74701</ele>
        <time>2023-07-26T15:04:03.000Z</time>
      </trkpt>
      <trkpt lat="45.83281" lon="4.71087">
        <ele>340.93927</ele>
        <time>2023-07-26T15:04:04.000Z</time>
      </trkpt>
      <trkpt lat="45.83284" lon="4.71079">
        <ele>341.11337</ele>
        <time>2023-07-26T15:04:05.000Z</time>
      </trkpt>
      <trkpt lat="45.83286" lon="4.7107">
        <ele>341.30762</ele>
        <time>2023-07-26T15:04:06.000Z</time>
      </trkpt>
      <trkpt lat="45.83288" lon="4.71063">
        <ele>341.50964</ele>
        <time>2023-07-26T15:04:07.000Z</time>
      </trkpt>
      <trkpt lat="45.83291" lon="4.71055">
        <ele>341.72531</ele>
        <time>2023-07-26T15:04:08.000Z</time>
      </trkpt>
      <trkpt lat="45.83294" lon="4.71047">
        <ele>341.93073</ele>
        <time>2023-07-26T15:04:09.000Z</time>
      </trkpt>
      <trkpt lat="45.83296" lon="4.7104">
        <ele>342.1983</ele>
        <time>2023-07-26T15:04:10.000Z</time>
      </trkpt>
      <trkpt lat="45.83298" lon="4.71032">
        <ele>342.44226</ele>
        <time>2023-07-26T15:04:11.000Z</time>
      </trkpt>
      <trkpt lat="45.833" lon="4.71025">
        <ele>342.70374</ele>
        <time>2023-07-26T15:04:12.000Z</time>
      </trkpt>
      <trkpt lat="45.83302" lon="4.71017">
        <ele>342.99146</ele>
        <time>2023-07-26T15:04:13.000Z</time>
      </trkpt>
      <trkpt lat="45.83304" lon="4.71009">
        <ele>343.24817</ele>
        <time>2023-07-26T15:04:14.000Z</time>
      </trkpt>
      <trkpt lat="45.83305" lon="4.71003">
        <ele>343.47861</ele>
        <time>2023-07-26T15:04:15.000Z</time>
      </trkpt>
      <trkpt lat="45.83307" lon="4.70997">
        <ele>343.70172</ele>
        <time>2023-07-26T15:04:16.000Z</time>
      </trkpt>
      <trkpt lat="45.83309" lon="4.70991">
        <ele>343.98447</ele>
        <time>2023-07-26T15:04:17.000Z</time>
      </trkpt>
      <trkpt lat="45.83311" lon="4.70986">
        <ele>344.30084</ele>
        <time>2023-07-26T15:04:18.000Z</time>
      </trkpt>
      <trkpt lat="45.83312" lon="4.70981">
        <ele>344.66678</ele>
        <time>2023-07-26T15:04:19.000Z</time>
      </trkpt>
      <trkpt lat="45.83313" lon="4.70976">
        <ele>344.88715</ele>
        <time>2023-07-26T15:04:20.000Z</time>
      </trkpt>
      <trkpt lat="45.83314" lon="4.70972">
        <ele>345.12167</ele>
        <time>2023-07-26T15:04:21.000Z</time>
      </trkpt>
      <trkpt lat="45.83314" lon="4.70968">
        <ele>345.34305</ele>
        <time>2023-07-26T15:04:22.000Z</time>
      </trkpt>
      <trkpt lat="45.83315" lon="4.70963">
        <ele>345.52576</ele>
        <time>2023-07-26T15:04:24.000Z</time>
      </trkpt>
    </trkseg>
  </trk>
</gpx>